Wetterdaten: Samstag, 30.12.2017
Datum Zeit Temp. A. Temp. A. max Feuchte A. Luftdruck Regen Wind Richtung Richtung Sonnenschein ET UV Solar Taupunkt Windchill Windböen
30.12.2017 00:00 1,3 °C 1,3 °C 90 % 1010,7 hPa 0,0 mm 17,4 km/h (3 Bft) W 271 ° 0 min 0,000 mm 0,0 UV-I 0 W/m² -0,2 °C -3,2 °C 32,2 km/h (5 Bft)
30.12.2017 00:01 1,3 °C 1,3 °C 90 % 1010,8 hPa 0,0 mm 22,0 km/h (4 Bft) W-NW 284 ° 0 min 0,000 mm 0,0 UV-I 0 W/m² -0,2 °C -3,9 °C 30,6 km/h (5 Bft)
30.12.2017 00:02 1,3 °C 1,3 °C 90 % 1010,8 hPa 0,0 mm 15,7 km/h (3 Bft) NW 323 ° 0 min 0,000 mm 0,0 UV-I 0 W/m² -0,2 °C -2,9 °C 20,9 km/h (4 Bft)
30.12.2017 00:03 1,3 °C 1,3 °C 90 % 1010,8 hPa 0,0 mm 21,2 km/h (4 Bft) SW 235 ° 0 min 0,000 mm 0,0 UV-I 0 W/m² -0,2 °C -3,8 °C 33,8 km/h (5 Bft)
30.12.2017 00:04 1,3 °C 1,3 °C 90 % 1010,8 hPa 0,0 mm 30,1 km/h (5 Bft) W-NW 284 ° 0 min 0,000 mm 0,0 UV-I 0 W/m² -0,2 °C -4,8 °C 40,2 km/h (6 Bft)
30.12.2017 00:05 1,3 °C 1,3 °C 90 % 1010,9 hPa 0,0 mm 27,6 km/h (4 Bft) SW 227 ° 0 min 0,000 mm 0,0 UV-I 0 W/m² -0,2 °C -4,5 °C 37,0 km/h (5 Bft)
30.12.2017 00:06 1,3 °C 1,3 °C 90 % 1011,0 hPa 0,0 mm 26,4 km/h (4 Bft) W 273 ° 0 min 0,000 mm 0,0 UV-I 0 W/m² -0,2 °C -4,4 °C 41,8 km/h (6 Bft)
30.12.2017 00:07 1,3 °C 1,3 °C 90 % 1011,1 hPa 0,0 mm 28,3 km/h (4 Bft) W-SW 250 ° 0 min 0,000 mm 0,0 UV-I 0 W/m² -0,2 °C -4,6 °C 37,0 km/h (5 Bft)
30.12.2017 00:08 1,3 °C 1,3 °C 90 % 1010,8 hPa 0,0 mm 21,3 km/h (4 Bft) NW 306 ° 0 min 0,000 mm 0,0 UV-I 0 W/m² -0,2 °C -3,8 °C 33,8 km/h (5 Bft)
30.12.2017 00:09 1,3 °C 1,3 °C 90 % 1010,8 hPa 0,0 mm 22,3 km/h (4 Bft) W-SW 238 ° 0 min 0,000 mm 0,0 UV-I 0 W/m² -0,2 °C -3,9 °C 40,2 km/h (6 Bft)
30.12.2017 00:10 1,3 °C 1,3 °C 89 % 1011,1 hPa 0,0 mm 20,3 km/h (4 Bft) W-SW 253 ° 0 min 0,000 mm 0,0 UV-I 0 W/m² -0,3 °C -3,6 °C 40,2 km/h (6 Bft)
30.12.2017 00:11 1,3 °C 1,3 °C 89 % 1011,1 hPa 0,0 mm 29,7 km/h (5 Bft) W-SW 250 ° 0 min 0,000 mm 0,0 UV-I 0 W/m² -0,3 °C -4,7 °C 40,2 km/h (6 Bft)
30.12.2017 00:12 1,3 °C 1,3 °C 89 % 1011,0 hPa 0,0 mm 20,9 km/h (4 Bft) W 280 ° 0 min 0,000 mm 0,0 UV-I 0 W/m² -0,3 °C -3,7 °C 29,0 km/h (5 Bft)
30.12.2017 00:13 1,3 °C 1,3 °C 89 % 1011,1 hPa 0,0 mm 15,9 km/h (3 Bft) W 271 ° 0 min 0,000 mm 0,0 UV-I 0 W/m² -0,3 °C -3,0 °C 24,1 km/h (4 Bft)
30.12.2017 00:14 1,3 °C 1,3 °C 89 % 1011,2 hPa 0,0 mm 19,6 km/h (3 Bft) W-SW 256 ° 0 min 0,000 mm 0,0 UV-I 0 W/m² -0,3 °C -3,5 °C 29,0 km/h (5 Bft)
30.12.2017 00:15 1,3 °C 1,4 °C 88 % 1011,2 hPa 0,0 mm 30,5 km/h (5 Bft) W-SW 250 ° 0 min 0,000 mm 0,0 UV-I 0 W/m² -0,5 °C -4,8 °C 43,5 km/h (6 Bft)
30.12.2017 00:16 1,4 °C 1,4 °C 88 % 1011,3 hPa 0,0 mm 28,9 km/h (5 Bft) W 260 ° 0 min 0,000 mm 0,0 UV-I 0 W/m² -0,4 °C -4,5 °C 38,6 km/h (5 Bft)
30.12.2017 00:17 1,4 °C 1,4 °C 87 % 1011,2 hPa 0,0 mm 24,9 km/h (4 Bft) W 266 ° 0 min 0,000 mm 0,0 UV-I 0 W/m² -0,5 °C -4,1 °C 40,2 km/h (6 Bft)
30.12.2017 00:18 1,4 °C 1,4 °C 87 % 1011,2 hPa 0,0 mm 19,6 km/h (3 Bft) W-SW 254 ° 0 min 0,000 mm 0,0 UV-I 0 W/m² -0,5 °C -3,4 °C 30,6 km/h (5 Bft)
30.12.2017 00:19 1,4 °C 1,4 °C 87 % 1011,2 hPa 0,0 mm 18,7 km/h (3 Bft) W 259 ° 0 min 0,000 mm 0,0 UV-I 0 W/m² -0,5 °C -3,3 °C 27,4 km/h (4 Bft)
30.12.2017 00:20 1,4 °C 1,4 °C 87 % 1011,2 hPa 0,0 mm 14,7 km/h (3 Bft) W 267 ° 0 min 0,000 mm 0,0 UV-I 0 W/m² -0,5 °C -2,6 °C 19,3 km/h (3 Bft)
30.12.2017 00:21 1,4 °C 1,5 °C 87 % 1011,4 hPa 0,0 mm 20,6 km/h (4 Bft) W 265 ° 0 min 0,000 mm 0,0 UV-I 0 W/m² -0,5 °C -3,6 °C 33,8 km/h (5 Bft)
30.12.2017 00:22 1,5 °C 1,5 °C 87 % 1011,4 hPa 0,0 mm 23,2 km/h (4 Bft) NW 306 ° 0 min 0,000 mm 0,0 UV-I 0 W/m² -0,4 °C -3,8 °C 30,6 km/h (5 Bft)
30.12.2017 00:23 1,5 °C 1,5 °C 86 % 1011,3 hPa 0,0 mm 24,1 km/h (4 Bft) W 270 ° 0 min 0,000 mm 0,0 UV-I 0 W/m² -0,6 °C -3,9 °C 30,6 km/h (5 Bft)
30.12.2017 00:24 1,5 °C 1,5 °C 85 % 1011,4 hPa 0,0 mm 15,8 km/h (3 Bft) W-NW 285 ° 0 min 0,000 mm 0,0 UV-I 0 W/m² -0,7 °C -2,7 °C 19,3 km/h (3 Bft)
30.12.2017 00:25 1,5 °C 1,5 °C 86 % 1011,4 hPa 0,0 mm 26,3 km/h (4 Bft) W 262 ° 0 min 0,000 mm 0,0 UV-I 0 W/m² -0,6 °C -4,1 °C 37,0 km/h (5 Bft)
30.12.2017 00:26 1,5 °C 1,5 °C 85 % 1011,4 hPa 0,0 mm 22,6 km/h (4 Bft) W-SW 245 ° 0 min 0,000 mm 0,0 UV-I 0 W/m² -0,7 °C -3,7 °C 33,8 km/h (5 Bft)
30.12.2017 00:27 1,5 °C 1,5 °C 85 % 1011,3 hPa 0,0 mm 21,2 km/h (4 Bft) W-SW 258 ° 0 min 0,000 mm 0,0 UV-I 0 W/m² -0,7 °C -3,5 °C 29,0 km/h (5 Bft)
30.12.2017 00:28 1,6 °C 1,6 °C 85 % 1011,4 hPa 0,0 mm 27,5 km/h (4 Bft) W 267 ° 0 min 0,000 mm 0,0 UV-I 0 W/m² -0,6 °C -4,1 °C 43,5 km/h (6 Bft)
30.12.2017 00:29 1,5 °C 1,6 °C 84 % 1011,4 hPa 0,0 mm 22,8 km/h (4 Bft) W-SW 245 ° 0 min 0,000 mm 0,0 UV-I 0 W/m² -0,9 °C -3,7 °C 30,6 km/h (5 Bft)
30.12.2017 00:30 1,5 °C 1,6 °C 85 % 1011,4 hPa 0,0 mm 17,8 km/h (3 Bft) W-SW 257 ° 0 min 0,000 mm 0,0 UV-I 0 W/m² -0,7 °C -3,0 °C 22,5 km/h (4 Bft)
30.12.2017 00:31 1,5 °C 1,6 °C 84 % 1011,4 hPa 0,0 mm 16,4 km/h (3 Bft) W 261 ° 0 min 0,000 mm 0,0 UV-I 0 W/m² -0,9 °C -2,8 °C 27,4 km/h (4 Bft)
30.12.2017 00:32 1,6 °C 1,6 °C 84 % 1011,3 hPa 0,0 mm 14,4 km/h (3 Bft) W 273 ° 0 min 0,000 mm 0,0 UV-I 0 W/m² -0,8 °C -2,3 °C 19,3 km/h (3 Bft)
30.12.2017 00:33 1,6 °C 1,6 °C 84 % 1011,4 hPa 0,0 mm 19,8 km/h (3 Bft) W 269 ° 0 min 0,000 mm 0,0 UV-I 0 W/m² -0,8 °C -3,2 °C 37,0 km/h (5 Bft)
30.12.2017 00:34 1,6 °C 1,6 °C 84 % 1011,4 hPa 0,0 mm 19,4 km/h (3 Bft) SW 236 ° 0 min 0,000 mm 0,0 UV-I 0 W/m² -0,8 °C -3,1 °C 30,6 km/h (5 Bft)
30.12.2017 00:35 1,6 °C 1,6 °C 84 % 1011,4 hPa 0,0 mm 27,1 km/h (4 Bft) W-NW 288 ° 0 min 0,000 mm 0,0 UV-I 0 W/m² -0,8 °C -4,1 °C 40,2 km/h (6 Bft)
30.12.2017 00:36 1,6 °C 1,6 °C 83 % 1011,4 hPa 0,0 mm 24,7 km/h (4 Bft) W 272 ° 0 min 0,000 mm 0,0 UV-I 0 W/m² -1,0 °C -3,8 °C 37,0 km/h (5 Bft)
30.12.2017 00:37 1,6 °C 1,6 °C 83 % 1011,4 hPa 0,0 mm 26,2 km/h (4 Bft) W 281 ° 0 min 0,000 mm 0,0 UV-I 0 W/m² -1,0 °C -4,0 °C 33,8 km/h (5 Bft)
30.12.2017 00:38 1,6 °C 1,6 °C 83 % 1011,4 hPa 0,0 mm 19,5 km/h (3 Bft) SW 230 ° 0 min 0,000 mm 0,0 UV-I 0 W/m² -1,0 °C -3,2 °C 30,6 km/h (5 Bft)
30.12.2017 00:39 1,6 °C 1,6 °C 83 % 1011,4 hPa 0,0 mm 19,5 km/h (3 Bft) W 265 ° 0 min 0,000 mm 0,0 UV-I 0 W/m² -1,0 °C -3,2 °C 30,6 km/h (5 Bft)
30.12.2017 00:40 1,6 °C 1,6 °C 83 % 1011,4 hPa 0,0 mm 23,8 km/h (4 Bft) W 263 ° 0 min 0,000 mm 0,0 UV-I 0 W/m² -1,0 °C -3,7 °C 32,2 km/h (5 Bft)
30.12.2017 00:41 1,6 °C 1,6 °C 83 % 1011,4 hPa 0,0 mm 21,7 km/h (4 Bft) W-SW 247 ° 0 min 0,000 mm 0,0 UV-I 0 W/m² -1,0 °C -3,5 °C 30,6 km/h (5 Bft)
30.12.2017 00:42 1,6 °C 1,6 °C 83 % 1011,5 hPa 0,0 mm 18,0 km/h (3 Bft) S-SW 212 ° 0 min 0,000 mm 0,0 UV-I 0 W/m² -1,0 °C -2,9 °C 35,4 km/h (5 Bft)
30.12.2017 00:43 1,6 °C 1,6 °C 83 % 1011,5 hPa 0,0 mm 28,8 km/h (4 Bft) W-SW 256 ° 0 min 0,000 mm 0,0 UV-I 0 W/m² -1,0 °C -4,3 °C 40,2 km/h (6 Bft)
30.12.2017 00:44 1,6 °C 1,6 °C 83 % 1011,5 hPa 0,0 mm 23,7 km/h (4 Bft) W-NW 291 ° 0 min 0,000 mm 0,0 UV-I 0 W/m² -1,0 °C -3,7 °C 37,0 km/h (5 Bft)
30.12.2017 00:45 1,6 °C 1,6 °C 83 % 1011,5 hPa 0,0 mm 27,2 km/h (4 Bft) W-NW 282 ° 0 min 0,000 mm 0,0 UV-I 0 W/m² -1,0 °C -4,1 °C 45,1 km/h (6 Bft)
30.12.2017 00:46 1,6 °C 1,6 °C 83 % 1011,5 hPa 0,0 mm 21,9 km/h (4 Bft) W-SW 258 ° 0 min 0,000 mm 0,0 UV-I 0 W/m² -1,0 °C -3,5 °C 35,4 km/h (5 Bft)
30.12.2017 00:47 1,6 °C 1,6 °C 83 % 1011,4 hPa 0,0 mm 19,4 km/h (3 Bft) W 261 ° 0 min 0,000 mm 0,0 UV-I 0 W/m² -1,0 °C -3,1 °C 25,7 km/h (4 Bft)
30.12.2017 00:48 1,6 °C 1,6 °C 83 % 1011,4 hPa 0,0 mm 19,9 km/h (4 Bft) W 275 ° 0 min 0,000 mm 0,0 UV-I 0 W/m² -1,0 °C -3,2 °C 33,8 km/h (5 Bft)
30.12.2017 00:49 1,6 °C 1,6 °C 83 % 1011,6 hPa 0,0 mm 23,0 km/h (4 Bft) W-SW 256 ° 0 min 0,000 mm 0,0 UV-I 0 W/m² -1,0 °C -3,6 °C 38,6 km/h (5 Bft)
30.12.2017 00:50 1,6 °C 1,6 °C 83 % 1011,5 hPa 0,0 mm 26,1 km/h (4 Bft) W-NW 286 ° 0 min 0,000 mm 0,0 UV-I 0 W/m² -1,0 °C -4,0 °C 43,5 km/h (6 Bft)
30.12.2017 00:51 1,6 °C 1,6 °C 83 % 1011,5 hPa 0,0 mm 25,8 km/h (4 Bft) W-NW 284 ° 0 min 0,000 mm 0,0 UV-I 0 W/m² -1,0 °C -3,9 °C 40,2 km/h (6 Bft)
30.12.2017 00:52 1,6 °C 1,6 °C 83 % 1011,5 hPa 0,0 mm 22,2 km/h (4 Bft) W-NW 290 ° 0 min 0,000 mm 0,0 UV-I 0 W/m² -1,0 °C -3,5 °C 32,2 km/h (5 Bft)
30.12.2017 00:53 1,6 °C 1,6 °C 83 % 1011,5 hPa 0,0 mm 23,3 km/h (4 Bft) SW 236 ° 0 min 0,000 mm 0,0 UV-I 0 W/m² -1,0 °C -3,7 °C 32,2 km/h (5 Bft)
30.12.2017 00:54 1,5 °C 1,6 °C 83 % 1011,5 hPa 0,0 mm 18,8 km/h (3 Bft) W-SW 238 ° 0 min 0,000 mm 0,0 UV-I 0 W/m² -1,1 °C -3,2 °C 33,8 km/h (5 Bft)
30.12.2017 00:55 1,5 °C 1,6 °C 83 % 1011,5 hPa 0,0 mm 22,4 km/h (4 Bft) W 281 ° 0 min 0,000 mm 0,0 UV-I 0 W/m² -1,1 °C -3,7 °C 46,7 km/h (6 Bft)
30.12.2017 00:56 1,5 °C 1,6 °C 83 % 1011,4 hPa 0,0 mm 22,7 km/h (4 Bft) W-SW 257 ° 0 min 0,000 mm 0,0 UV-I 0 W/m² -1,1 °C -3,7 °C 37,0 km/h (5 Bft)
30.12.2017 00:57 1,5 °C 1,5 °C 83 % 1011,5 hPa 0,0 mm 18,6 km/h (3 Bft) W 265 ° 0 min 0,000 mm 0,0 UV-I 0 W/m² -1,1 °C -3,1 °C 22,5 km/h (4 Bft)
30.12.2017 00:58 1,5 °C 1,5 °C 83 % 1011,5 hPa 0,0 mm 18,6 km/h (3 Bft) W 263 ° 0 min 0,000 mm 0,0 UV-I 0 W/m² -1,1 °C -3,1 °C 29,0 km/h (5 Bft)
30.12.2017 00:59 1,5 °C 1,5 °C 83 % 1011,4 hPa 0,0 mm 19,5 km/h (3 Bft) W-SW 255 ° 0 min 0,000 mm 0,0 UV-I 0 W/m² -1,1 °C -3,3 °C 27,4 km/h (4 Bft)
30.12.2017 01:00 1,5 °C 1,5 °C 83 % 1011,6 hPa 0,0 mm 19,0 km/h (3 Bft) NW 304 ° 0 min 0,025 mm 0,0 UV-I 0 W/m² -1,1 °C -3,2 °C 27,4 km/h (4 Bft)
30.12.2017 01:01 1,5 °C 1,5 °C 83 % 1011,5 hPa 0,0 mm 16,8 km/h (3 Bft) SW 215 ° 0 min 0,000 mm 0,0 UV-I 0 W/m² -1,1 °C -2,9 °C 29,0 km/h (5 Bft)
30.12.2017 01:02 1,4 °C 1,5 °C 83 % 1011,5 hPa 0,0 mm 23,6 km/h (4 Bft) W 271 ° 0 min 0,000 mm 0,0 UV-I 0 W/m² -1,2 °C -3,9 °C 32,2 km/h (5 Bft)
30.12.2017 01:03 1,5 °C 1,5 °C 83 % 1011,5 hPa 0,0 mm 13,2 km/h (3 Bft) W-SW 258 ° 0 min 0,000 mm 0,0 UV-I 0 W/m² -1,1 °C -2,2 °C 16,1 km/h (3 Bft)
30.12.2017 01:04 1,5 °C 1,5 °C 83 % 1011,5 hPa 0,0 mm 18,3 km/h (3 Bft) W 281 ° 0 min 0,000 mm 0,0 UV-I 0 W/m² -1,1 °C -3,1 °C 24,1 km/h (4 Bft)
30.12.2017 01:05 1,4 °C 1,5 °C 83 % 1011,5 hPa 0,0 mm 20,4 km/h (4 Bft) W-SW 254 ° 0 min 0,000 mm 0,0 UV-I 0 W/m² -1,2 °C -3,5 °C 29,0 km/h (5 Bft)
30.12.2017 01:06 1,4 °C 1,4 °C 83 % 1011,6 hPa 0,0 mm 20,9 km/h (4 Bft) W 263 ° 0 min 0,000 mm 0,0 UV-I 0 W/m² -1,2 °C -3,6 °C 33,8 km/h (5 Bft)
30.12.2017 01:07 1,4 °C 1,4 °C 83 % 1011,4 hPa 0,0 mm 15,5 km/h (3 Bft) W-SW 258 ° 0 min 0,000 mm 0,0 UV-I 0 W/m² -1,2 °C -2,8 °C 19,3 km/h (3 Bft)
30.12.2017 01:08 1,4 °C 1,4 °C 83 % 1011,4 hPa 0,0 mm 18,0 km/h (3 Bft) W-NW 286 ° 0 min 0,000 mm 0,0 UV-I 0 W/m² -1,2 °C -3,2 °C 25,7 km/h (4 Bft)
30.12.2017 01:09 1,4 °C 1,4 °C 82 % 1011,5 hPa 0,0 mm 23,9 km/h (4 Bft) W 261 ° 0 min 0,000 mm 0,0 UV-I 0 W/m² -1,3 °C -4,0 °C 37,0 km/h (5 Bft)
30.12.2017 01:10 1,4 °C 1,4 °C 82 % 1011,5 hPa 0,0 mm 19,2 km/h (3 Bft) W 270 ° 0 min 0,000 mm 0,0 UV-I 0 W/m² -1,3 °C -3,4 °C 29,0 km/h (5 Bft)
30.12.2017 01:11 1,4 °C 1,4 °C 82 % 1011,6 hPa 0,0 mm 21,0 km/h (4 Bft) SW 215 ° 0 min 0,000 mm 0,0 UV-I 0 W/m² -1,3 °C -3,6 °C 40,2 km/h (6 Bft)
30.12.2017 01:12 1,4 °C 1,4 °C 81 % 1011,5 hPa 0,0 mm 18,8 km/h (3 Bft) W 273 ° 0 min 0,000 mm 0,0 UV-I 0 W/m² -1,5 °C -3,3 °C 30,6 km/h (5 Bft)
30.12.2017 01:13 1,4 °C 1,4 °C 81 % 1011,5 hPa 0,0 mm 19,9 km/h (4 Bft) W-SW 245 ° 0 min 0,000 mm 0,0 UV-I 0 W/m² -1,5 °C -3,5 °C 30,6 km/h (5 Bft)
30.12.2017 01:14 1,4 °C 1,4 °C 81 % 1011,5 hPa 0,0 mm 24,5 km/h (4 Bft) W 273 ° 0 min 0,000 mm 0,0 UV-I 0 W/m² -1,5 °C -4,1 °C 46,7 km/h (6 Bft)
30.12.2017 01:15 1,4 °C 1,4 °C 80 % 1011,5 hPa 0,0 mm 26,5 km/h (4 Bft) W-SW 254 ° 0 min 0,000 mm 0,0 UV-I 0 W/m² -1,7 °C -4,3 °C 33,8 km/h (5 Bft)
30.12.2017 01:16 1,4 °C 1,4 °C 81 % 1011,6 hPa 0,0 mm 23,2 km/h (4 Bft) W 263 ° 0 min 0,000 mm 0,0 UV-I 0 W/m² -1,5 °C -3,9 °C 41,8 km/h (6 Bft)
30.12.2017 01:17 1,4 °C 1,4 °C 80 % 1011,7 hPa 0,0 mm 24,8 km/h (4 Bft) W-SW 252 ° 0 min 0,000 mm 0,0 UV-I 0 W/m² -1,7 °C -4,1 °C 38,6 km/h (5 Bft)
30.12.2017 01:18 1,4 °C 1,4 °C 80 % 1011,6 hPa 0,0 mm 17,3 km/h (3 Bft) W-SW 247 ° 0 min 0,000 mm 0,0 UV-I 0 W/m² -1,7 °C -3,1 °C 25,7 km/h (4 Bft)
30.12.2017 01:19 1,4 °C 1,4 °C 81 % 1011,6 hPa 0,0 mm 20,7 km/h (4 Bft) W 264 ° 0 min 0,000 mm 0,0 UV-I 0 W/m² -1,5 °C -3,6 °C 27,4 km/h (4 Bft)
30.12.2017 01:20 1,4 °C 1,4 °C 80 % 1011,5 hPa 0,0 mm 17,8 km/h (3 Bft) W 262 ° 0 min 0,000 mm 0,0 UV-I 0 W/m² -1,7 °C -3,2 °C 29,0 km/h (5 Bft)
30.12.2017 01:21 1,4 °C 1,4 °C 81 % 1011,6 hPa 0,0 mm 23,3 km/h (4 Bft) W 266 ° 0 min 0,000 mm 0,0 UV-I 0 W/m² -1,5 °C -3,9 °C 32,2 km/h (5 Bft)
30.12.2017 01:22 1,4 °C 1,4 °C 81 % 1011,6 hPa 0,0 mm 19,5 km/h (3 Bft) W-NW 296 ° 0 min 0,000 mm 0,0 UV-I 0 W/m² -1,5 °C -3,4 °C 24,1 km/h (4 Bft)
30.12.2017 01:23 1,4 °C 1,4 °C 81 % 1011,7 hPa 0,0 mm 17,1 km/h (3 Bft) W-SW 251 ° 0 min 0,000 mm 0,0 UV-I 0 W/m² -1,5 °C -3,0 °C 24,1 km/h (4 Bft)
30.12.2017 01:24 1,4 °C 1,4 °C 81 % 1011,7 hPa 0,0 mm 16,5 km/h (3 Bft) W 261 ° 0 min 0,000 mm 0,0 UV-I 0 W/m² -1,5 °C -2,9 °C 27,4 km/h (4 Bft)
30.12.2017 01:25 1,4 °C 1,4 °C 80 % 1011,6 hPa 0,0 mm 19,1 km/h (3 Bft) NW 307 ° 0 min 0,000 mm 0,0 UV-I 0 W/m² -1,7 °C -3,3 °C 29,0 km/h (5 Bft)
30.12.2017 01:26 1,4 °C 1,4 °C 80 % 1011,7 hPa 0,0 mm 16,1 km/h (3 Bft) W 261 ° 0 min 0,000 mm 0,0 UV-I 0 W/m² -1,7 °C -2,9 °C 24,1 km/h (4 Bft)
30.12.2017 01:27 1,4 °C 1,4 °C 80 % 1011,7 hPa 0,0 mm 20,0 km/h (4 Bft) W-SW 244 ° 0 min 0,000 mm 0,0 UV-I 0 W/m² -1,7 °C -3,5 °C 29,0 km/h (5 Bft)
30.12.2017 01:28 1,3 °C 1,4 °C 80 % 1011,7 hPa 0,0 mm 20,7 km/h (4 Bft) W-SW 247 ° 0 min 0,000 mm 0,0 UV-I 0 W/m² -1,8 °C -3,7 °C 29,0 km/h (5 Bft)
30.12.2017 01:29 1,3 °C 1,4 °C 80 % 1011,8 hPa 0,0 mm 18,6 km/h (3 Bft) W-SW 246 ° 0 min 0,000 mm 0,0 UV-I 0 W/m² -1,8 °C -3,4 °C 27,4 km/h (4 Bft)
30.12.2017 01:30 1,3 °C 1,4 °C 80 % 1011,8 hPa 0,0 mm 20,1 km/h (4 Bft) W 274 ° 0 min 0,000 mm 0,0 UV-I 0 W/m² -1,8 °C -3,6 °C 25,7 km/h (4 Bft)
30.12.2017 01:31 1,3 °C 1,4 °C 80 % 1011,8 hPa 0,0 mm 21,2 km/h (4 Bft) W 261 ° 0 min 0,000 mm 0,0 UV-I 0 W/m² -1,8 °C -3,8 °C 27,4 km/h (4 Bft)
30.12.2017 01:32 1,3 °C 1,3 °C 80 % 1011,8 hPa 0,0 mm 21,5 km/h (4 Bft) W-SW 252 ° 0 min 0,000 mm 0,0 UV-I 0 W/m² -1,8 °C -3,8 °C 32,2 km/h (5 Bft)
30.12.2017 01:33 1,3 °C 1,3 °C 80 % 1011,9 hPa 0,0 mm 21,1 km/h (4 Bft) SW 233 ° 0 min 0,000 mm 0,0 UV-I 0 W/m² -1,8 °C -3,8 °C 32,2 km/h (5 Bft)
30.12.2017 01:34 1,3 °C 1,3 °C 80 % 1011,8 hPa 0,0 mm 20,0 km/h (4 Bft) W 263 ° 0 min 0,000 mm 0,0 UV-I 0 W/m² -1,8 °C -3,6 °C 32,2 km/h (5 Bft)
30.12.2017 01:35 1,3 °C 1,3 °C 79 % 1011,7 hPa 0,0 mm 19,6 km/h (3 Bft) W-NW 293 ° 0 min 0,000 mm 0,0 UV-I 0 W/m² -1,9 °C -3,5 °C 27,4 km/h (4 Bft)
30.12.2017 01:36 1,3 °C 1,3 °C 79 % 1011,7 hPa 0,0 mm 19,6 km/h (3 Bft) W 275 ° 0 min 0,000 mm 0,0 UV-I 0 W/m² -1,9 °C -3,5 °C 41,8 km/h (6 Bft)
30.12.2017 01:37 1,3 °C 1,3 °C 79 % 1011,7 hPa 0,0 mm 24,1 km/h (4 Bft) W 267 ° 0 min 0,000 mm 0,0 UV-I 0 W/m² -1,9 °C -4,1 °C 33,8 km/h (5 Bft)
30.12.2017 01:38 1,4 °C 1,4 °C 79 % 1011,8 hPa 0,0 mm 19,1 km/h (3 Bft) W-NW 286 ° 0 min 0,000 mm 0,0 UV-I 0 W/m² -1,8 °C -3,3 °C 22,5 km/h (4 Bft)
30.12.2017 01:39 1,3 °C 1,4 °C 79 % 1011,8 hPa 0,0 mm 23,6 km/h (4 Bft) W 261 ° 0 min 0,000 mm 0,0 UV-I 0 W/m² -1,9 °C -4,1 °C 32,2 km/h (5 Bft)
30.12.2017 01:40 1,3 °C 1,4 °C 79 % 1012,0 hPa 0,0 mm 17,2 km/h (3 Bft) SW 235 ° 0 min 0,000 mm 0,0 UV-I 0 W/m² -1,9 °C -3,2 °C 22,5 km/h (4 Bft)
30.12.2017 01:41 1,3 °C 1,4 °C 79 % 1012,0 hPa 0,0 mm 20,3 km/h (4 Bft) W 267 ° 0 min 0,000 mm 0,0 UV-I 0 W/m² -1,9 °C -3,6 °C 27,4 km/h (4 Bft)
30.12.2017 01:42 1,4 °C 1,4 °C 79 % 1011,9 hPa 0,0 mm 17,3 km/h (3 Bft) W 267 ° 0 min 0,000 mm 0,0 UV-I 0 W/m² -1,8 °C -3,1 °C 25,7 km/h (4 Bft)
30.12.2017 01:43 1,4 °C 1,4 °C 79 % 1011,9 hPa 0,0 mm 22,8 km/h (4 Bft) W 278 ° 0 min 0,000 mm 0,0 UV-I 0 W/m² -1,8 °C -3,8 °C 37,0 km/h (5 Bft)
30.12.2017 01:44 1,4 °C 1,4 °C 79 % 1011,9 hPa 0,0 mm 15,4 km/h (3 Bft) W 275 ° 0 min 0,000 mm 0,0 UV-I 0 W/m² -1,8 °C -2,8 °C 24,1 km/h (4 Bft)
30.12.2017 01:45 1,4 °C 1,4 °C 79 % 1011,9 hPa 0,0 mm 16,5 km/h (3 Bft) W-SW 256 ° 0 min 0,000 mm 0,0 UV-I 0 W/m² -1,8 °C -2,9 °C 27,4 km/h (4 Bft)
30.12.2017 01:46 1,3 °C 1,4 °C 79 % 1011,9 hPa 0,0 mm 15,0 km/h (3 Bft) W 261 ° 0 min 0,000 mm 0,0 UV-I 0 W/m² -1,9 °C -2,8 °C 19,3 km/h (3 Bft)
30.12.2017 01:47 1,3 °C 1,4 °C 79 % 1012,0 hPa 0,0 mm 16,6 km/h (3 Bft) W 262 ° 0 min 0,000 mm 0,0 UV-I 0 W/m² -1,9 °C -3,1 °C 22,5 km/h (4 Bft)
30.12.2017 01:48 1,3 °C 1,3 °C 79 % 1012,0 hPa 0,0 mm 17,5 km/h (3 Bft) W 273 ° 0 min 0,000 mm 0,0 UV-I 0 W/m² -1,9 °C -3,2 °C 24,1 km/h (4 Bft)
30.12.2017 01:49 1,3 °C 1,3 °C 79 % 1012,0 hPa 0,0 mm 12,7 km/h (3 Bft) W 263 ° 0 min 0,000 mm 0,0 UV-I 0 W/m² -1,9 °C -2,4 °C 20,9 km/h (4 Bft)
30.12.2017 01:50 1,3 °C 1,3 °C 79 % 1012,0 hPa 0,0 mm 13,6 km/h (3 Bft) W 263 ° 0 min 0,000 mm 0,0 UV-I 0 W/m² -1,9 °C -2,6 °C 19,3 km/h (3 Bft)
30.12.2017 01:51 1,3 °C 1,3 °C 79 % 1012,1 hPa 0,0 mm 15,1 km/h (3 Bft) W 265 ° 0 min 0,000 mm 0,0 UV-I 0 W/m² -1,9 °C -2,8 °C 25,7 km/h (4 Bft)
30.12.2017 01:52 1,3 °C 1,3 °C 79 % 1012,1 hPa 0,0 mm 14,4 km/h (3 Bft) W-SW 254 ° 0 min 0,000 mm 0,0 UV-I 0 W/m² -1,9 °C -2,7 °C 19,3 km/h (3 Bft)
30.12.2017 01:53 1,3 °C 1,3 °C 79 % 1012,2 hPa 0,0 mm 13,9 km/h (3 Bft) W-NW 282 ° 0 min 0,000 mm 0,0 UV-I 0 W/m² -1,9 °C -2,6 °C 22,5 km/h (4 Bft)
30.12.2017 01:54 1,3 °C 1,3 °C 79 % 1012,2 hPa 0,0 mm 16,2 km/h (3 Bft) W 266 ° 0 min 0,000 mm 0,0 UV-I 0 W/m² -1,9 °C -3,0 °C 24,1 km/h (4 Bft)
30.12.2017 01:55 1,3 °C 1,3 °C 79 % 1012,2 hPa 0,0 mm 19,9 km/h (4 Bft) W 271 ° 0 min 0,000 mm 0,0 UV-I 0 W/m² -1,9 °C -3,6 °C 25,7 km/h (4 Bft)
30.12.2017 01:56 1,3 °C 1,3 °C 79 % 1012,2 hPa 0,0 mm 17,6 km/h (3 Bft) W-SW 253 ° 0 min 0,000 mm 0,0 UV-I 0 W/m² -1,9 °C -3,2 °C 24,1 km/h (4 Bft)
30.12.2017 01:57 1,3 °C 1,3 °C 79 % 1012,2 hPa 0,0 mm 15,3 km/h (3 Bft) W-NW 285 ° 0 min 0,000 mm 0,0 UV-I 0 W/m² -1,9 °C -2,9 °C 22,5 km/h (4 Bft)
30.12.2017 01:58 1,3 °C 1,3 °C 79 % 1012,3 hPa 0,0 mm 18,3 km/h (3 Bft) W-SW 257 ° 0 min 0,000 mm 0,0 UV-I 0 W/m² -1,9 °C -3,4 °C 29,0 km/h (5 Bft)
30.12.2017 01:59 1,3 °C 1,3 °C 79 % 1012,3 hPa 0,0 mm 14,1 km/h (3 Bft) W-SW 254 ° 0 min 0,000 mm 0,0 UV-I 0 W/m² -1,9 °C -2,6 °C 22,5 km/h (4 Bft)
30.12.2017 02:00 1,3 °C 1,3 °C 79 % 1012,4 hPa 0,0 mm 15,6 km/h (3 Bft) W 268 ° 0 min 0,026 mm 0,0 UV-I 0 W/m² -1,9 °C -2,9 °C 27,4 km/h (4 Bft)
30.12.2017 02:01 1,3 °C 1,3 °C 79 % 1012,4 hPa 0,0 mm 25,2 km/h (4 Bft) W-SW 250 ° 0 min 0,000 mm 0,0 UV-I 0 W/m² -1,9 °C -4,3 °C 41,8 km/h (6 Bft)
30.12.2017 02:02 1,3 °C 1,3 °C 79 % 1012,4 hPa 0,0 mm 19,3 km/h (3 Bft) W 268 ° 0 min 0,000 mm 0,0 UV-I 0 W/m² -1,9 °C -3,5 °C 25,7 km/h (4 Bft)
30.12.2017 02:03 1,3 °C 1,3 °C 79 % 1012,4 hPa 0,0 mm 16,0 km/h (3 Bft) W 274 ° 0 min 0,000 mm 0,0 UV-I 0 W/m² -1,9 °C -3,0 °C 25,7 km/h (4 Bft)
30.12.2017 02:04 1,3 °C 1,3 °C 79 % 1012,5 hPa 0,0 mm 19,1 km/h (3 Bft) W-SW 248 ° 0 min 0,000 mm 0,0 UV-I 0 W/m² -1,9 °C -3,5 °C 33,8 km/h (5 Bft)
30.12.2017 02:05 1,3 °C 1,3 °C 79 % 1012,5 hPa 0,0 mm 14,6 km/h (3 Bft) W 275 ° 0 min 0,000 mm 0,0 UV-I 0 W/m² -1,9 °C -2,7 °C 24,1 km/h (4 Bft)
30.12.2017 02:06 1,3 °C 1,3 °C 78 % 1012,4 hPa 0,0 mm 16,5 km/h (3 Bft) W-SW 252 ° 0 min 0,000 mm 0,0 UV-I 0 W/m² -2,1 °C -3,1 °C 35,4 km/h (5 Bft)
30.12.2017 02:07 1,3 °C 1,3 °C 78 % 1012,4 hPa 0,0 mm 23,7 km/h (4 Bft) W-NW 288 ° 0 min 0,000 mm 0,0 UV-I 0 W/m² -2,1 °C -4,1 °C 33,8 km/h (5 Bft)
30.12.2017 02:08 1,3 °C 1,3 °C 79 % 1012,4 hPa 0,0 mm 20,3 km/h (4 Bft) W-SW 258 ° 0 min 0,000 mm 0,0 UV-I 0 W/m² -1,9 °C -3,6 °C 32,2 km/h (5 Bft)
30.12.2017 02:09 1,4 °C 1,4 °C 79 % 1012,4 hPa 0,0 mm 17,0 km/h (3 Bft) W 275 ° 0 min 0,000 mm 0,0 UV-I 0 W/m² -1,8 °C -3,0 °C 25,7 km/h (4 Bft)
30.12.2017 02:10 1,4 °C 1,4 °C 79 % 1012,5 hPa 0,0 mm 21,2 km/h (4 Bft) SW 221 ° 0 min 0,000 mm 0,0 UV-I 0 W/m² -1,8 °C -3,6 °C 29,0 km/h (5 Bft)
30.12.2017 02:11 1,4 °C 1,4 °C 79 % 1012,5 hPa 0,0 mm 18,6 km/h (3 Bft) W-SW 252 ° 0 min 0,000 mm 0,0 UV-I 0 W/m² -1,8 °C -3,3 °C 25,7 km/h (4 Bft)
30.12.2017 02:12 1,3 °C 1,4 °C 79 % 1012,4 hPa 0,0 mm 21,9 km/h (4 Bft) SW 234 ° 0 min 0,000 mm 0,0 UV-I 0 W/m² -1,9 °C -3,9 °C 32,2 km/h (5 Bft)
30.12.2017 02:13 1,4 °C 1,4 °C 78 % 1012,4 hPa 0,0 mm 18,3 km/h (3 Bft) W-SW 251 ° 0 min 0,000 mm 0,0 UV-I 0 W/m² -2,0 °C -3,2 °C 20,9 km/h (4 Bft)
30.12.2017 02:14 1,3 °C 1,4 °C 78 % 1012,5 hPa 0,0 mm 17,0 km/h (3 Bft) W 263 ° 0 min 0,000 mm 0,0 UV-I 0 W/m² -2,1 °C -3,2 °C 25,7 km/h (4 Bft)
30.12.2017 02:15 1,3 °C 1,4 °C 78 % 1012,5 hPa 0,0 mm 25,2 km/h (4 Bft) W 259 ° 0 min 0,000 mm 0,0 UV-I 0 W/m² -2,1 °C -4,3 °C 32,2 km/h (5 Bft)
30.12.2017 02:16 1,3 °C 1,4 °C 79 % 1012,4 hPa 0,0 mm 24,4 km/h (4 Bft) SW 229 ° 0 min 0,000 mm 0,0 UV-I 0 W/m² -1,9 °C -4,2 °C 35,4 km/h (5 Bft)
30.12.2017 02:17 1,3 °C 1,4 °C 78 % 1012,5 hPa 0,0 mm 13,7 km/h (3 Bft) W-SW 250 ° 0 min 0,000 mm 0,0 UV-I 0 W/m² -2,1 °C -2,6 °C 20,9 km/h (4 Bft)
30.12.2017 02:18 1,3 °C 1,4 °C 78 % 1012,5 hPa 0,0 mm 19,7 km/h (3 Bft) W 274 ° 0 min 0,000 mm 0,0 UV-I 0 W/m² -2,1 °C -3,6 °C 29,0 km/h (5 Bft)
30.12.2017 02:19 1,3 °C 1,3 °C 78 % 1012,6 hPa 0,0 mm 15,0 km/h (3 Bft) W 259 ° 0 min 0,000 mm 0,0 UV-I 0 W/m² -2,1 °C -2,8 °C 25,7 km/h (4 Bft)
30.12.2017 02:20 1,3 °C 1,3 °C 78 % 1012,6 hPa 0,0 mm 25,5 km/h (4 Bft) W 263 ° 0 min 0,000 mm 0,0 UV-I 0 W/m² -2,1 °C -4,3 °C 40,2 km/h (6 Bft)
30.12.2017 02:21 1,3 °C 1,3 °C 78 % 1012,6 hPa 0,0 mm 20,8 km/h (4 Bft) W 269 ° 0 min 0,000 mm 0,0 UV-I 0 W/m² -2,1 °C -3,7 °C 32,2 km/h (5 Bft)
30.12.2017 02:22 1,3 °C 1,3 °C 78 % 1012,5 hPa 0,0 mm 19,2 km/h (3 Bft) W 271 ° 0 min 0,000 mm 0,0 UV-I 0 W/m² -2,1 °C -3,5 °C 25,7 km/h (4 Bft)
30.12.2017 02:23 1,3 °C 1,3 °C 79 % 1012,5 hPa 0,0 mm 17,4 km/h (3 Bft) SW 236 ° 0 min 0,000 mm 0,0 UV-I 0 W/m² -1,9 °C -3,2 °C 25,7 km/h (4 Bft)
30.12.2017 02:24 1,3 °C 1,3 °C 78 % 1012,5 hPa 0,0 mm 19,7 km/h (3 Bft) W-SW 250 ° 0 min 0,000 mm 0,0 UV-I 0 W/m² -2,1 °C -3,6 °C 33,8 km/h (5 Bft)
30.12.2017 02:25 1,3 °C 1,3 °C 78 % 1012,6 hPa 0,0 mm 17,7 km/h (3 Bft) W-NW 300 ° 0 min 0,000 mm 0,0 UV-I 0 W/m² -2,1 °C -3,3 °C 22,5 km/h (4 Bft)
30.12.2017 02:26 1,3 °C 1,3 °C 79 % 1012,6 hPa 0,0 mm 18,2 km/h (3 Bft) NW 305 ° 0 min 0,000 mm 0,0 UV-I 0 W/m² -1,9 °C -3,3 °C 24,1 km/h (4 Bft)
30.12.2017 02:27 1,2 °C 1,3 °C 79 % 1012,6 hPa 0,0 mm 14,4 km/h (3 Bft) W 266 ° 0 min 0,000 mm 0,0 UV-I 0 W/m² -2,0 °C -2,8 °C 22,5 km/h (4 Bft)
30.12.2017 02:28 1,3 °C 1,3 °C 79 % 1012,7 hPa 0,0 mm 15,8 km/h (3 Bft) W 269 ° 0 min 0,000 mm 0,0 UV-I 0 W/m² -1,9 °C -3,0 °C 22,5 km/h (4 Bft)
30.12.2017 02:29 1,2 °C 1,3 °C 79 % 1012,7 hPa 0,0 mm 17,4 km/h (3 Bft) W-NW 286 ° 0 min 0,000 mm 0,0 UV-I 0 W/m² -2,0 °C -3,3 °C 27,4 km/h (4 Bft)
30.12.2017 02:30 1,3 °C 1,3 °C 79 % 1012,7 hPa 0,0 mm 18,6 km/h (3 Bft) W 265 ° 0 min 0,000 mm 0,0 UV-I 0 W/m² -1,9 °C -3,4 °C 25,7 km/h (4 Bft)
30.12.2017 02:31 1,3 °C 1,3 °C 79 % 1012,7 hPa 0,0 mm 16,0 km/h (3 Bft) W 275 ° 0 min 0,000 mm 0,0 UV-I 0 W/m² -1,9 °C -3,0 °C 25,7 km/h (4 Bft)
30.12.2017 02:32 1,3 °C 1,3 °C 79 % 1012,8 hPa 0,0 mm 19,3 km/h (3 Bft) W 275 ° 0 min 0,000 mm 0,0 UV-I 0 W/m² -1,9 °C -3,5 °C 27,4 km/h (4 Bft)
30.12.2017 02:33 1,3 °C 1,3 °C 79 % 1012,7 hPa 0,0 mm 16,1 km/h (3 Bft) W 276 ° 0 min 0,000 mm 0,0 UV-I 0 W/m² -1,9 °C -3,0 °C 24,1 km/h (4 Bft)
30.12.2017 02:34 1,3 °C 1,3 °C 79 % 1012,7 hPa 0,0 mm 18,9 km/h (3 Bft) W-NW 288 ° 0 min 0,000 mm 0,0 UV-I 0 W/m² -1,9 °C -3,4 °C 27,4 km/h (4 Bft)
30.12.2017 02:35 1,3 °C 1,3 °C 79 % 1012,8 hPa 0,0 mm 12,8 km/h (3 Bft) W 278 ° 0 min 0,000 mm 0,0 UV-I 0 W/m² -1,9 °C -2,4 °C 17,7 km/h (3 Bft)
30.12.2017 02:36 1,3 °C 1,3 °C 79 % 1012,7 hPa 0,0 mm 17,2 km/h (3 Bft) W 266 ° 0 min 0,000 mm 0,0 UV-I 0 W/m² -1,9 °C -3,2 °C 24,1 km/h (4 Bft)
30.12.2017 02:37 1,3 °C 1,3 °C 79 % 1012,7 hPa 0,0 mm 19,1 km/h (3 Bft) W 267 ° 0 min 0,000 mm 0,0 UV-I 0 W/m² -1,9 °C -3,5 °C 24,1 km/h (4 Bft)
30.12.2017 02:38 1,3 °C 1,3 °C 79 % 1012,8 hPa 0,0 mm 17,4 km/h (3 Bft) W 271 ° 0 min 0,000 mm 0,0 UV-I 0 W/m² -1,9 °C -3,2 °C 24,1 km/h (4 Bft)
30.12.2017 02:39 1,3 °C 1,3 °C 79 % 1012,8 hPa 0,0 mm 22,3 km/h (4 Bft) W 276 ° 0 min 0,000 mm 0,0 UV-I 0 W/m² -1,9 °C -3,9 °C 32,2 km/h (5 Bft)
30.12.2017 02:40 1,3 °C 1,3 °C 79 % 1012,8 hPa 0,0 mm 16,4 km/h (3 Bft) W 269 ° 0 min 0,000 mm 0,0 UV-I 0 W/m² -1,9 °C -3,1 °C 25,7 km/h (4 Bft)
30.12.2017 02:41 1,3 °C 1,3 °C 79 % 1012,8 hPa 0,0 mm 18,5 km/h (3 Bft) W-SW 256 ° 0 min 0,000 mm 0,0 UV-I 0 W/m² -1,9 °C -3,4 °C 27,4 km/h (4 Bft)
30.12.2017 02:42 1,3 °C 1,3 °C 79 % 1012,9 hPa 0,0 mm 19,0 km/h (3 Bft) W 261 ° 0 min 0,000 mm 0,0 UV-I 0 W/m² -1,9 °C -3,5 °C 24,1 km/h (4 Bft)
30.12.2017 02:43 1,3 °C 1,3 °C 79 % 1012,7 hPa 0,0 mm 15,3 km/h (3 Bft) SW 218 ° 0 min 0,000 mm 0,0 UV-I 0 W/m² -1,9 °C -2,9 °C 32,2 km/h (5 Bft)
30.12.2017 02:44 1,3 °C 1,3 °C 78 % 1012,8 hPa 0,0 mm 22,1 km/h (4 Bft) W 261 ° 0 min 0,000 mm 0,0 UV-I 0 W/m² -2,1 °C -3,9 °C 37,0 km/h (5 Bft)
30.12.2017 02:45 1,3 °C 1,3 °C 78 % 1012,8 hPa 0,0 mm 20,4 km/h (4 Bft) W-SW 257 ° 0 min 0,000 mm 0,0 UV-I 0 W/m² -2,1 °C -3,7 °C 25,7 km/h (4 Bft)
30.12.2017 02:46 1,3 °C 1,3 °C 78 % 1012,8 hPa 0,0 mm 12,1 km/h (2 Bft) W 266 ° 0 min 0,000 mm 0,0 UV-I 0 W/m² -2,1 °C -2,2 °C 19,3 km/h (3 Bft)
30.12.2017 02:47 1,3 °C 1,3 °C 79 % 1012,8 hPa 0,0 mm 18,7 km/h (3 Bft) W 275 ° 0 min 0,000 mm 0,0 UV-I 0 W/m² -1,9 °C -3,4 °C 29,0 km/h (5 Bft)
30.12.2017 02:48 1,3 °C 1,3 °C 79 % 1012,8 hPa 0,0 mm 17,4 km/h (3 Bft) W 266 ° 0 min 0,000 mm 0,0 UV-I 0 W/m² -1,9 °C -3,2 °C 25,7 km/h (4 Bft)
30.12.2017 02:49 1,3 °C 1,3 °C 79 % 1012,8 hPa 0,0 mm 17,6 km/h (3 Bft) W-SW 257 ° 0 min 0,000 mm 0,0 UV-I 0 W/m² -1,9 °C -3,2 °C 25,7 km/h (4 Bft)
30.12.2017 02:50 1,3 °C 1,3 °C 79 % 1012,8 hPa 0,0 mm 18,0 km/h (3 Bft) W 275 ° 0 min 0,000 mm 0,0 UV-I 0 W/m² -1,9 °C -3,3 °C 33,8 km/h (5 Bft)
30.12.2017 02:51 1,3 °C 1,3 °C 79 % 1012,8 hPa 0,0 mm 18,6 km/h (3 Bft) W 261 ° 0 min 0,000 mm 0,0 UV-I 0 W/m² -1,9 °C -3,4 °C 24,1 km/h (4 Bft)
30.12.2017 02:52 1,3 °C 1,3 °C 79 % 1012,8 hPa 0,0 mm 15,4 km/h (3 Bft) W 275 ° 0 min 0,000 mm 0,0 UV-I 0 W/m² -1,9 °C -2,9 °C 25,7 km/h (4 Bft)
30.12.2017 02:53 1,3 °C 1,3 °C 78 % 1012,9 hPa 0,0 mm 18,0 km/h (3 Bft) W 262 ° 0 min 0,000 mm 0,0 UV-I 0 W/m² -2,1 °C -3,3 °C 29,0 km/h (5 Bft)
30.12.2017 02:54 1,3 °C 1,3 °C 78 % 1012,9 hPa 0,0 mm 15,4 km/h (3 Bft) W 275 ° 0 min 0,000 mm 0,0 UV-I 0 W/m² -2,1 °C -2,9 °C 20,9 km/h (4 Bft)
30.12.2017 02:55 1,3 °C 1,3 °C 78 % 1013,0 hPa 0,0 mm 16,3 km/h (3 Bft) W-NW 284 ° 0 min 0,000 mm 0,0 UV-I 0 W/m² -2,1 °C -3,0 °C 22,5 km/h (4 Bft)
30.12.2017 02:56 1,3 °C 1,3 °C 78 % 1013,0 hPa 0,0 mm 13,0 km/h (3 Bft) W-SW 240 ° 0 min 0,000 mm 0,0 UV-I 0 W/m² -2,1 °C -2,4 °C 20,9 km/h (4 Bft)
30.12.2017 02:57 1,3 °C 1,3 °C 78 % 1013,0 hPa 0,0 mm 19,1 km/h (3 Bft) W-SW 258 ° 0 min 0,000 mm 0,0 UV-I 0 W/m² -2,1 °C -3,5 °C 27,4 km/h (4 Bft)
30.12.2017 02:58 1,3 °C 1,3 °C 78 % 1012,9 hPa 0,0 mm 20,5 km/h (4 Bft) W 276 ° 0 min 0,000 mm 0,0 UV-I 0 W/m² -2,1 °C -3,7 °C 29,0 km/h (5 Bft)
30.12.2017 02:59 1,3 °C 1,3 °C 78 % 1012,9 hPa 0,0 mm 17,2 km/h (3 Bft) W 263 ° 0 min 0,000 mm 0,0 UV-I 0 W/m² -2,1 °C -3,2 °C 25,7 km/h (4 Bft)
30.12.2017 03:00 1,3 °C 1,3 °C 79 % 1013,0 hPa 0,0 mm 18,5 km/h (3 Bft) W-NW 284 ° 0 min 0,025 mm 0,0 UV-I 0 W/m² -1,9 °C -3,4 °C 24,1 km/h (4 Bft)
30.12.2017 03:01 1,3 °C 1,3 °C 78 % 1013,0 hPa 0,0 mm 12,0 km/h (2 Bft) W 269 ° 0 min 0,000 mm 0,0 UV-I 0 W/m² -2,1 °C -2,2 °C 16,1 km/h (3 Bft)
30.12.2017 03:02 1,3 °C 1,3 °C 78 % 1013,0 hPa 0,0 mm 16,3 km/h (3 Bft) W 279 ° 0 min 0,000 mm 0,0 UV-I 0 W/m² -2,1 °C -3,0 °C 29,0 km/h (5 Bft)
30.12.2017 03:03 1,3 °C 1,3 °C 78 % 1013,0 hPa 0,0 mm 18,8 km/h (3 Bft) W-NW 286 ° 0 min 0,000 mm 0,0 UV-I 0 W/m² -2,1 °C -3,4 °C 22,5 km/h (4 Bft)
30.12.2017 03:04 1,3 °C 1,3 °C 79 % 1013,0 hPa 0,0 mm 13,2 km/h (3 Bft) W-SW 258 ° 0 min 0,000 mm 0,0 UV-I 0 W/m² -1,9 °C -2,5 °C 17,7 km/h (3 Bft)
30.12.2017 03:05 1,3 °C 1,3 °C 79 % 1013,0 hPa 0,0 mm 13,1 km/h (3 Bft) W-SW 244 ° 0 min 0,000 mm 0,0 UV-I 0 W/m² -1,9 °C -2,5 °C 20,9 km/h (4 Bft)
30.12.2017 03:06 1,3 °C 1,3 °C 79 % 1013,0 hPa 0,0 mm 14,3 km/h (3 Bft) W 260 ° 0 min 0,000 mm 0,0 UV-I 0 W/m² -1,9 °C -2,7 °C 27,4 km/h (4 Bft)
30.12.2017 03:07 1,3 °C 1,3 °C 78 % 1013,0 hPa 0,0 mm 13,0 km/h (3 Bft) W 264 ° 0 min 0,000 mm 0,0 UV-I 0 W/m² -2,1 °C -2,4 °C 17,7 km/h (3 Bft)
30.12.2017 03:08 1,3 °C 1,3 °C 78 % 1013,0 hPa 0,0 mm 16,7 km/h (3 Bft) W-SW 254 ° 0 min 0,000 mm 0,0 UV-I 0 W/m² -2,1 °C -3,1 °C 27,4 km/h (4 Bft)
30.12.2017 03:09 1,3 °C 1,3 °C 79 % 1013,0 hPa 0,0 mm 12,9 km/h (3 Bft) W-SW 257 ° 0 min 0,000 mm 0,0 UV-I 0 W/m² -1,9 °C -2,4 °C 16,1 km/h (3 Bft)
30.12.2017 03:10 1,3 °C 1,3 °C 79 % 1013,0 hPa 0,0 mm 16,0 km/h (3 Bft) SW 225 ° 0 min 0,000 mm 0,0 UV-I 0 W/m² -1,9 °C -3,0 °C 22,5 km/h (4 Bft)
30.12.2017 03:11 1,3 °C 1,3 °C 79 % 1012,9 hPa 0,0 mm 17,0 km/h (3 Bft) W 267 ° 0 min 0,000 mm 0,0 UV-I 0 W/m² -1,9 °C -3,2 °C 22,5 km/h (4 Bft)
30.12.2017 03:12 1,3 °C 1,3 °C 79 % 1012,9 hPa 0,0 mm 11,3 km/h (2 Bft) W 261 ° 0 min 0,000 mm 0,0 UV-I 0 W/m² -1,9 °C -2,1 °C 19,3 km/h (3 Bft)
30.12.2017 03:13 1,3 °C 1,3 °C 79 % 1013,0 hPa 0,0 mm 10,1 km/h (2 Bft) W 270 ° 0 min 0,000 mm 0,0 UV-I 0 W/m² -1,9 °C -1,8 °C 19,3 km/h (3 Bft)
30.12.2017 03:14 1,3 °C 1,3 °C 79 % 1012,9 hPa 0,0 mm 14,1 km/h (3 Bft) W 271 ° 0 min 0,000 mm 0,0 UV-I 0 W/m² -1,9 °C -2,6 °C 24,1 km/h (4 Bft)
30.12.2017 03:15 1,3 °C 1,3 °C 79 % 1012,9 hPa 0,0 mm 10,7 km/h (2 Bft) W 263 ° 0 min 0,000 mm 0,0 UV-I 0 W/m² -1,9 °C -1,9 °C 16,1 km/h (3 Bft)
30.12.2017 03:16 1,3 °C 1,3 °C 79 % 1013,0 hPa 0,0 mm 17,2 km/h (3 Bft) W 262 ° 0 min 0,000 mm 0,0 UV-I 0 W/m² -1,9 °C -3,2 °C 24,1 km/h (4 Bft)
30.12.2017 03:17 1,3 °C 1,3 °C 79 % 1013,0 hPa 0,0 mm 15,4 km/h (3 Bft) W-SW 248 ° 0 min 0,000 mm 0,0 UV-I 0 W/m² -1,9 °C -2,9 °C 20,9 km/h (4 Bft)
30.12.2017 03:18 1,3 °C 1,3 °C 79 % 1012,9 hPa 0,0 mm 20,3 km/h (4 Bft) W 261 ° 0 min 0,000 mm 0,0 UV-I 0 W/m² -1,9 °C -3,6 °C 27,4 km/h (4 Bft)
30.12.2017 03:19 1,3 °C 1,3 °C 79 % 1013,0 hPa 0,0 mm 10,8 km/h (2 Bft) W 262 ° 0 min 0,000 mm 0,0 UV-I 0 W/m² -1,9 °C -2,0 °C 16,1 km/h (3 Bft)
30.12.2017 03:20 1,3 °C 1,3 °C 79 % 1013,0 hPa 0,0 mm 11,1 km/h (2 Bft) W-SW 257 ° 0 min 0,000 mm 0,0 UV-I 0 W/m² -1,9 °C -2,0 °C 17,7 km/h (3 Bft)
30.12.2017 03:21 1,3 °C 1,3 °C 79 % 1013,0 hPa 0,0 mm 11,5 km/h (2 Bft) W-SW 254 ° 0 min 0,000 mm 0,0 UV-I 0 W/m² -1,9 °C -2,1 °C 19,3 km/h (3 Bft)
30.12.2017 03:22 1,3 °C 1,3 °C 79 % 1013,0 hPa 0,0 mm 13,3 km/h (3 Bft) W 262 ° 0 min 0,000 mm 0,0 UV-I 0 W/m² -1,9 °C -2,5 °C 19,3 km/h (3 Bft)
30.12.2017 03:23 1,2 °C 1,3 °C 79 % 1013,0 hPa 0,0 mm 14,2 km/h (3 Bft) W 267 ° 0 min 0,000 mm 0,0 UV-I 0 W/m² -2,0 °C -2,8 °C 19,3 km/h (3 Bft)
30.12.2017 03:24 1,2 °C 1,3 °C 79 % 1012,9 hPa 0,0 mm 14,8 km/h (3 Bft) W 261 ° 0 min 0,000 mm 0,0 UV-I 0 W/m² -2,0 °C -2,9 °C 19,3 km/h (3 Bft)
30.12.2017 03:25 1,2 °C 1,3 °C 79 % 1012,9 hPa 0,0 mm 11,3 km/h (2 Bft) W-SW 238 ° 0 min 0,000 mm 0,0 UV-I 0 W/m² -2,0 °C -2,2 °C 16,1 km/h (3 Bft)
30.12.2017 03:26 1,2 °C 1,2 °C 79 % 1012,9 hPa 0,0 mm 6,2 km/h (2 Bft) W 259 ° 0 min 0,000 mm 0,0 UV-I 0 W/m² -2,0 °C -0,7 °C 11,3 km/h (2 Bft)
30.12.2017 03:27 1,2 °C 1,3 °C 79 % 1012,9 hPa 0,0 mm 10,4 km/h (2 Bft) W 267 ° 0 min 0,000 mm 0,0 UV-I 0 W/m² -2,0 °C -2,0 °C 16,1 km/h (3 Bft)
30.12.2017 03:28 1,2 °C 1,2 °C 79 % 1012,9 hPa 0,0 mm 9,3 km/h (2 Bft) SW 229 ° 0 min 0,000 mm 0,0 UV-I 0 W/m² -2,0 °C -1,7 °C 12,9 km/h (3 Bft)
30.12.2017 03:29 1,2 °C 1,2 °C 79 % 1012,9 hPa 0,0 mm 6,6 km/h (2 Bft) W 268 ° 0 min 0,000 mm 0,0 UV-I 0 W/m² -2,0 °C -0,9 °C 9,7 km/h (2 Bft)
30.12.2017 03:30 1,2 °C 1,2 °C 79 % 1012,9 hPa 0,0 mm 11,7 km/h (2 Bft) W-SW 255 ° 0 min 0,000 mm 0,0 UV-I 0 W/m² -2,0 °C -2,3 °C 16,1 km/h (3 Bft)
30.12.2017 03:31 1,2 °C 1,2 °C 79 % 1012,9 hPa 0,0 mm 8,9 km/h (2 Bft) SW 236 ° 0 min 0,000 mm 0,0 UV-I 0 W/m² -2,0 °C -1,6 °C 19,3 km/h (3 Bft)
30.12.2017 03:32 1,2 °C 1,2 °C 79 % 1012,9 hPa 0,0 mm 8,0 km/h (2 Bft) W 259 ° 0 min 0,000 mm 0,0 UV-I 0 W/m² -2,0 °C -1,3 °C 12,9 km/h (3 Bft)
30.12.2017 03:33 1,2 °C 1,2 °C 79 % 1012,9 hPa 0,0 mm 7,5 km/h (2 Bft) SW 235 ° 0 min 0,000 mm 0,0 UV-I 0 W/m² -2,0 °C -1,2 °C 9,7 km/h (2 Bft)
30.12.2017 03:34 1,2 °C 1,2 °C 79 % 1012,9 hPa 0,0 mm 10,0 km/h (2 Bft) W-SW 241 ° 0 min 0,000 mm 0,0 UV-I 0 W/m² -2,0 °C -1,9 °C 14,5 km/h (3 Bft)
30.12.2017 03:35 1,2 °C 1,2 °C 79 % 1012,9 hPa 0,0 mm 6,1 km/h (2 Bft) W 273 ° 0 min 0,000 mm 0,0 UV-I 0 W/m² -2,0 °C -0,7 °C 12,9 km/h (3 Bft)
30.12.2017 03:36 1,2 °C 1,2 °C 79 % 1012,9 hPa 0,0 mm 9,6 km/h (2 Bft) W-SW 241 ° 0 min 0,000 mm 0,0 UV-I 0 W/m² -2,0 °C -1,8 °C 14,5 km/h (3 Bft)
30.12.2017 03:37 1,2 °C 1,2 °C 79 % 1012,9 hPa 0,0 mm 10,1 km/h (2 Bft) W-SW 256 ° 0 min 0,000 mm 0,0 UV-I 0 W/m² -2,0 °C -1,9 °C 19,3 km/h (3 Bft)
30.12.2017 03:38 1,2 °C 1,2 °C 79 % 1012,9 hPa 0,0 mm 9,3 km/h (2 Bft) W-SW 257 ° 0 min 0,000 mm 0,0 UV-I 0 W/m² -2,0 °C -1,7 °C 12,9 km/h (3 Bft)
30.12.2017 03:39 1,2 °C 1,2 °C 79 % 1012,9 hPa 0,0 mm 7,5 km/h (2 Bft) W 269 ° 0 min 0,000 mm 0,0 UV-I 0 W/m² -2,0 °C -1,2 °C 14,5 km/h (3 Bft)
30.12.2017 03:40 1,2 °C 1,2 °C 79 % 1012,9 hPa 0,0 mm 5,8 km/h (2 Bft) W 275 ° 0 min 0,000 mm 0,0 UV-I 0 W/m² -2,0 °C -0,6 °C 9,7 km/h (2 Bft)
30.12.2017 03:41 1,2 °C 1,2 °C 79 % 1012,9 hPa 0,0 mm 11,9 km/h (2 Bft) W-SW 258 ° 0 min 0,000 mm 0,0 UV-I 0 W/m² -2,0 °C -2,3 °C 16,1 km/h (3 Bft)
30.12.2017 03:42 1,2 °C 1,2 °C 79 % 1012,9 hPa 0,0 mm 8,3 km/h (2 Bft) W 270 ° 0 min 0,000 mm 0,0 UV-I 0 W/m² -2,0 °C -1,4 °C 12,9 km/h (3 Bft)
30.12.2017 03:43 1,2 °C 1,2 °C 79 % 1013,0 hPa 0,0 mm 10,8 km/h (2 Bft) W 261 ° 0 min 0,000 mm 0,0 UV-I 0 W/m² -2,0 °C -2,1 °C 14,5 km/h (3 Bft)
30.12.2017 03:44 1,1 °C 1,2 °C 79 % 1012,9 hPa 0,0 mm 5,1 km/h (1 Bft) W 265 ° 0 min 0,000 mm 0,0 UV-I 0 W/m² -2,1 °C -0,4 °C 6,4 km/h (2 Bft)
30.12.2017 03:45 1,2 °C 1,2 °C 79 % 1012,9 hPa 0,0 mm 3,1 km/h (1 Bft) W 262 ° 0 min 0,000 mm 0,0 UV-I 0 W/m² -2,0 °C 1,2 °C 6,4 km/h (2 Bft)
30.12.2017 03:46 1,1 °C 1,2 °C 79 % 1013,0 hPa 0,0 mm 10,9 km/h (2 Bft) W 265 ° 0 min 0,000 mm 0,0 UV-I 0 W/m² -2,1 °C -2,2 °C 17,7 km/h (3 Bft)
30.12.2017 03:47 1,1 °C 1,1 °C 79 % 1012,9 hPa 0,0 mm 10,1 km/h (2 Bft) N-NW 346 ° 0 min 0,000 mm 0,0 UV-I 0 W/m² -2,1 °C -2,0 °C 16,1 km/h (3 Bft)
30.12.2017 03:48 1,1 °C 1,1 °C 79 % 1013,0 hPa 0,0 mm 5,0 km/h (1 Bft) SW 226 ° 0 min 0,000 mm 0,0 UV-I 0 W/m² -2,1 °C -0,3 °C 11,3 km/h (2 Bft)
30.12.2017 03:49 1,1 °C 1,1 °C 79 % 1013,0 hPa 0,0 mm 6,6 km/h (2 Bft) SW 236 ° 0 min 0,000 mm 0,0 UV-I 0 W/m² -2,1 °C -1,0 °C 11,3 km/h (2 Bft)
30.12.2017 03:50 1,1 °C 1,1 °C 79 % 1013,0 hPa 0,0 mm 8,9 km/h (2 Bft) W-SW 250 ° 0 min 0,000 mm 0,0 UV-I 0 W/m² -2,1 °C -1,7 °C 17,7 km/h (3 Bft)
30.12.2017 03:51 1,1 °C 1,1 °C 79 % 1013,0 hPa 0,0 mm 7,1 km/h (2 Bft) W-SW 256 ° 0 min 0,000 mm 0,0 UV-I 0 W/m² -2,1 °C -1,2 °C 11,3 km/h (2 Bft)
30.12.2017 03:52 1,1 °C 1,1 °C 79 % 1013,0 hPa 0,0 mm 5,6 km/h (1 Bft) SW 235 ° 0 min 0,000 mm 0,0 UV-I 0 W/m² -2,1 °C -0,6 °C 6,4 km/h (2 Bft)
30.12.2017 03:53 1,1 °C 1,1 °C 79 % 1013,0 hPa 0,0 mm 4,2 km/h (1 Bft) W-SW 238 ° 0 min 0,000 mm 0,0 UV-I 0 W/m² -2,1 °C 1,1 °C 8,0 km/h (2 Bft)
30.12.2017 03:54 1,1 °C 1,1 °C 79 % 1013,0 hPa 0,0 mm 7,6 km/h (2 Bft) W-SW 256 ° 0 min 0,000 mm 0,0 UV-I 0 W/m² -2,1 °C -1,3 °C 14,5 km/h (3 Bft)
30.12.2017 03:55 1,1 °C 1,1 °C 79 % 1013,0 hPa 0,0 mm 4,6 km/h (1 Bft) W-SW 257 ° 0 min 0,000 mm 0,0 UV-I 0 W/m² -2,1 °C -0,2 °C 6,4 km/h (2 Bft)
30.12.2017 03:56 1,1 °C 1,1 °C 79 % 1013,0 hPa 0,0 mm 8,2 km/h (2 Bft) W-SW 253 ° 0 min 0,000 mm 0,0 UV-I 0 W/m² -2,1 °C -1,5 °C 12,9 km/h (3 Bft)
30.12.2017 03:57 1,1 °C 1,1 °C 79 % 1013,0 hPa 0,0 mm 6,7 km/h (2 Bft) W-SW 238 ° 0 min 0,000 mm 0,0 UV-I 0 W/m² -2,1 °C -1,0 °C 9,7 km/h (2 Bft)
30.12.2017 03:58 1,1 °C 1,1 °C 79 % 1012,9 hPa 0,0 mm 5,1 km/h (1 Bft) S-SW 213 ° 0 min 0,000 mm 0,0 UV-I 0 W/m² -2,1 °C -0,4 °C 6,4 km/h (2 Bft)
30.12.2017 03:59 1,1 °C 1,1 °C 79 % 1012,8 hPa 0,0 mm 4,6 km/h (1 Bft) W 263 ° 0 min 0,000 mm 0,0 UV-I 0 W/m² -2,1 °C -0,2 °C 8,0 km/h (2 Bft)
30.12.2017 04:00 1,1 °C 1,1 °C 78 % 1012,8 hPa 0,0 mm 5,9 km/h (2 Bft) S-SW 211 ° 0 min 0,026 mm 0,0 UV-I 0 W/m² -2,3 °C -0,7 °C 8,0 km/h (2 Bft)
30.12.2017 04:01 1,1 °C 1,1 °C 78 % 1012,8 hPa 0,0 mm 6,2 km/h (2 Bft) SW 229 ° 0 min 0,000 mm 0,0 UV-I 0 W/m² -2,3 °C -0,8 °C 11,3 km/h (2 Bft)
30.12.2017 04:02 1,1 °C 1,1 °C 78 % 1012,8 hPa 0,0 mm 3,6 km/h (1 Bft) W-SW 252 ° 0 min 0,000 mm 0,0 UV-I 0 W/m² -2,3 °C 1,1 °C 6,4 km/h (2 Bft)
30.12.2017 04:03 1,1 °C 1,1 °C 78 % 1012,8 hPa 0,0 mm 5,4 km/h (1 Bft) SW 220 ° 0 min 0,000 mm 0,0 UV-I 0 W/m² -2,3 °C -0,5 °C 9,7 km/h (2 Bft)
30.12.2017 04:04 1,1 °C 1,2 °C 78 % 1012,8 hPa 0,0 mm 4,7 km/h (1 Bft) W-SW 254 ° 0 min 0,000 mm 0,0 UV-I 0 W/m² -2,3 °C -0,2 °C 8,0 km/h (2 Bft)
30.12.2017 04:05 1,1 °C 1,1 °C 78 % 1012,7 hPa 0,0 mm 6,7 km/h (2 Bft) W 263 ° 0 min 0,000 mm 0,0 UV-I 0 W/m² -2,3 °C -1,0 °C 11,3 km/h (2 Bft)
30.12.2017 04:06 1,1 °C 1,1 °C 78 % 1012,7 hPa 0,0 mm 3,3 km/h (1 Bft) W 259 ° 0 min 0,000 mm 0,0 UV-I 0 W/m² -2,3 °C 1,1 °C 6,4 km/h (2 Bft)
30.12.2017 04:07 1,1 °C 1,2 °C 78 % 1012,8 hPa 0,0 mm 5,6 km/h (1 Bft) W 273 ° 0 min 0,000 mm 0,0 UV-I 0 W/m² -2,3 °C -0,6 °C 9,7 km/h (2 Bft)
30.12.2017 04:08 1,1 °C 1,1 °C 79 % 1012,7 hPa 0,0 mm 5,7 km/h (1 Bft) W 273 ° 0 min 0,000 mm 0,0 UV-I 0 W/m² -2,1 °C -0,6 °C 11,3 km/h (2 Bft)
30.12.2017 04:09 1,1 °C 1,2 °C 78 % 1012,6 hPa 0,0 mm 6,1 km/h (2 Bft) SW 220 ° 0 min 0,000 mm 0,0 UV-I 0 W/m² -2,3 °C -0,8 °C 9,7 km/h (2 Bft)
30.12.2017 04:10 1,1 °C 1,1 °C 78 % 1012,6 hPa 0,0 mm 8,2 km/h (2 Bft) SW 225 ° 0 min 0,000 mm 0,0 UV-I 0 W/m² -2,3 °C -1,5 °C 12,9 km/h (3 Bft)
30.12.2017 04:11 1,1 °C 1,1 °C 78 % 1012,6 hPa 0,0 mm 6,2 km/h (2 Bft) SW 229 ° 0 min 0,000 mm 0,0 UV-I 0 W/m² -2,3 °C -0,8 °C 9,7 km/h (2 Bft)
30.12.2017 04:12 1,2 °C 1,2 °C 78 % 1012,6 hPa 0,0 mm 10,5 km/h (2 Bft) W-SW 254 ° 0 min 0,000 mm 0,0 UV-I 0 W/m² -2,2 °C -2,0 °C 17,7 km/h (3 Bft)
30.12.2017 04:13 1,2 °C 1,2 °C 78 % 1012,6 hPa 0,0 mm 8,4 km/h (2 Bft) SW 223 ° 0 min 0,000 mm 0,0 UV-I 0 W/m² -2,2 °C -1,4 °C 11,3 km/h (2 Bft)
30.12.2017 04:14 1,2 °C 1,2 °C 78 % 1012,7 hPa 0,0 mm 4,2 km/h (1 Bft) SW 226 ° 0 min 0,000 mm 0,0 UV-I 0 W/m² -2,2 °C 1,2 °C 4,8 km/h (1 Bft)
30.12.2017 04:15 1,2 °C 1,2 °C 78 % 1012,6 hPa 0,0 mm 5,0 km/h (1 Bft) W-SW 245 ° 0 min 0,000 mm 0,0 UV-I 0 W/m² -2,2 °C -0,2 °C 9,7 km/h (2 Bft)
30.12.2017 04:16 1,2 °C 1,2 °C 78 % 1012,6 hPa 0,0 mm 8,8 km/h (2 Bft) W 259 ° 0 min 0,000 mm 0,0 UV-I 0 W/m² -2,2 °C -1,6 °C 16,1 km/h (3 Bft)
30.12.2017 04:17 1,2 °C 1,2 °C 78 % 1012,6 hPa 0,0 mm 8,4 km/h (2 Bft) W 268 ° 0 min 0,000 mm 0,0 UV-I 0 W/m² -2,2 °C -1,4 °C 16,1 km/h (3 Bft)
30.12.2017 04:18 1,2 °C 1,2 °C 78 % 1012,6 hPa 0,0 mm 5,8 km/h (2 Bft) W 263 ° 0 min 0,000 mm 0,0 UV-I 0 W/m² -2,2 °C -0,6 °C 14,5 km/h (3 Bft)
30.12.2017 04:19 1,3 °C 1,3 °C 78 % 1012,6 hPa 0,0 mm 7,4 km/h (2 Bft) S-SW 209 ° 0 min 0,000 mm 0,0 UV-I 0 W/m² -2,1 °C -1,0 °C 14,5 km/h (3 Bft)
30.12.2017 04:20 1,3 °C 1,3 °C 77 % 1012,6 hPa 0,0 mm 5,2 km/h (1 Bft) W-SW 250 ° 0 min 0,000 mm 0,0 UV-I 0 W/m² -2,3 °C -0,2 °C 11,3 km/h (2 Bft)
30.12.2017 04:21 1,3 °C 1,3 °C 77 % 1012,6 hPa 0,0 mm 5,8 km/h (2 Bft) SW 221 ° 0 min 0,000 mm 0,0 UV-I 0 W/m² -2,3 °C -0,5 °C 12,9 km/h (3 Bft)
30.12.2017 04:22 1,3 °C 1,3 °C 77 % 1012,6 hPa 0,0 mm 6,0 km/h (2 Bft) W 275 ° 0 min 0,000 mm 0,0 UV-I 0 W/m² -2,3 °C -0,5 °C 9,7 km/h (2 Bft)
30.12.2017 04:23 1,3 °C 1,3 °C 77 % 1012,5 hPa 0,0 mm 6,6 km/h (2 Bft) W 259 ° 0 min 0,000 mm 0,0 UV-I 0 W/m² -2,3 °C -0,8 °C 9,7 km/h (2 Bft)
30.12.2017 04:24 1,3 °C 1,3 °C 77 % 1012,6 hPa 0,0 mm 8,8 km/h (2 Bft) W-NW 288 ° 0 min 0,000 mm 0,0 UV-I 0 W/m² -2,3 °C -1,4 °C 11,3 km/h (2 Bft)
30.12.2017 04:25 1,3 °C 1,3 °C 77 % 1012,5 hPa 0,0 mm 10,5 km/h (2 Bft) W 276 ° 0 min 0,000 mm 0,0 UV-I 0 W/m² -2,3 °C -1,9 °C 16,1 km/h (3 Bft)
30.12.2017 04:26 1,3 °C 1,3 °C 77 % 1012,5 hPa 0,0 mm 5,7 km/h (1 Bft) W-SW 244 ° 0 min 0,000 mm 0,0 UV-I 0 W/m² -2,3 °C -0,4 °C 11,3 km/h (2 Bft)
30.12.2017 04:27 1,3 °C 1,3 °C 77 % 1012,5 hPa 0,0 mm 5,4 km/h (1 Bft) W 278 ° 0 min 0,000 mm 0,0 UV-I 0 W/m² -2,3 °C -0,3 °C 11,3 km/h (2 Bft)
30.12.2017 04:28 1,2 °C 1,3 °C 77 % 1012,4 hPa 0,0 mm 8,2 km/h (2 Bft) W 265 ° 0 min 0,000 mm 0,0 UV-I 0 W/m² -2,4 °C -1,4 °C 11,3 km/h (2 Bft)
30.12.2017 04:29 1,3 °C 1,3 °C 77 % 1012,4 hPa 0,0 mm 6,2 km/h (2 Bft) W-SW 255 ° 0 min 0,000 mm 0,0 UV-I 0 W/m² -2,3 °C -0,6 °C 9,7 km/h (2 Bft)
30.12.2017 04:30 1,3 °C 1,3 °C 77 % 1012,4 hPa 0,0 mm 5,6 km/h (1 Bft) W 267 ° 0 min 0,000 mm 0,0 UV-I 0 W/m² -2,3 °C -0,4 °C 6,4 km/h (2 Bft)
30.12.2017 04:31 1,3 °C 1,3 °C 77 % 1012,4 hPa 0,0 mm 6,7 km/h (2 Bft) W-SW 245 ° 0 min 0,000 mm 0,0 UV-I 0 W/m² -2,3 °C -0,8 °C 11,3 km/h (2 Bft)
30.12.2017 04:32 1,3 °C 1,3 °C 78 % 1012,4 hPa 0,0 mm 6,2 km/h (2 Bft) W-SW 254 ° 0 min 0,000 mm 0,0 UV-I 0 W/m² -2,1 °C -0,6 °C 9,7 km/h (2 Bft)
30.12.2017 04:33 1,3 °C 1,3 °C 78 % 1012,4 hPa 0,0 mm 6,5 km/h (2 Bft) W-SW 247 ° 0 min 0,000 mm 0,0 UV-I 0 W/m² -2,1 °C -0,7 °C 12,9 km/h (3 Bft)
30.12.2017 04:34 1,2 °C 1,3 °C 78 % 1012,4 hPa 0,0 mm 7,0 km/h (2 Bft) W-SW 253 ° 0 min 0,000 mm 0,0 UV-I 0 W/m² -2,2 °C -1,0 °C 11,3 km/h (2 Bft)
30.12.2017 04:35 1,2 °C 1,2 °C 77 % 1012,4 hPa 0,0 mm 4,4 km/h (1 Bft) W 260 ° 0 min 0,000 mm 0,0 UV-I 0 W/m² -2,4 °C 1,2 °C 11,3 km/h (2 Bft)
30.12.2017 04:36 1,2 °C 1,2 °C 77 % 1012,4 hPa 0,0 mm 7,5 km/h (2 Bft) W-SW 244 ° 0 min 0,000 mm 0,0 UV-I 0 W/m² -2,4 °C -1,2 °C 11,3 km/h (2 Bft)
30.12.2017 04:37 1,2 °C 1,2 °C 77 % 1012,4 hPa 0,0 mm 6,4 km/h (2 Bft) W 267 ° 0 min 0,000 mm 0,0 UV-I 0 W/m² -2,4 °C -0,8 °C 11,3 km/h (2 Bft)
30.12.2017 04:38 1,2 °C 1,2 °C 77 % 1012,3 hPa 0,0 mm 6,8 km/h (2 Bft) SW 215 ° 0 min 0,000 mm 0,0 UV-I 0 W/m² -2,4 °C -0,9 °C 11,3 km/h (2 Bft)
30.12.2017 04:39 1,2 °C 1,2 °C 77 % 1012,4 hPa 0,0 mm 6,2 km/h (2 Bft) W-NW 282 ° 0 min 0,000 mm 0,0 UV-I 0 W/m² -2,4 °C -0,7 °C 9,7 km/h (2 Bft)
30.12.2017 04:40 1,2 °C 1,2 °C 77 % 1012,3 hPa 0,0 mm 6,1 km/h (2 Bft) W-SW 248 ° 0 min 0,000 mm 0,0 UV-I 0 W/m² -2,4 °C -0,7 °C 11,3 km/h (2 Bft)
30.12.2017 04:41 1,2 °C 1,2 °C 77 % 1012,4 hPa 0,0 mm 9,3 km/h (2 Bft) W-SW 248 ° 0 min 0,000 mm 0,0 UV-I 0 W/m² -2,4 °C -1,7 °C 19,3 km/h (3 Bft)
30.12.2017 04:42 1,2 °C 1,2 °C 76 % 1012,4 hPa 0,0 mm 7,2 km/h (2 Bft) W 262 ° 0 min 0,000 mm 0,0 UV-I 0 W/m² -2,5 °C -1,1 °C 12,9 km/h (3 Bft)
30.12.2017 04:43 1,2 °C 1,2 °C 76 % 1012,4 hPa 0,0 mm 3,8 km/h (1 Bft) SW 234 ° 0 min 0,000 mm 0,0 UV-I 0 W/m² -2,5 °C 1,2 °C 8,0 km/h (2 Bft)
30.12.2017 04:44 1,2 °C 1,3 °C 76 % 1012,3 hPa 0,0 mm 7,5 km/h (2 Bft) W-SW 240 ° 0 min 0,000 mm 0,0 UV-I 0 W/m² -2,5 °C -1,2 °C 11,3 km/h (2 Bft)
30.12.2017 04:45 1,3 °C 1,3 °C 76 % 1012,3 hPa 0,0 mm 7,2 km/h (2 Bft) W-SW 255 ° 0 min 0,000 mm 0,0 UV-I 0 W/m² -2,5 °C -1,0 °C 14,5 km/h (3 Bft)
30.12.2017 04:46 1,3 °C 1,3 °C 76 % 1012,2 hPa 0,0 mm 6,2 km/h (2 Bft) W-SW 237 ° 0 min 0,000 mm 0,0 UV-I 0 W/m² -2,5 °C -0,6 °C 9,7 km/h (2 Bft)
30.12.2017 04:47 1,3 °C 1,3 °C 76 % 1012,2 hPa 0,0 mm 6,0 km/h (2 Bft) W 262 ° 0 min 0,000 mm 0,0 UV-I 0 W/m² -2,5 °C -0,5 °C 11,3 km/h (2 Bft)
30.12.2017 04:48 1,3 °C 1,3 °C 76 % 1012,2 hPa 0,0 mm 6,4 km/h (2 Bft) W 259 ° 0 min 0,000 mm 0,0 UV-I 0 W/m² -2,5 °C -0,7 °C 9,7 km/h (2 Bft)
30.12.2017 04:49 1,3 °C 1,3 °C 75 % 1012,3 hPa 0,0 mm 3,8 km/h (1 Bft) W-SW 237 ° 0 min 0,000 mm 0,0 UV-I 0 W/m² -2,6 °C 1,3 °C 8,0 km/h (2 Bft)
30.12.2017 04:50 1,3 °C 1,3 °C 75 % 1012,3 hPa 0,0 mm 6,2 km/h (2 Bft) S-SW 207 ° 0 min 0,000 mm 0,0 UV-I 0 W/m² -2,6 °C -0,6 °C 8,0 km/h (2 Bft)
30.12.2017 04:51 1,3 °C 1,3 °C 75 % 1012,4 hPa 0,0 mm 4,7 km/h (1 Bft) SW 221 ° 0 min 0,000 mm 0,0 UV-I 0 W/m² -2,6 °C 0,0 °C 6,4 km/h (2 Bft)
30.12.2017 04:52 1,3 °C 1,3 °C 75 % 1012,3 hPa 0,0 mm 6,2 km/h (2 Bft) S-SW 204 ° 0 min 0,000 mm 0,0 UV-I 0 W/m² -2,6 °C -0,6 °C 11,3 km/h (2 Bft)
30.12.2017 04:53 1,3 °C 1,3 °C 75 % 1012,2 hPa 0,0 mm 5,3 km/h (1 Bft) SW 229 ° 0 min 0,000 mm 0,0 UV-I 0 W/m² -2,6 °C -0,2 °C 12,9 km/h (3 Bft)
30.12.2017 04:54 1,3 °C 1,3 °C 75 % 1012,2 hPa 0,0 mm 4,0 km/h (1 Bft) SW 219 ° 0 min 0,000 mm 0,0 UV-I 0 W/m² -2,6 °C 1,3 °C 6,4 km/h (2 Bft)
30.12.2017 04:55 1,3 °C 1,3 °C 75 % 1012,2 hPa 0,0 mm 3,2 km/h (1 Bft) S-SW 202 ° 0 min 0,000 mm 0,0 UV-I 0 W/m² -2,6 °C 1,3 °C 8,0 km/h (2 Bft)
30.12.2017 04:56 1,3 °C 1,3 °C 75 % 1012,2 hPa 0,0 mm 5,6 km/h (1 Bft) SW 230 ° 0 min 0,000 mm 0,0 UV-I 0 W/m² -2,6 °C -0,4 °C 8,0 km/h (2 Bft)
30.12.2017 04:57 1,3 °C 1,3 °C 75 % 1012,2 hPa 0,0 mm 6,9 km/h (2 Bft) S-SW 211 ° 0 min 0,000 mm 0,0 UV-I 0 W/m² -2,6 °C -0,9 °C 9,7 km/h (2 Bft)
30.12.2017 04:58 1,3 °C 1,3 °C 75 % 1012,2 hPa 0,0 mm 7,5 km/h (2 Bft) SW 215 ° 0 min 0,000 mm 0,0 UV-I 0 W/m² -2,6 °C -1,1 °C 9,7 km/h (2 Bft)
30.12.2017 04:59 1,3 °C 1,3 °C 74 % 1012,2 hPa 0,0 mm 5,4 km/h (1 Bft) SW 222 ° 0 min 0,000 mm 0,0 UV-I 0 W/m² -2,8 °C -0,3 °C 8,0 km/h (2 Bft)
30.12.2017 05:00 1,3 °C 1,3 °C 74 % 1012,2 hPa 0,0 mm 4,3 km/h (1 Bft) W-SW 248 ° 0 min 0,025 mm 0,0 UV-I 0 W/m² -2,8 °C 1,3 °C 8,0 km/h (2 Bft)
30.12.2017 05:01 1,3 °C 1,4 °C 75 % 1012,1 hPa 0,0 mm 3,6 km/h (1 Bft) S-SW 203 ° 0 min 0,000 mm 0,0 UV-I 0 W/m² -2,6 °C 1,3 °C 6,4 km/h (2 Bft)
30.12.2017 05:02 1,4 °C 1,4 °C 74 % 1012,1 hPa 0,0 mm 5,6 km/h (1 Bft) S-SW 211 ° 0 min 0,000 mm 0,0 UV-I 0 W/m² -2,7 °C -0,3 °C 9,7 km/h (2 Bft)
30.12.2017 05:03 1,3 °C 1,4 °C 74 % 1012,1 hPa 0,0 mm 4,3 km/h (1 Bft) W-SW 253 ° 0 min 0,000 mm 0,0 UV-I 0 W/m² -2,8 °C 1,3 °C 6,4 km/h (2 Bft)
30.12.2017 05:04 1,4 °C 1,4 °C 75 % 1012,1 hPa 0,0 mm 4,8 km/h (1 Bft) SW 221 ° 0 min 0,000 mm 0,0 UV-I 0 W/m² -2,5 °C 0,1 °C 6,4 km/h (2 Bft)
30.12.2017 05:05 1,4 °C 1,4 °C 74 % 1012,0 hPa 0,0 mm 6,7 km/h (2 Bft) W-SW 242 ° 0 min 0,000 mm 0,0 UV-I 0 W/m² -2,7 °C -0,7 °C 14,5 km/h (3 Bft)
30.12.2017 05:06 1,4 °C 1,4 °C 74 % 1012,0 hPa 0,0 mm 4,8 km/h (1 Bft) W-SW 244 ° 0 min 0,000 mm 0,0 UV-I 0 W/m² -2,7 °C 0,1 °C 6,4 km/h (2 Bft)
30.12.2017 05:07 1,4 °C 1,4 °C 74 % 1012,0 hPa 0,0 mm 4,9 km/h (1 Bft) SW 215 ° 0 min 0,000 mm 0,0 UV-I 0 W/m² -2,7 °C 0,0 °C 6,4 km/h (2 Bft)
30.12.2017 05:08 1,3 °C 1,4 °C 74 % 1011,9 hPa 0,0 mm 3,9 km/h (1 Bft) SW 217 ° 0 min 0,000 mm 0,0 UV-I 0 W/m² -2,8 °C 1,3 °C 6,4 km/h (2 Bft)
30.12.2017 05:09 1,3 °C 1,3 °C 74 % 1011,9 hPa 0,0 mm 4,6 km/h (1 Bft) SW 219 ° 0 min 0,000 mm 0,0 UV-I 0 W/m² -2,8 °C 0,1 °C 6,4 km/h (2 Bft)
30.12.2017 05:10 1,3 °C 1,3 °C 74 % 1011,9 hPa 0,0 mm 4,0 km/h (1 Bft) SW 227 ° 0 min 0,000 mm 0,0 UV-I 0 W/m² -2,8 °C 1,3 °C 6,4 km/h (2 Bft)
30.12.2017 05:11 1,3 °C 1,3 °C 74 % 1011,8 hPa 0,0 mm 3,6 km/h (1 Bft) SW 227 ° 0 min 0,000 mm 0,0 UV-I 0 W/m² -2,8 °C 1,3 °C 4,8 km/h (1 Bft)
30.12.2017 05:12 1,3 °C 1,3 °C 74 % 1011,8 hPa 0,0 mm 3,5 km/h (1 Bft) SW 232 ° 0 min 0,000 mm 0,0 UV-I 0 W/m² -2,8 °C 1,3 °C 6,4 km/h (2 Bft)
30.12.2017 05:13 1,3 °C 1,3 °C 74 % 1011,8 hPa 0,0 mm 3,0 km/h (1 Bft) SW 232 ° 0 min 0,000 mm 0,0 UV-I 0 W/m² -2,8 °C 1,3 °C 4,8 km/h (1 Bft)
30.12.2017 05:14 1,3 °C 1,3 °C 74 % 1011,8 hPa 0,0 mm 5,0 km/h (1 Bft) W 275 ° 0 min 0,000 mm 0,0 UV-I 0 W/m² -2,8 °C -0,1 °C 6,4 km/h (2 Bft)
30.12.2017 05:15 1,3 °C 1,3 °C 74 % 1011,8 hPa 0,0 mm 4,0 km/h (1 Bft) SW 223 ° 0 min 0,000 mm 0,0 UV-I 0 W/m² -2,8 °C 1,3 °C 6,4 km/h (2 Bft)
30.12.2017 05:16 1,3 °C 1,3 °C 74 % 1011,8 hPa 0,0 mm 4,4 km/h (1 Bft) SW 228 ° 0 min 0,000 mm 0,0 UV-I 0 W/m² -2,8 °C 1,3 °C 6,4 km/h (2 Bft)
30.12.2017 05:17 1,3 °C 1,3 °C 74 % 1011,8 hPa 0,0 mm 3,0 km/h (1 Bft) SW 221 ° 0 min 0,000 mm 0,0 UV-I 0 W/m² -2,8 °C 1,3 °C 6,4 km/h (2 Bft)
30.12.2017 05:18 1,2 °C 1,3 °C 74 % 1011,8 hPa 0,0 mm 3,1 km/h (1 Bft) W-SW 255 ° 0 min 0,000 mm 0,0 UV-I 0 W/m² -2,9 °C 1,2 °C 4,8 km/h (1 Bft)
30.12.2017 05:19 1,2 °C 1,3 °C 74 % 1011,8 hPa 0,0 mm 4,5 km/h (1 Bft) SW 229 ° 0 min 0,000 mm 0,0 UV-I 0 W/m² -2,9 °C 1,2 °C 6,4 km/h (2 Bft)
30.12.2017 05:20 1,2 °C 1,2 °C 74 % 1011,8 hPa 0,0 mm 4,6 km/h (1 Bft) SW 219 ° 0 min 0,000 mm 0,0 UV-I 0 W/m² -2,9 °C -0,0 °C 6,4 km/h (2 Bft)
30.12.2017 05:21 1,2 °C 1,2 °C 74 % 1011,8 hPa 0,0 mm 2,9 km/h (1 Bft) SW 219 ° 0 min 0,000 mm 0,0 UV-I 0 W/m² -2,9 °C 1,2 °C 4,8 km/h (1 Bft)
30.12.2017 05:22 1,2 °C 1,2 °C 74 % 1011,7 hPa 0,0 mm 5,0 km/h (1 Bft) S-SW 207 ° 0 min 0,000 mm 0,0 UV-I 0 W/m² -2,9 °C -0,2 °C 8,0 km/h (2 Bft)
30.12.2017 05:23 1,2 °C 1,2 °C 74 % 1011,8 hPa 0,0 mm 3,7 km/h (1 Bft) S-SW 205 ° 0 min 0,000 mm 0,0 UV-I 0 W/m² -2,9 °C 1,2 °C 6,4 km/h (2 Bft)
30.12.2017 05:24 1,2 °C 1,2 °C 74 % 1011,8 hPa 0,0 mm 2,8 km/h (1 Bft) SW 230 ° 0 min 0,000 mm 0,0 UV-I 0 W/m² -2,9 °C 1,2 °C 4,8 km/h (1 Bft)
30.12.2017 05:25 1,2 °C 1,2 °C 74 % 1011,8 hPa 0,0 mm 4,9 km/h (1 Bft) W-SW 252 ° 0 min 0,000 mm 0,0 UV-I 0 W/m² -2,9 °C -0,2 °C 9,7 km/h (2 Bft)
30.12.2017 05:26 1,2 °C 1,2 °C 75 % 1011,8 hPa 0,0 mm 5,0 km/h (1 Bft) S-SW 200 ° 0 min 0,000 mm 0,0 UV-I 0 W/m² -2,7 °C -0,2 °C 9,7 km/h (2 Bft)
30.12.2017 05:27 1,1 °C 1,2 °C 74 % 1011,7 hPa 0,0 mm 6,1 km/h (2 Bft) W-SW 244 ° 0 min 0,000 mm 0,0 UV-I 0 W/m² -3,0 °C -0,8 °C 12,9 km/h (3 Bft)
30.12.2017 05:28 1,1 °C 1,2 °C 75 % 1011,7 hPa 0,0 mm 5,6 km/h (1 Bft) W-SW 252 ° 0 min 0,000 mm 0,0 UV-I 0 W/m² -2,8 °C -0,6 °C 11,3 km/h (2 Bft)
30.12.2017 05:29 1,2 °C 1,2 °C 74 % 1011,7 hPa 0,0 mm 5,4 km/h (1 Bft) S-SW 193 ° 0 min 0,000 mm 0,0 UV-I 0 W/m² -2,9 °C -0,4 °C 8,0 km/h (2 Bft)
30.12.2017 05:30 1,2 °C 1,2 °C 75 % 1011,7 hPa 0,0 mm 1,1 km/h (1 Bft) S-SW 200 ° 0 min 0,000 mm 0,0 UV-I 0 W/m² -2,7 °C 1,2 °C 4,8 km/h (1 Bft)
30.12.2017 05:31 1,1 °C 1,2 °C 75 % 1011,7 hPa 0,0 mm 3,8 km/h (1 Bft) SW 214 ° 0 min 0,000 mm 0,0 UV-I 0 W/m² -2,8 °C 1,1 °C 6,4 km/h (2 Bft)
30.12.2017 05:32 1,1 °C 1,2 °C 75 % 1011,7 hPa 0,0 mm 2,0 km/h (1 Bft) S-SW 202 ° 0 min 0,000 mm 0,0 UV-I 0 W/m² -2,8 °C 1,1 °C 4,8 km/h (1 Bft)
30.12.2017 05:33 1,1 °C 1,1 °C 76 % 1011,7 hPa 0,0 mm 1,9 km/h (1 Bft) S-SW 202 ° 0 min 0,000 mm 0,0 UV-I 0 W/m² -2,6 °C 1,1 °C 3,2 km/h (1 Bft)
30.12.2017 05:34 1,1 °C 1,1 °C 76 % 1011,7 hPa 0,0 mm 2,8 km/h (1 Bft) S-SW 196 ° 0 min 0,000 mm 0,0 UV-I 0 W/m² -2,6 °C 1,1 °C 4,8 km/h (1 Bft)
30.12.2017 05:35 1,1 °C 1,1 °C 77 % 1011,6 hPa 0,0 mm 3,8 km/h (1 Bft) S-SW 196 ° 0 min 0,000 mm 0,0 UV-I 0 W/m² -2,5 °C 1,1 °C 4,8 km/h (1 Bft)
30.12.2017 05:36 1,1 °C 1,1 °C 77 % 1011,7 hPa 0,0 mm 1,7 km/h (1 Bft) S-SO 167 ° 0 min 0,000 mm 0,0 UV-I 0 W/m² -2,5 °C 1,1 °C 6,4 km/h (2 Bft)
30.12.2017 05:37 1,0 °C 1,1 °C 77 % 1011,6 hPa 0,0 mm 3,6 km/h (1 Bft) S 171 ° 0 min 0,000 mm 0,0 UV-I 0 W/m² -2,6 °C 1,0 °C 6,4 km/h (2 Bft)
30.12.2017 05:38 0,9 °C 1,0 °C 77 % 1011,8 hPa 0,0 mm 3,4 km/h (1 Bft) S 171 ° 0 min 0,000 mm 0,0 UV-I 0 W/m² -2,7 °C 0,9 °C 6,4 km/h (2 Bft)
30.12.2017 05:39 0,8 °C 0,9 °C 78 % 1011,7 hPa 0,0 mm 3,2 km/h (1 Bft) S 171 ° 0 min 0,000 mm 0,0 UV-I 0 W/m² -2,6 °C 0,8 °C 6,4 km/h (2 Bft)
30.12.2017 05:40 0,8 °C 0,9 °C 78 % 1011,7 hPa 0,0 mm 4,2 km/h (1 Bft) S 171 ° 0 min 0,000 mm 0,0 UV-I 0 W/m² -2,6 °C 0,8 °C 6,4 km/h (2 Bft)
30.12.2017 05:41 0,8 °C 0,8 °C 78 % 1011,7 hPa 0,0 mm 2,5 km/h (1 Bft) S 171 ° 0 min 0,000 mm 0,0 UV-I 0 W/m² -2,6 °C 0,8 °C 3,2 km/h (1 Bft)
30.12.2017 05:42 0,8 °C 0,8 °C 79 % 1011,6 hPa 0,0 mm 0,0 km/h (0 Bft) S 180 ° 0 min 0,000 mm 0,0 UV-I 0 W/m² -2,4 °C 0,8 °C 1,6 km/h (1 Bft)
30.12.2017 05:44 0,7 °C 0,8 °C 79 % 1011,6 hPa 0,0 mm 3,9 km/h (1 Bft) S 171 ° 0 min 0,000 mm 0,0 UV-I 0 W/m² -2,5 °C 0,7 °C 6,4 km/h (2 Bft)
30.12.2017 05:45 0,7 °C 0,8 °C 79 % 1011,6 hPa 0,0 mm 2,7 km/h (1 Bft) S 171 ° 0 min 0,000 mm 0,0 UV-I 0 W/m² -2,5 °C 0,7 °C 3,2 km/h (1 Bft)
30.12.2017 05:46 0,7 °C 0,7 °C 79 % 1011,6 hPa 0,0 mm 3,4 km/h (1 Bft) S 171 ° 0 min 0,000 mm 0,0 UV-I 0 W/m² -2,5 °C 0,7 °C 6,4 km/h (2 Bft)
30.12.2017 05:47 0,7 °C 0,7 °C 79 % 1011,6 hPa 0,0 mm 4,4 km/h (1 Bft) S 171 ° 0 min 0,000 mm 0,0 UV-I 0 W/m² -2,5 °C 0,7 °C 6,4 km/h (2 Bft)
30.12.2017 05:48 0,6 °C 0,7 °C 80 % 1011,6 hPa 0,0 mm 4,0 km/h (1 Bft) S 171 ° 0 min 0,000 mm 0,0 UV-I 0 W/m² -2,4 °C 0,6 °C 6,4 km/h (2 Bft)
30.12.2017 05:49 0,6 °C 0,6 °C 80 % 1011,6 hPa 0,0 mm 2,4 km/h (1 Bft) S 171 ° 0 min 0,000 mm 0,0 UV-I 0 W/m² -2,4 °C 0,6 °C 3,2 km/h (1 Bft)
30.12.2017 05:50 0,6 °C 0,6 °C 80 % 1011,5 hPa 0,0 mm 0,1 km/h (0 Bft) S 171 ° 0 min 0,000 mm 0,0 UV-I 0 W/m² -2,4 °C 0,6 °C 1,6 km/h (1 Bft)
30.12.2017 05:51 0,6 °C 0,6 °C 79 % 1011,6 hPa 0,0 mm 0,0 km/h (0 Bft) S 171 ° 0 min 0,000 mm 0,0 UV-I 0 W/m² -2,6 °C 0,6 °C 0,0 km/h (0 Bft)
30.12.2017 05:52 0,5 °C 0,6 °C 79 % 1011,6 hPa 0,0 mm 0,0 km/h (0 Bft) S 171 ° 0 min 0,000 mm 0,0 UV-I 0 W/m² -2,7 °C 0,5 °C 0,0 km/h (0 Bft)
30.12.2017 05:53 0,4 °C 0,5 °C 79 % 1011,6 hPa 0,0 mm 0,9 km/h (0 Bft) S 171 ° 0 min 0,000 mm 0,0 UV-I 0 W/m² -2,8 °C 0,4 °C 1,6 km/h (1 Bft)
30.12.2017 05:54 0,4 °C 0,4 °C 80 % 1011,6 hPa 0,0 mm 1,5 km/h (1 Bft) S 171 ° 0 min 0,000 mm 0,0 UV-I 0 W/m² -2,6 °C 0,4 °C 3,2 km/h (1 Bft)
30.12.2017 05:55 0,4 °C 0,4 °C 80 % 1011,6 hPa 0,0 mm 0,7 km/h (0 Bft) S 171 ° 0 min 0,000 mm 0,0 UV-I 0 W/m² -2,6 °C 0,4 °C 1,6 km/h (1 Bft)
30.12.2017 05:56 0,3 °C 0,4 °C 80 % 1011,6 hPa 0,0 mm 1,1 km/h (1 Bft) S 171 ° 0 min 0,000 mm 0,0 UV-I 0 W/m² -2,7 °C 0,3 °C 3,2 km/h (1 Bft)
30.12.2017 05:57 0,3 °C 0,3 °C 80 % 1011,6 hPa 0,0 mm 0,1 km/h (0 Bft) S 171 ° 0 min 0,000 mm 0,0 UV-I 0 W/m² -2,7 °C 0,3 °C 1,6 km/h (1 Bft)
30.12.2017 05:58 0,2 °C 0,3 °C 81 % 1011,7 hPa 0,0 mm 0,2 km/h (0 Bft) S 171 ° 0 min 0,000 mm 0,0 UV-I 0 W/m² -2,7 °C 0,2 °C 1,6 km/h (1 Bft)
30.12.2017 05:59 0,2 °C 0,2 °C 81 % 1011,7 hPa 0,0 mm 0,0 km/h (0 Bft) S 171 ° 0 min 0,000 mm 0,0 UV-I 0 W/m² -2,7 °C 0,2 °C 0,0 km/h (0 Bft)
30.12.2017 06:00 0,2 °C 0,2 °C 81 % 1011,8 hPa 0,0 mm 0,0 km/h (0 Bft) S 171 ° 0 min 0,025 mm 0,0 UV-I 0 W/m² -2,7 °C 0,2 °C 0,0 km/h (0 Bft)
30.12.2017 06:01 0,2 °C 0,2 °C 81 % 1011,8 hPa 0,0 mm 0,0 km/h (0 Bft) S 171 ° 0 min 0,000 mm 0,0 UV-I 0 W/m² -2,7 °C 0,2 °C 0,0 km/h (0 Bft)
30.12.2017 06:02 0,2 °C 0,2 °C 81 % 1011,9 hPa 0,0 mm 0,0 km/h (0 Bft) S 171 ° 0 min 0,000 mm 0,0 UV-I 0 W/m² -2,7 °C 0,2 °C 0,0 km/h (0 Bft)
30.12.2017 06:03 0,1 °C 0,2 °C 81 % 1011,8 hPa 0,0 mm 0,0 km/h (0 Bft) S 171 ° 0 min 0,000 mm 0,0 UV-I 0 W/m² -2,8 °C 0,1 °C 0,0 km/h (0 Bft)
30.12.2017 06:04 0,1 °C 0,1 °C 81 % 1011,9 hPa 0,0 mm 1,5 km/h (1 Bft) S 171 ° 0 min 0,000 mm 0,0 UV-I 0 W/m² -2,8 °C 0,1 °C 3,2 km/h (1 Bft)
30.12.2017 06:05 0,1 °C 0,1 °C 81 % 1011,9 hPa 0,0 mm 1,4 km/h (1 Bft) S 171 ° 0 min 0,000 mm 0,0 UV-I 0 W/m² -2,8 °C 0,1 °C 3,2 km/h (1 Bft)
30.12.2017 06:06 0,0 °C 0,1 °C 81 % 1011,9 hPa 0,0 mm 0,0 km/h (0 Bft) S 171 ° 0 min 0,000 mm 0,0 UV-I 0 W/m² -2,9 °C 0,0 °C 0,0 km/h (0 Bft)
30.12.2017 06:07 0,0 °C 0,0 °C 81 % 1011,8 hPa 0,0 mm 0,0 km/h (0 Bft) S 171 ° 0 min 0,000 mm 0,0 UV-I 0 W/m² -2,9 °C 0,0 °C 0,0 km/h (0 Bft)
30.12.2017 06:08 0,0 °C 0,0 °C 81 % 1011,9 hPa 0,0 mm 0,0 km/h (0 Bft) S 171 ° 0 min 0,000 mm 0,0 UV-I 0 W/m² -2,9 °C 0,0 °C 0,0 km/h (0 Bft)
30.12.2017 06:09 0,0 °C 0,0 °C 81 % 1011,9 hPa 0,0 mm 0,9 km/h (0 Bft) S 171 ° 0 min 0,000 mm 0,0 UV-I 0 W/m² -2,9 °C 0,0 °C 3,2 km/h (1 Bft)
30.12.2017 06:10 -0,1 °C 0,0 °C 81 % 1011,8 hPa 0,0 mm 1,5 km/h (1 Bft) S 171 ° 0 min 0,000 mm 0,0 UV-I 0 W/m² -3,0 °C -0,1 °C 3,2 km/h (1 Bft)
30.12.2017 06:11 -0,1 °C -0,1 °C 80 % 1011,8 hPa 0,0 mm 0,5 km/h (0 Bft) S 171 ° 0 min 0,000 mm 0,0 UV-I 0 W/m² -3,1 °C -0,1 °C 3,2 km/h (1 Bft)
30.12.2017 06:12 -0,1 °C -0,1 °C 81 % 1011,8 hPa 0,0 mm 0,0 km/h (0 Bft) S 171 ° 0 min 0,000 mm 0,0 UV-I 0 W/m² -3,0 °C -0,1 °C 0,0 km/h (0 Bft)
30.12.2017 06:13 -0,2 °C -0,1 °C 81 % 1011,8 hPa 0,0 mm 1,0 km/h (0 Bft) S 171 ° 0 min 0,000 mm 0,0 UV-I 0 W/m² -3,1 °C -0,2 °C 1,6 km/h (1 Bft)
30.12.2017 06:14 -0,2 °C -0,2 °C 80 % 1011,8 hPa 0,0 mm 0,3 km/h (0 Bft) S 171 ° 0 min 0,000 mm 0,0 UV-I 0 W/m² -3,2 °C -0,2 °C 1,6 km/h (1 Bft)
30.12.2017 06:15 -0,2 °C -0,2 °C 81 % 1011,8 hPa 0,0 mm 0,3 km/h (0 Bft) S 171 ° 0 min 0,000 mm 0,0 UV-I 0 W/m² -3,1 °C -0,2 °C 1,6 km/h (1 Bft)
30.12.2017 06:16 -0,2 °C -0,2 °C 80 % 1011,8 hPa 0,0 mm 0,0 km/h (0 Bft) S 171 ° 0 min 0,000 mm 0,0 UV-I 0 W/m² -3,2 °C -0,2 °C 0,0 km/h (0 Bft)
30.12.2017 06:17 -0,3 °C -0,2 °C 80 % 1011,8 hPa 0,0 mm 0,0 km/h (0 Bft) S 171 ° 0 min 0,000 mm 0,0 UV-I 0 W/m² -3,3 °C -0,3 °C 0,0 km/h (0 Bft)
30.12.2017 06:18 -0,3 °C -0,3 °C 81 % 1011,7 hPa 0,0 mm 0,9 km/h (0 Bft) S-SO 167 ° 0 min 0,000 mm 0,0 UV-I 0 W/m² -3,2 °C -0,3 °C 6,4 km/h (2 Bft)
30.12.2017 06:19 -0,3 °C -0,3 °C 81 % 1011,6 hPa 0,0 mm 5,4 km/h (1 Bft) S-SO 167 ° 0 min 0,000 mm 0,0 UV-I 0 W/m² -3,2 °C -2,1 °C 8,0 km/h (2 Bft)
30.12.2017 06:20 -0,3 °C -0,3 °C 81 % 1011,6 hPa 0,0 mm 0,9 km/h (0 Bft) S-SO 167 ° 0 min 0,000 mm 0,0 UV-I 0 W/m² -3,2 °C -0,3 °C 4,8 km/h (1 Bft)
30.12.2017 06:21 -0,3 °C -0,3 °C 81 % 1011,6 hPa 0,0 mm 0,0 km/h (0 Bft) S-SO 167 ° 0 min 0,000 mm 0,0 UV-I 0 W/m² -3,2 °C -0,3 °C 0,0 km/h (0 Bft)
30.12.2017 06:22 -0,3 °C -0,3 °C 81 % 1011,6 hPa 0,0 mm 0,0 km/h (0 Bft) S-SO 167 ° 0 min 0,000 mm 0,0 UV-I 0 W/m² -3,2 °C -0,3 °C 0,0 km/h (0 Bft)
30.12.2017 06:23 -0,4 °C -0,3 °C 81 % 1011,6 hPa 0,0 mm 1,2 km/h (1 Bft) S-SO 167 ° 0 min 0,000 mm 0,0 UV-I 0 W/m² -3,3 °C -0,4 °C 4,8 km/h (1 Bft)
30.12.2017 06:24 -0,4 °C -0,4 °C 81 % 1011,6 hPa 0,0 mm 0,2 km/h (0 Bft) S-SO 167 ° 0 min 0,000 mm 0,0 UV-I 0 W/m² -3,3 °C -0,4 °C 1,6 km/h (1 Bft)
30.12.2017 06:25 -0,4 °C -0,4 °C 81 % 1011,6 hPa 0,0 mm 0,0 km/h (0 Bft) S-SO 167 ° 0 min 0,000 mm 0,0 UV-I 0 W/m² -3,3 °C -0,4 °C 0,0 km/h (0 Bft)
30.12.2017 06:26 -0,4 °C -0,4 °C 81 % 1011,6 hPa 0,0 mm 0,0 km/h (0 Bft) S-SO 167 ° 0 min 0,000 mm 0,0 UV-I 0 W/m² -3,3 °C -0,4 °C 0,0 km/h (0 Bft)
30.12.2017 06:27 -0,5 °C -0,4 °C 81 % 1011,5 hPa 0,0 mm 0,5 km/h (0 Bft) S-SO 167 ° 0 min 0,000 mm 0,0 UV-I 0 W/m² -3,3 °C -0,5 °C 4,8 km/h (1 Bft)
30.12.2017 06:28 -0,5 °C -0,5 °C 80 % 1011,6 hPa 0,0 mm 3,6 km/h (1 Bft) S-SW 192 ° 0 min 0,000 mm 0,0 UV-I 0 W/m² -3,5 °C -0,5 °C 4,8 km/h (1 Bft)
30.12.2017 06:29 -0,5 °C -0,5 °C 80 % 1011,5 hPa 0,0 mm 5,6 km/h (1 Bft) S 191 ° 0 min 0,000 mm 0,0 UV-I 0 W/m² -3,5 °C -2,4 °C 8,0 km/h (2 Bft)
30.12.2017 06:30 -0,6 °C -0,5 °C 80 % 1011,5 hPa 0,0 mm 4,9 km/h (1 Bft) S 188 ° 0 min 0,000 mm 0,0 UV-I 0 W/m² -3,6 °C -2,2 °C 6,4 km/h (2 Bft)
30.12.2017 06:31 -0,6 °C -0,6 °C 80 % 1011,6 hPa 0,0 mm 3,4 km/h (1 Bft) S 188 ° 0 min 0,000 mm 0,0 UV-I 0 W/m² -3,6 °C -0,6 °C 6,4 km/h (2 Bft)
30.12.2017 06:32 -0,6 °C -0,6 °C 81 % 1011,5 hPa 0,0 mm 2,3 km/h (1 Bft) S 188 ° 0 min 0,000 mm 0,0 UV-I 0 W/m² -3,4 °C -0,6 °C 3,2 km/h (1 Bft)
30.12.2017 06:33 -0,6 °C -0,6 °C 81 % 1011,5 hPa 0,0 mm 2,6 km/h (1 Bft) S 188 ° 0 min 0,000 mm 0,0 UV-I 0 W/m² -3,4 °C -0,6 °C 3,2 km/h (1 Bft)
30.12.2017 06:34 -0,6 °C -0,6 °C 82 % 1011,5 hPa 0,0 mm 2,6 km/h (1 Bft) S 188 ° 0 min 0,000 mm 0,0 UV-I 0 W/m² -3,3 °C -0,6 °C 3,2 km/h (1 Bft)
30.12.2017 06:35 -0,7 °C -0,6 °C 82 % 1011,5 hPa 0,0 mm 3,3 km/h (1 Bft) S 188 ° 0 min 0,000 mm 0,0 UV-I 0 W/m² -3,4 °C -0,7 °C 4,8 km/h (1 Bft)
30.12.2017 06:36 -0,7 °C -0,7 °C 82 % 1011,5 hPa 0,0 mm 6,8 km/h (2 Bft) S-SW 204 ° 0 min 0,000 mm 0,0 UV-I 0 W/m² -3,4 °C -3,1 °C 8,0 km/h (2 Bft)
30.12.2017 06:37 -0,7 °C -0,7 °C 81 % 1011,5 hPa 0,0 mm 5,7 km/h (1 Bft) S-SW 196 ° 0 min 0,000 mm 0,0 UV-I 0 W/m² -3,5 °C -2,7 °C 8,0 km/h (2 Bft)
30.12.2017 06:38 -0,8 °C -0,7 °C 82 % 1011,5 hPa 0,0 mm 3,5 km/h (1 Bft) S-SW 196 ° 0 min 0,000 mm 0,0 UV-I 0 W/m² -3,5 °C -0,8 °C 4,8 km/h (1 Bft)
30.12.2017 06:39 -0,8 °C -0,8 °C 82 % 1011,5 hPa 0,0 mm 3,5 km/h (1 Bft) S-SW 196 ° 0 min 0,000 mm 0,0 UV-I 0 W/m² -3,5 °C -0,8 °C 4,8 km/h (1 Bft)
30.12.2017 06:40 -0,8 °C -0,8 °C 82 % 1011,5 hPa 0,0 mm 7,0 km/h (2 Bft) S-SW 202 ° 0 min 0,000 mm 0,0 UV-I 0 W/m² -3,5 °C -3,3 °C 9,7 km/h (2 Bft)
30.12.2017 06:41 -0,9 °C -0,8 °C 82 % 1011,5 hPa 0,0 mm 6,3 km/h (2 Bft) S-SW 198 ° 0 min 0,000 mm 0,0 UV-I 0 W/m² -3,6 °C -3,2 °C 9,7 km/h (2 Bft)
30.12.2017 06:42 -0,9 °C -0,9 °C 82 % 1011,5 hPa 0,0 mm 6,2 km/h (2 Bft) S-SO 158 ° 0 min 0,000 mm 0,0 UV-I 0 W/m² -3,6 °C -3,1 °C 8,0 km/h (2 Bft)
30.12.2017 06:43 -0,9 °C -0,9 °C 82 % 1011,4 hPa 0,0 mm 6,5 km/h (2 Bft) S-SO 152 ° 0 min 0,000 mm 0,0 UV-I 0 W/m² -3,6 °C -3,3 °C 8,0 km/h (2 Bft)
30.12.2017 06:44 -0,9 °C -0,9 °C 83 % 1011,4 hPa 0,0 mm 5,4 km/h (1 Bft) S-SO 151 ° 0 min 0,000 mm 0,0 UV-I 0 W/m² -3,4 °C -2,8 °C 6,4 km/h (2 Bft)
30.12.2017 06:45 -0,9 °C -0,9 °C 83 % 1011,4 hPa 0,0 mm 4,1 km/h (1 Bft) S-SO 152 ° 0 min 0,000 mm 0,0 UV-I 0 W/m² -3,4 °C -0,9 °C 4,8 km/h (1 Bft)
30.12.2017 06:46 -0,9 °C -0,9 °C 83 % 1011,4 hPa 0,0 mm 4,7 km/h (1 Bft) S-SO 152 ° 0 min 0,000 mm 0,0 UV-I 0 W/m² -3,4 °C -2,5 °C 6,4 km/h (2 Bft)
30.12.2017 06:47 -1,0 °C -0,9 °C 83 % 1011,4 hPa 0,0 mm 3,0 km/h (1 Bft) S-SO 152 ° 0 min 0,000 mm 0,0 UV-I 0 W/m² -3,5 °C -1,0 °C 4,8 km/h (1 Bft)
30.12.2017 06:48 -1,0 °C -0,9 °C 83 % 1011,5 hPa 0,0 mm 4,2 km/h (1 Bft) S-SO 165 ° 0 min 0,000 mm 0,0 UV-I 0 W/m² -3,5 °C -1,0 °C 6,4 km/h (2 Bft)
30.12.2017 06:49 -1,1 °C -1,0 °C 83 % 1011,4 hPa 0,0 mm 4,7 km/h (1 Bft) S-SO 165 ° 0 min 0,000 mm 0,0 UV-I 0 W/m² -3,6 °C -2,7 °C 6,4 km/h (2 Bft)
30.12.2017 06:50 -1,1 °C -1,0 °C 83 % 1011,4 hPa 0,0 mm 5,1 km/h (1 Bft) S-SO 156 ° 0 min 0,000 mm 0,0 UV-I 0 W/m² -3,6 °C -2,9 °C 8,0 km/h (2 Bft)
30.12.2017 06:51 -1,1 °C -1,1 °C 83 % 1011,5 hPa 0,0 mm 4,0 km/h (1 Bft) S-SO 156 ° 0 min 0,000 mm 0,0 UV-I 0 W/m² -3,6 °C -1,1 °C 8,0 km/h (2 Bft)
30.12.2017 06:52 -1,1 °C -1,1 °C 83 % 1011,5 hPa 0,0 mm 2,6 km/h (1 Bft) S-SO 156 ° 0 min 0,000 mm 0,0 UV-I 0 W/m² -3,6 °C -1,1 °C 3,2 km/h (1 Bft)
30.12.2017 06:53 -1,1 °C -1,1 °C 83 % 1011,5 hPa 0,0 mm 3,2 km/h (1 Bft) S-SO 156 ° 0 min 0,000 mm 0,0 UV-I 0 W/m² -3,6 °C -1,1 °C 4,8 km/h (1 Bft)
30.12.2017 06:54 -1,1 °C -1,1 °C 84 % 1011,5 hPa 0,0 mm 3,4 km/h (1 Bft) S-SO 157 ° 0 min 0,000 mm 0,0 UV-I 0 W/m² -3,4 °C -1,1 °C 8,0 km/h (2 Bft)
30.12.2017 06:55 -1,1 °C -1,1 °C 84 % 1011,4 hPa 0,0 mm 4,1 km/h (1 Bft) S-SO 157 ° 0 min 0,000 mm 0,0 UV-I 0 W/m² -3,4 °C -1,1 °C 4,8 km/h (1 Bft)
30.12.2017 06:56 -1,1 °C -1,1 °C 84 % 1011,4 hPa 0,0 mm 3,4 km/h (1 Bft) S-SO 157 ° 0 min 0,000 mm 0,0 UV-I 0 W/m² -3,4 °C -1,1 °C 4,8 km/h (1 Bft)
30.12.2017 06:57 -1,1 °C -1,1 °C 84 % 1011,4 hPa 0,0 mm 2,9 km/h (1 Bft) S-SO 157 ° 0 min 0,000 mm 0,0 UV-I 0 W/m² -3,4 °C -1,1 °C 3,2 km/h (1 Bft)
30.12.2017 06:58 -1,1 °C -1,1 °C 84 % 1011,3 hPa 0,0 mm 2,4 km/h (1 Bft) S-SO 159 ° 0 min 0,000 mm 0,0 UV-I 0 W/m² -3,4 °C -1,1 °C 6,4 km/h (2 Bft)
30.12.2017 06:59 -1,1 °C -1,1 °C 83 % 1011,4 hPa 0,0 mm 2,2 km/h (1 Bft) S-SO 159 ° 0 min 0,000 mm 0,0 UV-I 0 W/m² -3,6 °C -1,1 °C 3,2 km/h (1 Bft)
30.12.2017 07:00 -1,1 °C -1,1 °C 84 % 1011,4 hPa 0,0 mm 3,0 km/h (1 Bft) S-SO 159 ° 0 min 0,000 mm 0,0 UV-I 0 W/m² -3,4 °C -1,1 °C 6,4 km/h (2 Bft)
30.12.2017 07:01 -1,1 °C -1,1 °C 83 % 1011,3 hPa 0,0 mm 1,6 km/h (1 Bft) S-SO 159 ° 0 min 0,000 mm 0,0 UV-I 0 W/m² -3,6 °C -1,1 °C 3,2 km/h (1 Bft)
30.12.2017 07:02 -1,1 °C -1,1 °C 83 % 1011,4 hPa 0,0 mm 0,2 km/h (0 Bft) S-SO 159 ° 0 min 0,000 mm 0,0 UV-I 0 W/m² -3,6 °C -1,1 °C 1,6 km/h (1 Bft)
30.12.2017 07:03 -1,1 °C -1,1 °C 83 % 1011,4 hPa 0,0 mm 0,0 km/h (0 Bft) S-SO 159 ° 0 min 0,000 mm 0,0 UV-I 0 W/m² -3,6 °C -1,1 °C 0,0 km/h (0 Bft)
30.12.2017 07:04 -1,1 °C -1,1 °C 83 % 1011,3 hPa 0,0 mm 0,3 km/h (0 Bft) S-SO 159 ° 0 min 0,000 mm 0,0 UV-I 0 W/m² -3,6 °C -1,1 °C 1,6 km/h (1 Bft)
30.12.2017 07:05 -1,1 °C -1,1 °C 83 % 1011,3 hPa 0,0 mm 0,0 km/h (0 Bft) S-SO 159 ° 0 min 0,000 mm 0,0 UV-I 0 W/m² -3,6 °C -1,1 °C 0,0 km/h (0 Bft)
30.12.2017 07:06 -1,2 °C -1,1 °C 83 % 1011,3 hPa 0,0 mm 0,0 km/h (0 Bft) S-SO 159 ° 0 min 0,000 mm 0,0 UV-I 0 W/m² -3,7 °C -1,2 °C 0,0 km/h (0 Bft)
30.12.2017 07:07 -1,2 °C -1,2 °C 83 % 1011,3 hPa 0,0 mm 1,4 km/h (1 Bft) S-SW 210 ° 0 min 0,000 mm 0,0 UV-I 0 W/m² -3,7 °C -1,2 °C 3,2 km/h (1 Bft)
30.12.2017 07:08 -1,2 °C -1,2 °C 83 % 1011,3 hPa 0,0 mm 1,1 km/h (1 Bft) S-SW 210 ° 0 min 0,000 mm 0,0 UV-I 0 W/m² -3,7 °C -1,2 °C 1,6 km/h (1 Bft)
30.12.2017 07:09 -1,2 °C -1,2 °C 84 % 1011,3 hPa 0,0 mm 0,6 km/h (0 Bft) S-SW 210 ° 0 min 0,000 mm 0,0 UV-I 0 W/m² -3,5 °C -1,2 °C 1,6 km/h (1 Bft)
30.12.2017 07:10 -1,2 °C -1,2 °C 84 % 1011,3 hPa 0,0 mm 0,0 km/h (0 Bft) S-SW 210 ° 0 min 0,000 mm 0,0 UV-I 0 W/m² -3,5 °C -1,2 °C 0,0 km/h (0 Bft)
30.12.2017 07:11 -1,2 °C -1,2 °C 84 % 1011,3 hPa 0,0 mm 0,0 km/h (0 Bft) S-SW 210 ° 0 min 0,000 mm 0,0 UV-I 0 W/m² -3,5 °C -1,2 °C 0,0 km/h (0 Bft)
30.12.2017 07:12 -1,2 °C -1,2 °C 84 % 1011,4 hPa 0,0 mm 0,0 km/h (0 Bft) S-SW 210 ° 0 min 0,000 mm 0,0 UV-I 0 W/m² -3,5 °C -1,2 °C 0,0 km/h (0 Bft)
30.12.2017 07:13 -1,3 °C -1,2 °C 83 % 1011,3 hPa 0,0 mm 0,0 km/h (0 Bft) S-SW 210 ° 0 min 0,000 mm 0,0 UV-I 0 W/m² -3,8 °C -1,3 °C 0,0 km/h (0 Bft)
30.12.2017 07:14 -1,3 °C -1,3 °C 84 % 1011,4 hPa 0,0 mm 0,0 km/h (0 Bft) S-SW 210 ° 0 min 0,000 mm 0,0 UV-I 0 W/m² -3,6 °C -1,3 °C 0,0 km/h (0 Bft)
30.12.2017 07:15 -1,3 °C -1,3 °C 84 % 1011,4 hPa 0,0 mm 0,0 km/h (0 Bft) S-SW 210 ° 0 min 0,000 mm 0,0 UV-I 0 W/m² -3,6 °C -1,3 °C 0,0 km/h (0 Bft)
30.12.2017 07:16 -1,3 °C -1,3 °C 84 % 1011,3 hPa 0,0 mm 0,0 km/h (0 Bft) S-SW 210 ° 0 min 0,000 mm 0,0 UV-I 0 W/m² -3,6 °C -1,3 °C 0,0 km/h (0 Bft)
30.12.2017 07:17 -1,3 °C -1,3 °C 84 % 1011,4 hPa 0,0 mm 0,0 km/h (0 Bft) S-SW 210 ° 0 min 0,000 mm 0,0 UV-I 0 W/m² -3,6 °C -1,3 °C 0,0 km/h (0 Bft)
30.12.2017 07:18 -1,3 °C -1,3 °C 84 % 1011,4 hPa 0,0 mm 0,0 km/h (0 Bft) S-SW 210 ° 0 min 0,000 mm 0,0 UV-I 0 W/m² -3,6 °C -1,3 °C 0,0 km/h (0 Bft)
30.12.2017 07:19 -1,3 °C -1,3 °C 84 % 1011,4 hPa 0,0 mm 0,0 km/h (0 Bft) S-SW 210 ° 0 min 0,000 mm 0,0 UV-I 0 W/m² -3,6 °C -1,3 °C 0,0 km/h (0 Bft)
30.12.2017 07:20 -1,3 °C -1,3 °C 85 % 1011,4 hPa 0,0 mm 0,0 km/h (0 Bft) S-SW 210 ° 0 min 0,000 mm 0,0 UV-I 0 W/m² -3,5 °C -1,3 °C 0,0 km/h (0 Bft)
30.12.2017 07:21 -1,3 °C -1,3 °C 85 % 1011,4 hPa 0,0 mm 0,0 km/h (0 Bft) S-SW 210 ° 0 min 0,000 mm 0,0 UV-I 0 W/m² -3,5 °C -1,3 °C 0,0 km/h (0 Bft)
30.12.2017 07:22 -1,4 °C -1,3 °C 85 % 1011,4 hPa 0,0 mm 0,0 km/h (0 Bft) S-SW 210 ° 0 min 0,000 mm 0,0 UV-I 0 W/m² -3,6 °C -1,4 °C 0,0 km/h (0 Bft)
30.12.2017 07:23 -1,4 °C -1,3 °C 85 % 1011,3 hPa 0,0 mm 0,0 km/h (0 Bft) S-SW 210 ° 0 min 0,000 mm 0,0 UV-I 0 W/m² -3,6 °C -1,4 °C 0,0 km/h (0 Bft)
30.12.2017 07:24 -1,4 °C -1,3 °C 85 % 1011,3 hPa 0,0 mm 0,0 km/h (0 Bft) S-SW 210 ° 0 min 0,000 mm 0,0 UV-I 0 W/m² -3,6 °C -1,4 °C 0,0 km/h (0 Bft)
30.12.2017 07:25 -1,4 °C -1,4 °C 85 % 1011,3 hPa 0,0 mm 0,0 km/h (0 Bft) S-SW 210 ° 0 min 0,000 mm 0,0 UV-I 0 W/m² -3,6 °C -1,4 °C 0,0 km/h (0 Bft)
30.12.2017 07:26 -1,4 °C -1,4 °C 85 % 1011,3 hPa 0,0 mm 0,0 km/h (0 Bft) S-SW 210 ° 0 min 0,000 mm 0,0 UV-I 0 W/m² -3,6 °C -1,4 °C 0,0 km/h (0 Bft)
30.12.2017 07:27 -1,4 °C -1,4 °C 85 % 1011,3 hPa 0,0 mm 0,0 km/h (0 Bft) S-SW 210 ° 0 min 0,000 mm 0,0 UV-I 0 W/m² -3,6 °C -1,4 °C 0,0 km/h (0 Bft)
30.12.2017 07:28 -1,4 °C -1,4 °C 85 % 1011,3 hPa 0,0 mm 0,0 km/h (0 Bft) S-SW 210 ° 0 min 0,000 mm 0,0 UV-I 0 W/m² -3,6 °C -1,4 °C 0,0 km/h (0 Bft)
30.12.2017 07:29 -1,4 °C -1,4 °C 85 % 1011,3 hPa 0,0 mm 0,0 km/h (0 Bft) S-SW 210 ° 0 min 0,000 mm 0,0 UV-I 0 W/m² -3,6 °C -1,4 °C 0,0 km/h (0 Bft)
30.12.2017 07:30 -1,4 °C -1,4 °C 85 % 1011,3 hPa 0,0 mm 0,0 km/h (0 Bft) S-SW 210 ° 0 min 0,000 mm 0,0 UV-I 0 W/m² -3,6 °C -1,4 °C 0,0 km/h (0 Bft)
30.12.2017 07:31 -1,4 °C -1,4 °C 85 % 1011,3 hPa 0,0 mm 0,0 km/h (0 Bft) S-SW 210 ° 0 min 0,000 mm 0,0 UV-I 0 W/m² -3,6 °C -1,4 °C 0,0 km/h (0 Bft)
30.12.2017 07:32 -1,4 °C -1,4 °C 85 % 1011,2 hPa 0,0 mm 0,0 km/h (0 Bft) S-SW 210 ° 0 min 0,000 mm 0,0 UV-I 0 W/m² -3,6 °C -1,4 °C 0,0 km/h (0 Bft)
30.12.2017 07:33 -1,5 °C -1,4 °C 85 % 1011,2 hPa 0,0 mm 0,0 km/h (0 Bft) S-SW 210 ° 0 min 0,000 mm 0,0 UV-I 0 W/m² -3,7 °C -1,5 °C 0,0 km/h (0 Bft)
30.12.2017 07:34 -1,5 °C -1,5 °C 85 % 1011,2 hPa 0,0 mm 0,0 km/h (0 Bft) S-SW 210 ° 0 min 0,000 mm 0,0 UV-I 0 W/m² -3,7 °C -1,5 °C 0,0 km/h (0 Bft)
30.12.2017 07:35 -1,5 °C -1,5 °C 85 % 1011,2 hPa 0,0 mm 0,0 km/h (0 Bft) S-SW 210 ° 0 min 0,000 mm 0,0 UV-I 0 W/m² -3,7 °C -1,5 °C 0,0 km/h (0 Bft)
30.12.2017 07:36 -1,5 °C -1,5 °C 85 % 1011,2 hPa 0,0 mm 0,0 km/h (0 Bft) S-SW 210 ° 0 min 0,000 mm 0,0 UV-I 0 W/m² -3,7 °C -1,5 °C 0,0 km/h (0 Bft)
30.12.2017 07:37 -1,5 °C -1,5 °C 85 % 1011,3 hPa 0,0 mm 0,0 km/h (0 Bft) S-SW 210 ° 0 min 0,000 mm 0,0 UV-I 0 W/m² -3,7 °C -1,5 °C 0,0 km/h (0 Bft)
30.12.2017 07:38 -1,6 °C -1,5 °C 85 % 1011,3 hPa 0,0 mm 0,0 km/h (0 Bft) S-SW 210 ° 0 min 0,000 mm 0,0 UV-I 0 W/m² -3,8 °C -1,6 °C 0,0 km/h (0 Bft)
30.12.2017 07:39 -1,6 °C -1,6 °C 85 % 1011,3 hPa 0,0 mm 0,0 km/h (0 Bft) S-SW 210 ° 0 min 0,000 mm 0,0 UV-I 0 W/m² -3,8 °C -1,6 °C 0,0 km/h (0 Bft)
30.12.2017 07:40 -1,6 °C -1,6 °C 85 % 1011,3 hPa 0,0 mm 0,0 km/h (0 Bft) S-SW 210 ° 0 min 0,000 mm 0,0 UV-I 0 W/m² -3,8 °C -1,6 °C 0,0 km/h (0 Bft)
30.12.2017 07:41 -1,6 °C -1,6 °C 85 % 1011,3 hPa 0,0 mm 0,0 km/h (0 Bft) S-SW 210 ° 0 min 0,000 mm 0,0 UV-I 0 W/m² -3,8 °C -1,6 °C 0,0 km/h (0 Bft)
30.12.2017 07:42 -1,6 °C -1,6 °C 85 % 1011,3 hPa 0,0 mm 0,0 km/h (0 Bft) S-SW 210 ° 0 min 0,000 mm 0,0 UV-I 0 W/m² -3,8 °C -1,6 °C 0,0 km/h (0 Bft)
30.12.2017 07:43 -1,6 °C -1,6 °C 85 % 1011,2 hPa 0,0 mm 0,0 km/h (0 Bft) S-SW 210 ° 0 min 0,000 mm 0,0 UV-I 0 W/m² -3,8 °C -1,6 °C 0,0 km/h (0 Bft)
30.12.2017 07:44 -1,6 °C -1,6 °C 85 % 1011,2 hPa 0,0 mm 0,0 km/h (0 Bft) S-SW 210 ° 0 min 0,000 mm 0,0 UV-I 0 W/m² -3,8 °C -1,6 °C 0,0 km/h (0 Bft)
30.12.2017 07:45 -1,6 °C -1,6 °C 85 % 1011,2 hPa 0,0 mm 0,0 km/h (0 Bft) S-SW 210 ° 0 min 0,000 mm 0,0 UV-I 0 W/m² -3,8 °C -1,6 °C 0,0 km/h (0 Bft)
30.12.2017 07:46 -1,6 °C -1,6 °C 85 % 1011,2 hPa 0,0 mm 0,0 km/h (0 Bft) S-SW 210 ° 0 min 0,000 mm 0,0 UV-I 0 W/m² -3,8 °C -1,6 °C 0,0 km/h (0 Bft)
30.12.2017 07:47 -1,7 °C -1,6 °C 85 % 1011,2 hPa 0,0 mm 0,0 km/h (0 Bft) S-SW 210 ° 0 min 0,000 mm 0,0 UV-I 0 W/m² -3,9 °C -1,7 °C 0,0 km/h (0 Bft)
30.12.2017 07:48 -1,7 °C -1,7 °C 85 % 1011,2 hPa 0,0 mm 0,0 km/h (0 Bft) S-SW 210 ° 0 min 0,000 mm 0,0 UV-I 0 W/m² -3,9 °C -1,7 °C 0,0 km/h (0 Bft)
30.12.2017 07:49 -1,7 °C -1,7 °C 85 % 1011,2 hPa 0,0 mm 0,0 km/h (0 Bft) S-SW 210 ° 0 min 0,000 mm 0,0 UV-I 0 W/m² -3,9 °C -1,7 °C 0,0 km/h (0 Bft)
30.12.2017 07:50 -1,7 °C -1,7 °C 86 % 1011,2 hPa 0,0 mm 0,0 km/h (0 Bft) S-SW 210 ° 0 min 0,000 mm 0,0 UV-I 0 W/m² -3,7 °C -1,7 °C 0,0 km/h (0 Bft)
30.12.2017 07:51 -1,7 °C -1,7 °C 86 % 1011,2 hPa 0,0 mm 0,0 km/h (0 Bft) S-SW 210 ° 0 min 0,000 mm 0,0 UV-I 0 W/m² -3,7 °C -1,7 °C 0,0 km/h (0 Bft)
30.12.2017 07:52 -1,8 °C -1,7 °C 86 % 1011,2 hPa 0,0 mm 0,0 km/h (0 Bft) S-SW 210 ° 0 min 0,000 mm 0,0 UV-I 0 W/m² -3,8 °C -1,8 °C 0,0 km/h (0 Bft)
30.12.2017 07:53 -1,8 °C -1,7 °C 86 % 1011,3 hPa 0,0 mm 0,0 km/h (0 Bft) S-SW 210 ° 0 min 0,000 mm 0,0 UV-I 0 W/m² -3,8 °C -1,8 °C 0,0 km/h (0 Bft)
30.12.2017 07:54 -1,8 °C -1,8 °C 86 % 1011,3 hPa 0,0 mm 0,0 km/h (0 Bft) S-SW 210 ° 0 min 0,000 mm 0,0 UV-I 0 W/m² -3,8 °C -1,8 °C 0,0 km/h (0 Bft)
30.12.2017 07:55 -1,8 °C -1,8 °C 86 % 1011,3 hPa 0,0 mm 0,0 km/h (0 Bft) S-SW 210 ° 0 min 0,000 mm 0,0 UV-I 0 W/m² -3,8 °C -1,8 °C 0,0 km/h (0 Bft)
30.12.2017 07:56 -1,8 °C -1,8 °C 86 % 1011,3 hPa 0,0 mm 0,0 km/h (0 Bft) S-SW 210 ° 0 min 0,000 mm 0,0 UV-I 0 W/m² -3,8 °C -1,8 °C 0,0 km/h (0 Bft)
30.12.2017 07:57 -1,8 °C -1,8 °C 86 % 1011,3 hPa 0,0 mm 0,0 km/h (0 Bft) S-SW 210 ° 0 min 0,000 mm 0,0 UV-I 0 W/m² -3,8 °C -1,8 °C 0,0 km/h (0 Bft)
30.12.2017 07:58 -1,8 °C -1,8 °C 86 % 1011,3 hPa 0,0 mm 0,0 km/h (0 Bft) S-SW 210 ° 0 min 0,000 mm 0,0 UV-I 0 W/m² -3,8 °C -1,8 °C 0,0 km/h (0 Bft)
30.12.2017 07:59 -1,8 °C -1,8 °C 86 % 1011,3 hPa 0,0 mm 0,0 km/h (0 Bft) S-SW 210 ° 0 min 0,000 mm 0,0 UV-I 0 W/m² -3,8 °C -1,8 °C 0,0 km/h (0 Bft)
30.12.2017 08:00 -1,8 °C -1,8 °C 87 % 1011,2 hPa 0,0 mm 0,0 km/h (0 Bft) S-SW 210 ° 0 min 0,000 mm 0,0 UV-I 0 W/m² -3,7 °C -1,8 °C 0,0 km/h (0 Bft)
30.12.2017 08:01 -1,8 °C -1,8 °C 86 % 1011,2 hPa 0,0 mm 0,0 km/h (0 Bft) S-SW 210 ° 0 min 0,000 mm 0,0 UV-I 0 W/m² -3,8 °C -1,8 °C 0,0 km/h (0 Bft)
30.12.2017 08:02 -1,8 °C -1,8 °C 87 % 1011,3 hPa 0,0 mm 0,0 km/h (0 Bft) S-SW 210 ° 0 min 0,000 mm 0,0 UV-I 0 W/m² -3,7 °C -1,8 °C 0,0 km/h (0 Bft)
30.12.2017 08:03 -1,8 °C -1,8 °C 87 % 1011,4 hPa 0,0 mm 0,0 km/h (0 Bft) S-SW 210 ° 0 min 0,000 mm 0,0 UV-I 0 W/m² -3,7 °C -1,8 °C 0,0 km/h (0 Bft)
30.12.2017 08:04 -1,8 °C -1,8 °C 87 % 1011,4 hPa 0,0 mm 0,6 km/h (0 Bft) S-SW 210 ° 0 min 0,000 mm 0,0 UV-I 0 W/m² -3,7 °C -1,8 °C 3,2 km/h (1 Bft)
30.12.2017 08:05 -1,8 °C -1,8 °C 87 % 1011,4 hPa 0,0 mm 2,1 km/h (1 Bft) S-SW 210 ° 0 min 0,000 mm 0,0 UV-I 0 W/m² -3,7 °C -1,8 °C 3,2 km/h (1 Bft)
30.12.2017 08:06 -1,8 °C -1,8 °C 87 % 1011,4 hPa 0,0 mm 0,6 km/h (0 Bft) S-SW 210 ° 0 min 0,000 mm 0,0 UV-I 0 W/m² -3,7 °C -1,8 °C 1,6 km/h (1 Bft)
30.12.2017 08:07 -1,8 °C -1,8 °C 87 % 1011,5 hPa 0,0 mm 1,8 km/h (1 Bft) S-SW 210 ° 0 min 0,000 mm 0,0 UV-I 0 W/m² -3,7 °C -1,8 °C 4,8 km/h (1 Bft)
30.12.2017 08:08 -1,8 °C -1,8 °C 87 % 1011,5 hPa 0,0 mm 1,5 km/h (1 Bft) S-SW 211 ° 0 min 0,000 mm 0,0 UV-I 0 W/m² -3,7 °C -1,8 °C 3,2 km/h (1 Bft)
30.12.2017 08:09 -1,8 °C -1,8 °C 87 % 1011,6 hPa 0,0 mm 3,8 km/h (1 Bft) W-SW 245 ° 0 min 0,000 mm 0,0 UV-I 0 W/m² -3,7 °C -1,8 °C 4,8 km/h (1 Bft)
30.12.2017 08:10 -1,8 °C -1,8 °C 87 % 1011,7 hPa 0,0 mm 0,6 km/h (0 Bft) W-SW 245 ° 0 min 0,000 mm 0,0 UV-I 0 W/m² -3,7 °C -1,8 °C 3,2 km/h (1 Bft)
30.12.2017 08:11 -1,8 °C -1,8 °C 87 % 1011,8 hPa 0,0 mm 3,4 km/h (1 Bft) W 259 ° 0 min 0,000 mm 0,0 UV-I 0 W/m² -3,7 °C -1,8 °C 4,8 km/h (1 Bft)
30.12.2017 08:12 -1,8 °C -1,7 °C 87 % 1011,8 hPa 0,0 mm 0,7 km/h (0 Bft) W 259 ° 0 min 0,000 mm 0,0 UV-I 0 W/m² -3,7 °C -1,8 °C 4,8 km/h (1 Bft)
30.12.2017 08:13 -1,7 °C -1,7 °C 87 % 1011,8 hPa 0,0 mm 5,5 km/h (1 Bft) S-SO 162 ° 0 min 0,000 mm 0,0 UV-I 0 W/m² -3,6 °C -3,8 °C 8,0 km/h (2 Bft)
30.12.2017 08:14 -1,7 °C -1,7 °C 87 % 1011,7 hPa 0,0 mm 3,8 km/h (1 Bft) S-SO 162 ° 0 min 0,000 mm 0,0 UV-I 0 W/m² -3,6 °C -1,7 °C 6,4 km/h (2 Bft)
30.12.2017 08:15 -1,6 °C -1,6 °C 88 % 1011,8 hPa 0,0 mm 0,6 km/h (0 Bft) S-SO 154 ° 0 min 0,000 mm 0,0 UV-I 0 W/m² -3,3 °C -1,6 °C 1,6 km/h (1 Bft)
30.12.2017 08:16 -1,6 °C -1,6 °C 88 % 1011,7 hPa 0,0 mm 0,7 km/h (0 Bft) S-SO 154 ° 0 min 0,000 mm 0,0 UV-I 0 W/m² -3,3 °C -1,6 °C 3,2 km/h (1 Bft)
30.12.2017 08:17 -1,6 °C -1,6 °C 88 % 1011,8 hPa 0,0 mm 0,0 km/h (0 Bft) S-SO 154 ° 0 min 0,000 mm 0,0 UV-I 0 W/m² -3,3 °C -1,6 °C 0,0 km/h (0 Bft)
30.12.2017 08:18 -1,6 °C -1,6 °C 88 % 1011,8 hPa 0,0 mm 0,4 km/h (0 Bft) S-SO 154 ° 0 min 0,000 mm 0,0 UV-I 0 W/m² -3,3 °C -1,6 °C 1,6 km/h (1 Bft)
30.12.2017 08:19 -1,5 °C -1,5 °C 88 % 1011,8 hPa 0,0 mm 0,9 km/h (0 Bft) S-SO 154 ° 0 min 0,000 mm 0,0 UV-I 0 W/m² -3,2 °C -1,5 °C 3,2 km/h (1 Bft)
30.12.2017 08:20 -1,5 °C -1,5 °C 88 % 1011,8 hPa 0,0 mm 1,8 km/h (1 Bft) S-SO 154 ° 0 min 0,000 mm 0,0 UV-I 0 W/m² -3,2 °C -1,5 °C 3,2 km/h (1 Bft)
30.12.2017 08:21 -1,5 °C -1,5 °C 88 % 1011,8 hPa 0,0 mm 0,3 km/h (0 Bft) S-SO 154 ° 0 min 0,000 mm 0,0 UV-I 0 W/m² -3,2 °C -1,5 °C 3,2 km/h (1 Bft)
30.12.2017 08:22 -1,4 °C -1,4 °C 88 % 1011,8 hPa 0,0 mm 0,0 km/h (0 Bft) S-SO 154 ° 0 min 0,000 mm 0,0 UV-I 0 W/m² -3,1 °C -1,4 °C 0,0 km/h (0 Bft)
30.12.2017 08:23 -1,4 °C -1,4 °C 88 % 1011,9 hPa 0,0 mm 0,0 km/h (0 Bft) S-SO 154 ° 0 min 0,000 mm 0,0 UV-I 0 W/m² -3,1 °C -1,4 °C 0,0 km/h (0 Bft)
30.12.2017 08:24 -1,4 °C -1,4 °C 88 % 1011,9 hPa 0,0 mm 0,9 km/h (0 Bft) S-SO 154 ° 0 min 0,000 mm 0,0 UV-I 5 W/m² -3,1 °C -1,4 °C 3,2 km/h (1 Bft)
30.12.2017 08:25 -1,4 °C -1,4 °C 88 % 1011,9 hPa 0,0 mm 0,0 km/h (0 Bft) S-SO 154 ° 0 min 0,000 mm 0,0 UV-I 5 W/m² -3,1 °C -1,4 °C 0,0 km/h (0 Bft)
30.12.2017 08:26 -1,4 °C -1,4 °C 88 % 1011,9 hPa 0,0 mm 0,0 km/h (0 Bft) S-SO 154 ° 0 min 0,000 mm 0,0 UV-I 5 W/m² -3,1 °C -1,4 °C 0,0 km/h (0 Bft)
30.12.2017 08:27 -1,4 °C -1,4 °C 88 % 1012,0 hPa 0,0 mm 0,0 km/h (0 Bft) S-SO 154 ° 0 min 0,000 mm 0,0 UV-I 5 W/m² -3,1 °C -1,4 °C 0,0 km/h (0 Bft)
30.12.2017 08:28 -1,4 °C -1,4 °C 88 % 1011,9 hPa 0,0 mm 0,0 km/h (0 Bft) S-SO 154 ° 0 min 0,000 mm 0,0 UV-I 5 W/m² -3,1 °C -1,4 °C 0,0 km/h (0 Bft)
30.12.2017 08:29 -1,3 °C -1,3 °C 88 % 1012,0 hPa 0,0 mm 0,0 km/h (0 Bft) S-SO 154 ° 0 min 0,000 mm 0,0 UV-I 5 W/m² -3,0 °C -1,3 °C 0,0 km/h (0 Bft)
30.12.2017 08:30 -1,4 °C -1,3 °C 88 % 1011,9 hPa 0,0 mm 0,0 km/h (0 Bft) S-SO 154 ° 0 min 0,000 mm 0,0 UV-I 5 W/m² -3,1 °C -1,4 °C 0,0 km/h (0 Bft)
30.12.2017 08:31 -1,3 °C -1,3 °C 88 % 1011,8 hPa 0,0 mm 2,9 km/h (1 Bft) S-SO 154 ° 0 min 0,000 mm 0,0 UV-I 5 W/m² -3,0 °C -1,3 °C 3,2 km/h (1 Bft)
30.12.2017 08:32 -1,3 °C -1,3 °C 88 % 1011,8 hPa 0,0 mm 0,7 km/h (0 Bft) S-SO 154 ° 0 min 0,000 mm 0,0 UV-I 5 W/m² -3,0 °C -1,3 °C 1,6 km/h (1 Bft)
30.12.2017 08:33 -1,3 °C -1,3 °C 88 % 1011,8 hPa 0,0 mm 0,2 km/h (0 Bft) S-SO 154 ° 0 min 0,000 mm 0,0 UV-I 5 W/m² -3,0 °C -1,3 °C 1,6 km/h (1 Bft)
30.12.2017 08:34 -1,3 °C -1,3 °C 88 % 1011,8 hPa 0,0 mm 0,0 km/h (0 Bft) S-SO 154 ° 0 min 0,000 mm 0,0 UV-I 5 W/m² -3,0 °C -1,3 °C 0,0 km/h (0 Bft)
30.12.2017 08:35 -1,3 °C -1,3 °C 88 % 1011,8 hPa 0,0 mm 1,3 km/h (1 Bft) S-SO 154 ° 0 min 0,000 mm 0,0 UV-I 5 W/m² -3,0 °C -1,3 °C 3,2 km/h (1 Bft)
30.12.2017 08:36 -1,3 °C -1,2 °C 88 % 1011,8 hPa 0,0 mm 3,0 km/h (1 Bft) S-SO 154 ° 0 min 0,000 mm 0,0 UV-I 5 W/m² -3,0 °C -1,3 °C 4,8 km/h (1 Bft)
30.12.2017 08:37 -1,2 °C -1,2 °C 88 % 1011,8 hPa 0,0 mm 2,6 km/h (1 Bft) S-SO 154 ° 0 min 0,000 mm 0,0 UV-I 7 W/m² -2,9 °C -1,2 °C 3,2 km/h (1 Bft)
30.12.2017 08:38 -1,2 °C -1,2 °C 88 % 1011,8 hPa 0,0 mm 1,9 km/h (1 Bft) S-SO 154 ° 0 min 0,000 mm 0,0 UV-I 9 W/m² -2,9 °C -1,2 °C 3,2 km/h (1 Bft)
30.12.2017 08:39 -1,2 °C -1,2 °C 88 % 1011,8 hPa 0,0 mm 0,9 km/h (0 Bft) S-SO 154 ° 0 min 0,000 mm 0,0 UV-I 11 W/m² -2,9 °C -1,2 °C 1,6 km/h (1 Bft)
30.12.2017 08:40 -1,2 °C -1,2 °C 88 % 1011,8 hPa 0,0 mm 1,5 km/h (1 Bft) S-SO 154 ° 0 min 0,000 mm 0,0 UV-I 12 W/m² -2,9 °C -1,2 °C 3,2 km/h (1 Bft)
30.12.2017 08:41 -1,2 °C -1,2 °C 88 % 1011,6 hPa 0,0 mm 0,7 km/h (0 Bft) S-SO 154 ° 0 min 0,000 mm 0,0 UV-I 14 W/m² -2,9 °C -1,2 °C 1,6 km/h (1 Bft)
30.12.2017 08:42 -1,1 °C -1,1 °C 88 % 1011,6 hPa 0,0 mm 0,0 km/h (0 Bft) S-SO 154 ° 0 min 0,000 mm 0,0 UV-I 16 W/m² -2,8 °C -1,1 °C 0,0 km/h (0 Bft)
30.12.2017 08:43 -1,1 °C -1,1 °C 88 % 1011,6 hPa 0,0 mm 0,0 km/h (0 Bft) S-SO 154 ° 0 min 0,000 mm 0,0 UV-I 23 W/m² -2,8 °C -1,1 °C 0,0 km/h (0 Bft)
30.12.2017 08:44 -1,1 °C -1,1 °C 88 % 1011,6 hPa 0,0 mm 0,0 km/h (0 Bft) S-SO 154 ° 0 min 0,000 mm 0,0 UV-I 26 W/m² -2,8 °C -1,1 °C 0,0 km/h (0 Bft)
30.12.2017 08:45 -1,1 °C -1,1 °C 88 % 1011,6 hPa 0,0 mm 0,0 km/h (0 Bft) S-SO 154 ° 0 min 0,000 mm 0,0 UV-I 30 W/m² -2,8 °C -1,1 °C 0,0 km/h (0 Bft)
30.12.2017 08:46 -1,1 °C -1,1 °C 87 % 1011,5 hPa 0,0 mm 0,0 km/h (0 Bft) S-SO 154 ° 0 min 0,000 mm 0,0 UV-I 30 W/m² -3,0 °C -1,1 °C 0,0 km/h (0 Bft)
30.12.2017 08:47 -1,1 °C -1,1 °C 88 % 1011,5 hPa 0,0 mm 0,0 km/h (0 Bft) S-SO 154 ° 0 min 0,000 mm 0,0 UV-I 37 W/m² -2,8 °C -1,1 °C 0,0 km/h (0 Bft)
30.12.2017 08:48 -1,1 °C -1,1 °C 88 % 1011,4 hPa 0,0 mm 0,0 km/h (0 Bft) S-SO 154 ° 0 min 0,000 mm 0,0 UV-I 39 W/m² -2,8 °C -1,1 °C 0,0 km/h (0 Bft)
30.12.2017 08:49 -1,0 °C -1,0 °C 88 % 1011,4 hPa 0,0 mm 0,0 km/h (0 Bft) S-SO 154 ° 0 min 0,000 mm 0,0 UV-I 40 W/m² -2,7 °C -1,0 °C 0,0 km/h (0 Bft)
30.12.2017 08:50 -1,0 °C -1,0 °C 88 % 1011,3 hPa 0,0 mm 0,0 km/h (0 Bft) S-SO 154 ° 0 min 0,000 mm 0,0 UV-I 42 W/m² -2,7 °C -1,0 °C 0,0 km/h (0 Bft)
30.12.2017 08:51 -0,9 °C -0,9 °C 88 % 1011,3 hPa 0,0 mm 0,0 km/h (0 Bft) S-SO 154 ° 0 min 0,000 mm 0,0 UV-I 42 W/m² -2,6 °C -0,9 °C 0,0 km/h (0 Bft)
30.12.2017 08:52 -0,9 °C -0,9 °C 88 % 1011,3 hPa 0,0 mm 0,0 km/h (0 Bft) S-SO 154 ° 0 min 0,000 mm 0,0 UV-I 42 W/m² -2,6 °C -0,9 °C 0,0 km/h (0 Bft)
30.12.2017 08:53 -0,9 °C -0,9 °C 88 % 1011,3 hPa 0,0 mm 0,0 km/h (0 Bft) S-SO 154 ° 0 min 0,000 mm 0,0 UV-I 40 W/m² -2,6 °C -0,9 °C 0,0 km/h (0 Bft)
30.12.2017 08:54 -0,9 °C -0,9 °C 88 % 1011,3 hPa 0,0 mm 0,0 km/h (0 Bft) S-SO 154 ° 0 min 0,000 mm 0,0 UV-I 39 W/m² -2,6 °C -0,9 °C 0,0 km/h (0 Bft)
30.12.2017 08:55 -0,9 °C -0,8 °C 88 % 1011,2 hPa 0,0 mm 0,0 km/h (0 Bft) S-SO 154 ° 0 min 0,000 mm 0,0 UV-I 32 W/m² -2,6 °C -0,9 °C 0,0 km/h (0 Bft)
30.12.2017 08:56 -0,8 °C -0,8 °C 88 % 1011,2 hPa 0,0 mm 0,0 km/h (0 Bft) S-SO 154 ° 0 min 0,000 mm 0,0 UV-I 28 W/m² -2,5 °C -0,8 °C 0,0 km/h (0 Bft)
30.12.2017 08:57 -0,8 °C -0,8 °C 88 % 1011,2 hPa 0,0 mm 0,0 km/h (0 Bft) S-SO 154 ° 0 min 0,000 mm 0,0 UV-I 28 W/m² -2,5 °C -0,8 °C 0,0 km/h (0 Bft)
30.12.2017 08:58 -0,8 °C -0,8 °C 88 % 1011,2 hPa 0,0 mm 0,0 km/h (0 Bft) S-SO 154 ° 0 min 0,000 mm 0,0 UV-I 30 W/m² -2,5 °C -0,8 °C 0,0 km/h (0 Bft)
30.12.2017 08:59 -0,8 °C -0,8 °C 88 % 1011,2 hPa 0,0 mm 0,0 km/h (0 Bft) S-SO 154 ° 0 min 0,000 mm 0,0 UV-I 30 W/m² -2,5 °C -0,8 °C 0,0 km/h (0 Bft)
30.12.2017 09:00 -0,8 °C -0,8 °C 88 % 1011,2 hPa 0,0 mm 0,0 km/h (0 Bft) S-SO 154 ° 0 min 0,000 mm 0,0 UV-I 28 W/m² -2,5 °C -0,8 °C 0,0 km/h (0 Bft)
30.12.2017 09:01 -0,7 °C -0,7 °C 88 % 1011,2 hPa 0,0 mm 0,0 km/h (0 Bft) S-SO 154 ° 0 min 0,000 mm 0,0 UV-I 25 W/m² -2,4 °C -0,7 °C 0,0 km/h (0 Bft)
30.12.2017 09:02 -0,8 °C -0,7 °C 88 % 1011,1 hPa 0,0 mm 0,0 km/h (0 Bft) S-SO 154 ° 0 min 0,000 mm 0,0 UV-I 23 W/m² -2,5 °C -0,8 °C 0,0 km/h (0 Bft)
30.12.2017 09:03 -0,7 °C -0,7 °C 88 % 1011,1 hPa 0,0 mm 0,0 km/h (0 Bft) S-SO 154 ° 0 min 0,000 mm 0,0 UV-I 23 W/m² -2,4 °C -0,7 °C 0,0 km/h (0 Bft)
30.12.2017 09:04 -0,7 °C -0,7 °C 88 % 1011,1 hPa 0,0 mm 0,0 km/h (0 Bft) S-SO 154 ° 0 min 0,000 mm 0,0 UV-I 25 W/m² -2,4 °C -0,7 °C 0,0 km/h (0 Bft)
30.12.2017 09:05 -0,7 °C -0,7 °C 88 % 1011,1 hPa 0,0 mm 0,0 km/h (0 Bft) S-SO 154 ° 0 min 0,000 mm 0,0 UV-I 25 W/m² -2,4 °C -0,7 °C 0,0 km/h (0 Bft)
30.12.2017 09:06 -0,7 °C -0,7 °C 88 % 1011,1 hPa 0,0 mm 0,0 km/h (0 Bft) S-SO 154 ° 0 min 0,000 mm 0,0 UV-I 25 W/m² -2,4 °C -0,7 °C 0,0 km/h (0 Bft)
30.12.2017 09:07 -0,7 °C -0,7 °C 88 % 1011,1 hPa 0,0 mm 0,0 km/h (0 Bft) S-SO 154 ° 0 min 0,000 mm 0,0 UV-I 21 W/m² -2,4 °C -0,7 °C 0,0 km/h (0 Bft)
30.12.2017 09:08 -0,7 °C -0,7 °C 88 % 1011,1 hPa 0,0 mm 0,0 km/h (0 Bft) S-SO 154 ° 0 min 0,000 mm 0,0 UV-I 19 W/m² -2,4 °C -0,7 °C 0,0 km/h (0 Bft)
30.12.2017 09:09 -0,7 °C -0,7 °C 88 % 1011,0 hPa 0,0 mm 0,0 km/h (0 Bft) S-SO 154 ° 0 min 0,000 mm 0,0 UV-I 16 W/m² -2,4 °C -0,7 °C 0,0 km/h (0 Bft)
30.12.2017 09:10 -0,7 °C -0,6 °C 88 % 1011,0 hPa 0,0 mm 0,0 km/h (0 Bft) S-SO 154 ° 0 min 0,000 mm 0,0 UV-I 16 W/m² -2,4 °C -0,7 °C 0,0 km/h (0 Bft)
30.12.2017 09:11 -0,6 °C -0,6 °C 88 % 1011,0 hPa 0,0 mm 0,0 km/h (0 Bft) S-SO 154 ° 0 min 0,000 mm 0,0 UV-I 18 W/m² -2,3 °C -0,6 °C 0,0 km/h (0 Bft)
30.12.2017 09:12 -0,6 °C -0,6 °C 88 % 1011,1 hPa 0,0 mm 0,0 km/h (0 Bft) S-SO 154 ° 0 min 0,000 mm 0,0 UV-I 19 W/m² -2,3 °C -0,6 °C 0,0 km/h (0 Bft)
30.12.2017 09:13 -0,6 °C -0,6 °C 88 % 1011,0 hPa 0,0 mm 0,0 km/h (0 Bft) S-SO 154 ° 0 min 0,000 mm 0,0 UV-I 23 W/m² -2,3 °C -0,6 °C 0,0 km/h (0 Bft)
30.12.2017 09:14 -0,6 °C -0,6 °C 88 % 1011,1 hPa 0,0 mm 0,0 km/h (0 Bft) S-SO 154 ° 0 min 0,000 mm 0,0 UV-I 23 W/m² -2,3 °C -0,6 °C 0,0 km/h (0 Bft)
30.12.2017 09:15 -0,6 °C -0,6 °C 88 % 1011,1 hPa 0,0 mm 0,0 km/h (0 Bft) S-SO 154 ° 0 min 0,000 mm 0,0 UV-I 21 W/m² -2,3 °C -0,6 °C 0,0 km/h (0 Bft)
30.12.2017 09:16 -0,6 °C -0,6 °C 88 % 1011,1 hPa 0,0 mm 0,0 km/h (0 Bft) S-SO 154 ° 0 min 0,000 mm 0,0 UV-I 23 W/m² -2,3 °C -0,6 °C 0,0 km/h (0 Bft)
30.12.2017 09:17 -0,6 °C -0,6 °C 87 % 1011,0 hPa 0,0 mm 0,0 km/h (0 Bft) S-SO 154 ° 0 min 0,000 mm 0,0 UV-I 25 W/m² -2,5 °C -0,6 °C 0,0 km/h (0 Bft)
30.12.2017 09:18 -0,6 °C -0,6 °C 87 % 1011,0 hPa 0,0 mm 0,0 km/h (0 Bft) S-SO 154 ° 0 min 0,000 mm 0,0 UV-I 26 W/m² -2,5 °C -0,6 °C 0,0 km/h (0 Bft)
30.12.2017 09:19 -0,6 °C -0,6 °C 87 % 1011,0 hPa 0,0 mm 0,0 km/h (0 Bft) S-SO 154 ° 0 min 0,000 mm 0,0 UV-I 26 W/m² -2,5 °C -0,6 °C 0,0 km/h (0 Bft)
30.12.2017 09:20 -0,6 °C -0,6 °C 87 % 1011,0 hPa 0,0 mm 0,0 km/h (0 Bft) S-SO 154 ° 0 min 0,000 mm 0,0 UV-I 28 W/m² -2,5 °C -0,6 °C 0,0 km/h (0 Bft)
30.12.2017 09:21 -0,6 °C -0,6 °C 87 % 1011,0 hPa 0,0 mm 0,0 km/h (0 Bft) S-SO 154 ° 0 min 0,000 mm 0,0 UV-I 30 W/m² -2,5 °C -0,6 °C 0,0 km/h (0 Bft)
30.12.2017 09:22 -0,6 °C -0,6 °C 87 % 1010,9 hPa 0,0 mm 0,0 km/h (0 Bft) S-SO 154 ° 0 min 0,000 mm 0,0 UV-I 32 W/m² -2,5 °C -0,6 °C 0,0 km/h (0 Bft)
30.12.2017 09:23 -0,6 °C -0,6 °C 87 % 1010,9 hPa 0,0 mm 0,0 km/h (0 Bft) S-SO 154 ° 0 min 0,000 mm 0,0 UV-I 32 W/m² -2,5 °C -0,6 °C 0,0 km/h (0 Bft)
30.12.2017 09:24 -0,6 °C -0,6 °C 87 % 1010,9 hPa 0,0 mm 0,0 km/h (0 Bft) S-SO 154 ° 0 min 0,000 mm 0,0 UV-I 32 W/m² -2,5 °C -0,6 °C 0,0 km/h (0 Bft)
30.12.2017 09:25 -0,5 °C -0,5 °C 87 % 1010,8 hPa 0,0 mm 0,0 km/h (0 Bft) S-SO 154 ° 0 min 0,000 mm 0,0 UV-I 33 W/m² -2,4 °C -0,5 °C 0,0 km/h (0 Bft)
30.12.2017 09:26 -0,6 °C -0,5 °C 87 % 1010,7 hPa 0,0 mm 0,3 km/h (0 Bft) O-SO 115 ° 0 min 0,000 mm 0,0 UV-I 35 W/m² -2,5 °C -0,6 °C 3,2 km/h (1 Bft)
30.12.2017 09:27 -0,5 °C -0,5 °C 87 % 1010,8 hPa 0,0 mm 1,7 km/h (1 Bft) O-SO 113 ° 0 min 0,000 mm 0,0 UV-I 37 W/m² -2,4 °C -0,5 °C 4,8 km/h (1 Bft)
30.12.2017 09:28 -0,5 °C -0,5 °C 88 % 1010,9 hPa 0,0 mm 1,7 km/h (1 Bft) O-SO 113 ° 0 min 0,000 mm 0,0 UV-I 37 W/m² -2,2 °C -0,5 °C 3,2 km/h (1 Bft)
30.12.2017 09:29 -0,5 °C -0,5 °C 88 % 1010,9 hPa 0,0 mm 1,5 km/h (1 Bft) O-SO 113 ° 0 min 0,000 mm 0,0 UV-I 35 W/m² -2,2 °C -0,5 °C 3,2 km/h (1 Bft)
30.12.2017 09:30 -0,5 °C -0,5 °C 88 % 1010,9 hPa 0,0 mm 0,3 km/h (0 Bft) O-SO 113 ° 0 min 0,000 mm 0,0 UV-I 35 W/m² -2,2 °C -0,5 °C 1,6 km/h (1 Bft)
30.12.2017 09:31 -0,5 °C -0,5 °C 88 % 1011,0 hPa 0,0 mm 2,8 km/h (1 Bft) O-SO 119 ° 0 min 0,000 mm 0,0 UV-I 37 W/m² -2,2 °C -0,5 °C 3,2 km/h (1 Bft)
30.12.2017 09:32 -0,5 °C -0,4 °C 88 % 1010,9 hPa 0,0 mm 2,0 km/h (1 Bft) O-SO 119 ° 0 min 0,000 mm 0,0 UV-I 40 W/m² -2,2 °C -0,5 °C 3,2 km/h (1 Bft)
30.12.2017 09:33 -0,4 °C -0,4 °C 88 % 1011,0 hPa 0,0 mm 3,8 km/h (1 Bft) O-SO 119 ° 0 min 0,000 mm 0,0 UV-I 44 W/m² -2,1 °C -0,4 °C 4,8 km/h (1 Bft)
30.12.2017 09:34 -0,5 °C -0,4 °C 88 % 1011,0 hPa 0,0 mm 2,4 km/h (1 Bft) O-SO 119 ° 0 min 0,000 mm 0,0 UV-I 44 W/m² -2,2 °C -0,5 °C 4,8 km/h (1 Bft)
30.12.2017 09:35 -0,4 °C -0,4 °C 88 % 1011,0 hPa 0,0 mm 1,5 km/h (1 Bft) O-SO 119 ° 0 min 0,000 mm 0,0 UV-I 44 W/m² -2,1 °C -0,4 °C 3,2 km/h (1 Bft)
30.12.2017 09:36 -0,4 °C -0,4 °C 88 % 1010,9 hPa 0,0 mm 1,5 km/h (1 Bft) O-SO 119 ° 0 min 0,000 mm 0,0 UV-I 40 W/m² -2,1 °C -0,4 °C 3,2 km/h (1 Bft)
30.12.2017 09:37 -0,4 °C -0,4 °C 88 % 1010,9 hPa 0,0 mm 1,0 km/h (0 Bft) O-SO 119 ° 0 min 0,000 mm 0,0 UV-I 39 W/m² -2,1 °C -0,4 °C 3,2 km/h (1 Bft)
30.12.2017 09:38 -0,4 °C -0,4 °C 88 % 1010,9 hPa 0,0 mm 0,0 km/h (0 Bft) O-SO 119 ° 0 min 0,000 mm 0,0 UV-I 37 W/m² -2,1 °C -0,4 °C 0,0 km/h (0 Bft)
30.12.2017 09:39 -0,4 °C -0,4 °C 88 % 1011,0 hPa 0,0 mm 0,5 km/h (0 Bft) S-SW 202 ° 0 min 0,000 mm 0,0 UV-I 35 W/m² -2,1 °C -0,4 °C 3,2 km/h (1 Bft)
30.12.2017 09:40 -0,4 °C -0,4 °C 88 % 1011,0 hPa 0,0 mm 0,7 km/h (0 Bft) S-SW 202 ° 0 min 0,000 mm 0,0 UV-I 33 W/m² -2,1 °C -0,4 °C 1,6 km/h (1 Bft)
30.12.2017 09:41 -0,4 °C -0,4 °C 88 % 1011,0 hPa 0,0 mm 2,0 km/h (1 Bft) S 184 ° 0 min 0,000 mm 0,0 UV-I 33 W/m² -2,1 °C -0,4 °C 4,8 km/h (1 Bft)
30.12.2017 09:42 -0,4 °C -0,4 °C 88 % 1011,1 hPa 0,0 mm 3,4 km/h (1 Bft) N-NW 341 ° 0 min 0,000 mm 0,0 UV-I 33 W/m² -2,1 °C -0,4 °C 6,4 km/h (2 Bft)
30.12.2017 09:43 -0,4 °C -0,4 °C 88 % 1011,1 hPa 0,0 mm 2,7 km/h (1 Bft) O-SO 110 ° 0 min 0,000 mm 0,0 UV-I 35 W/m² -2,1 °C -0,4 °C 6,4 km/h (2 Bft)
30.12.2017 09:44 -0,4 °C -0,4 °C 88 % 1011,0 hPa 0,0 mm 7,8 km/h (2 Bft) O 96 ° 0 min 0,000 mm 0,0 UV-I 35 W/m² -2,1 °C -3,1 °C 11,3 km/h (2 Bft)
30.12.2017 09:45 -0,3 °C -0,3 °C 88 % 1011,1 hPa 0,0 mm 4,4 km/h (1 Bft) W 273 ° 0 min 0,000 mm 0,0 UV-I 35 W/m² -2,0 °C -0,3 °C 11,3 km/h (2 Bft)
30.12.2017 09:46 -0,3 °C -0,3 °C 88 % 1011,1 hPa 0,0 mm 11,5 km/h (2 Bft) W 265 ° 0 min 0,000 mm 0,0 UV-I 35 W/m² -2,0 °C -4,0 °C 14,5 km/h (3 Bft)
30.12.2017 09:47 -0,3 °C -0,3 °C 87 % 1011,1 hPa 0,0 mm 7,8 km/h (2 Bft) W-SW 242 ° 0 min 0,000 mm 0,0 UV-I 35 W/m² -2,2 °C -3,0 °C 11,3 km/h (2 Bft)
30.12.2017 09:48 -0,2 °C -0,2 °C 87 % 1011,1 hPa 0,0 mm 0,7 km/h (0 Bft) W-SW 242 ° 0 min 0,000 mm 0,0 UV-I 37 W/m² -2,1 °C -0,2 °C 3,2 km/h (1 Bft)
30.12.2017 09:49 -0,2 °C -0,2 °C 87 % 1011,1 hPa 0,0 mm 0,0 km/h (0 Bft) W-SW 242 ° 0 min 0,000 mm 0,0 UV-I 40 W/m² -2,1 °C -0,2 °C 0,0 km/h (0 Bft)
30.12.2017 09:50 -0,1 °C -0,1 °C 86 % 1011,1 hPa 0,0 mm 0,0 km/h (0 Bft) W-SW 242 ° 0 min 0,000 mm 0,0 UV-I 42 W/m² -2,2 °C -0,1 °C 0,0 km/h (0 Bft)
30.12.2017 09:51 -0,1 °C -0,1 °C 87 % 1011,0 hPa 0,0 mm 2,7 km/h (1 Bft) SW 222 ° 0 min 0,000 mm 0,0 UV-I 44 W/m² -2,0 °C -0,1 °C 4,8 km/h (1 Bft)
30.12.2017 09:52 0,0 °C 0,0 °C 87 % 1011,0 hPa 0,0 mm 2,0 km/h (1 Bft) SW 222 ° 0 min 0,000 mm 0,0 UV-I 44 W/m² -1,9 °C 0,0 °C 3,2 km/h (1 Bft)
30.12.2017 09:53 0,1 °C 0,1 °C 87 % 1011,0 hPa 0,0 mm 2,3 km/h (1 Bft) SW 222 ° 0 min 0,000 mm 0,0 UV-I 44 W/m² -1,8 °C 0,1 °C 3,2 km/h (1 Bft)
30.12.2017 09:54 0,1 °C 0,1 °C 87 % 1010,9 hPa 0,0 mm 0,9 km/h (0 Bft) SW 222 ° 0 min 0,000 mm 0,0 UV-I 40 W/m² -1,8 °C 0,1 °C 3,2 km/h (1 Bft)
30.12.2017 09:55 0,1 °C 0,1 °C 87 % 1010,9 hPa 0,0 mm 0,0 km/h (0 Bft) SW 222 ° 0 min 0,000 mm 0,0 UV-I 39 W/m² -1,8 °C 0,1 °C 0,0 km/h (0 Bft)
30.12.2017 09:56 0,2 °C 0,2 °C 87 % 1010,9 hPa 0,0 mm 0,0 km/h (0 Bft) SW 222 ° 0 min 0,000 mm 0,0 UV-I 39 W/m² -1,7 °C 0,2 °C 0,0 km/h (0 Bft)
30.12.2017 09:57 0,2 °C 0,2 °C 87 % 1010,9 hPa 0,0 mm 0,0 km/h (0 Bft) SW 222 ° 0 min 0,000 mm 0,0 UV-I 40 W/m² -1,7 °C 0,2 °C 0,0 km/h (0 Bft)
30.12.2017 09:58 0,2 °C 0,2 °C 87 % 1010,9 hPa 0,0 mm 0,0 km/h (0 Bft) SW 222 ° 0 min 0,000 mm 0,0 UV-I 42 W/m² -1,7 °C 0,2 °C 0,0 km/h (0 Bft)
30.12.2017 09:59 0,2 °C 0,2 °C 87 % 1011,0 hPa 0,0 mm 0,0 km/h (0 Bft) SW 222 ° 0 min 0,000 mm 0,0 UV-I 46 W/m² -1,7 °C 0,2 °C 0,0 km/h (0 Bft)
30.12.2017 10:00 0,2 °C 0,3 °C 87 % 1011,0 hPa 0,0 mm 0,0 km/h (0 Bft) SW 222 ° 0 min 0,000 mm 0,0 UV-I 51 W/m² -1,7 °C 0,2 °C 0,0 km/h (0 Bft)
30.12.2017 10:01 0,3 °C 0,3 °C 87 % 1011,0 hPa 0,0 mm 0,0 km/h (0 Bft) SW 222 ° 0 min 0,026 mm 0,0 UV-I 51 W/m² -1,6 °C 0,3 °C 0,0 km/h (0 Bft)
30.12.2017 10:02 0,3 °C 0,3 °C 87 % 1011,0 hPa 0,0 mm 0,0 km/h (0 Bft) SW 222 ° 0 min 0,000 mm 0,0 UV-I 51 W/m² -1,6 °C 0,3 °C 0,0 km/h (0 Bft)
30.12.2017 10:03 0,3 °C 0,3 °C 87 % 1011,0 hPa 0,0 mm 0,0 km/h (0 Bft) SW 222 ° 0 min 0,000 mm 0,0 UV-I 49 W/m² -1,6 °C 0,3 °C 0,0 km/h (0 Bft)
30.12.2017 10:04 0,3 °C 0,3 °C 87 % 1011,0 hPa 0,0 mm 0,0 km/h (0 Bft) SW 222 ° 0 min 0,000 mm 0,0 UV-I 47 W/m² -1,6 °C 0,3 °C 0,0 km/h (0 Bft)
30.12.2017 10:05 0,4 °C 0,4 °C 87 % 1010,9 hPa 0,0 mm 0,0 km/h (0 Bft) SW 222 ° 0 min 0,000 mm 0,0 UV-I 46 W/m² -1,5 °C 0,4 °C 0,0 km/h (0 Bft)
30.12.2017 10:06 0,4 °C 0,4 °C 87 % 1010,9 hPa 0,0 mm 0,0 km/h (0 Bft) SW 222 ° 0 min 0,000 mm 0,0 UV-I 40 W/m² -1,5 °C 0,4 °C 0,0 km/h (0 Bft)
30.12.2017 10:07 0,4 °C 0,4 °C 87 % 1010,9 hPa 0,0 mm 0,0 km/h (0 Bft) SW 222 ° 0 min 0,000 mm 0,0 UV-I 39 W/m² -1,5 °C 0,4 °C 0,0 km/h (0 Bft)
30.12.2017 10:08 0,4 °C 0,4 °C 87 % 1010,9 hPa 0,0 mm 0,0 km/h (0 Bft) SW 222 ° 0 min 0,000 mm 0,0 UV-I 40 W/m² -1,5 °C 0,4 °C 0,0 km/h (0 Bft)
30.12.2017 10:09 0,4 °C 0,5 °C 87 % 1010,9 hPa 0,0 mm 0,0 km/h (0 Bft) SW 222 ° 0 min 0,000 mm 0,0 UV-I 42 W/m² -1,5 °C 0,4 °C 0,0 km/h (0 Bft)
30.12.2017 10:10 0,5 °C 0,5 °C 87 % 1010,9 hPa 0,0 mm 0,0 km/h (0 Bft) SW 222 ° 0 min 0,000 mm 0,0 UV-I 47 W/m² -1,4 °C 0,5 °C 0,0 km/h (0 Bft)
30.12.2017 10:11 0,6 °C 0,6 °C 87 % 1010,9 hPa 0,0 mm 0,0 km/h (0 Bft) NW 311 ° 0 min 0,000 mm 0,0 UV-I 53 W/m² -1,3 °C 0,6 °C 0,0 km/h (0 Bft)
30.12.2017 10:12 0,6 °C 0,6 °C 87 % 1010,9 hPa 0,0 mm 1,1 km/h (1 Bft) NW 311 ° 0 min 0,000 mm 0,0 UV-I 51 W/m² -1,3 °C 0,6 °C 4,8 km/h (1 Bft)
30.12.2017 10:13 0,6 °C 0,6 °C 87 % 1010,9 hPa 0,0 mm 0,0 km/h (0 Bft) NW 311 ° 0 min 0,000 mm 0,0 UV-I 51 W/m² -1,3 °C 0,6 °C 0,0 km/h (0 Bft)
30.12.2017 10:14 0,7 °C 0,7 °C 87 % 1010,9 hPa 0,0 mm 0,1 km/h (0 Bft) NW 311 ° 0 min 0,000 mm 0,0 UV-I 51 W/m² -1,2 °C 0,7 °C 1,6 km/h (1 Bft)
30.12.2017 10:15 0,7 °C 0,7 °C 87 % 1010,9 hPa 0,0 mm 2,5 km/h (1 Bft) SW 218 ° 0 min 0,000 mm 0,0 UV-I 49 W/m² -1,2 °C 0,7 °C 3,2 km/h (1 Bft)
30.12.2017 10:16 0,7 °C 0,7 °C 88 % 1010,9 hPa 0,0 mm 0,1 km/h (0 Bft) SW 218 ° 0 min 0,000 mm 0,0 UV-I 49 W/m² -1,1 °C 0,7 °C 1,6 km/h (1 Bft)
30.12.2017 10:17 0,8 °C 0,8 °C 88 % 1010,9 hPa 0,0 mm 0,1 km/h (0 Bft) SW 221 ° 0 min 0,000 mm 0,0 UV-I 47 W/m² -1,0 °C 0,8 °C 1,6 km/h (1 Bft)
30.12.2017 10:18 0,8 °C 0,8 °C 88 % 1010,9 hPa 0,0 mm 0,3 km/h (0 Bft) SW 221 ° 0 min 0,000 mm 0,0 UV-I 47 W/m² -1,0 °C 0,8 °C 1,6 km/h (1 Bft)
30.12.2017 10:19 0,8 °C 0,8 °C 88 % 1010,9 hPa 0,0 mm 1,1 km/h (1 Bft) SW 221 ° 0 min 0,000 mm 0,0 UV-I 47 W/m² -1,0 °C 0,8 °C 3,2 km/h (1 Bft)
30.12.2017 10:20 0,8 °C 0,8 °C 88 % 1011,0 hPa 0,0 mm 0,1 km/h (0 Bft) SW 221 ° 0 min 0,000 mm 0,0 UV-I 47 W/m² -1,0 °C 0,8 °C 1,6 km/h (1 Bft)
30.12.2017 10:21 0,9 °C 0,9 °C 87 % 1011,0 hPa 0,0 mm 0,0 km/h (0 Bft) SW 221 ° 0 min 0,000 mm 0,0 UV-I 49 W/m² -1,0 °C 0,9 °C 0,0 km/h (0 Bft)
30.12.2017 10:22 0,9 °C 0,9 °C 87 % 1011,0 hPa 0,0 mm 0,0 km/h (0 Bft) SW 221 ° 0 min 0,000 mm 0,0 UV-I 47 W/m² -1,0 °C 0,9 °C 0,0 km/h (0 Bft)
30.12.2017 10:23 0,9 °C 0,9 °C 87 % 1011,0 hPa 0,0 mm 0,0 km/h (0 Bft) SW 221 ° 0 min 0,000 mm 0,0 UV-I 46 W/m² -1,0 °C 0,9 °C 0,0 km/h (0 Bft)
30.12.2017 10:24 1,0 °C 1,0 °C 87 % 1010,9 hPa 0,0 mm 0,0 km/h (0 Bft) SW 221 ° 0 min 0,000 mm 0,0 UV-I 39 W/m² -0,9 °C 1,0 °C 0,0 km/h (0 Bft)
30.12.2017 10:25 1,0 °C 1,0 °C 88 % 1010,9 hPa 0,0 mm 0,0 km/h (0 Bft) SW 221 ° 0 min 0,000 mm 0,0 UV-I 39 W/m² -0,8 °C 1,0 °C 0,0 km/h (0 Bft)
30.12.2017 10:26 1,0 °C 1,1 °C 87 % 1010,7 hPa 0,0 mm 0,0 km/h (0 Bft) SW 221 ° 0 min 0,000 mm 0,0 UV-I 39 W/m² -0,9 °C 1,0 °C 0,0 km/h (0 Bft)
30.12.2017 10:27 1,1 °C 1,1 °C 88 % 1010,7 hPa 0,0 mm 0,0 km/h (0 Bft) SW 221 ° 0 min 0,000 mm 0,0 UV-I 39 W/m² -0,7 °C 1,1 °C 0,0 km/h (0 Bft)
30.12.2017 10:28 1,1 °C 1,1 °C 88 % 1010,7 hPa 0,0 mm 0,0 km/h (0 Bft) SW 221 ° 0 min 0,000 mm 0,0 UV-I 37 W/m² -0,7 °C 1,1 °C 0,0 km/h (0 Bft)
30.12.2017 10:29 1,1 °C 1,1 °C 88 % 1010,7 hPa 0,0 mm 0,0 km/h (0 Bft) SW 221 ° 0 min 0,000 mm 0,0 UV-I 35 W/m² -0,7 °C 1,1 °C 0,0 km/h (0 Bft)
30.12.2017 10:30 1,1 °C 1,1 °C 88 % 1010,6 hPa 0,0 mm 4,0 km/h (1 Bft) N-NO 28 ° 0 min 0,000 mm 0,0 UV-I 37 W/m² -0,7 °C 1,1 °C 8,0 km/h (2 Bft)
30.12.2017 10:31 1,1 °C 1,1 °C 88 % 1010,6 hPa 0,0 mm 3,2 km/h (1 Bft) O 94 ° 0 min 0,000 mm 0,0 UV-I 39 W/m² -0,7 °C 1,1 °C 4,8 km/h (1 Bft)
30.12.2017 10:32 1,2 °C 1,2 °C 88 % 1010,6 hPa 0,0 mm 1,3 km/h (1 Bft) O 94 ° 0 min 0,000 mm 0,0 UV-I 42 W/m² -0,6 °C 1,2 °C 1,6 km/h (1 Bft)
30.12.2017 10:33 1,2 °C 1,2 °C 88 % 1010,5 hPa 0,0 mm 0,7 km/h (0 Bft) O 94 ° 0 min 0,000 mm 0,0 UV-I 44 W/m² -0,6 °C 1,2 °C 1,6 km/h (1 Bft)
30.12.2017 10:34 1,2 °C 1,2 °C 89 % 1010,5 hPa 0,0 mm 0,0 km/h (0 Bft) O 94 ° 0 min 0,000 mm 0,0 UV-I 47 W/m² -0,4 °C 1,2 °C 0,0 km/h (0 Bft)
30.12.2017 10:35 1,2 °C 1,2 °C 89 % 1010,4 hPa 0,0 mm 0,0 km/h (0 Bft) O 94 ° 0 min 0,000 mm 0,0 UV-I 49 W/m² -0,4 °C 1,2 °C 0,0 km/h (0 Bft)
30.12.2017 10:36 1,3 °C 1,3 °C 89 % 1010,4 hPa 0,0 mm 0,0 km/h (0 Bft) O 94 ° 0 min 0,000 mm 0,0 UV-I 49 W/m² -0,3 °C 1,3 °C 0,0 km/h (0 Bft)
30.12.2017 10:37 1,3 °C 1,3 °C 89 % 1010,4 hPa 0,0 mm 0,0 km/h (0 Bft) O 94 ° 0 min 0,000 mm 0,0 UV-I 47 W/m² -0,3 °C 1,3 °C 0,0 km/h (0 Bft)
30.12.2017 10:39 1,3 °C 1,3 °C 89 % 1010,5 hPa 0,0 mm 0,1 km/h (0 Bft) O 94 ° 0 min 0,000 mm 0,0 UV-I 47 W/m² -0,3 °C 1,3 °C 1,6 km/h (1 Bft)
30.12.2017 10:40 1,3 °C 1,3 °C 89 % 1010,5 hPa 0,0 mm 1,1 km/h (1 Bft) O 81 ° 0 min 0,000 mm 0,0 UV-I 49 W/m² -0,3 °C 1,3 °C 1,6 km/h (1 Bft)
30.12.2017 10:41 1,3 °C 1,3 °C 89 % 1010,4 hPa 0,0 mm 1,9 km/h (1 Bft) O-NO 66 ° 0 min 0,000 mm 0,0 UV-I 53 W/m² -0,3 °C 1,3 °C 3,2 km/h (1 Bft)
30.12.2017 10:42 1,3 °C 1,3 °C 89 % 1010,4 hPa 0,0 mm 1,0 km/h (0 Bft) NO 36 ° 0 min 0,000 mm 0,0 UV-I 53 W/m² -0,3 °C 1,3 °C 3,2 km/h (1 Bft)
30.12.2017 10:43 1,3 °C 1,3 °C 89 % 1010,4 hPa 0,0 mm 2,7 km/h (1 Bft) N-NW 339 ° 0 min 0,000 mm 0,0 UV-I 54 W/m² -0,3 °C 1,3 °C 6,4 km/h (2 Bft)
30.12.2017 10:44 1,4 °C 1,4 °C 89 % 1010,4 hPa 0,0 mm 2,7 km/h (1 Bft) W 273 ° 0 min 0,000 mm 0,0 UV-I 58 W/m² -0,2 °C 1,4 °C 4,8 km/h (1 Bft)
30.12.2017 10:45 1,4 °C 1,4 °C 90 % 1010,4 hPa 0,0 mm 1,8 km/h (1 Bft) W 259 ° 0 min 0,000 mm 0,0 UV-I 60 W/m² -0,1 °C 1,4 °C 4,8 km/h (1 Bft)
30.12.2017 10:46 1,4 °C 1,4 °C 90 % 1010,3 hPa 0,0 mm 2,9 km/h (1 Bft) W 261 ° 0 min 0,000 mm 0,0 UV-I 54 W/m² -0,1 °C 1,4 °C 6,4 km/h (2 Bft)
30.12.2017 10:47 1,4 °C 1,4 °C 90 % 1010,3 hPa 0,0 mm 0,0 km/h (0 Bft) W 261 ° 0 min 0,000 mm 0,0 UV-I 54 W/m² -0,1 °C 1,4 °C 0,0 km/h (0 Bft)
30.12.2017 10:48 1,4 °C 1,4 °C 90 % 1010,4 hPa 0,0 mm 0,0 km/h (0 Bft) W 261 ° 0 min 0,000 mm 0,0 UV-I 54 W/m² -0,1 °C 1,4 °C 0,0 km/h (0 Bft)
30.12.2017 10:49 1,4 °C 1,4 °C 89 % 1010,4 hPa 0,0 mm 0,0 km/h (0 Bft) W 261 ° 0 min 0,000 mm 0,0 UV-I 54 W/m² -0,2 °C 1,4 °C 0,0 km/h (0 Bft)
30.12.2017 10:50 1,5 °C 1,5 °C 90 % 1010,3 hPa 0,0 mm 0,0 km/h (0 Bft) W 261 ° 0 min 0,000 mm 0,0 UV-I 54 W/m² 0,0 °C 1,5 °C 0,0 km/h (0 Bft)
30.12.2017 10:51 1,5 °C 1,5 °C 90 % 1010,4 hPa 0,0 mm 0,0 km/h (0 Bft) W 261 ° 0 min 0,000 mm 0,0 UV-I 56 W/m² 0,0 °C 1,5 °C 0,0 km/h (0 Bft)
30.12.2017 10:52 1,5 °C 1,5 °C 90 % 1010,3 hPa 0,0 mm 0,5 km/h (0 Bft) W 266 ° 0 min 0,000 mm 0,0 UV-I 63 W/m² 0,0 °C 1,5 °C 1,6 km/h (1 Bft)
30.12.2017 10:53 1,5 °C 1,6 °C 90 % 1010,3 hPa 0,0 mm 0,0 km/h (0 Bft) W 266 ° 0 min 0,000 mm 0,0 UV-I 67 W/m² 0,0 °C 1,5 °C 0,0 km/h (0 Bft)
30.12.2017 10:54 1,6 °C 1,6 °C 90 % 1010,2 hPa 0,0 mm 0,0 km/h (0 Bft) W 266 ° 0 min 0,000 mm 0,0 UV-I 69 W/m² 0,1 °C 1,6 °C 0,0 km/h (0 Bft)
30.12.2017 10:55 1,6 °C 1,6 °C 90 % 1010,2 hPa 0,0 mm 0,0 km/h (0 Bft) W 266 ° 0 min 0,000 mm 0,0 UV-I 65 W/m² 0,1 °C 1,6 °C 0,0 km/h (0 Bft)
30.12.2017 10:56 1,6 °C 1,6 °C 90 % 1010,2 hPa 0,0 mm 0,0 km/h (0 Bft) W 266 ° 0 min 0,000 mm 0,0 UV-I 60 W/m² 0,1 °C 1,6 °C 0,0 km/h (0 Bft)
30.12.2017 10:57 1,6 °C 1,6 °C 90 % 1010,2 hPa 0,0 mm 0,1 km/h (0 Bft) N 5 ° 0 min 0,000 mm 0,0 UV-I 56 W/m² 0,1 °C 1,6 °C 1,6 km/h (1 Bft)
30.12.2017 10:58 1,6 °C 1,6 °C 90 % 1010,1 hPa 0,0 mm 3,1 km/h (1 Bft) O-NO 65 ° 0 min 0,000 mm 0,0 UV-I 54 W/m² 0,1 °C 1,6 °C 6,4 km/h (2 Bft)
30.12.2017 10:59 1,6 °C 1,6 °C 90 % 1010,1 hPa 0,0 mm 0,2 km/h (0 Bft) O-NO 65 ° 0 min 0,000 mm 0,0 UV-I 53 W/m² 0,1 °C 1,6 °C 1,6 km/h (1 Bft)
30.12.2017 11:00 1,6 °C 1,6 °C 90 % 1010,0 hPa 0,0 mm 0,5 km/h (0 Bft) O-NO 65 ° 0 min 0,000 mm 0,0 UV-I 53 W/m² 0,1 °C 1,6 °C 1,6 km/h (1 Bft)
30.12.2017 11:01 1,6 °C 1,6 °C 90 % 1010,0 hPa 0,0 mm 1,0 km/h (0 Bft) O-NO 65 ° 0 min 0,025 mm 0,0 UV-I 54 W/m² 0,1 °C 1,6 °C 3,2 km/h (1 Bft)
30.12.2017 11:02 1,6 °C 1,6 °C 90 % 1009,9 hPa 0,0 mm 0,0 km/h (0 Bft) O-NO 65 ° 0 min 0,000 mm 0,0 UV-I 54 W/m² 0,1 °C 1,6 °C 0,0 km/h (0 Bft)
30.12.2017 11:04 1,6 °C 1,6 °C 90 % 1009,9 hPa 0,0 mm 1,3 km/h (1 Bft) O-NO 69 ° 0 min 0,000 mm 0,0 UV-I 65 W/m² 0,1 °C 1,6 °C 4,8 km/h (1 Bft)
30.12.2017 11:05 1,7 °C 1,7 °C 90 % 1009,9 hPa 0,0 mm 3,2 km/h (1 Bft) O 79 ° 0 min 0,000 mm 0,0 UV-I 63 W/m² 0,2 °C 1,7 °C 4,8 km/h (1 Bft)
30.12.2017 11:06 1,6 °C 1,7 °C 90 % 1009,8 hPa 0,0 mm 1,7 km/h (1 Bft) O 79 ° 0 min 0,000 mm 0,0 UV-I 63 W/m² 0,1 °C 1,6 °C 4,8 km/h (1 Bft)
30.12.2017 11:07 1,7 °C 1,7 °C 90 % 1009,8 hPa 0,0 mm 1,6 km/h (1 Bft) O 79 ° 0 min 0,000 mm 0,0 UV-I 67 W/m² 0,2 °C 1,7 °C 3,2 km/h (1 Bft)
30.12.2017 11:08 1,7 °C 1,7 °C 90 % 1009,7 hPa 0,0 mm 2,4 km/h (1 Bft) O 90 ° 0 min 0,000 mm 0,0 UV-I 69 W/m² 0,2 °C 1,7 °C 4,8 km/h (1 Bft)
30.12.2017 11:09 1,6 °C 1,7 °C 90 % 1009,7 hPa 0,0 mm 1,3 km/h (1 Bft) O 90 ° 0 min 0,000 mm 0,0 UV-I 72 W/m² 0,1 °C 1,6 °C 1,6 km/h (1 Bft)
30.12.2017 11:10 1,7 °C 1,7 °C 90 % 1009,6 hPa 0,0 mm 1,6 km/h (1 Bft) O 90 ° 0 min 0,000 mm 0,0 UV-I 69 W/m² 0,2 °C 1,7 °C 3,2 km/h (1 Bft)
30.12.2017 11:11 1,7 °C 1,7 °C 90 % 1009,7 hPa 0,0 mm 1,2 km/h (1 Bft) O-NO 76 ° 0 min 0,000 mm 0,0 UV-I 65 W/m² 0,2 °C 1,7 °C 3,2 km/h (1 Bft)
30.12.2017 11:12 1,7 °C 1,7 °C 90 % 1009,7 hPa 0,0 mm 0,3 km/h (0 Bft) O-NO 76 ° 0 min 0,000 mm 0,0 UV-I 62 W/m² 0,2 °C 1,7 °C 1,6 km/h (1 Bft)
30.12.2017 11:13 1,7 °C 1,7 °C 90 % 1009,7 hPa 0,0 mm 0,8 km/h (0 Bft) O-NO 76 ° 0 min 0,000 mm 0,0 UV-I 62 W/m² 0,2 °C 1,7 °C 1,6 km/h (1 Bft)
30.12.2017 11:14 1,7 °C 1,7 °C 90 % 1009,7 hPa 0,0 mm 0,0 km/h (0 Bft) O-NO 76 ° 0 min 0,000 mm 0,0 UV-I 60 W/m² 0,2 °C 1,7 °C 0,0 km/h (0 Bft)
30.12.2017 11:15 1,7 °C 1,7 °C 90 % 1009,7 hPa 0,0 mm 0,0 km/h (0 Bft) O-NO 76 ° 0 min 0,000 mm 0,0 UV-I 60 W/m² 0,2 °C 1,7 °C 0,0 km/h (0 Bft)
30.12.2017 11:16 1,7 °C 1,7 °C 90 % 1009,7 hPa 0,0 mm 0,0 km/h (0 Bft) O-NO 76 ° 0 min 0,000 mm 0,0 UV-I 60 W/m² 0,2 °C 1,7 °C 0,0 km/h (0 Bft)
30.12.2017 11:17 1,7 °C 1,7 °C 91 % 1009,7 hPa 0,0 mm 1,6 km/h (1 Bft) S-SO 153 ° 0 min 0,000 mm 0,0 UV-I 60 W/m² 0,4 °C 1,7 °C 6,4 km/h (2 Bft)
30.12.2017 11:18 1,7 °C 1,7 °C 91 % 1009,6 hPa 0,0 mm 0,7 km/h (0 Bft) O-SO 109 ° 0 min 0,000 mm 0,0 UV-I 60 W/m² 0,4 °C 1,7 °C 3,2 km/h (1 Bft)
30.12.2017 11:19 1,7 °C 1,7 °C 91 % 1009,6 hPa 0,0 mm 0,1 km/h (0 Bft) O-SO 112 ° 0 min 0,000 mm 0,0 UV-I 63 W/m² 0,4 °C 1,7 °C 1,6 km/h (1 Bft)
30.12.2017 11:20 1,7 °C 1,7 °C 91 % 1009,6 hPa 0,0 mm 0,6 km/h (0 Bft) O-SO 112 ° 0 min 0,000 mm 0,0 UV-I 65 W/m² 0,4 °C 1,7 °C 3,2 km/h (1 Bft)
30.12.2017 11:21 1,7 °C 1,7 °C 91 % 1009,6 hPa 0,0 mm 0,6 km/h (0 Bft) O 94 ° 0 min 0,000 mm 0,0 UV-I 69 W/m² 0,4 °C 1,7 °C 1,6 km/h (1 Bft)
30.12.2017 11:22 1,7 °C 1,7 °C 91 % 1009,5 hPa 0,0 mm 2,1 km/h (1 Bft) O 94 ° 0 min 0,000 mm 0,0 UV-I 72 W/m² 0,4 °C 1,7 °C 3,2 km/h (1 Bft)
30.12.2017 11:23 1,7 °C 1,7 °C 91 % 1009,5 hPa 0,0 mm 0,9 km/h (0 Bft) O 84 ° 0 min 0,000 mm 0,0 UV-I 70 W/m² 0,4 °C 1,7 °C 3,2 km/h (1 Bft)
30.12.2017 11:24 1,7 °C 1,7 °C 91 % 1009,6 hPa 0,0 mm 2,4 km/h (1 Bft) O 98 ° 0 min 0,000 mm 0,0 UV-I 67 W/m² 0,4 °C 1,7 °C 8,0 km/h (2 Bft)
30.12.2017 11:25 1,7 °C 1,7 °C 91 % 1009,6 hPa 0,0 mm 1,0 km/h (0 Bft) O 99 ° 0 min 0,000 mm 0,0 UV-I 65 W/m² 0,4 °C 1,7 °C 3,2 km/h (1 Bft)
30.12.2017 11:26 1,7 °C 1,7 °C 91 % 1009,5 hPa 0,0 mm 1,9 km/h (1 Bft) O 98 ° 0 min 0,000 mm 0,0 UV-I 65 W/m² 0,4 °C 1,7 °C 3,2 km/h (1 Bft)
30.12.2017 11:27 1,7 °C 1,7 °C 91 % 1009,5 hPa 0,0 mm 0,5 km/h (0 Bft) O 98 ° 0 min 0,000 mm 0,0 UV-I 74 W/m² 0,4 °C 1,7 °C 1,6 km/h (1 Bft)
30.12.2017 11:28 1,7 °C 1,7 °C 91 % 1009,4 hPa 0,0 mm 0,4 km/h (0 Bft) NO 38 ° 0 min 0,000 mm 0,0 UV-I 76 W/m² 0,4 °C 1,7 °C 1,6 km/h (1 Bft)
30.12.2017 11:29 1,7 °C 1,7 °C 91 % 1009,4 hPa 0,0 mm 0,6 km/h (0 Bft) NO 38 ° 0 min 0,000 mm 0,0 UV-I 77 W/m² 0,4 °C 1,7 °C 3,2 km/h (1 Bft)
30.12.2017 11:30 1,7 °C 1,7 °C 91 % 1009,4 hPa 0,0 mm 0,1 km/h (0 Bft) NO 38 ° 0 min 0,000 mm 0,0 UV-I 79 W/m² 0,4 °C 1,7 °C 1,6 km/h (1 Bft)
30.12.2017 11:31 1,7 °C 1,7 °C 91 % 1009,4 hPa 0,0 mm 0,5 km/h (0 Bft) NO 38 ° 0 min 0,000 mm 0,0 UV-I 79 W/m² 0,4 °C 1,7 °C 1,6 km/h (1 Bft)
30.12.2017 11:32 1,7 °C 1,7 °C 91 % 1009,4 hPa 0,0 mm 0,0 km/h (0 Bft) NO 38 ° 0 min 0,000 mm 0,0 UV-I 77 W/m² 0,4 °C 1,7 °C 0,0 km/h (0 Bft)
30.12.2017 11:33 1,7 °C 1,8 °C 91 % 1009,3 hPa 0,0 mm 0,0 km/h (0 Bft) NO 38 ° 0 min 0,000 mm 0,0 UV-I 77 W/m² 0,4 °C 1,7 °C 0,0 km/h (0 Bft)
30.12.2017 11:34 1,8 °C 1,8 °C 91 % 1009,3 hPa 0,0 mm 0,0 km/h (0 Bft) NO 38 ° 0 min 0,000 mm 0,5 UV-I 83 W/m² 0,5 °C 1,8 °C 0,0 km/h (0 Bft)
30.12.2017 11:35 1,8 °C 1,8 °C 91 % 1009,3 hPa 0,0 mm 0,8 km/h (0 Bft) NO 38 ° 0 min 0,000 mm 0,5 UV-I 83 W/m² 0,5 °C 1,8 °C 3,2 km/h (1 Bft)
30.12.2017 11:36 1,8 °C 1,8 °C 91 % 1009,3 hPa 0,0 mm 1,8 km/h (1 Bft) NO 38 ° 0 min 0,000 mm 0,5 UV-I 81 W/m² 0,5 °C 1,8 °C 3,2 km/h (1 Bft)
30.12.2017 11:37 1,8 °C 1,8 °C 91 % 1009,3 hPa 0,0 mm 1,6 km/h (1 Bft) O-NO 69 ° 0 min 0,000 mm 0,0 UV-I 76 W/m² 0,5 °C 1,8 °C 3,2 km/h (1 Bft)
30.12.2017 11:38 1,8 °C 1,8 °C 91 % 1009,2 hPa 0,0 mm 2,5 km/h (1 Bft) O-NO 76 ° 0 min 0,000 mm 0,0 UV-I 67 W/m² 0,5 °C 1,8 °C 3,2 km/h (1 Bft)
30.12.2017 11:39 1,8 °C 1,8 °C 91 % 1009,2 hPa 0,0 mm 4,7 km/h (1 Bft) O-SO 106 ° 0 min 0,000 mm 0,0 UV-I 67 W/m² 0,5 °C 0,6 °C 6,4 km/h (2 Bft)
30.12.2017 11:40 1,8 °C 1,8 °C 91 % 1009,2 hPa 0,0 mm 1,2 km/h (1 Bft) O-SO 117 ° 0 min 0,000 mm 0,0 UV-I 69 W/m² 0,5 °C 1,8 °C 4,8 km/h (1 Bft)
30.12.2017 11:41 1,8 °C 1,8 °C 91 % 1009,2 hPa 0,0 mm 0,3 km/h (0 Bft) O-SO 117 ° 0 min 0,000 mm 0,0 UV-I 72 W/m² 0,5 °C 1,8 °C 1,6 km/h (1 Bft)
30.12.2017 11:42 1,8 °C 1,8 °C 91 % 1009,1 hPa 0,0 mm 2,2 km/h (1 Bft) O 92 ° 0 min 0,000 mm 0,0 UV-I 76 W/m² 0,5 °C 1,8 °C 3,2 km/h (1 Bft)
30.12.2017 11:43 1,8 °C 1,8 °C 91 % 1009,1 hPa 0,0 mm 1,8 km/h (1 Bft) O 84 ° 0 min 0,000 mm 0,5 UV-I 77 W/m² 0,5 °C 1,8 °C 3,2 km/h (1 Bft)
30.12.2017 11:44 1,8 °C 1,8 °C 91 % 1009,0 hPa 0,0 mm 1,1 km/h (1 Bft) O 84 ° 0 min 0,000 mm 0,5 UV-I 79 W/m² 0,5 °C 1,8 °C 3,2 km/h (1 Bft)
30.12.2017 11:45 1,8 °C 1,8 °C 91 % 1009,0 hPa 0,0 mm 0,8 km/h (0 Bft) O 84 ° 0 min 0,000 mm 0,5 UV-I 84 W/m² 0,5 °C 1,8 °C 1,6 km/h (1 Bft)
30.12.2017 11:46 1,8 °C 1,9 °C 91 % 1009,0 hPa 0,0 mm 0,8 km/h (0 Bft) O 84 ° 0 min 0,000 mm 0,5 UV-I 88 W/m² 0,5 °C 1,8 °C 4,8 km/h (1 Bft)
30.12.2017 11:47 1,9 °C 1,9 °C 91 % 1009,0 hPa 0,0 mm 3,8 km/h (1 Bft) NO 42 ° 0 min 0,000 mm 0,5 UV-I 90 W/m² 0,6 °C 1,9 °C 6,4 km/h (2 Bft)
30.12.2017 11:48 1,9 °C 1,9 °C 91 % 1009,0 hPa 0,0 mm 2,1 km/h (1 Bft) O 80 ° 0 min 0,000 mm 0,5 UV-I 93 W/m² 0,6 °C 1,9 °C 3,2 km/h (1 Bft)
30.12.2017 11:49 1,9 °C 1,9 °C 91 % 1009,0 hPa 0,0 mm 2,5 km/h (1 Bft) NO 39 ° 0 min 0,000 mm 0,5 UV-I 93 W/m² 0,6 °C 1,9 °C 4,8 km/h (1 Bft)
30.12.2017 11:50 1,9 °C 1,9 °C 91 % 1009,0 hPa 0,0 mm 0,4 km/h (0 Bft) O-SO 110 ° 0 min 0,000 mm 0,5 UV-I 88 W/m² 0,6 °C 1,9 °C 1,6 km/h (1 Bft)
30.12.2017 11:51 1,9 °C 1,9 °C 91 % 1009,1 hPa 0,0 mm 0,1 km/h (0 Bft) O-SO 109 ° 0 min 0,000 mm 0,5 UV-I 81 W/m² 0,6 °C 1,9 °C 1,6 km/h (1 Bft)
30.12.2017 11:52 1,9 °C 1,9 °C 91 % 1009,0 hPa 0,0 mm 1,4 km/h (1 Bft) O-SO 109 ° 0 min 0,000 mm 0,5 UV-I 79 W/m² 0,6 °C 1,9 °C 3,2 km/h (1 Bft)
30.12.2017 11:53 1,9 °C 1,9 °C 91 % 1008,9 hPa 0,0 mm 3,6 km/h (1 Bft) N 350 ° 0 min 0,000 mm 0,5 UV-I 77 W/m² 0,6 °C 1,9 °C 6,4 km/h (2 Bft)
30.12.2017 11:54 1,9 °C 1,9 °C 91 % 1008,9 hPa 0,0 mm 0,6 km/h (0 Bft) N 350 ° 0 min 0,000 mm 0,5 UV-I 76 W/m² 0,6 °C 1,9 °C 3,2 km/h (1 Bft)
30.12.2017 11:55 1,9 °C 1,9 °C 91 % 1008,9 hPa 0,0 mm 1,5 km/h (1 Bft) W-SW 257 ° 0 min 0,000 mm 0,5 UV-I 74 W/m² 0,6 °C 1,9 °C 4,8 km/h (1 Bft)
30.12.2017 11:56 1,9 °C 1,9 °C 91 % 1008,9 hPa 0,0 mm 0,5 km/h (0 Bft) W-NW 294 ° 0 min 0,000 mm 0,5 UV-I 74 W/m² 0,6 °C 1,9 °C 1,6 km/h (1 Bft)
30.12.2017 11:57 2,0 °C 2,0 °C 91 % 1008,9 hPa 0,0 mm 3,8 km/h (1 Bft) W 261 ° 0 min 0,000 mm 0,5 UV-I 84 W/m² 0,7 °C 2,0 °C 6,4 km/h (2 Bft)
30.12.2017 11:58 2,0 °C 2,0 °C 91 % 1009,0 hPa 0,0 mm 1,7 km/h (1 Bft) W 263 ° 0 min 0,000 mm 0,5 UV-I 84 W/m² 0,7 °C 2,0 °C 4,8 km/h (1 Bft)
30.12.2017 11:59 2,0 °C 2,0 °C 91 % 1008,9 hPa 0,0 mm 0,5 km/h (0 Bft) W 263 ° 0 min 0,000 mm 0,5 UV-I 83 W/m² 0,7 °C 2,0 °C 1,6 km/h (1 Bft)
30.12.2017 12:00 2,1 °C 2,1 °C 91 % 1009,0 hPa 0,0 mm 1,5 km/h (1 Bft) W 263 ° 0 min 0,026 mm 0,5 UV-I 79 W/m² 0,8 °C 2,1 °C 3,2 km/h (1 Bft)
30.12.2017 12:01 2,1 °C 2,1 °C 91 % 1008,9 hPa 0,0 mm 3,4 km/h (1 Bft) O-NO 69 ° 0 min 0,000 mm 0,5 UV-I 76 W/m² 0,8 °C 2,1 °C 4,8 km/h (1 Bft)
30.12.2017 12:02 2,1 °C 2,1 °C 91 % 1008,9 hPa 0,0 mm 2,1 km/h (1 Bft) NO 56 ° 0 min 0,000 mm 0,5 UV-I 76 W/m² 0,8 °C 2,1 °C 4,8 km/h (1 Bft)
30.12.2017 12:03 2,1 °C 2,1 °C 91 % 1008,8 hPa 0,0 mm 0,5 km/h (0 Bft) NO 56 ° 0 min 0,000 mm 0,5 UV-I 79 W/m² 0,8 °C 2,1 °C 1,6 km/h (1 Bft)
30.12.2017 12:04 2,1 °C 2,1 °C 91 % 1008,7 hPa 0,0 mm 0,0 km/h (0 Bft) NO 56 ° 0 min 0,000 mm 0,5 UV-I 81 W/m² 0,8 °C 2,1 °C 0,0 km/h (0 Bft)
30.12.2017 12:05 2,1 °C 2,2 °C 91 % 1008,8 hPa 0,0 mm 0,0 km/h (0 Bft) NO 56 ° 0 min 0,000 mm 0,5 UV-I 79 W/m² 0,8 °C 2,1 °C 0,0 km/h (0 Bft)
30.12.2017 12:06 2,1 °C 2,2 °C 91 % 1008,7 hPa 0,0 mm 0,0 km/h (0 Bft) NO 56 ° 0 min 0,000 mm 0,5 UV-I 76 W/m² 0,8 °C 2,1 °C 0,0 km/h (0 Bft)
30.12.2017 12:07 2,2 °C 2,2 °C 91 % 1008,7 hPa 0,0 mm 0,0 km/h (0 Bft) NO 56 ° 0 min 0,000 mm 0,5 UV-I 74 W/m² 0,9 °C 2,2 °C 0,0 km/h (0 Bft)
30.12.2017 12:08 2,2 °C 2,2 °C 91 % 1008,6 hPa 0,0 mm 1,8 km/h (1 Bft) NO 55 ° 0 min 0,000 mm 0,5 UV-I 74 W/m² 0,9 °C 2,2 °C 3,2 km/h (1 Bft)
30.12.2017 12:09 2,2 °C 2,2 °C 91 % 1008,6 hPa 0,0 mm 1,2 km/h (1 Bft) O-NO 69 ° 0 min 0,000 mm 0,5 UV-I 72 W/m² 0,9 °C 2,2 °C 3,2 km/h (1 Bft)
30.12.2017 12:10 2,2 °C 2,2 °C 91 % 1008,6 hPa 0,0 mm 0,0 km/h (0 Bft) O-NO 69 ° 0 min 0,000 mm 0,5 UV-I 70 W/m² 0,9 °C 2,2 °C 0,0 km/h (0 Bft)
30.12.2017 12:11 2,2 °C 2,2 °C 91 % 1008,6 hPa 0,0 mm 0,0 km/h (0 Bft) O-NO 69 ° 0 min 0,000 mm 0,5 UV-I 72 W/m² 0,9 °C 2,2 °C 0,0 km/h (0 Bft)
30.12.2017 12:12 2,2 °C 2,2 °C 91 % 1008,6 hPa 0,0 mm 0,0 km/h (0 Bft) O-NO 69 ° 0 min 0,000 mm 0,5 UV-I 72 W/m² 0,9 °C 2,2 °C 0,0 km/h (0 Bft)
30.12.2017 12:13 2,3 °C 2,3 °C 91 % 1008,6 hPa 0,0 mm 0,0 km/h (0 Bft) O-NO 69 ° 0 min 0,000 mm 0,5 UV-I 70 W/m² 1,0 °C 2,3 °C 0,0 km/h (0 Bft)
30.12.2017 12:14 2,3 °C 2,3 °C 91 % 1008,6 hPa 0,0 mm 0,0 km/h (0 Bft) O-NO 69 ° 0 min 0,000 mm 0,5 UV-I 79 W/m² 1,0 °C 2,3 °C 0,0 km/h (0 Bft)
30.12.2017 12:15 2,3 °C 2,3 °C 91 % 1008,6 hPa 0,0 mm 0,0 km/h (0 Bft) O-NO 69 ° 0 min 0,000 mm 0,6 UV-I 83 W/m² 1,0 °C 2,3 °C 0,0 km/h (0 Bft)
30.12.2017 12:16 2,3 °C 2,3 °C 91 % 1008,4 hPa 0,0 mm 0,0 km/h (0 Bft) O-NO 69 ° 0 min 0,000 mm 0,6 UV-I 84 W/m² 1,0 °C 2,3 °C 0,0 km/h (0 Bft)
30.12.2017 12:17 2,3 °C 2,3 °C 91 % 1008,4 hPa 0,0 mm 0,0 km/h (0 Bft) O-NO 69 ° 0 min 0,000 mm 0,6 UV-I 84 W/m² 1,0 °C 2,3 °C 0,0 km/h (0 Bft)
30.12.2017 12:18 2,3 °C 2,3 °C 91 % 1008,5 hPa 0,0 mm 0,0 km/h (0 Bft) O-NO 69 ° 0 min 0,000 mm 0,6 UV-I 84 W/m² 1,0 °C 2,3 °C 0,0 km/h (0 Bft)
30.12.2017 12:19 2,3 °C 2,3 °C 91 % 1008,4 hPa 0,0 mm 0,0 km/h (0 Bft) O-NO 69 ° 0 min 0,000 mm 0,5 UV-I 79 W/m² 1,0 °C 2,3 °C 0,0 km/h (0 Bft)
30.12.2017 12:20 2,3 °C 2,3 °C 91 % 1008,5 hPa 0,0 mm 0,0 km/h (0 Bft) O-NO 69 ° 0 min 0,000 mm 0,5 UV-I 72 W/m² 1,0 °C 2,3 °C 0,0 km/h (0 Bft)
30.12.2017 12:21 2,3 °C 2,3 °C 91 % 1008,5 hPa 0,0 mm 0,0 km/h (0 Bft) O-NO 69 ° 0 min 0,000 mm 0,5 UV-I 72 W/m² 1,0 °C 2,3 °C 0,0 km/h (0 Bft)
30.12.2017 12:22 2,3 °C 2,3 °C 91 % 1008,4 hPa 0,0 mm 0,0 km/h (0 Bft) O-NO 69 ° 0 min 0,000 mm 0,5 UV-I 74 W/m² 1,0 °C 2,3 °C 0,0 km/h (0 Bft)
30.12.2017 12:23 2,3 °C 2,4 °C 91 % 1008,5 hPa 0,0 mm 0,0 km/h (0 Bft) O-NO 69 ° 0 min 0,000 mm 0,5 UV-I 74 W/m² 1,0 °C 2,3 °C 0,0 km/h (0 Bft)
30.12.2017 12:24 2,4 °C 2,4 °C 91 % 1008,3 hPa 0,0 mm 0,0 km/h (0 Bft) O-NO 69 ° 0 min 0,000 mm 0,5 UV-I 74 W/m² 1,1 °C 2,4 °C 0,0 km/h (0 Bft)
30.12.2017 12:25 2,4 °C 2,4 °C 91 % 1008,3 hPa 0,0 mm 0,0 km/h (0 Bft) O-NO 69 ° 0 min 0,000 mm 0,5 UV-I 72 W/m² 1,1 °C 2,4 °C 0,0 km/h (0 Bft)
30.12.2017 12:26 2,4 °C 2,4 °C 91 % 1008,3 hPa 0,0 mm 0,0 km/h (0 Bft) O-NO 69 ° 0 min 0,000 mm 0,5 UV-I 76 W/m² 1,1 °C 2,4 °C 0,0 km/h (0 Bft)
30.12.2017 12:27 2,4 °C 2,4 °C 91 % 1008,3 hPa 0,0 mm 0,0 km/h (0 Bft) O-NO 69 ° 0 min 0,000 mm 0,5 UV-I 77 W/m² 1,1 °C 2,4 °C 0,0 km/h (0 Bft)
30.12.2017 12:28 2,4 °C 2,4 °C 91 % 1008,3 hPa 0,0 mm 0,0 km/h (0 Bft) O-NO 69 ° 0 min 0,000 mm 0,5 UV-I 77 W/m² 1,1 °C 2,4 °C 0,0 km/h (0 Bft)
30.12.2017 12:29 2,4 °C 2,4 °C 91 % 1008,3 hPa 0,0 mm 0,0 km/h (0 Bft) O-NO 69 ° 0 min 0,000 mm 0,5 UV-I 76 W/m² 1,1 °C 2,4 °C 0,0 km/h (0 Bft)
30.12.2017 12:30 2,4 °C 2,4 °C 91 % 1008,2 hPa 0,0 mm 0,4 km/h (0 Bft) NW 314 ° 0 min 0,000 mm 0,5 UV-I 76 W/m² 1,1 °C 2,4 °C 3,2 km/h (1 Bft)
30.12.2017 12:31 2,4 °C 2,4 °C 91 % 1008,3 hPa 0,0 mm 4,0 km/h (1 Bft) W 263 ° 0 min 0,000 mm 0,5 UV-I 74 W/m² 1,1 °C 2,4 °C 6,4 km/h (2 Bft)
30.12.2017 12:32 2,4 °C 2,4 °C 91 % 1008,2 hPa 0,0 mm 0,8 km/h (0 Bft) W 263 ° 0 min 0,000 mm 0,5 UV-I 76 W/m² 1,1 °C 2,4 °C 3,2 km/h (1 Bft)
30.12.2017 12:33 2,4 °C 2,4 °C 91 % 1008,2 hPa 0,0 mm 0,4 km/h (0 Bft) W-SW 257 ° 0 min 0,000 mm 0,5 UV-I 77 W/m² 1,1 °C 2,4 °C 1,6 km/h (1 Bft)
30.12.2017 12:34 2,4 °C 2,4 °C 91 % 1008,2 hPa 0,0 mm 0,1 km/h (0 Bft) W-SW 257 ° 0 min 0,000 mm 0,5 UV-I 77 W/m² 1,1 °C 2,4 °C 1,6 km/h (1 Bft)
30.12.2017 12:35 2,4 °C 2,4 °C 91 % 1008,2 hPa 0,0 mm 0,0 km/h (0 Bft) W-SW 257 ° 0 min 0,000 mm 0,5 UV-I 77 W/m² 1,1 °C 2,4 °C 0,0 km/h (0 Bft)
30.12.2017 12:36 2,4 °C 2,4 °C 91 % 1008,2 hPa 0,0 mm 0,0 km/h (0 Bft) W-SW 257 ° 0 min 0,000 mm 0,5 UV-I 83 W/m² 1,1 °C 2,4 °C 0,0 km/h (0 Bft)
30.12.2017 12:37 2,5 °C 2,5 °C 91 % 1008,2 hPa 0,0 mm 0,7 km/h (0 Bft) W-SW 257 ° 0 min 0,000 mm 0,6 UV-I 84 W/m² 1,2 °C 2,5 °C 3,2 km/h (1 Bft)
30.12.2017 12:38 2,6 °C 2,6 °C 91 % 1008,1 hPa 0,0 mm 1,7 km/h (1 Bft) W-SW 257 ° 0 min 0,000 mm 0,5 UV-I 72 W/m² 1,3 °C 2,6 °C 4,8 km/h (1 Bft)
30.12.2017 12:39 2,5 °C 2,6 °C 91 % 1008,1 hPa 0,0 mm 4,6 km/h (1 Bft) W-SW 249 ° 0 min 0,000 mm 0,5 UV-I 65 W/m² 1,2 °C 1,4 °C 8,0 km/h (2 Bft)
30.12.2017 12:40 2,6 °C 2,6 °C 91 % 1008,1 hPa 0,0 mm 5,4 km/h (1 Bft) W 263 ° 0 min 0,000 mm 0,5 UV-I 63 W/m² 1,3 °C 1,2 °C 9,7 km/h (2 Bft)
30.12.2017 12:41 2,6 °C 2,6 °C 91 % 1008,1 hPa 0,0 mm 4,6 km/h (1 Bft) W-SW 240 ° 0 min 0,000 mm 0,5 UV-I 67 W/m² 1,3 °C 1,5 °C 9,7 km/h (2 Bft)
30.12.2017 12:42 2,6 °C 2,6 °C 91 % 1008,0 hPa 0,0 mm 4,1 km/h (1 Bft) S-SW 196 ° 0 min 0,000 mm 0,5 UV-I 70 W/m² 1,3 °C 2,6 °C 8,0 km/h (2 Bft)
30.12.2017 12:43 2,6 °C 2,6 °C 91 % 1008,0 hPa 0,0 mm 4,1 km/h (1 Bft) W-SW 257 ° 0 min 0,000 mm 0,5 UV-I 70 W/m² 1,3 °C 2,6 °C 8,0 km/h (2 Bft)
30.12.2017 12:44 2,6 °C 2,6 °C 91 % 1008,1 hPa 0,0 mm 3,4 km/h (1 Bft) W 279 ° 0 min 0,000 mm 0,5 UV-I 72 W/m² 1,3 °C 2,6 °C 9,7 km/h (2 Bft)
30.12.2017 12:45 2,7 °C 2,7 °C 91 % 1008,0 hPa 0,0 mm 5,8 km/h (2 Bft) W-SW 241 ° 0 min 0,000 mm 0,5 UV-I 70 W/m² 1,4 °C 1,2 °C 9,7 km/h (2 Bft)
30.12.2017 12:46 2,7 °C 2,7 °C 92 % 1008,1 hPa 0,0 mm 5,0 km/h (1 Bft) W 261 ° 0 min 0,000 mm 0,6 UV-I 72 W/m² 1,5 °C 1,5 °C 9,7 km/h (2 Bft)
30.12.2017 12:47 2,7 °C 2,7 °C 92 % 1008,0 hPa 0,0 mm 5,9 km/h (2 Bft) W-SW 257 ° 0 min 0,000 mm 0,6 UV-I 74 W/m² 1,5 °C 1,1 °C 11,3 km/h (2 Bft)
30.12.2017 12:48 2,7 °C 2,8 °C 92 % 1007,9 hPa 0,0 mm 7,5 km/h (2 Bft) W 266 ° 0 min 0,000 mm 0,6 UV-I 70 W/m² 1,5 °C 0,6 °C 11,3 km/h (2 Bft)
30.12.2017 12:49 2,8 °C 2,8 °C 92 % 1007,9 hPa 0,0 mm 5,0 km/h (1 Bft) W 267 ° 0 min 0,000 mm 0,6 UV-I 70 W/m² 1,6 °C 1,6 °C 6,4 km/h (2 Bft)
30.12.2017 12:50 2,8 °C 2,8 °C 92 % 1007,9 hPa 0,0 mm 7,3 km/h (2 Bft) W 259 ° 0 min 0,000 mm 0,5 UV-I 69 W/m² 1,6 °C 0,8 °C 11,3 km/h (2 Bft)
30.12.2017 12:51 2,8 °C 2,8 °C 92 % 1007,9 hPa 0,0 mm 4,1 km/h (1 Bft) SW 217 ° 0 min 0,000 mm 0,5 UV-I 67 W/m² 1,6 °C 2,8 °C 9,7 km/h (2 Bft)
30.12.2017 12:52 2,9 °C 2,9 °C 92 % 1007,9 hPa 0,0 mm 7,0 km/h (2 Bft) W 276 ° 0 min 0,000 mm 0,5 UV-I 65 W/m² 1,7 °C 1,0 °C 12,9 km/h (3 Bft)
30.12.2017 12:53 2,9 °C 2,9 °C 92 % 1007,9 hPa 0,0 mm 8,2 km/h (2 Bft) W-NW 286 ° 0 min 0,000 mm 0,5 UV-I 67 W/m² 1,7 °C 0,6 °C 12,9 km/h (3 Bft)
30.12.2017 12:54 2,9 °C 2,9 °C 92 % 1007,9 hPa 0,0 mm 4,8 km/h (1 Bft) W 263 ° 0 min 0,000 mm 0,5 UV-I 62 W/m² 1,7 °C 1,8 °C 6,4 km/h (2 Bft)
30.12.2017 12:55 3,0 °C 3,0 °C 92 % 1007,9 hPa 0,0 mm 6,4 km/h (2 Bft) W 268 ° 0 min 0,000 mm 0,5 UV-I 62 W/m² 1,8 °C 1,3 °C 9,7 km/h (2 Bft)
30.12.2017 12:56 3,0 °C 3,0 °C 92 % 1007,9 hPa 0,0 mm 7,0 km/h (2 Bft) W-SW 247 ° 0 min 0,000 mm 0,0 UV-I 54 W/m² 1,8 °C 1,1 °C 12,9 km/h (3 Bft)
30.12.2017 12:57 3,1 °C 3,1 °C 92 % 1008,0 hPa 0,0 mm 7,9 km/h (2 Bft) W-SW 250 ° 0 min 0,000 mm 0,0 UV-I 53 W/m² 1,9 °C 0,9 °C 11,3 km/h (2 Bft)
30.12.2017 12:58 3,1 °C 3,1 °C 92 % 1007,9 hPa 0,0 mm 10,1 km/h (2 Bft) W 259 ° 0 min 0,000 mm 0,0 UV-I 53 W/m² 1,9 °C 0,4 °C 12,9 km/h (3 Bft)
30.12.2017 12:59 3,1 °C 3,1 °C 92 % 1007,9 hPa 0,0 mm 9,8 km/h (2 Bft) W-SW 258 ° 0 min 0,000 mm 0,5 UV-I 56 W/m² 1,9 °C 0,4 °C 14,5 km/h (3 Bft)
30.12.2017 13:00 3,1 °C 3,1 °C 92 % 1007,8 hPa 0,0 mm 11,2 km/h (2 Bft) W-SW 256 ° 0 min 0,000 mm 0,5 UV-I 58 W/m² 1,9 °C 0,1 °C 17,7 km/h (3 Bft)
30.12.2017 13:01 3,2 °C 3,2 °C 92 % 1007,9 hPa 0,0 mm 9,9 km/h (2 Bft) W 269 ° 0 min 0,025 mm 0,5 UV-I 58 W/m² 2,0 °C 0,5 °C 17,7 km/h (3 Bft)
30.12.2017 13:02 3,2 °C 3,2 °C 92 % 1007,9 hPa 0,0 mm 9,3 km/h (2 Bft) W-SW 256 ° 0 min 0,000 mm 0,5 UV-I 56 W/m² 2,0 °C 0,7 °C 14,5 km/h (3 Bft)
30.12.2017 13:03 3,2 °C 3,2 °C 92 % 1007,9 hPa 0,0 mm 11,8 km/h (2 Bft) W-SW 244 ° 0 min 0,000 mm 0,5 UV-I 60 W/m² 2,0 °C 0,1 °C 16,1 km/h (3 Bft)
30.12.2017 13:04 3,2 °C 3,2 °C 92 % 1007,8 hPa 0,0 mm 9,8 km/h (2 Bft) W-SW 250 ° 0 min 0,000 mm 0,0 UV-I 58 W/m² 2,0 °C 0,6 °C 16,1 km/h (3 Bft)
30.12.2017 13:05 3,3 °C 3,3 °C 92 % 1007,9 hPa 0,0 mm 9,8 km/h (2 Bft) W 269 ° 0 min 0,000 mm 0,0 UV-I 54 W/m² 2,1 °C 0,7 °C 16,1 km/h (3 Bft)
30.12.2017 13:06 3,3 °C 3,3 °C 92 % 1007,9 hPa 0,0 mm 12,2 km/h (2 Bft) W 271 ° 0 min 0,000 mm 0,5 UV-I 58 W/m² 2,1 °C 0,2 °C 16,1 km/h (3 Bft)
30.12.2017 13:07 3,3 °C 3,3 °C 92 % 1007,9 hPa 0,0 mm 6,9 km/h (2 Bft) W 263 ° 0 min 0,000 mm 0,5 UV-I 60 W/m² 2,1 °C 1,5 °C 14,5 km/h (3 Bft)
30.12.2017 13:08 3,4 °C 3,4 °C 92 % 1007,9 hPa 0,0 mm 8,7 km/h (2 Bft) W 267 ° 0 min 0,000 mm 0,5 UV-I 67 W/m² 2,2 °C 1,1 °C 12,9 km/h (3 Bft)
30.12.2017 13:09 3,4 °C 3,4 °C 92 % 1008,0 hPa 0,0 mm 7,8 km/h (2 Bft) W-SW 249 ° 0 min 0,000 mm 0,5 UV-I 70 W/m² 2,2 °C 1,3 °C 12,9 km/h (3 Bft)
30.12.2017 13:10 3,4 °C 3,4 °C 92 % 1008,0 hPa 0,0 mm 4,3 km/h (1 Bft) W-SW 244 ° 0 min 0,000 mm 0,5 UV-I 70 W/m² 2,2 °C 3,4 °C 6,4 km/h (2 Bft)
30.12.2017 13:11 3,4 °C 3,4 °C 92 % 1008,0 hPa 0,0 mm 8,9 km/h (2 Bft) W-NW 290 ° 0 min 0,000 mm 0,5 UV-I 70 W/m² 2,2 °C 1,0 °C 14,5 km/h (3 Bft)
30.12.2017 13:12 3,5 °C 3,5 °C 92 % 1008,0 hPa 0,0 mm 10,0 km/h (2 Bft) W-SW 248 ° 0 min 0,000 mm 0,5 UV-I 70 W/m² 2,3 °C 0,9 °C 14,5 km/h (3 Bft)
30.12.2017 13:13 3,6 °C 3,6 °C 91 % 1008,0 hPa 0,0 mm 13,7 km/h (3 Bft) W-SW 241 ° 0 min 0,000 mm 0,5 UV-I 69 W/m² 2,3 °C 0,2 °C 19,3 km/h (3 Bft)
30.12.2017 13:14 3,6 °C 3,6 °C 91 % 1008,0 hPa 0,0 mm 9,7 km/h (2 Bft) W 264 ° 0 min 0,000 mm 0,5 UV-I 63 W/m² 2,3 °C 1,1 °C 14,5 km/h (3 Bft)
30.12.2017 13:15 3,6 °C 3,6 °C 91 % 1008,1 hPa 0,0 mm 11,1 km/h (2 Bft) W 277 ° 0 min 0,000 mm 0,5 UV-I 62 W/m² 2,3 °C 0,7 °C 14,5 km/h (3 Bft)
30.12.2017 13:16 3,6 °C 3,7 °C 92 % 1008,1 hPa 0,0 mm 8,9 km/h (2 Bft) W 259 ° 0 min 0,000 mm 0,5 UV-I 63 W/m² 2,4 °C 1,3 °C 11,3 km/h (2 Bft)
30.12.2017 13:17 3,7 °C 3,7 °C 91 % 1008,2 hPa 0,0 mm 13,5 km/h (3 Bft) W-NW 296 ° 0 min 0,000 mm 0,5 UV-I 69 W/m² 2,4 °C 0,4 °C 17,7 km/h (3 Bft)
30.12.2017 13:18 3,7 °C 3,7 °C 91 % 1008,2 hPa 0,0 mm 9,1 km/h (2 Bft) W 269 ° 0 min 0,000 mm 0,5 UV-I 72 W/m² 2,4 °C 1,3 °C 12,9 km/h (3 Bft)
30.12.2017 13:19 3,8 °C 3,8 °C 91 % 1008,2 hPa 0,2 mm 12,0 km/h (2 Bft) W-SW 251 ° 0 min 0,000 mm 0,5 UV-I 77 W/m² 2,5 °C 0,8 °C 17,7 km/h (3 Bft)
30.12.2017 13:20 3,8 °C 3,8 °C 91 % 1008,2 hPa 0,0 mm 9,5 km/h (2 Bft) W 271 ° 0 min 0,000 mm 0,6 UV-I 77 W/m² 2,5 °C 1,3 °C 14,5 km/h (3 Bft)
30.12.2017 13:21 3,8 °C 3,8 °C 91 % 1008,2 hPa 0,0 mm 10,0 km/h (2 Bft) W 275 ° 0 min 0,000 mm 0,6 UV-I 77 W/m² 2,5 °C 1,2 °C 14,5 km/h (3 Bft)
30.12.2017 13:22 3,8 °C 3,9 °C 91 % 1008,2 hPa 0,0 mm 8,0 km/h (2 Bft) W-SW 250 ° 0 min 0,000 mm 0,6 UV-I 79 W/m² 2,5 °C 1,7 °C 11,3 km/h (2 Bft)
30.12.2017 13:23 3,9 °C 3,9 °C 91 % 1008,2 hPa 0,0 mm 11,8 km/h (2 Bft) W 279 ° 0 min 0,000 mm 0,6 UV-I 77 W/m² 2,6 °C 1,0 °C 19,3 km/h (3 Bft)
30.12.2017 13:24 3,9 °C 3,9 °C 91 % 1008,2 hPa 0,0 mm 11,6 km/h (2 Bft) W 263 ° 0 min 0,000 mm 0,6 UV-I 77 W/m² 2,6 °C 1,0 °C 17,7 km/h (3 Bft)
30.12.2017 13:25 4,0 °C 4,0 °C 91 % 1008,3 hPa 0,0 mm 8,5 km/h (2 Bft) W 275 ° 0 min 0,000 mm 0,6 UV-I 65 W/m² 2,7 °C 1,8 °C 14,5 km/h (3 Bft)
30.12.2017 13:26 4,0 °C 4,0 °C 91 % 1008,3 hPa 0,0 mm 11,5 km/h (2 Bft) W 266 ° 0 min 0,000 mm 0,5 UV-I 62 W/m² 2,7 °C 1,1 °C 14,5 km/h (3 Bft)
30.12.2017 13:27 4,1 °C 4,1 °C 91 % 1008,3 hPa 0,2 mm 10,3 km/h (2 Bft) W-SW 258 ° 0 min 0,000 mm 0,5 UV-I 67 W/m² 2,8 °C 1,5 °C 17,7 km/h (3 Bft)
30.12.2017 13:28 4,1 °C 4,1 °C 91 % 1008,2 hPa 0,0 mm 11,3 km/h (2 Bft) W 265 ° 0 min 0,000 mm 0,5 UV-I 72 W/m² 2,8 °C 1,3 °C 20,9 km/h (4 Bft)
30.12.2017 13:29 4,1 °C 4,1 °C 91 % 1008,2 hPa 0,0 mm 11,4 km/h (2 Bft) W 271 ° 0 min 0,000 mm 0,6 UV-I 76 W/m² 2,8 °C 1,3 °C 17,7 km/h (3 Bft)
30.12.2017 13:30 4,2 °C 4,2 °C 91 % 1008,2 hPa 0,2 mm 13,8 km/h (3 Bft) W 267 ° 0 min 0,000 mm 0,6 UV-I 79 W/m² 2,9 °C 1,0 °C 19,3 km/h (3 Bft)
30.12.2017 13:31 4,2 °C 4,2 °C 91 % 1008,3 hPa 0,0 mm 13,4 km/h (3 Bft) W 260 ° 0 min 0,000 mm 0,5 UV-I 72 W/m² 2,9 °C 1,0 °C 17,7 km/h (3 Bft)
30.12.2017 13:32 4,2 °C 4,2 °C 91 % 1008,3 hPa 0,4 mm 13,2 km/h (3 Bft) W-SW 254 ° 0 min 0,000 mm 0,5 UV-I 67 W/m² 2,9 °C 1,1 °C 17,7 km/h (3 Bft)
30.12.2017 13:33 4,3 °C 4,3 °C 90 % 1008,3 hPa 0,2 mm 14,1 km/h (3 Bft) W 271 ° 0 min 0,000 mm 0,5 UV-I 63 W/m² 2,8 °C 1,0 °C 20,9 km/h (4 Bft)
30.12.2017 13:34 4,3 °C 4,3 °C 90 % 1008,4 hPa 0,2 mm 8,4 km/h (2 Bft) W 263 ° 0 min 0,000 mm 0,5 UV-I 63 W/m² 2,8 °C 2,2 °C 11,3 km/h (2 Bft)
30.12.2017 13:35 4,3 °C 4,3 °C 90 % 1008,4 hPa 0,2 mm 8,7 km/h (2 Bft) W 263 ° 0 min 0,000 mm 0,5 UV-I 65 W/m² 2,8 °C 2,1 °C 16,1 km/h (3 Bft)
30.12.2017 13:36 4,3 °C 4,3 °C 90 % 1008,4 hPa 0,2 mm 11,7 km/h (2 Bft) W 279 ° 0 min 0,000 mm 0,0 UV-I 62 W/m² 2,8 °C 1,5 °C 16,1 km/h (3 Bft)
30.12.2017 13:37 4,3 °C 4,3 °C 90 % 1008,4 hPa 0,2 mm 9,8 km/h (2 Bft) W-SW 251 ° 0 min 0,000 mm 0,5 UV-I 67 W/m² 2,8 °C 1,9 °C 12,9 km/h (3 Bft)
30.12.2017 13:38 4,3 °C 4,3 °C 90 % 1008,4 hPa 0,2 mm 11,8 km/h (2 Bft) SW 236 ° 0 min 0,000 mm 0,5 UV-I 69 W/m² 2,8 °C 1,4 °C 16,1 km/h (3 Bft)
30.12.2017 13:39 4,4 °C 4,4 °C 90 % 1008,4 hPa 0,2 mm 9,0 km/h (2 Bft) SW 219 ° 0 min 0,000 mm 0,5 UV-I 70 W/m² 2,9 °C 2,2 °C 12,9 km/h (3 Bft)
30.12.2017 13:40 4,4 °C 4,4 °C 90 % 1008,3 hPa 0,2 mm 5,9 km/h (2 Bft) W 273 ° 0 min 0,000 mm 0,5 UV-I 70 W/m² 2,9 °C 3,1 °C 11,3 km/h (2 Bft)
30.12.2017 13:41 4,5 °C 4,5 °C 90 % 1008,3 hPa 0,2 mm 15,4 km/h (3 Bft) SW 232 ° 0 min 0,000 mm 0,5 UV-I 70 W/m² 3,0 °C 1,1 °C 20,9 km/h (4 Bft)
30.12.2017 13:42 4,5 °C 4,6 °C 90 % 1008,3 hPa 0,4 mm 10,0 km/h (2 Bft) W-SW 252 ° 0 min 0,000 mm 0,5 UV-I 67 W/m² 3,0 °C 2,1 °C 16,1 km/h (3 Bft)
30.12.2017 13:43 4,6 °C 4,6 °C 90 % 1008,2 hPa 0,2 mm 11,3 km/h (2 Bft) W 260 ° 0 min 0,000 mm 0,0 UV-I 58 W/m² 3,1 °C 1,9 °C 16,1 km/h (3 Bft)
30.12.2017 13:44 4,6 °C 4,6 °C 90 % 1008,3 hPa 0,2 mm 9,5 km/h (2 Bft) W 266 ° 0 min 0,000 mm 0,0 UV-I 56 W/m² 3,1 °C 2,3 °C 16,1 km/h (3 Bft)
30.12.2017 13:45 4,7 °C 4,7 °C 90 % 1008,3 hPa 0,2 mm 14,0 km/h (3 Bft) W 263 ° 0 min 0,000 mm 0,0 UV-I 53 W/m² 3,2 °C 1,5 °C 19,3 km/h (3 Bft)
30.12.2017 13:46 4,7 °C 4,7 °C 90 % 1008,5 hPa 0,2 mm 12,8 km/h (3 Bft) W-SW 257 ° 0 min 0,000 mm 0,0 UV-I 56 W/m² 3,2 °C 1,7 °C 17,7 km/h (3 Bft)
30.12.2017 13:47 4,7 °C 4,7 °C 90 % 1008,5 hPa 0,2 mm 11,6 km/h (2 Bft) W-SW 244 ° 0 min 0,000 mm 0,5 UV-I 60 W/m² 3,2 °C 2,0 °C 16,1 km/h (3 Bft)
30.12.2017 13:48 4,8 °C 4,8 °C 90 % 1008,4 hPa 0,0 mm 7,4 km/h (2 Bft) SW 226 ° 0 min 0,000 mm 0,5 UV-I 65 W/m² 3,3 °C 3,1 °C 12,9 km/h (3 Bft)
30.12.2017 13:49 4,8 °C 4,8 °C 90 % 1008,3 hPa 0,0 mm 11,9 km/h (2 Bft) W-SW 255 ° 0 min 0,000 mm 0,5 UV-I 67 W/m² 3,3 °C 2,0 °C 17,7 km/h (3 Bft)
30.12.2017 13:50 4,9 °C 4,9 °C 90 % 1008,4 hPa 0,0 mm 14,2 km/h (3 Bft) W 259 ° 0 min 0,000 mm 0,5 UV-I 63 W/m² 3,4 °C 1,8 °C 16,1 km/h (3 Bft)
30.12.2017 13:51 4,9 °C 4,9 °C 90 % 1008,4 hPa 0,2 mm 11,3 km/h (2 Bft) W-SW 258 ° 0 min 0,000 mm 0,0 UV-I 56 W/m² 3,4 °C 2,3 °C 14,5 km/h (3 Bft)
30.12.2017 13:52 4,9 °C 4,9 °C 90 % 1008,4 hPa 0,0 mm 12,7 km/h (3 Bft) W-SW 256 ° 0 min 0,000 mm 0,0 UV-I 53 W/m² 3,4 °C 2,0 °C 16,1 km/h (3 Bft)
30.12.2017 13:53 4,9 °C 4,9 °C 90 % 1008,4 hPa 0,0 mm 11,3 km/h (2 Bft) W 270 ° 0 min 0,000 mm 0,0 UV-I 54 W/m² 3,4 °C 2,3 °C 16,1 km/h (3 Bft)
30.12.2017 13:54 4,9 °C 5,0 °C 90 % 1008,5 hPa 0,0 mm 9,5 km/h (2 Bft) W 272 ° 0 min 0,000 mm 0,0 UV-I 49 W/m² 3,4 °C 2,7 °C 14,5 km/h (3 Bft)
30.12.2017 13:55 5,0 °C 5,0 °C 89 % 1008,4 hPa 0,0 mm 12,4 km/h (3 Bft) W-SW 252 ° 0 min 0,000 mm 0,0 UV-I 49 W/m² 3,3 °C 2,2 °C 16,1 km/h (3 Bft)
30.12.2017 13:56 5,1 °C 5,1 °C 89 % 1008,5 hPa 0,2 mm 11,4 km/h (2 Bft) W-SW 251 ° 0 min 0,000 mm 0,0 UV-I 47 W/m² 3,4 °C 2,5 °C 14,5 km/h (3 Bft)
30.12.2017 13:58 5,1 °C 5,1 °C 89 % 1008,4 hPa 0,0 mm 11,3 km/h (2 Bft) W-SW 253 ° 0 min 0,000 mm 0,0 UV-I 49 W/m² 3,4 °C 2,5 °C 17,7 km/h (3 Bft)
30.12.2017 13:59 5,1 °C 5,1 °C 89 % 1008,4 hPa 0,0 mm 10,4 km/h (2 Bft) W 263 ° 0 min 0,000 mm 0,0 UV-I 58 W/m² 3,4 °C 2,7 °C 14,5 km/h (3 Bft)
30.12.2017 14:00 5,1 °C 5,1 °C 89 % 1008,5 hPa 0,0 mm 5,6 km/h (1 Bft) SW 231 ° 0 min 0,000 mm 0,0 UV-I 54 W/m² 3,4 °C 4,0 °C 11,3 km/h (2 Bft)
30.12.2017 14:01 5,2 °C 5,2 °C 89 % 1008,4 hPa 0,0 mm 6,6 km/h (2 Bft) W-SW 253 ° 0 min 0,025 mm 0,0 UV-I 49 W/m² 3,5 °C 3,8 °C 12,9 km/h (3 Bft)
30.12.2017 14:02 5,1 °C 5,2 °C 89 % 1008,4 hPa 0,2 mm 8,7 km/h (2 Bft) W-SW 254 ° 0 min 0,000 mm 0,0 UV-I 51 W/m² 3,4 °C 3,1 °C 12,9 km/h (3 Bft)
30.12.2017 14:03 5,1 °C 5,2 °C 89 % 1008,3 hPa 0,0 mm 6,9 km/h (2 Bft) W 261 ° 0 min 0,000 mm 0,0 UV-I 51 W/m² 3,4 °C 3,6 °C 11,3 km/h (2 Bft)
30.12.2017 14:04 5,2 °C 5,2 °C 89 % 1008,3 hPa 0,0 mm 9,4 km/h (2 Bft) W 264 ° 0 min 0,000 mm 0,0 UV-I 51 W/m² 3,5 °C 3,0 °C 11,3 km/h (2 Bft)
30.12.2017 14:05 5,2 °C 5,2 °C 89 % 1008,3 hPa 0,0 mm 11,3 km/h (2 Bft) W 260 ° 0 min 0,000 mm 0,0 UV-I 47 W/m² 3,5 °C 2,6 °C 12,9 km/h (3 Bft)
30.12.2017 14:06 5,2 °C 5,2 °C 89 % 1008,3 hPa 0,0 mm 10,9 km/h (2 Bft) SW 217 ° 0 min 0,000 mm 0,0 UV-I 47 W/m² 3,5 °C 2,7 °C 14,5 km/h (3 Bft)
30.12.2017 14:07 5,2 °C 5,2 °C 89 % 1008,2 hPa 0,2 mm 4,6 km/h (1 Bft) W-SW 243 ° 0 min 0,000 mm 0,0 UV-I 44 W/m² 3,5 °C 4,5 °C 8,0 km/h (2 Bft)
30.12.2017 14:08 5,2 °C 5,2 °C 89 % 1008,3 hPa 0,0 mm 5,0 km/h (1 Bft) SW 223 ° 0 min 0,000 mm 0,0 UV-I 44 W/m² 3,5 °C 4,3 °C 11,3 km/h (2 Bft)
30.12.2017 14:09 5,2 °C 5,2 °C 89 % 1008,3 hPa 0,0 mm 3,5 km/h (1 Bft) W-SW 240 ° 0 min 0,000 mm 0,0 UV-I 42 W/m² 3,5 °C 5,2 °C 4,8 km/h (1 Bft)
30.12.2017 14:10 5,2 °C 5,2 °C 89 % 1008,2 hPa 0,0 mm 5,5 km/h (1 Bft) W-SW 245 ° 0 min 0,000 mm 0,0 UV-I 40 W/m² 3,5 °C 4,1 °C 11,3 km/h (2 Bft)
30.12.2017 14:11 5,2 °C 5,2 °C 89 % 1008,4 hPa 0,0 mm 8,9 km/h (2 Bft) W-SW 254 ° 0 min 0,000 mm 0,0 UV-I 39 W/m² 3,5 °C 3,1 °C 12,9 km/h (3 Bft)
30.12.2017 14:12 5,2 °C 5,3 °C 89 % 1008,3 hPa 0,2 mm 6,5 km/h (2 Bft) W-SW 257 ° 0 min 0,000 mm 0,0 UV-I 44 W/m² 3,5 °C 3,8 °C 11,3 km/h (2 Bft)
30.12.2017 14:13 5,2 °C 5,3 °C 89 % 1008,3 hPa 0,0 mm 7,2 km/h (2 Bft) W-SW 251 ° 0 min 0,000 mm 0,0 UV-I 44 W/m² 3,5 °C 3,6 °C 12,9 km/h (3 Bft)
30.12.2017 14:14 5,2 °C 5,3 °C 89 % 1008,3 hPa 0,0 mm 6,6 km/h (2 Bft) W-SW 240 ° 0 min 0,000 mm 0,0 UV-I 42 W/m² 3,5 °C 3,8 °C 12,9 km/h (3 Bft)
30.12.2017 14:15 5,2 °C 5,3 °C 89 % 1008,3 hPa 0,0 mm 6,4 km/h (2 Bft) W 259 ° 0 min 0,000 mm 0,0 UV-I 40 W/m² 3,5 °C 3,8 °C 12,9 km/h (3 Bft)
30.12.2017 14:16 5,3 °C 5,3 °C 89 % 1008,3 hPa 0,0 mm 10,3 km/h (2 Bft) W-SW 252 ° 0 min 0,000 mm 0,0 UV-I 42 W/m² 3,6 °C 3,0 °C 16,1 km/h (3 Bft)
30.12.2017 14:17 5,3 °C 5,3 °C 89 % 1008,3 hPa 0,0 mm 10,6 km/h (2 Bft) W-SW 250 ° 0 min 0,000 mm 0,0 UV-I 44 W/m² 3,6 °C 2,9 °C 16,1 km/h (3 Bft)
30.12.2017 14:18 5,3 °C 5,3 °C 89 % 1008,3 hPa 0,2 mm 11,3 km/h (2 Bft) W-SW 257 ° 0 min 0,000 mm 0,0 UV-I 46 W/m² 3,6 °C 2,8 °C 16,1 km/h (3 Bft)
30.12.2017 14:19 5,3 °C 5,3 °C 89 % 1008,3 hPa 0,0 mm 10,2 km/h (2 Bft) W 275 ° 0 min 0,000 mm 0,0 UV-I 46 W/m² 3,6 °C 3,0 °C 16,1 km/h (3 Bft)
30.12.2017 14:20 5,3 °C 5,3 °C 89 % 1008,4 hPa 0,0 mm 11,1 km/h (2 Bft) W-SW 250 ° 0 min 0,000 mm 0,0 UV-I 42 W/m² 3,6 °C 2,8 °C 16,1 km/h (3 Bft)
30.12.2017 14:21 5,3 °C 5,3 °C 89 % 1008,4 hPa 0,0 mm 10,5 km/h (2 Bft) W-NW 285 ° 0 min 0,000 mm 0,0 UV-I 39 W/m² 3,6 °C 2,9 °C 14,5 km/h (3 Bft)
30.12.2017 14:22 5,3 °C 5,3 °C 89 % 1008,5 hPa 0,0 mm 11,5 km/h (2 Bft) W 265 ° 0 min 0,000 mm 0,0 UV-I 35 W/m² 3,6 °C 2,7 °C 14,5 km/h (3 Bft)
30.12.2017 14:23 5,3 °C 5,3 °C 89 % 1008,6 hPa 0,0 mm 11,7 km/h (2 Bft) W-SW 253 ° 0 min 0,000 mm 0,0 UV-I 35 W/m² 3,6 °C 2,7 °C 17,7 km/h (3 Bft)
30.12.2017 14:24 5,3 °C 5,3 °C 89 % 1008,5 hPa 0,2 mm 9,9 km/h (2 Bft) W-SW 248 ° 0 min 0,000 mm 0,0 UV-I 35 W/m² 3,6 °C 3,0 °C 16,1 km/h (3 Bft)
30.12.2017 14:25 5,3 °C 5,4 °C 89 % 1008,6 hPa 0,0 mm 8,6 km/h (2 Bft) W-SW 246 ° 0 min 0,000 mm 0,0 UV-I 33 W/m² 3,6 °C 3,3 °C 12,9 km/h (3 Bft)
30.12.2017 14:26 5,4 °C 5,4 °C 89 % 1008,7 hPa 0,0 mm 6,8 km/h (2 Bft) W-SW 250 ° 0 min 0,000 mm 0,0 UV-I 33 W/m² 3,7 °C 3,9 °C 11,3 km/h (2 Bft)
30.12.2017 14:27 5,4 °C 5,4 °C 89 % 1008,6 hPa 0,0 mm 7,0 km/h (2 Bft) W-SW 248 ° 0 min 0,000 mm 0,0 UV-I 33 W/m² 3,7 °C 3,9 °C 12,9 km/h (3 Bft)
30.12.2017 14:28 5,4 °C 5,4 °C 89 % 1008,6 hPa 0,0 mm 10,4 km/h (2 Bft) W 266 ° 0 min 0,000 mm 0,0 UV-I 33 W/m² 3,7 °C 3,1 °C 19,3 km/h (3 Bft)
30.12.2017 14:29 5,4 °C 5,4 °C 89 % 1008,8 hPa 0,2 mm 9,9 km/h (2 Bft) W 271 ° 0 min 0,000 mm 0,0 UV-I 35 W/m² 3,7 °C 3,2 °C 16,1 km/h (3 Bft)
30.12.2017 14:30 5,4 °C 5,4 °C 89 % 1008,8 hPa 0,0 mm 10,3 km/h (2 Bft) W-NW 294 ° 0 min 0,000 mm 0,0 UV-I 35 W/m² 3,7 °C 3,1 °C 14,5 km/h (3 Bft)
30.12.2017 14:31 5,4 °C 5,4 °C 89 % 1008,7 hPa 0,0 mm 6,6 km/h (2 Bft) W 263 ° 0 min 0,000 mm 0,0 UV-I 39 W/m² 3,7 °C 4,0 °C 12,9 km/h (3 Bft)
30.12.2017 14:32 5,5 °C 5,5 °C 89 % 1008,8 hPa 0,0 mm 8,1 km/h (2 Bft) W-SW 257 ° 0 min 0,000 mm 0,0 UV-I 40 W/m² 3,8 °C 3,7 °C 11,3 km/h (2 Bft)
30.12.2017 14:33 5,5 °C 5,5 °C 89 % 1008,8 hPa 0,0 mm 9,6 km/h (2 Bft) W-SW 239 ° 0 min 0,000 mm 0,0 UV-I 46 W/m² 3,8 °C 3,3 °C 17,7 km/h (3 Bft)
30.12.2017 14:34 5,6 °C 5,6 °C 89 % 1008,6 hPa 0,2 mm 8,4 km/h (2 Bft) W 262 ° 0 min 0,000 mm 0,0 UV-I 47 W/m² 3,9 °C 3,7 °C 17,7 km/h (3 Bft)
30.12.2017 14:35 5,6 °C 5,6 °C 89 % 1008,5 hPa 0,0 mm 16,1 km/h (3 Bft) W 261 ° 0 min 0,000 mm 0,0 UV-I 46 W/m² 3,9 °C 2,3 °C 19,3 km/h (3 Bft)
30.12.2017 14:36 5,7 °C 5,7 °C 90 % 1008,6 hPa 0,0 mm 8,4 km/h (2 Bft) SW 215 ° 0 min 0,000 mm 0,0 UV-I 44 W/m² 4,2 °C 3,9 °C 11,3 km/h (2 Bft)
30.12.2017 14:37 5,7 °C 5,7 °C 90 % 1008,6 hPa 0,0 mm 8,0 km/h (2 Bft) S-SW 208 ° 0 min 0,000 mm 0,0 UV-I 39 W/m² 4,2 °C 4,0 °C 12,9 km/h (3 Bft)
30.12.2017 14:38 5,7 °C 5,7 °C 90 % 1008,6 hPa 0,2 mm 9,5 km/h (2 Bft) W-NW 286 ° 0 min 0,000 mm 0,0 UV-I 35 W/m² 4,2 °C 3,6 °C 17,7 km/h (3 Bft)
30.12.2017 14:39 5,8 °C 5,8 °C 90 % 1008,5 hPa 0,0 mm 14,1 km/h (3 Bft) W-SW 258 ° 0 min 0,000 mm 0,0 UV-I 33 W/m² 4,3 °C 2,9 °C 22,5 km/h (4 Bft)
30.12.2017 14:40 5,8 °C 5,8 °C 89 % 1008,6 hPa 0,0 mm 13,2 km/h (3 Bft) W 263 ° 0 min 0,000 mm 0,0 UV-I 33 W/m² 4,1 °C 3,0 °C 17,7 km/h (3 Bft)
30.12.2017 14:41 5,8 °C 5,8 °C 89 % 1008,7 hPa 0,0 mm 14,2 km/h (3 Bft) SW 229 ° 0 min 0,000 mm 0,0 UV-I 37 W/m² 4,1 °C 2,9 °C 20,9 km/h (4 Bft)
30.12.2017 14:42 5,9 °C 5,9 °C 89 % 1008,6 hPa 0,0 mm 10,5 km/h (2 Bft) W-SW 243 ° 0 min 0,000 mm 0,0 UV-I 33 W/m² 4,2 °C 3,6 °C 14,5 km/h (3 Bft)
30.12.2017 14:43 5,9 °C 5,9 °C 90 % 1008,6 hPa 0,2 mm 7,8 km/h (2 Bft) W 261 ° 0 min 0,000 mm 0,0 UV-I 30 W/m² 4,4 °C 4,2 °C 12,9 km/h (3 Bft)
30.12.2017 14:44 5,9 °C 5,9 °C 89 % 1008,7 hPa 0,0 mm 12,8 km/h (3 Bft) W 263 ° 0 min 0,000 mm 0,0 UV-I 26 W/m² 4,2 °C 3,2 °C 22,5 km/h (4 Bft)
30.12.2017 14:45 6,0 °C 6,0 °C 89 % 1008,7 hPa 0,0 mm 14,4 km/h (3 Bft) W 263 ° 0 min 0,000 mm 0,0 UV-I 25 W/m² 4,3 °C 3,1 °C 24,1 km/h (4 Bft)
30.12.2017 14:46 6,0 °C 6,0 °C 89 % 1008,7 hPa 0,0 mm 11,5 km/h (2 Bft) W-SW 242 ° 0 min 0,000 mm 0,0 UV-I 25 W/m² 4,3 °C 3,6 °C 14,5 km/h (3 Bft)
30.12.2017 14:47 6,0 °C 6,0 °C 89 % 1008,7 hPa 0,2 mm 8,9 km/h (2 Bft) W 275 ° 0 min 0,000 mm 0,0 UV-I 28 W/m² 4,3 °C 4,1 °C 14,5 km/h (3 Bft)
30.12.2017 14:48 6,1 °C 6,1 °C 89 % 1008,6 hPa 0,0 mm 15,5 km/h (3 Bft) W 273 ° 0 min 0,000 mm 0,0 UV-I 32 W/m² 4,4 °C 3,0 °C 22,5 km/h (4 Bft)
30.12.2017 14:49 6,0 °C 6,1 °C 89 % 1008,6 hPa 0,0 mm 12,8 km/h (3 Bft) W 268 ° 0 min 0,000 mm 0,0 UV-I 33 W/m² 4,3 °C 3,3 °C 16,1 km/h (3 Bft)
30.12.2017 14:50 6,1 °C 6,1 °C 89 % 1008,6 hPa 0,0 mm 15,8 km/h (3 Bft) S 187 ° 0 min 0,000 mm 0,0 UV-I 30 W/m² 4,4 °C 3,0 °C 24,1 km/h (4 Bft)
30.12.2017 14:51 6,1 °C 6,1 °C 89 % 1008,4 hPa 0,0 mm 12,7 km/h (3 Bft) W 261 ° 0 min 0,000 mm 0,0 UV-I 28 W/m² 4,4 °C 3,5 °C 27,4 km/h (4 Bft)
30.12.2017 14:52 6,1 °C 6,1 °C 89 % 1008,5 hPa 0,2 mm 16,4 km/h (3 Bft) W 269 ° 0 min 0,000 mm 0,0 UV-I 28 W/m² 4,4 °C 2,9 °C 27,4 km/h (4 Bft)
30.12.2017 14:53 6,2 °C 6,2 °C 89 % 1008,4 hPa 0,0 mm 14,7 km/h (3 Bft) W-SW 247 ° 0 min 0,000 mm 0,0 UV-I 33 W/m² 4,5 °C 3,3 °C 20,9 km/h (4 Bft)
30.12.2017 14:54 6,2 °C 6,2 °C 89 % 1008,4 hPa 0,0 mm 14,4 km/h (3 Bft) W-SW 244 ° 0 min 0,000 mm 0,0 UV-I 35 W/m² 4,5 °C 3,3 °C 20,9 km/h (4 Bft)
30.12.2017 14:55 6,3 °C 6,3 °C 89 % 1008,4 hPa 0,2 mm 11,7 km/h (2 Bft) W 259 ° 0 min 0,000 mm 0,0 UV-I 33 W/m² 4,6 °C 3,9 °C 16,1 km/h (3 Bft)
30.12.2017 14:56 6,3 °C 6,3 °C 89 % 1008,4 hPa 0,0 mm 12,8 km/h (3 Bft) W-SW 257 ° 0 min 0,000 mm 0,0 UV-I 33 W/m² 4,6 °C 3,7 °C 17,7 km/h (3 Bft)
30.12.2017 14:57 6,3 °C 6,3 °C 89 % 1008,3 hPa 0,0 mm 15,3 km/h (3 Bft) W-SW 244 ° 0 min 0,000 mm 0,0 UV-I 35 W/m² 4,6 °C 3,3 °C 19,3 km/h (3 Bft)
30.12.2017 14:58 6,3 °C 6,3 °C 89 % 1008,4 hPa 0,0 mm 9,3 km/h (2 Bft) W 267 ° 0 min 0,000 mm 0,0 UV-I 35 W/m² 4,6 °C 4,4 °C 19,3 km/h (3 Bft)
30.12.2017 14:59 6,3 °C 6,4 °C 89 % 1008,4 hPa 0,0 mm 11,0 km/h (2 Bft) W 271 ° 0 min 0,000 mm 0,0 UV-I 32 W/m² 4,6 °C 4,0 °C 16,1 km/h (3 Bft)
30.12.2017 15:00 6,4 °C 6,4 °C 89 % 1008,4 hPa 0,2 mm 12,9 km/h (3 Bft) W-SW 248 ° 0 min 0,000 mm 0,0 UV-I 30 W/m² 4,7 °C 3,8 °C 19,3 km/h (3 Bft)
30.12.2017 15:01 6,4 °C 6,4 °C 88 % 1008,4 hPa 0,0 mm 10,0 km/h (2 Bft) W 261 ° 0 min 0,026 mm 0,0 UV-I 32 W/m² 4,6 °C 4,3 °C 16,1 km/h (3 Bft)
30.12.2017 15:02 6,4 °C 6,4 °C 89 % 1008,4 hPa 0,0 mm 9,3 km/h (2 Bft) W-SW 249 ° 0 min 0,000 mm 0,0 UV-I 30 W/m² 4,7 °C 4,5 °C 12,9 km/h (3 Bft)
30.12.2017 15:03 6,4 °C 6,4 °C 88 % 1008,5 hPa 0,2 mm 10,8 km/h (2 Bft) W-SW 242 ° 0 min 0,000 mm 0,0 UV-I 28 W/m² 4,6 °C 4,2 °C 14,5 km/h (3 Bft)
30.12.2017 15:04 6,4 °C 6,4 °C 88 % 1008,5 hPa 0,0 mm 14,9 km/h (3 Bft) W 270 ° 0 min 0,000 mm 0,0 UV-I 28 W/m² 4,6 °C 3,5 °C 17,7 km/h (3 Bft)
30.12.2017 15:05 6,4 °C 6,4 °C 88 % 1008,4 hPa 0,0 mm 14,3 km/h (3 Bft) W 269 ° 0 min 0,000 mm 0,0 UV-I 26 W/m² 4,6 °C 3,6 °C 22,5 km/h (4 Bft)
30.12.2017 15:06 6,4 °C 6,4 °C 88 % 1008,6 hPa 0,0 mm 11,8 km/h (2 Bft) W-SW 250 ° 0 min 0,000 mm 0,0 UV-I 28 W/m² 4,6 °C 4,0 °C 16,1 km/h (3 Bft)
30.12.2017 15:07 6,4 °C 6,5 °C 88 % 1008,6 hPa 0,2 mm 15,3 km/h (3 Bft) W-SW 251 ° 0 min 0,000 mm 0,0 UV-I 30 W/m² 4,6 °C 3,4 °C 22,5 km/h (4 Bft)
30.12.2017 15:08 6,5 °C 6,5 °C 88 % 1008,6 hPa 0,0 mm 10,0 km/h (2 Bft) W 273 ° 0 min 0,000 mm 0,0 UV-I 28 W/m² 4,7 °C 4,5 °C 14,5 km/h (3 Bft)
30.12.2017 15:09 6,5 °C 6,5 °C 88 % 1008,7 hPa 0,0 mm 12,6 km/h (3 Bft) W-SW 241 ° 0 min 0,000 mm 0,0 UV-I 26 W/m² 4,7 °C 4,0 °C 24,1 km/h (4 Bft)
30.12.2017 15:10 6,5 °C 6,5 °C 88 % 1008,5 hPa 0,2 mm 12,3 km/h (3 Bft) W-SW 244 ° 0 min 0,000 mm 0,0 UV-I 30 W/m² 4,7 °C 4,0 °C 17,7 km/h (3 Bft)
30.12.2017 15:11 6,6 °C 6,6 °C 88 % 1008,7 hPa 0,0 mm 16,1 km/h (3 Bft) SW 234 ° 0 min 0,000 mm 0,0 UV-I 26 W/m² 4,8 °C 3,6 °C 24,1 km/h (4 Bft)
30.12.2017 15:12 6,6 °C 6,6 °C 88 % 1008,6 hPa 0,0 mm 10,3 km/h (2 Bft) W-SW 245 ° 0 min 0,000 mm 0,0 UV-I 26 W/m² 4,8 °C 4,5 °C 12,9 km/h (3 Bft)
30.12.2017 15:13 6,6 °C 6,6 °C 88 % 1008,8 hPa 0,0 mm 14,6 km/h (3 Bft) W 265 ° 0 min 0,000 mm 0,0 UV-I 26 W/m² 4,8 °C 3,8 °C 20,9 km/h (4 Bft)
30.12.2017 15:14 6,6 °C 6,6 °C 88 % 1008,8 hPa 0,2 mm 19,1 km/h (3 Bft) W 269 ° 0 min 0,000 mm 0,0 UV-I 23 W/m² 4,8 °C 3,2 °C 29,0 km/h (5 Bft)
30.12.2017 15:15 6,6 °C 6,6 °C 88 % 1009,1 hPa 0,0 mm 19,3 km/h (3 Bft) W 259 ° 0 min 0,000 mm 0,0 UV-I 23 W/m² 4,8 °C 3,2 °C 29,0 km/h (5 Bft)
30.12.2017 15:16 6,6 °C 6,6 °C 88 % 1009,1 hPa 0,0 mm 19,8 km/h (3 Bft) SW 223 ° 0 min 0,000 mm 0,0 UV-I 23 W/m² 4,8 °C 3,1 °C 25,7 km/h (4 Bft)
30.12.2017 15:17 6,7 °C 6,7 °C 88 % 1009,0 hPa 0,0 mm 16,2 km/h (3 Bft) W-SW 242 ° 0 min 0,000 mm 0,0 UV-I 23 W/m² 4,9 °C 3,7 °C 25,7 km/h (4 Bft)
30.12.2017 15:18 6,7 °C 6,7 °C 88 % 1009,2 hPa 0,2 mm 22,7 km/h (4 Bft) W 268 ° 0 min 0,000 mm 0,0 UV-I 23 W/m² 4,9 °C 2,9 °C 32,2 km/h (5 Bft)
30.12.2017 15:19 6,8 °C 6,8 °C 88 % 1009,1 hPa 0,0 mm 16,8 km/h (3 Bft) W-SW 254 ° 0 min 0,000 mm 0,0 UV-I 23 W/m² 5,0 °C 3,7 °C 25,7 km/h (4 Bft)
30.12.2017 15:20 6,8 °C 6,8 °C 88 % 1009,2 hPa 0,0 mm 15,9 km/h (3 Bft) W-NW 283 ° 0 min 0,000 mm 0,0 UV-I 21 W/m² 5,0 °C 3,8 °C 22,5 km/h (4 Bft)
30.12.2017 15:21 6,8 °C 6,8 °C 88 % 1009,2 hPa 0,0 mm 15,2 km/h (3 Bft) W 269 ° 0 min 0,000 mm 0,0 UV-I 21 W/m² 5,0 °C 3,9 °C 19,3 km/h (3 Bft)
30.12.2017 15:22 6,8 °C 6,8 °C 88 % 1009,2 hPa 0,2 mm 17,4 km/h (3 Bft) NW 307 ° 0 min 0,000 mm 0,0 UV-I 21 W/m² 5,0 °C 3,6 °C 35,4 km/h (5 Bft)
30.12.2017 15:23 6,9 °C 6,9 °C 88 % 1009,2 hPa 0,0 mm 20,1 km/h (4 Bft) W-SW 247 ° 0 min 0,000 mm 0,0 UV-I 21 W/m² 5,1 °C 3,5 °C 33,8 km/h (5 Bft)
30.12.2017 15:24 6,9 °C 6,9 °C 88 % 1009,2 hPa 0,0 mm 21,8 km/h (4 Bft) W 267 ° 0 min 0,000 mm 0,0 UV-I 21 W/m² 5,1 °C 3,3 °C 35,4 km/h (5 Bft)
30.12.2017 15:25 7,0 °C 7,0 °C 87 % 1009,1 hPa 0,2 mm 21,1 km/h (4 Bft) W-SW 249 ° 0 min 0,000 mm 0,0 UV-I 19 W/m² 5,0 °C 3,5 °C 29,0 km/h (5 Bft)
30.12.2017 15:26 7,1 °C 7,1 °C 87 % 1009,2 hPa 0,0 mm 18,3 km/h (3 Bft) W-SW 251 ° 0 min 0,000 mm 0,0 UV-I 18 W/m² 5,1 °C 3,9 °C 24,1 km/h (4 Bft)
30.12.2017 15:27 7,1 °C 7,1 °C 87 % 1009,1 hPa 0,0 mm 18,7 km/h (3 Bft) W 279 ° 0 min 0,000 mm 0,0 UV-I 18 W/m² 5,1 °C 3,9 °C 40,2 km/h (6 Bft)
30.12.2017 15:28 7,1 °C 7,1 °C 87 % 1009,1 hPa 0,2 mm 20,9 km/h (4 Bft) W-SW 256 ° 0 min 0,000 mm 0,0 UV-I 19 W/m² 5,1 °C 3,6 °C 37,0 km/h (5 Bft)
30.12.2017 15:29 7,1 °C 7,1 °C 87 % 1009,2 hPa 0,0 mm 23,6 km/h (4 Bft) NW 306 ° 0 min 0,000 mm 0,0 UV-I 21 W/m² 5,1 °C 3,3 °C 30,6 km/h (5 Bft)
30.12.2017 15:30 7,2 °C 7,2 °C 86 % 1008,9 hPa 0,0 mm 20,7 km/h (4 Bft) W 267 ° 0 min 0,000 mm 0,0 UV-I 23 W/m² 5,0 °C 3,8 °C 29,0 km/h (5 Bft)
30.12.2017 15:31 7,2 °C 7,2 °C 86 % 1009,0 hPa 0,2 mm 15,5 km/h (3 Bft) W-NW 284 ° 0 min 0,000 mm 0,0 UV-I 23 W/m² 5,0 °C 4,4 °C 19,3 km/h (3 Bft)
30.12.2017 15:32 7,2 °C 7,2 °C 86 % 1008,8 hPa 0,0 mm 11,1 km/h (2 Bft) W-SW 253 ° 0 min 0,000 mm 0,0 UV-I 23 W/m² 5,0 °C 5,1 °C 16,1 km/h (3 Bft)
30.12.2017 15:33 7,2 °C 7,2 °C 86 % 1008,8 hPa 0,0 mm 18,3 km/h (3 Bft) W-SW 247 ° 0 min 0,000 mm 0,0 UV-I 25 W/m² 5,0 °C 4,0 °C 25,7 km/h (4 Bft)
30.12.2017 15:34 7,2 °C 7,2 °C 86 % 1008,8 hPa 0,0 mm 13,7 km/h (3 Bft) W-NW 289 ° 0 min 0,000 mm 0,0 UV-I 25 W/m² 5,0 °C 4,7 °C 19,3 km/h (3 Bft)
30.12.2017 15:35 7,2 °C 7,2 °C 86 % 1008,8 hPa 0,2 mm 21,3 km/h (4 Bft) W-SW 253 ° 0 min 0,000 mm 0,0 UV-I 21 W/m² 5,0 °C 3,7 °C 30,6 km/h (5 Bft)
30.12.2017 15:36 7,2 °C 7,2 °C 86 % 1009,0 hPa 0,0 mm 18,4 km/h (3 Bft) W-SW 242 ° 0 min 0,000 mm 0,0 UV-I 21 W/m² 5,0 °C 4,0 °C 29,0 km/h (5 Bft)
30.12.2017 15:37 7,2 °C 7,2 °C 86 % 1009,0 hPa 0,0 mm 11,1 km/h (2 Bft) W-SW 237 ° 0 min 0,000 mm 0,0 UV-I 21 W/m² 5,0 °C 5,1 °C 19,3 km/h (3 Bft)
30.12.2017 15:38 7,2 °C 7,2 °C 86 % 1008,9 hPa 0,0 mm 12,2 km/h (2 Bft) SW 233 ° 0 min 0,000 mm 0,0 UV-I 21 W/m² 5,0 °C 4,9 °C 17,7 km/h (3 Bft)
30.12.2017 15:39 7,2 °C 7,2 °C 86 % 1008,9 hPa 0,0 mm 12,8 km/h (3 Bft) W 271 ° 0 min 0,000 mm 0,0 UV-I 21 W/m² 5,0 °C 4,8 °C 16,1 km/h (3 Bft)
30.12.2017 15:40 7,2 °C 7,2 °C 86 % 1008,9 hPa 0,2 mm 13,7 km/h (3 Bft) W 281 ° 0 min 0,000 mm 0,0 UV-I 19 W/m² 5,0 °C 4,7 °C 19,3 km/h (3 Bft)
30.12.2017 15:41 7,2 °C 7,2 °C 86 % 1008,9 hPa 0,0 mm 11,4 km/h (2 Bft) W 272 ° 0 min 0,000 mm 0,0 UV-I 18 W/m² 5,0 °C 5,0 °C 19,3 km/h (3 Bft)
30.12.2017 15:42 7,2 °C 7,2 °C 86 % 1009,0 hPa 0,0 mm 13,9 km/h (3 Bft) W 270 ° 0 min 0,000 mm 0,0 UV-I 18 W/m² 5,0 °C 4,6 °C 19,3 km/h (3 Bft)
30.12.2017 15:43 7,2 °C 7,2 °C 86 % 1009,0 hPa 0,0 mm 12,7 km/h (3 Bft) SW 235 ° 0 min 0,000 mm 0,0 UV-I 18 W/m² 5,0 °C 4,8 °C 19,3 km/h (3 Bft)
30.12.2017 15:44 7,2 °C 7,2 °C 86 % 1008,9 hPa 0,2 mm 7,0 km/h (2 Bft) W 259 ° 0 min 0,000 mm 0,0 UV-I 16 W/m² 5,0 °C 6,0 °C 11,3 km/h (2 Bft)
30.12.2017 15:45 7,1 °C 7,2 °C 86 % 1009,0 hPa 0,0 mm 14,5 km/h (3 Bft) W 264 ° 0 min 0,000 mm 0,0 UV-I 16 W/m² 4,9 °C 4,4 °C 17,7 km/h (3 Bft)
30.12.2017 15:46 7,1 °C 7,2 °C 85 % 1009,0 hPa 0,0 mm 11,5 km/h (2 Bft) SW 234 ° 0 min 0,000 mm 0,0 UV-I 14 W/m² 4,8 °C 4,9 °C 14,5 km/h (3 Bft)
30.12.2017 15:47 7,1 °C 7,1 °C 86 % 1008,8 hPa 0,0 mm 4,9 km/h (1 Bft) W-SW 254 ° 0 min 0,000 mm 0,0 UV-I 12 W/m² 4,9 °C 6,5 °C 6,4 km/h (2 Bft)
30.12.2017 15:48 7,1 °C 7,1 °C 86 % 1008,9 hPa 0,2 mm 13,3 km/h (3 Bft) W-SW 257 ° 0 min 0,000 mm 0,0 UV-I 11 W/m² 4,9 °C 4,6 °C 20,9 km/h (4 Bft)
30.12.2017 15:49 7,1 °C 7,1 °C 86 % 1008,9 hPa 0,0 mm 7,4 km/h (2 Bft) W 261 ° 0 min 0,000 mm 0,0 UV-I 12 W/m² 4,9 °C 5,7 °C 12,9 km/h (3 Bft)
30.12.2017 15:50 7,1 °C 7,1 °C 86 % 1008,7 hPa 0,0 mm 10,5 km/h (2 Bft) W 267 ° 0 min 0,000 mm 0,0 UV-I 12 W/m² 4,9 °C 5,1 °C 17,7 km/h (3 Bft)
30.12.2017 15:51 7,1 °C 7,1 °C 86 % 1008,7 hPa 0,0 mm 12,1 km/h (2 Bft) W-SW 243 ° 0 min 0,000 mm 0,0 UV-I 12 W/m² 4,9 °C 4,8 °C 19,3 km/h (3 Bft)
30.12.2017 15:52 7,1 °C 7,1 °C 86 % 1008,6 hPa 0,0 mm 8,8 km/h (2 Bft) SW 236 ° 0 min 0,000 mm 0,0 UV-I 14 W/m² 4,9 °C 5,4 °C 16,1 km/h (3 Bft)
30.12.2017 15:53 7,1 °C 7,1 °C 86 % 1008,6 hPa 0,2 mm 8,7 km/h (2 Bft) W 274 ° 0 min 0,000 mm 0,0 UV-I 14 W/m² 4,9 °C 5,4 °C 12,9 km/h (3 Bft)
30.12.2017 15:54 7,1 °C 7,1 °C 86 % 1008,6 hPa 0,0 mm 9,9 km/h (2 Bft) SW 236 ° 0 min 0,000 mm 0,0 UV-I 12 W/m² 4,9 °C 5,2 °C 17,7 km/h (3 Bft)
30.12.2017 15:55 7,1 °C 7,1 °C 86 % 1008,7 hPa 0,0 mm 10,1 km/h (2 Bft) W 274 ° 0 min 0,000 mm 0,0 UV-I 12 W/m² 4,9 °C 5,1 °C 14,5 km/h (3 Bft)
30.12.2017 15:56 7,1 °C 7,1 °C 86 % 1008,8 hPa 0,0 mm 13,7 km/h (3 Bft) W-SW 244 ° 0 min 0,000 mm 0,0 UV-I 11 W/m² 4,9 °C 4,5 °C 24,1 km/h (4 Bft)
30.12.2017 15:57 7,1 °C 7,1 °C 86 % 1008,7 hPa 0,0 mm 12,3 km/h (3 Bft) W-SW 251 ° 0 min 0,000 mm 0,0 UV-I 9 W/m² 4,9 °C 4,8 °C 16,1 km/h (3 Bft)
30.12.2017 15:58 7,1 °C 7,1 °C 85 % 1008,8 hPa 0,2 mm 13,7 km/h (3 Bft) W-SW 252 ° 0 min 0,000 mm 0,0 UV-I 11 W/m² 4,8 °C 4,5 °C 17,7 km/h (3 Bft)
30.12.2017 15:59 7,1 °C 7,1 °C 85 % 1008,9 hPa 0,0 mm 14,6 km/h (3 Bft) SW 221 ° 0 min 0,000 mm 0,0 UV-I 11 W/m² 4,8 °C 4,4 °C 20,9 km/h (4 Bft)
30.12.2017 16:00 7,1 °C 7,1 °C 85 % 1008,9 hPa 0,0 mm 8,1 km/h (2 Bft) W 263 ° 0 min 0,000 mm 0,0 UV-I 11 W/m² 4,8 °C 5,6 °C 12,9 km/h (3 Bft)
30.12.2017 16:01 7,1 °C 7,1 °C 85 % 1008,9 hPa 0,0 mm 9,7 km/h (2 Bft) W 269 ° 0 min 0,025 mm 0,0 UV-I 11 W/m² 4,8 °C 5,2 °C 14,5 km/h (3 Bft)
30.12.2017 16:02 7,1 °C 7,1 °C 86 % 1008,9 hPa 0,0 mm 13,4 km/h (3 Bft) W 262 ° 0 min 0,000 mm 0,0 UV-I 11 W/m² 4,9 °C 4,6 °C 19,3 km/h (3 Bft)
30.12.2017 16:03 7,1 °C 7,1 °C 86 % 1008,9 hPa 0,0 mm 10,3 km/h (2 Bft) W-SW 257 ° 0 min 0,000 mm 0,0 UV-I 11 W/m² 4,9 °C 5,1 °C 14,5 km/h (3 Bft)
30.12.2017 16:04 7,1 °C 7,1 °C 85 % 1008,9 hPa 0,2 mm 8,9 km/h (2 Bft) W 269 ° 0 min 0,000 mm 0,0 UV-I 11 W/m² 4,8 °C 5,4 °C 16,1 km/h (3 Bft)
30.12.2017 16:05 7,1 °C 7,1 °C 85 % 1008,9 hPa 0,0 mm 10,0 km/h (2 Bft) W 261 ° 0 min 0,000 mm 0,0 UV-I 9 W/m² 4,8 °C 5,2 °C 14,5 km/h (3 Bft)
30.12.2017 16:06 7,1 °C 7,1 °C 85 % 1008,9 hPa 0,0 mm 10,7 km/h (2 Bft) W-SW 255 ° 0 min 0,000 mm 0,0 UV-I 9 W/m² 4,8 °C 5,0 °C 19,3 km/h (3 Bft)
30.12.2017 16:07 7,1 °C 7,1 °C 85 % 1008,9 hPa 0,0 mm 7,6 km/h (2 Bft) W-SW 240 ° 0 min 0,000 mm 0,0 UV-I 7 W/m² 4,8 °C 5,7 °C 11,3 km/h (2 Bft)
30.12.2017 16:08 7,1 °C 7,1 °C 85 % 1009,0 hPa 0,0 mm 8,6 km/h (2 Bft) SW 214 ° 0 min 0,000 mm 0,0 UV-I 7 W/m² 4,8 °C 5,5 °C 14,5 km/h (3 Bft)
30.12.2017 16:09 7,1 °C 7,1 °C 85 % 1009,1 hPa 0,0 mm 7,2 km/h (2 Bft) SW 236 ° 0 min 0,000 mm 0,0 UV-I 5 W/m² 4,8 °C 5,8 °C 11,3 km/h (2 Bft)
30.12.2017 16:10 7,1 °C 7,1 °C 86 % 1009,2 hPa 0,2 mm 7,8 km/h (2 Bft) SW 235 ° 0 min 0,000 mm 0,0 UV-I 5 W/m² 4,9 °C 5,6 °C 12,9 km/h (3 Bft)
30.12.2017 16:11 7,1 °C 7,1 °C 85 % 1009,2 hPa 0,0 mm 11,3 km/h (2 Bft) W-SW 257 ° 0 min 0,000 mm 0,0 UV-I 5 W/m² 4,8 °C 4,9 °C 12,9 km/h (3 Bft)
30.12.2017 16:12 7,1 °C 7,1 °C 85 % 1009,3 hPa 0,0 mm 9,5 km/h (2 Bft) W 271 ° 0 min 0,000 mm 0,0 UV-I 5 W/m² 4,8 °C 5,3 °C 16,1 km/h (3 Bft)
30.12.2017 16:13 7,1 °C 7,1 °C 86 % 1009,3 hPa 0,0 mm 8,0 km/h (2 Bft) W 261 ° 0 min 0,000 mm 0,0 UV-I 5 W/m² 4,9 °C 5,6 °C 14,5 km/h (3 Bft)
30.12.2017 16:14 7,1 °C 7,1 °C 86 % 1009,3 hPa 0,0 mm 10,7 km/h (2 Bft) W-SW 238 ° 0 min 0,000 mm 0,0 UV-I 5 W/m² 4,9 °C 5,0 °C 17,7 km/h (3 Bft)
30.12.2017 16:15 7,1 °C 7,1 °C 86 % 1009,3 hPa 0,0 mm 5,3 km/h (1 Bft) SW 229 ° 0 min 0,000 mm 0,0 UV-I 5 W/m² 4,9 °C 6,4 °C 6,4 km/h (2 Bft)
30.12.2017 16:16 7,1 °C 7,1 °C 86 % 1009,3 hPa 0,0 mm 7,3 km/h (2 Bft) W-SW 249 ° 0 min 0,000 mm 0,0 UV-I 5 W/m² 4,9 °C 5,8 °C 11,3 km/h (2 Bft)
30.12.2017 16:17 7,1 °C 7,1 °C 86 % 1009,4 hPa 0,2 mm 7,9 km/h (2 Bft) W-SW 244 ° 0 min 0,000 mm 0,0 UV-I 5 W/m² 4,9 °C 5,6 °C 11,3 km/h (2 Bft)
30.12.2017 16:18 7,1 °C 7,1 °C 86 % 1009,4 hPa 0,0 mm 5,6 km/h (1 Bft) W 260 ° 0 min 0,000 mm 0,0 UV-I 5 W/m² 4,9 °C 6,3 °C 8,0 km/h (2 Bft)
30.12.2017 16:19 7,1 °C 7,1 °C 86 % 1009,4 hPa 0,0 mm 6,2 km/h (2 Bft) SW 219 ° 0 min 0,000 mm 0,0 UV-I 0 W/m² 4,9 °C 6,1 °C 9,7 km/h (2 Bft)
30.12.2017 16:20 7,1 °C 7,1 °C 86 % 1009,5 hPa 0,0 mm 5,0 km/h (1 Bft) SW 229 ° 0 min 0,000 mm 0,0 UV-I 0 W/m² 4,9 °C 6,5 °C 9,7 km/h (2 Bft)
30.12.2017 16:21 7,1 °C 7,1 °C 85 % 1009,3 hPa 0,0 mm 5,0 km/h (1 Bft) W 261 ° 0 min 0,000 mm 0,0 UV-I 0 W/m² 4,8 °C 6,5 °C 12,9 km/h (3 Bft)
30.12.2017 16:22 7,1 °C 7,1 °C 86 % 1009,5 hPa 0,0 mm 8,7 km/h (2 Bft) W 263 ° 0 min 0,000 mm 0,0 UV-I 0 W/m² 4,9 °C 5,4 °C 12,9 km/h (3 Bft)
30.12.2017 16:23 7,1 °C 7,1 °C 85 % 1009,6 hPa 0,0 mm 9,0 km/h (2 Bft) SW 222 ° 0 min 0,000 mm 0,0 UV-I 0 W/m² 4,8 °C 5,4 °C 14,5 km/h (3 Bft)
30.12.2017 16:24 7,1 °C 7,1 °C 85 % 1009,5 hPa 0,2 mm 8,4 km/h (2 Bft) W 259 ° 0 min 0,000 mm 0,0 UV-I 0 W/m² 4,8 °C 5,5 °C 16,1 km/h (3 Bft)
30.12.2017 16:25 7,1 °C 7,1 °C 86 % 1009,6 hPa 0,0 mm 14,6 km/h (3 Bft) SW 219 ° 0 min 0,000 mm 0,0 UV-I 0 W/m² 4,9 °C 4,4 °C 25,7 km/h (4 Bft)
30.12.2017 16:26 7,1 °C 7,1 °C 85 % 1009,4 hPa 0,0 mm 7,3 km/h (2 Bft) SW 224 ° 0 min 0,000 mm 0,0 UV-I 0 W/m² 4,8 °C 5,8 °C 11,3 km/h (2 Bft)
30.12.2017 16:27 7,1 °C 7,1 °C 85 % 1009,3 hPa 0,0 mm 11,3 km/h (2 Bft) S-SW 206 ° 0 min 0,000 mm 0,0 UV-I 0 W/m² 4,8 °C 4,9 °C 17,7 km/h (3 Bft)
30.12.2017 16:28 7,1 °C 7,1 °C 86 % 1009,4 hPa 0,0 mm 9,7 km/h (2 Bft) W 263 ° 0 min 0,000 mm 0,0 UV-I 0 W/m² 4,9 °C 5,2 °C 14,5 km/h (3 Bft)
30.12.2017 16:29 7,1 °C 7,1 °C 86 % 1009,5 hPa 0,0 mm 12,1 km/h (2 Bft) W-SW 246 ° 0 min 0,000 mm 0,0 UV-I 0 W/m² 4,9 °C 4,8 °C 16,1 km/h (3 Bft)
30.12.2017 16:30 7,1 °C 7,1 °C 86 % 1009,6 hPa 0,0 mm 12,3 km/h (3 Bft) W 268 ° 0 min 0,000 mm 0,0 UV-I 0 W/m² 4,9 °C 4,8 °C 16,1 km/h (3 Bft)
30.12.2017 16:31 7,2 °C 7,2 °C 86 % 1009,6 hPa 0,2 mm 10,9 km/h (2 Bft) W 261 ° 0 min 0,000 mm 0,0 UV-I 0 W/m² 5,0 °C 5,1 °C 17,7 km/h (3 Bft)
30.12.2017 16:32 7,1 °C 7,2 °C 85 % 1009,6 hPa 0,0 mm 8,1 km/h (2 Bft) SW 234 ° 0 min 0,000 mm 0,0 UV-I 0 W/m² 4,8 °C 5,6 °C 14,5 km/h (3 Bft)
30.12.2017 16:33 7,2 °C 7,2 °C 85 % 1009,7 hPa 0,0 mm 12,7 km/h (3 Bft) S-SW 205 ° 0 min 0,000 mm 0,0 UV-I 0 W/m² 4,9 °C 4,8 °C 19,3 km/h (3 Bft)
30.12.2017 16:34 7,2 °C 7,2 °C 85 % 1009,4 hPa 0,0 mm 6,9 km/h (2 Bft) W-NW 284 ° 0 min 0,000 mm 0,0 UV-I 0 W/m² 4,9 °C 6,0 °C 17,7 km/h (3 Bft)
30.12.2017 16:35 7,2 °C 7,2 °C 85 % 1009,5 hPa 0,0 mm 11,5 km/h (2 Bft) W-SW 248 ° 0 min 0,000 mm 0,0 UV-I 0 W/m² 4,9 °C 5,0 °C 16,1 km/h (3 Bft)
30.12.2017 16:36 7,2 °C 7,2 °C 85 % 1009,4 hPa 0,0 mm 9,7 km/h (2 Bft) W 266 ° 0 min 0,000 mm 0,0 UV-I 0 W/m² 4,9 °C 5,3 °C 17,7 km/h (3 Bft)
30.12.2017 16:37 7,2 °C 7,2 °C 85 % 1009,4 hPa 0,0 mm 10,6 km/h (2 Bft) SW 227 ° 0 min 0,000 mm 0,0 UV-I 0 W/m² 4,9 °C 5,2 °C 14,5 km/h (3 Bft)
30.12.2017 16:38 7,2 °C 7,2 °C 85 % 1009,5 hPa 0,2 mm 14,3 km/h (3 Bft) W 260 ° 0 min 0,000 mm 0,0 UV-I 0 W/m² 4,9 °C 4,6 °C 19,3 km/h (3 Bft)
30.12.2017 16:39 7,3 °C 7,3 °C 85 % 1009,5 hPa 0,0 mm 11,5 km/h (2 Bft) W 273 ° 0 min 0,000 mm 0,0 UV-I 0 W/m² 4,9 °C 5,1 °C 16,1 km/h (3 Bft)
30.12.2017 16:40 7,3 °C 7,3 °C 85 % 1009,4 hPa 0,0 mm 9,3 km/h (2 Bft) W-SW 238 ° 0 min 0,000 mm 0,0 UV-I 0 W/m² 4,9 °C 5,5 °C 17,7 km/h (3 Bft)
30.12.2017 16:41 7,3 °C 7,3 °C 85 % 1009,5 hPa 0,0 mm 12,1 km/h (2 Bft) W-SW 247 ° 0 min 0,000 mm 0,0 UV-I 0 W/m² 4,9 °C 5,0 °C 22,5 km/h (4 Bft)
30.12.2017 16:42 7,3 °C 7,3 °C 85 % 1009,5 hPa 0,0 mm 11,9 km/h (2 Bft) W-SW 244 ° 0 min 0,000 mm 0,0 UV-I 0 W/m² 4,9 °C 5,1 °C 22,5 km/h (4 Bft)
30.12.2017 16:43 7,3 °C 7,3 °C 85 % 1009,4 hPa 0,0 mm 12,5 km/h (3 Bft) W-SW 257 ° 0 min 0,000 mm 0,0 UV-I 0 W/m² 4,9 °C 5,0 °C 16,1 km/h (3 Bft)
30.12.2017 16:44 7,3 °C 7,3 °C 85 % 1009,6 hPa 0,0 mm 12,0 km/h (2 Bft) W 261 ° 0 min 0,000 mm 0,0 UV-I 0 W/m² 4,9 °C 5,0 °C 17,7 km/h (3 Bft)
30.12.2017 16:45 7,3 °C 7,3 °C 85 % 1009,5 hPa 0,0 mm 9,0 km/h (2 Bft) SW 236 ° 0 min 0,000 mm 0,0 UV-I 0 W/m² 4,9 °C 5,6 °C 14,5 km/h (3 Bft)
30.12.2017 16:46 7,3 °C 7,3 °C 85 % 1009,5 hPa 0,2 mm 11,0 km/h (2 Bft) W 260 ° 0 min 0,000 mm 0,0 UV-I 0 W/m² 4,9 °C 5,2 °C 19,3 km/h (3 Bft)
30.12.2017 16:47 7,3 °C 7,3 °C 85 % 1009,7 hPa 0,0 mm 13,5 km/h (3 Bft) S-SW 207 ° 0 min 0,000 mm 0,0 UV-I 0 W/m² 4,9 °C 4,8 °C 25,7 km/h (4 Bft)
30.12.2017 16:48 7,4 °C 7,4 °C 85 % 1009,6 hPa 0,0 mm 9,6 km/h (2 Bft) W-SW 257 ° 0 min 0,000 mm 0,0 UV-I 0 W/m² 5,0 °C 5,6 °C 12,9 km/h (3 Bft)
30.12.2017 16:49 7,4 °C 7,4 °C 85 % 1009,6 hPa 0,0 mm 11,2 km/h (2 Bft) W 259 ° 0 min 0,000 mm 0,0 UV-I 0 W/m² 5,0 °C 5,3 °C 16,1 km/h (3 Bft)
30.12.2017 16:50 7,4 °C 7,4 °C 85 % 1009,7 hPa 0,0 mm 17,8 km/h (3 Bft) W-SW 257 ° 0 min 0,000 mm 0,0 UV-I 0 W/m² 5,0 °C 4,3 °C 22,5 km/h (4 Bft)
30.12.2017 16:51 7,4 °C 7,4 °C 85 % 1009,7 hPa 0,0 mm 11,7 km/h (2 Bft) W-SW 241 ° 0 min 0,000 mm 0,0 UV-I 0 W/m² 5,0 °C 5,2 °C 19,3 km/h (3 Bft)
30.12.2017 16:52 7,4 °C 7,4 °C 85 % 1009,5 hPa 0,2 mm 16,0 km/h (3 Bft) W-SW 250 ° 0 min 0,000 mm 0,0 UV-I 0 W/m² 5,0 °C 4,6 °C 24,1 km/h (4 Bft)
30.12.2017 16:53 7,4 °C 7,4 °C 85 % 1009,6 hPa 0,0 mm 16,9 km/h (3 Bft) W 267 ° 0 min 0,000 mm 0,0 UV-I 0 W/m² 5,0 °C 4,5 °C 29,0 km/h (5 Bft)
30.12.2017 16:54 7,5 °C 7,5 °C 85 % 1009,6 hPa 0,0 mm 18,4 km/h (3 Bft) W-SW 238 ° 0 min 0,000 mm 0,0 UV-I 0 W/m² 5,1 °C 4,4 °C 27,4 km/h (4 Bft)
30.12.2017 16:55 7,6 °C 7,6 °C 85 % 1009,6 hPa 0,0 mm 11,5 km/h (2 Bft) W-SW 255 ° 0 min 0,000 mm 0,0 UV-I 0 W/m² 5,2 °C 5,5 °C 19,3 km/h (3 Bft)
30.12.2017 16:56 7,6 °C 7,6 °C 85 % 1009,6 hPa 0,0 mm 11,7 km/h (2 Bft) W 263 ° 0 min 0,000 mm 0,0 UV-I 0 W/m² 5,2 °C 5,5 °C 20,9 km/h (4 Bft)
30.12.2017 16:57 7,6 °C 7,6 °C 85 % 1009,7 hPa 0,0 mm 11,2 km/h (2 Bft) W 263 ° 0 min 0,000 mm 0,0 UV-I 0 W/m² 5,2 °C 5,5 °C 17,7 km/h (3 Bft)
30.12.2017 16:58 7,7 °C 7,7 °C 84 % 1009,6 hPa 0,0 mm 10,9 km/h (2 Bft) W-SW 258 ° 0 min 0,000 mm 0,0 UV-I 0 W/m² 5,2 °C 5,7 °C 19,3 km/h (3 Bft)
30.12.2017 16:59 7,7 °C 7,7 °C 84 % 1009,7 hPa 0,0 mm 15,8 km/h (3 Bft) SW 227 ° 0 min 0,000 mm 0,0 UV-I 0 W/m² 5,2 °C 5,0 °C 19,3 km/h (3 Bft)
30.12.2017 17:00 7,7 °C 7,7 °C 84 % 1009,7 hPa 0,2 mm 13,4 km/h (3 Bft) W 259 ° 0 min 0,000 mm 0,0 UV-I 0 W/m² 5,2 °C 5,3 °C 19,3 km/h (3 Bft)
30.12.2017 17:01 7,7 °C 7,7 °C 84 % 1009,7 hPa 0,0 mm 16,4 km/h (3 Bft) W-SW 246 ° 0 min 0,026 mm 0,0 UV-I 0 W/m² 5,2 °C 4,9 °C 25,7 km/h (4 Bft)
30.12.2017 17:02 7,7 °C 7,7 °C 84 % 1009,8 hPa 0,0 mm 17,6 km/h (3 Bft) W-SW 257 ° 0 min 0,000 mm 0,0 UV-I 0 W/m² 5,2 °C 4,7 °C 22,5 km/h (4 Bft)
30.12.2017 17:03 7,6 °C 7,7 °C 84 % 1009,9 hPa 0,0 mm 19,7 km/h (3 Bft) W 264 ° 0 min 0,000 mm 0,0 UV-I 0 W/m² 5,1 °C 4,4 °C 30,6 km/h (5 Bft)
30.12.2017 17:04 7,6 °C 7,7 °C 84 % 1009,9 hPa 0,0 mm 16,3 km/h (3 Bft) W-SW 248 ° 0 min 0,000 mm 0,0 UV-I 0 W/m² 5,1 °C 4,8 °C 22,5 km/h (4 Bft)
30.12.2017 17:05 7,7 °C 7,7 °C 84 % 1009,9 hPa 0,0 mm 17,4 km/h (3 Bft) W 261 ° 0 min 0,000 mm 0,0 UV-I 0 W/m² 5,2 °C 4,8 °C 24,1 km/h (4 Bft)
30.12.2017 17:06 7,7 °C 7,7 °C 84 % 1010,1 hPa 0,0 mm 10,4 km/h (2 Bft) W 266 ° 0 min 0,000 mm 0,0 UV-I 0 W/m² 5,2 °C 5,8 °C 17,7 km/h (3 Bft)
30.12.2017 17:07 7,7 °C 7,7 °C 84 % 1010,2 hPa 0,0 mm 12,9 km/h (3 Bft) W 261 ° 0 min 0,000 mm 0,0 UV-I 0 W/m² 5,2 °C 5,4 °C 16,1 km/h (3 Bft)
30.12.2017 17:08 7,7 °C 7,7 °C 84 % 1010,2 hPa 0,0 mm 12,3 km/h (3 Bft) W-SW 237 ° 0 min 0,000 mm 0,0 UV-I 0 W/m² 5,2 °C 5,5 °C 16,1 km/h (3 Bft)
30.12.2017 17:09 7,7 °C 7,7 °C 84 % 1010,2 hPa 0,2 mm 16,9 km/h (3 Bft) W 259 ° 0 min 0,000 mm 0,0 UV-I 0 W/m² 5,2 °C 4,8 °C 25,7 km/h (4 Bft)
30.12.2017 17:10 7,7 °C 7,7 °C 83 % 1010,3 hPa 0,0 mm 16,0 km/h (3 Bft) W 265 ° 0 min 0,000 mm 0,0 UV-I 0 W/m² 5,0 °C 4,9 °C 25,7 km/h (4 Bft)
30.12.2017 17:11 7,6 °C 7,7 °C 84 % 1010,3 hPa 0,0 mm 22,5 km/h (4 Bft) W 275 ° 0 min 0,000 mm 0,0 UV-I 0 W/m² 5,1 °C 4,1 °C 32,2 km/h (5 Bft)
30.12.2017 17:12 7,6 °C 7,7 °C 84 % 1010,4 hPa 0,0 mm 17,6 km/h (3 Bft) W 267 ° 0 min 0,000 mm 0,0 UV-I 0 W/m² 5,1 °C 4,6 °C 25,7 km/h (4 Bft)
30.12.2017 17:13 7,7 °C 7,7 °C 84 % 1010,4 hPa 0,0 mm 18,8 km/h (3 Bft) W-NW 282 ° 0 min 0,000 mm 0,0 UV-I 0 W/m² 5,2 °C 4,6 °C 27,4 km/h (4 Bft)
30.12.2017 17:14 7,7 °C 7,7 °C 84 % 1010,4 hPa 0,0 mm 14,0 km/h (3 Bft) W-SW 247 ° 0 min 0,000 mm 0,0 UV-I 0 W/m² 5,2 °C 5,2 °C 20,9 km/h (4 Bft)
30.12.2017 17:15 7,7 °C 7,7 °C 84 % 1010,4 hPa 0,0 mm 16,6 km/h (3 Bft) W-SW 250 ° 0 min 0,000 mm 0,0 UV-I 0 W/m² 5,2 °C 4,9 °C 20,9 km/h (4 Bft)
30.12.2017 17:16 7,7 °C 7,7 °C 84 % 1010,4 hPa 0,0 mm 13,4 km/h (3 Bft) W-SW 249 ° 0 min 0,000 mm 0,0 UV-I 0 W/m² 5,2 °C 5,3 °C 17,7 km/h (3 Bft)
30.12.2017 17:17 7,7 °C 7,7 °C 84 % 1010,4 hPa 0,0 mm 15,4 km/h (3 Bft) W 267 ° 0 min 0,000 mm 0,0 UV-I 0 W/m² 5,2 °C 5,0 °C 19,3 km/h (3 Bft)
30.12.2017 17:18 7,7 °C 7,7 °C 84 % 1010,3 hPa 0,0 mm 14,6 km/h (3 Bft) W 261 ° 0 min 0,000 mm 0,0 UV-I 0 W/m² 5,2 °C 5,1 °C 19,3 km/h (3 Bft)
30.12.2017 17:19 7,7 °C 7,7 °C 83 % 1010,3 hPa 0,0 mm 17,0 km/h (3 Bft) SW 232 ° 0 min 0,000 mm 0,0 UV-I 0 W/m² 5,0 °C 4,8 °C 22,5 km/h (4 Bft)
30.12.2017 17:20 7,7 °C 7,7 °C 83 % 1010,4 hPa 0,0 mm 9,6 km/h (2 Bft) SW 232 ° 0 min 0,000 mm 0,0 UV-I 0 W/m² 5,0 °C 6,0 °C 16,1 km/h (3 Bft)
30.12.2017 17:21 7,7 °C 7,7 °C 84 % 1010,4 hPa 0,0 mm 18,3 km/h (3 Bft) W-SW 256 ° 0 min 0,000 mm 0,0 UV-I 0 W/m² 5,2 °C 4,7 °C 27,4 km/h (4 Bft)
30.12.2017 17:22 7,7 °C 7,7 °C 84 % 1010,5 hPa 0,0 mm 14,3 km/h (3 Bft) W 268 ° 0 min 0,000 mm 0,0 UV-I 0 W/m² 5,2 °C 5,2 °C 20,9 km/h (4 Bft)
30.12.2017 17:23 7,7 °C 7,7 °C 83 % 1010,5 hPa 0,0 mm 17,5 km/h (3 Bft) W 277 ° 0 min 0,000 mm 0,0 UV-I 0 W/m² 5,0 °C 4,8 °C 22,5 km/h (4 Bft)
30.12.2017 17:24 7,8 °C 7,8 °C 83 % 1010,5 hPa 0,0 mm 10,5 km/h (2 Bft) W 274 ° 0 min 0,000 mm 0,0 UV-I 0 W/m² 5,1 °C 5,9 °C 20,9 km/h (4 Bft)
30.12.2017 17:25 7,8 °C 7,8 °C 83 % 1010,5 hPa 0,2 mm 14,2 km/h (3 Bft) W-SW 238 ° 0 min 0,000 mm 0,0 UV-I 0 W/m² 5,1 °C 5,3 °C 22,5 km/h (4 Bft)
30.12.2017 17:26 7,8 °C 7,8 °C 83 % 1010,5 hPa 0,0 mm 10,2 km/h (2 Bft) W 268 ° 0 min 0,000 mm 0,0 UV-I 0 W/m² 5,1 °C 6,0 °C 17,7 km/h (3 Bft)
30.12.2017 17:27 7,8 °C 7,8 °C 83 % 1010,5 hPa 0,0 mm 16,0 km/h (3 Bft) W-SW 254 ° 0 min 0,000 mm 0,0 UV-I 0 W/m² 5,1 °C 5,1 °C 20,9 km/h (4 Bft)
30.12.2017 17:28 7,8 °C 7,8 °C 83 % 1010,5 hPa 0,0 mm 13,5 km/h (3 Bft) W 259 ° 0 min 0,000 mm 0,0 UV-I 0 W/m² 5,1 °C 5,4 °C 19,3 km/h (3 Bft)
30.12.2017 17:29 7,8 °C 7,8 °C 83 % 1010,5 hPa 0,0 mm 9,3 km/h (2 Bft) W 263 ° 0 min 0,000 mm 0,0 UV-I 0 W/m² 5,1 °C 6,1 °C 16,1 km/h (3 Bft)
30.12.2017 17:30 7,8 °C 7,8 °C 83 % 1010,5 hPa 0,0 mm 14,8 km/h (3 Bft) W 274 ° 0 min 0,000 mm 0,0 UV-I 0 W/m² 5,1 °C 5,2 °C 22,5 km/h (4 Bft)
30.12.2017 17:31 7,8 °C 7,8 °C 83 % 1010,5 hPa 0,0 mm 17,3 km/h (3 Bft) W 269 ° 0 min 0,000 mm 0,0 UV-I 0 W/m² 5,1 °C 4,9 °C 22,5 km/h (4 Bft)
30.12.2017 17:32 7,8 °C 7,8 °C 83 % 1010,4 hPa 0,0 mm 11,3 km/h (2 Bft) W-SW 258 ° 0 min 0,000 mm 0,0 UV-I 0 W/m² 5,1 °C 5,8 °C 19,3 km/h (3 Bft)
30.12.2017 17:33 7,8 °C 7,8 °C 83 % 1010,5 hPa 0,0 mm 14,6 km/h (3 Bft) W 265 ° 0 min 0,000 mm 0,0 UV-I 0 W/m² 5,1 °C 5,3 °C 17,7 km/h (3 Bft)
30.12.2017 17:34 7,8 °C 7,9 °C 83 % 1010,5 hPa 0,0 mm 11,0 km/h (2 Bft) W 263 ° 0 min 0,000 mm 0,0 UV-I 0 W/m² 5,1 °C 5,8 °C 17,7 km/h (3 Bft)
30.12.2017 17:35 7,9 °C 7,9 °C 83 % 1010,6 hPa 0,0 mm 15,4 km/h (3 Bft) W-SW 254 ° 0 min 0,000 mm 0,0 UV-I 0 W/m² 5,2 °C 5,3 °C 19,3 km/h (3 Bft)
30.12.2017 17:36 7,9 °C 7,9 °C 83 % 1010,5 hPa 0,0 mm 11,9 km/h (2 Bft) W 267 ° 0 min 0,000 mm 0,0 UV-I 0 W/m² 5,2 °C 5,8 °C 16,1 km/h (3 Bft)
30.12.2017 17:37 7,9 °C 7,9 °C 83 % 1010,5 hPa 0,0 mm 13,6 km/h (3 Bft) W-SW 254 ° 0 min 0,000 mm 0,0 UV-I 0 W/m² 5,2 °C 5,5 °C 17,7 km/h (3 Bft)
30.12.2017 17:38 7,9 °C 7,9 °C 82 % 1010,7 hPa 0,0 mm 14,3 km/h (3 Bft) W 266 ° 0 min 0,000 mm 0,0 UV-I 0 W/m² 5,0 °C 5,4 °C 22,5 km/h (4 Bft)
30.12.2017 17:39 7,9 °C 7,9 °C 82 % 1010,7 hPa 0,0 mm 13,8 km/h (3 Bft) W-SW 237 ° 0 min 0,000 mm 0,0 UV-I 0 W/m² 5,0 °C 5,5 °C 17,7 km/h (3 Bft)
30.12.2017 17:40 7,9 °C 7,9 °C 82 % 1010,8 hPa 0,0 mm 9,8 km/h (2 Bft) W 261 ° 0 min 0,000 mm 0,0 UV-I 0 W/m² 5,0 °C 6,2 °C 14,5 km/h (3 Bft)
30.12.2017 17:41 7,9 °C 7,9 °C 82 % 1010,7 hPa 0,0 mm 11,1 km/h (2 Bft) W 259 ° 0 min 0,000 mm 0,0 UV-I 0 W/m² 5,0 °C 5,9 °C 17,7 km/h (3 Bft)
30.12.2017 17:42 7,9 °C 7,9 °C 82 % 1010,8 hPa 0,0 mm 11,4 km/h (2 Bft) W-SW 246 ° 0 min 0,000 mm 0,0 UV-I 0 W/m² 5,0 °C 5,9 °C 17,7 km/h (3 Bft)
30.12.2017 17:43 7,9 °C 7,9 °C 82 % 1010,8 hPa 0,0 mm 11,1 km/h (2 Bft) W 272 ° 0 min 0,000 mm 0,0 UV-I 0 W/m² 5,0 °C 5,9 °C 19,3 km/h (3 Bft)
30.12.2017 17:44 7,9 °C 7,9 °C 82 % 1010,8 hPa 0,0 mm 12,5 km/h (3 Bft) W 273 ° 0 min 0,000 mm 0,0 UV-I 0 W/m² 5,0 °C 5,7 °C 19,3 km/h (3 Bft)
30.12.2017 17:45 7,9 °C 8,0 °C 82 % 1010,9 hPa 0,0 mm 9,0 km/h (2 Bft) W-SW 256 ° 0 min 0,000 mm 0,0 UV-I 0 W/m² 5,0 °C 6,3 °C 17,7 km/h (3 Bft)
30.12.2017 17:46 7,9 °C 7,9 °C 82 % 1010,9 hPa 0,2 mm 12,4 km/h (3 Bft) SW 228 ° 0 min 0,000 mm 0,0 UV-I 0 W/m² 5,0 °C 5,7 °C 17,7 km/h (3 Bft)
30.12.2017 17:47 8,0 °C 8,0 °C 82 % 1010,8 hPa 0,0 mm 7,8 km/h (2 Bft) W 262 ° 0 min 0,000 mm 0,0 UV-I 0 W/m² 5,1 °C 6,7 °C 14,5 km/h (3 Bft)
30.12.2017 17:48 7,9 °C 8,0 °C 82 % 1010,8 hPa 0,0 mm 9,7 km/h (2 Bft) W-SW 248 ° 0 min 0,000 mm 0,0 UV-I 0 W/m² 5,0 °C 6,2 °C 14,5 km/h (3 Bft)
30.12.2017 17:49 7,9 °C 8,0 °C 82 % 1010,8 hPa 0,0 mm 8,1 km/h (2 Bft) W 275 ° 0 min 0,000 mm 0,0 UV-I 0 W/m² 5,0 °C 6,5 °C 11,3 km/h (2 Bft)
30.12.2017 17:50 7,9 °C 7,9 °C 82 % 1010,8 hPa 0,0 mm 9,7 km/h (2 Bft) W 277 ° 0 min 0,000 mm 0,0 UV-I 0 W/m² 5,0 °C 6,2 °C 12,9 km/h (3 Bft)
30.12.2017 17:51 7,9 °C 8,0 °C 82 % 1010,8 hPa 0,0 mm 7,7 km/h (2 Bft) W-SW 241 ° 0 min 0,000 mm 0,0 UV-I 0 W/m² 5,0 °C 6,6 °C 11,3 km/h (2 Bft)
30.12.2017 17:52 7,9 °C 7,9 °C 82 % 1010,7 hPa 0,0 mm 7,6 km/h (2 Bft) S-SW 198 ° 0 min 0,000 mm 0,0 UV-I 0 W/m² 5,0 °C 6,6 °C 11,3 km/h (2 Bft)
30.12.2017 17:53 7,9 °C 7,9 °C 82 % 1010,9 hPa 0,0 mm 11,7 km/h (2 Bft) W 265 ° 0 min 0,000 mm 0,0 UV-I 0 W/m² 5,0 °C 5,8 °C 19,3 km/h (3 Bft)
30.12.2017 17:54 7,9 °C 7,9 °C 82 % 1010,9 hPa 0,0 mm 12,4 km/h (3 Bft) W-SW 256 ° 0 min 0,000 mm 0,0 UV-I 0 W/m² 5,0 °C 5,7 °C 25,7 km/h (4 Bft)
30.12.2017 17:55 7,9 °C 7,9 °C 82 % 1010,8 hPa 0,0 mm 16,3 km/h (3 Bft) W 267 ° 0 min 0,000 mm 0,0 UV-I 0 W/m² 5,0 °C 5,2 °C 25,7 km/h (4 Bft)
30.12.2017 17:56 7,9 °C 7,9 °C 82 % 1010,8 hPa 0,0 mm 8,3 km/h (2 Bft) W-NW 294 ° 0 min 0,000 mm 0,0 UV-I 0 W/m² 5,0 °C 6,5 °C 12,9 km/h (3 Bft)
30.12.2017 17:57 7,9 °C 7,9 °C 82 % 1010,9 hPa 0,0 mm 10,3 km/h (2 Bft) SW 234 ° 0 min 0,000 mm 0,0 UV-I 0 W/m² 5,0 °C 6,1 °C 14,5 km/h (3 Bft)
30.12.2017 17:58 7,9 °C 7,9 °C 82 % 1011,0 hPa 0,0 mm 9,6 km/h (2 Bft) W-SW 254 ° 0 min 0,000 mm 0,0 UV-I 0 W/m² 5,0 °C 6,2 °C 14,5 km/h (3 Bft)
30.12.2017 17:59 7,9 °C 7,9 °C 82 % 1011,0 hPa 0,0 mm 13,4 km/h (3 Bft) W-SW 243 ° 0 min 0,000 mm 0,0 UV-I 0 W/m² 5,0 °C 5,6 °C 22,5 km/h (4 Bft)
30.12.2017 18:00 7,9 °C 7,9 °C 82 % 1011,1 hPa 0,0 mm 13,0 km/h (3 Bft) W-SW 240 ° 0 min 0,025 mm 0,0 UV-I 0 W/m² 5,0 °C 5,6 °C 20,9 km/h (4 Bft)
30.12.2017 18:01 7,9 °C 7,9 °C 82 % 1011,1 hPa 0,0 mm 12,0 km/h (2 Bft) W-SW 257 ° 0 min 0,000 mm 0,0 UV-I 0 W/m² 5,0 °C 5,8 °C 17,7 km/h (3 Bft)
30.12.2017 18:02 7,9 °C 8,0 °C 82 % 1011,2 hPa 0,0 mm 13,6 km/h (3 Bft) W 259 ° 0 min 0,000 mm 0,0 UV-I 0 W/m² 5,0 °C 5,5 °C 22,5 km/h (4 Bft)
30.12.2017 18:03 7,9 °C 7,9 °C 82 % 1011,1 hPa 0,0 mm 11,5 km/h (2 Bft) W 273 ° 0 min 0,000 mm 0,0 UV-I 0 W/m² 5,0 °C 5,9 °C 17,7 km/h (3 Bft)
30.12.2017 18:04 7,9 °C 8,0 °C 82 % 1011,1 hPa 0,0 mm 16,0 km/h (3 Bft) W-SW 255 ° 0 min 0,000 mm 0,0 UV-I 0 W/m² 5,0 °C 5,2 °C 20,9 km/h (4 Bft)
30.12.2017 18:05 7,9 °C 8,0 °C 82 % 1011,2 hPa 0,0 mm 12,2 km/h (2 Bft) W 277 ° 0 min 0,000 mm 0,0 UV-I 0 W/m² 5,0 °C 5,7 °C 16,1 km/h (3 Bft)
30.12.2017 18:06 8,0 °C 8,0 °C 82 % 1011,1 hPa 0,0 mm 11,5 km/h (2 Bft) W-SW 246 ° 0 min 0,000 mm 0,0 UV-I 0 W/m² 5,1 °C 6,0 °C 16,1 km/h (3 Bft)
30.12.2017 18:07 7,9 °C 8,0 °C 82 % 1011,2 hPa 0,0 mm 10,5 km/h (2 Bft) W 261 ° 0 min 0,000 mm 0,0 UV-I 0 W/m² 5,0 °C 6,0 °C 24,1 km/h (4 Bft)
30.12.2017 18:08 7,9 °C 7,9 °C 82 % 1011,1 hPa 0,0 mm 17,2 km/h (3 Bft) W-SW 248 ° 0 min 0,000 mm 0,0 UV-I 0 W/m² 5,0 °C 5,0 °C 22,5 km/h (4 Bft)
30.12.2017 18:09 7,9 °C 7,9 °C 83 % 1011,1 hPa 0,0 mm 10,3 km/h (2 Bft) W 280 ° 0 min 0,000 mm 0,0 UV-I 0 W/m² 5,2 °C 6,1 °C 19,3 km/h (3 Bft)
30.12.2017 18:10 7,9 °C 7,9 °C 82 % 1011,1 hPa 0,0 mm 20,9 km/h (4 Bft) W 264 ° 0 min 0,000 mm 0,0 UV-I 0 W/m² 5,0 °C 4,6 °C 29,0 km/h (5 Bft)
30.12.2017 18:11 7,9 °C 8,0 °C 83 % 1011,1 hPa 0,0 mm 12,7 km/h (3 Bft) SW 222 ° 0 min 0,000 mm 0,0 UV-I 0 W/m² 5,2 °C 5,7 °C 25,7 km/h (4 Bft)
30.12.2017 18:12 8,0 °C 8,0 °C 83 % 1011,1 hPa 0,0 mm 16,5 km/h (3 Bft) W-SW 238 ° 0 min 0,000 mm 0,0 UV-I 0 W/m² 5,3 °C 5,3 °C 22,5 km/h (4 Bft)
30.12.2017 18:13 8,1 °C 8,1 °C 83 % 1011,1 hPa 0,0 mm 13,2 km/h (3 Bft) W-SW 252 ° 0 min 0,000 mm 0,0 UV-I 0 W/m² 5,4 °C 5,8 °C 20,9 km/h (4 Bft)
30.12.2017 18:14 8,1 °C 8,1 °C 83 % 1011,2 hPa 0,0 mm 13,0 km/h (3 Bft) S-SW 209 ° 0 min 0,000 mm 0,0 UV-I 0 W/m² 5,4 °C 5,9 °C 20,9 km/h (4 Bft)
30.12.2017 18:15 8,1 °C 8,1 °C 83 % 1011,0 hPa 0,0 mm 12,2 km/h (2 Bft) W-SW 254 ° 0 min 0,000 mm 0,0 UV-I 0 W/m² 5,4 °C 6,0 °C 29,0 km/h (5 Bft)
30.12.2017 18:16 8,1 °C 8,1 °C 82 % 1011,0 hPa 0,0 mm 6,8 km/h (2 Bft) W 267 ° 0 min 0,000 mm 0,0 UV-I 0 W/m² 5,2 °C 7,1 °C 14,5 km/h (3 Bft)
30.12.2017 18:17 8,1 °C 8,1 °C 83 % 1011,2 hPa 0,0 mm 8,8 km/h (2 Bft) SW 233 ° 0 min 0,000 mm 0,0 UV-I 0 W/m² 5,4 °C 6,6 °C 14,5 km/h (3 Bft)
30.12.2017 18:18 8,2 °C 8,2 °C 83 % 1011,2 hPa 0,0 mm 8,4 km/h (2 Bft) W-SW 246 ° 0 min 0,000 mm 0,0 UV-I 0 W/m² 5,5 °C 6,8 °C 16,1 km/h (3 Bft)
30.12.2017 18:19 8,2 °C 8,2 °C 82 % 1011,2 hPa 0,0 mm 8,7 km/h (2 Bft) S-SW 212 ° 0 min 0,000 mm 0,0 UV-I 0 W/m² 5,3 °C 6,7 °C 16,1 km/h (3 Bft)
30.12.2017 18:20 8,2 °C 8,2 °C 82 % 1011,1 hPa 0,0 mm 11,4 km/h (2 Bft) W-SW 254 ° 0 min 0,000 mm 0,0 UV-I 0 W/m² 5,3 °C 6,2 °C 16,1 km/h (3 Bft)
30.12.2017 18:21 8,2 °C 8,2 °C 82 % 1011,1 hPa 0,0 mm 9,7 km/h (2 Bft) W 263 ° 0 min 0,000 mm 0,0 UV-I 0 W/m² 5,3 °C 6,5 °C 19,3 km/h (3 Bft)
30.12.2017 18:22 8,2 °C 8,2 °C 82 % 1011,1 hPa 0,0 mm 14,6 km/h (3 Bft) W-SW 250 ° 0 min 0,000 mm 0,0 UV-I 0 W/m² 5,3 °C 5,7 °C 20,9 km/h (4 Bft)
30.12.2017 18:23 8,2 °C 8,2 °C 82 % 1011,1 hPa 0,0 mm 8,6 km/h (2 Bft) W 271 ° 0 min 0,000 mm 0,0 UV-I 0 W/m² 5,3 °C 6,8 °C 12,9 km/h (3 Bft)
30.12.2017 18:24 8,2 °C 8,2 °C 82 % 1011,0 hPa 0,0 mm 14,0 km/h (3 Bft) W-SW 238 ° 0 min 0,000 mm 0,0 UV-I 0 W/m² 5,3 °C 5,8 °C 19,3 km/h (3 Bft)
30.12.2017 18:25 8,2 °C 8,2 °C 82 % 1011,1 hPa 0,0 mm 11,5 km/h (2 Bft) W 275 ° 0 min 0,000 mm 0,0 UV-I 0 W/m² 5,3 °C 6,2 °C 16,1 km/h (3 Bft)
30.12.2017 18:26 8,2 °C 8,2 °C 82 % 1011,1 hPa 0,0 mm 13,2 km/h (3 Bft) W 273 ° 0 min 0,000 mm 0,0 UV-I 0 W/m² 5,3 °C 5,9 °C 20,9 km/h (4 Bft)
30.12.2017 18:27 8,2 °C 8,2 °C 82 % 1011,1 hPa 0,0 mm 11,1 km/h (2 Bft) SW 232 ° 0 min 0,000 mm 0,0 UV-I 0 W/m² 5,3 °C 6,3 °C 19,3 km/h (3 Bft)
30.12.2017 18:28 8,2 °C 8,2 °C 82 % 1011,1 hPa 0,0 mm 11,4 km/h (2 Bft) W 269 ° 0 min 0,000 mm 0,0 UV-I 0 W/m² 5,3 °C 6,2 °C 14,5 km/h (3 Bft)
30.12.2017 18:29 8,2 °C 8,2 °C 82 % 1011,1 hPa 0,0 mm 9,3 km/h (2 Bft) W-SW 248 ° 0 min 0,000 mm 0,0 UV-I 0 W/m² 5,3 °C 6,6 °C 14,5 km/h (3 Bft)
30.12.2017 18:30 8,2 °C 8,2 °C 82 % 1011,2 hPa 0,0 mm 11,5 km/h (2 Bft) W 262 ° 0 min 0,000 mm 0,0 UV-I 0 W/m² 5,3 °C 6,2 °C 16,1 km/h (3 Bft)
30.12.2017 18:31 8,3 °C 8,3 °C 82 % 1011,2 hPa 0,0 mm 15,4 km/h (3 Bft) W 263 ° 0 min 0,000 mm 0,0 UV-I 0 W/m² 5,4 °C 5,8 °C 25,7 km/h (4 Bft)
30.12.2017 18:32 8,2 °C 8,3 °C 82 % 1011,3 hPa 0,0 mm 14,3 km/h (3 Bft) W-SW 242 ° 0 min 0,000 mm 0,0 UV-I 0 W/m² 5,3 °C 5,8 °C 22,5 km/h (4 Bft)
30.12.2017 18:33 8,2 °C 8,3 °C 82 % 1011,2 hPa 0,0 mm 12,9 km/h (3 Bft) W 270 ° 0 min 0,000 mm 0,0 UV-I 0 W/m² 5,3 °C 6,0 °C 20,9 km/h (4 Bft)
30.12.2017 18:34 8,2 °C 8,3 °C 82 % 1011,2 hPa 0,0 mm 16,0 km/h (3 Bft) W 281 ° 0 min 0,000 mm 0,0 UV-I 0 W/m² 5,3 °C 5,6 °C 20,9 km/h (4 Bft)
30.12.2017 18:35 8,3 °C 8,3 °C 82 % 1011,4 hPa 0,0 mm 11,6 km/h (2 Bft) W-SW 248 ° 0 min 0,000 mm 0,0 UV-I 0 W/m² 5,4 °C 6,3 °C 16,1 km/h (3 Bft)
30.12.2017 18:36 8,2 °C 8,3 °C 82 % 1011,4 hPa 0,0 mm 11,7 km/h (2 Bft) W-SW 244 ° 0 min 0,000 mm 0,0 UV-I 0 W/m² 5,3 °C 6,2 °C 16,1 km/h (3 Bft)
30.12.2017 18:37 8,3 °C 8,3 °C 82 % 1011,5 hPa 0,0 mm 12,7 km/h (3 Bft) W 269 ° 0 min 0,000 mm 0,0 UV-I 0 W/m² 5,4 °C 6,1 °C 22,5 km/h (4 Bft)
30.12.2017 18:38 8,3 °C 8,3 °C 82 % 1011,4 hPa 0,0 mm 9,9 km/h (2 Bft) W-SW 253 ° 0 min 0,000 mm 0,0 UV-I 0 W/m² 5,4 °C 6,6 °C 16,1 km/h (3 Bft)
30.12.2017 18:39 8,3 °C 8,3 °C 82 % 1011,4 hPa 0,0 mm 11,5 km/h (2 Bft) SW 220 ° 0 min 0,000 mm 0,0 UV-I 0 W/m² 5,4 °C 6,3 °C 19,3 km/h (3 Bft)
30.12.2017 18:40 8,3 °C 8,3 °C 82 % 1011,4 hPa 0,0 mm 14,4 km/h (3 Bft) W 273 ° 0 min 0,000 mm 0,0 UV-I 0 W/m² 5,4 °C 5,9 °C 20,9 km/h (4 Bft)
30.12.2017 18:41 8,2 °C 8,3 °C 82 % 1011,4 hPa 0,0 mm 8,5 km/h (2 Bft) W-SW 239 ° 0 min 0,000 mm 0,0 UV-I 0 W/m² 5,3 °C 6,8 °C 14,5 km/h (3 Bft)
30.12.2017 18:42 8,2 °C 8,3 °C 82 % 1011,5 hPa 0,0 mm 13,6 km/h (3 Bft) W 264 ° 0 min 0,000 mm 0,0 UV-I 0 W/m² 5,3 °C 5,9 °C 17,7 km/h (3 Bft)
30.12.2017 18:43 8,2 °C 8,3 °C 82 % 1011,5 hPa 0,0 mm 10,0 km/h (2 Bft) SW 236 ° 0 min 0,000 mm 0,0 UV-I 0 W/m² 5,3 °C 6,5 °C 14,5 km/h (3 Bft)
30.12.2017 18:44 8,2 °C 8,3 °C 82 % 1011,5 hPa 0,0 mm 11,6 km/h (2 Bft) W 262 ° 0 min 0,000 mm 0,0 UV-I 0 W/m² 5,3 °C 6,2 °C 20,9 km/h (4 Bft)
30.12.2017 18:45 8,2 °C 8,3 °C 82 % 1011,6 hPa 0,0 mm 12,3 km/h (3 Bft) W-NW 284 ° 0 min 0,000 mm 0,0 UV-I 0 W/m² 5,3 °C 6,1 °C 20,9 km/h (4 Bft)
30.12.2017 18:46 8,2 °C 8,3 °C 81 % 1011,7 hPa 0,0 mm 13,5 km/h (3 Bft) SW 234 ° 0 min 0,000 mm 0,0 UV-I 0 W/m² 5,1 °C 5,9 °C 17,7 km/h (3 Bft)
30.12.2017 18:47 8,2 °C 8,3 °C 82 % 1011,7 hPa 0,0 mm 16,4 km/h (3 Bft) W-SW 253 ° 0 min 0,000 mm 0,0 UV-I 0 W/m² 5,3 °C 5,5 °C 22,5 km/h (4 Bft)
30.12.2017 18:48 8,2 °C 8,2 °C 81 % 1011,9 hPa 0,0 mm 14,5 km/h (3 Bft) W 277 ° 0 min 0,000 mm 0,0 UV-I 0 W/m² 5,1 °C 5,8 °C 17,7 km/h (3 Bft)
30.12.2017 18:49 8,2 °C 8,2 °C 81 % 1011,9 hPa 0,0 mm 13,4 km/h (3 Bft) W 275 ° 0 min 0,000 mm 0,0 UV-I 0 W/m² 5,1 °C 5,9 °C 19,3 km/h (3 Bft)
30.12.2017 18:50 8,2 °C 8,2 °C 81 % 1011,9 hPa 0,0 mm 11,2 km/h (2 Bft) W 277 ° 0 min 0,000 mm 0,0 UV-I 0 W/m² 5,1 °C 6,3 °C 14,5 km/h (3 Bft)
30.12.2017 18:51 8,2 °C 8,2 °C 81 % 1011,9 hPa 0,0 mm 12,7 km/h (3 Bft) SW 235 ° 0 min 0,000 mm 0,0 UV-I 0 W/m² 5,1 °C 6,0 °C 19,3 km/h (3 Bft)
30.12.2017 18:52 8,1 °C 8,2 °C 82 % 1011,9 hPa 0,0 mm 14,1 km/h (3 Bft) W-SW 245 ° 0 min 0,000 mm 0,0 UV-I 0 W/m² 5,2 °C 5,7 °C 19,3 km/h (3 Bft)
30.12.2017 18:53 8,1 °C 8,1 °C 82 % 1011,8 hPa 0,0 mm 11,3 km/h (2 Bft) W-SW 238 ° 0 min 0,000 mm 0,0 UV-I 0 W/m² 5,2 °C 6,1 °C 19,3 km/h (3 Bft)
30.12.2017 18:54 8,1 °C 8,1 °C 82 % 1011,9 hPa 0,0 mm 9,1 km/h (2 Bft) W-SW 238 ° 0 min 0,000 mm 0,0 UV-I 0 W/m² 5,2 °C 6,5 °C 17,7 km/h (3 Bft)
30.12.2017 18:55 8,1 °C 8,1 °C 82 % 1011,9 hPa 0,0 mm 8,2 km/h (2 Bft) W 267 ° 0 min 0,000 mm 0,0 UV-I 0 W/m² 5,2 °C 6,7 °C 16,1 km/h (3 Bft)
30.12.2017 18:56 8,1 °C 8,1 °C 82 % 1011,9 hPa 0,0 mm 12,1 km/h (2 Bft) W-SW 246 ° 0 min 0,000 mm 0,0 UV-I 0 W/m² 5,2 °C 6,0 °C 20,9 km/h (4 Bft)
30.12.2017 18:57 8,1 °C 8,1 °C 82 % 1011,9 hPa 0,0 mm 10,3 km/h (2 Bft) SW 229 ° 0 min 0,000 mm 0,0 UV-I 0 W/m² 5,2 °C 6,3 °C 17,7 km/h (3 Bft)
30.12.2017 18:58 8,1 °C 8,1 °C 82 % 1011,8 hPa 0,0 mm 7,4 km/h (2 Bft) W 267 ° 0 min 0,000 mm 0,0 UV-I 0 W/m² 5,2 °C 6,9 °C 12,9 km/h (3 Bft)
30.12.2017 18:59 8,1 °C 8,1 °C 82 % 1011,8 hPa 0,0 mm 15,3 km/h (3 Bft) W-SW 250 ° 0 min 0,000 mm 0,0 UV-I 0 W/m² 5,2 °C 5,5 °C 19,3 km/h (3 Bft)
30.12.2017 19:00 8,1 °C 8,1 °C 82 % 1011,8 hPa 0,0 mm 13,8 km/h (3 Bft) W 269 ° 0 min 0,000 mm 0,0 UV-I 0 W/m² 5,2 °C 5,7 °C 19,3 km/h (3 Bft)
30.12.2017 19:01 8,1 °C 8,1 °C 82 % 1011,8 hPa 0,0 mm 9,9 km/h (2 Bft) W-SW 238 ° 0 min 0,025 mm 0,0 UV-I 0 W/m² 5,2 °C 6,4 °C 17,7 km/h (3 Bft)
30.12.2017 19:02 8,1 °C 8,1 °C 82 % 1011,9 hPa 0,0 mm 7,0 km/h (2 Bft) SW 229 ° 0 min 0,000 mm 0,0 UV-I 0 W/m² 5,2 °C 7,0 °C 11,3 km/h (2 Bft)
30.12.2017 19:03 8,1 °C 8,1 °C 83 % 1011,8 hPa 0,0 mm 11,9 km/h (2 Bft) W 260 ° 0 min 0,000 mm 0,0 UV-I 0 W/m² 5,4 °C 6,0 °C 16,1 km/h (3 Bft)
30.12.2017 19:04 8,1 °C 8,1 °C 82 % 1011,9 hPa 0,0 mm 9,2 km/h (2 Bft) W 266 ° 0 min 0,000 mm 0,0 UV-I 0 W/m² 5,2 °C 6,5 °C 17,7 km/h (3 Bft)
30.12.2017 19:05 8,1 °C 8,1 °C 82 % 1011,9 hPa 0,0 mm 8,8 km/h (2 Bft) S-SW 200 ° 0 min 0,000 mm 0,0 UV-I 0 W/m² 5,2 °C 6,6 °C 14,5 km/h (3 Bft)
30.12.2017 19:06 8,1 °C 8,1 °C 82 % 1011,9 hPa 0,0 mm 5,5 km/h (1 Bft) W-SW 258 ° 0 min 0,000 mm 0,0 UV-I 0 W/m² 5,2 °C 7,4 °C 8,0 km/h (2 Bft)
30.12.2017 19:07 8,1 °C 8,1 °C 83 % 1012,0 hPa 0,0 mm 12,6 km/h (3 Bft) W-SW 249 ° 0 min 0,000 mm 0,0 UV-I 0 W/m² 5,4 °C 5,9 °C 19,3 km/h (3 Bft)
30.12.2017 19:08 8,1 °C 8,1 °C 82 % 1012,1 hPa 0,0 mm 13,9 km/h (3 Bft) W-SW 254 ° 0 min 0,000 mm 0,0 UV-I 0 W/m² 5,2 °C 5,7 °C 22,5 km/h (4 Bft)
30.12.2017 19:09 8,0 °C 8,1 °C 82 % 1012,1 hPa 0,0 mm 12,0 km/h (2 Bft) W 279 ° 0 min 0,000 mm 0,0 UV-I 0 W/m² 5,1 °C 5,9 °C 19,3 km/h (3 Bft)
30.12.2017 19:10 8,0 °C 8,0 °C 82 % 1012,0 hPa 0,0 mm 12,4 km/h (3 Bft) SW 217 ° 0 min 0,000 mm 0,0 UV-I 0 W/m² 5,1 °C 5,8 °C 17,7 km/h (3 Bft)
30.12.2017 19:11 8,0 °C 8,0 °C 83 % 1012,0 hPa 0,0 mm 11,2 km/h (2 Bft) W 259 ° 0 min 0,000 mm 0,0 UV-I 0 W/m² 5,3 °C 6,0 °C 16,1 km/h (3 Bft)
30.12.2017 19:12 7,9 °C 8,0 °C 83 % 1012,0 hPa 0,0 mm 10,7 km/h (2 Bft) W 263 ° 0 min 0,000 mm 0,0 UV-I 0 W/m² 5,2 °C 6,0 °C 14,5 km/h (3 Bft)
30.12.2017 19:13 8,0 °C 8,0 °C 83 % 1012,0 hPa 0,0 mm 12,4 km/h (3 Bft) W 267 ° 0 min 0,000 mm 0,0 UV-I 0 W/m² 5,3 °C 5,8 °C 17,7 km/h (3 Bft)
30.12.2017 19:14 8,0 °C 8,0 °C 83 % 1012,0 hPa 0,0 mm 12,7 km/h (3 Bft) W 261 ° 0 min 0,000 mm 0,0 UV-I 0 W/m² 5,3 °C 5,8 °C 16,1 km/h (3 Bft)
30.12.2017 19:15 8,0 °C 8,0 °C 83 % 1012,0 hPa 0,0 mm 12,7 km/h (3 Bft) W 260 ° 0 min 0,000 mm 0,0 UV-I 0 W/m² 5,3 °C 5,8 °C 20,9 km/h (4 Bft)
30.12.2017 19:16 8,0 °C 8,0 °C 83 % 1012,1 hPa 0,0 mm 11,9 km/h (2 Bft) SW 228 ° 0 min 0,000 mm 0,0 UV-I 0 W/m² 5,3 °C 5,9 °C 19,3 km/h (3 Bft)
30.12.2017 19:17 8,0 °C 8,0 °C 83 % 1012,0 hPa 0,0 mm 6,6 km/h (2 Bft) W-SW 254 ° 0 min 0,000 mm 0,0 UV-I 0 W/m² 5,3 °C 7,0 °C 14,5 km/h (3 Bft)
30.12.2017 19:18 8,0 °C 8,0 °C 83 % 1011,9 hPa 0,0 mm 12,7 km/h (3 Bft) SW 236 ° 0 min 0,000 mm 0,0 UV-I 0 W/m² 5,3 °C 5,8 °C 19,3 km/h (3 Bft)
30.12.2017 19:19 8,0 °C 8,0 °C 83 % 1012,0 hPa 0,0 mm 19,0 km/h (3 Bft) W 271 ° 0 min 0,000 mm 0,0 UV-I 0 W/m² 5,3 °C 5,0 °C 35,4 km/h (5 Bft)
30.12.2017 19:20 8,0 °C 8,0 °C 83 % 1012,0 hPa 0,0 mm 14,3 km/h (3 Bft) W-SW 252 ° 0 min 0,000 mm 0,0 UV-I 0 W/m² 5,3 °C 5,5 °C 27,4 km/h (4 Bft)
30.12.2017 19:21 8,1 °C 8,1 °C 83 % 1012,0 hPa 0,0 mm 12,3 km/h (3 Bft) W-SW 258 ° 0 min 0,000 mm 0,0 UV-I 0 W/m² 5,4 °C 6,0 °C 19,3 km/h (3 Bft)
30.12.2017 19:22 8,1 °C 8,1 °C 83 % 1012,0 hPa 0,0 mm 8,9 km/h (2 Bft) W-SW 252 ° 0 min 0,000 mm 0,0 UV-I 0 W/m² 5,4 °C 6,6 °C 16,1 km/h (3 Bft)
30.12.2017 19:23 8,1 °C 8,1 °C 83 % 1012,0 hPa 0,0 mm 14,3 km/h (3 Bft) W 271 ° 0 min 0,000 mm 0,0 UV-I 0 W/m² 5,4 °C 5,7 °C 19,3 km/h (3 Bft)
30.12.2017 19:24 8,1 °C 8,1 °C 83 % 1012,0 hPa 0,0 mm 10,5 km/h (2 Bft) W 263 ° 0 min 0,000 mm 0,0 UV-I 0 W/m² 5,4 °C 6,3 °C 17,7 km/h (3 Bft)
30.12.2017 19:25 8,0 °C 8,1 °C 83 % 1011,9 hPa 0,0 mm 8,6 km/h (2 Bft) SW 229 ° 0 min 0,000 mm 0,0 UV-I 0 W/m² 5,3 °C 6,5 °C 14,5 km/h (3 Bft)
30.12.2017 19:26 8,1 °C 8,1 °C 83 % 1011,8 hPa 0,0 mm 8,4 km/h (2 Bft) W-NW 287 ° 0 min 0,000 mm 0,0 UV-I 0 W/m² 5,4 °C 6,7 °C 14,5 km/h (3 Bft)
30.12.2017 19:27 8,1 °C 8,1 °C 83 % 1011,8 hPa 0,0 mm 11,4 km/h (2 Bft) W-NW 284 ° 0 min 0,000 mm 0,0 UV-I 0 W/m² 5,4 °C 6,1 °C 16,1 km/h (3 Bft)
30.12.2017 19:28 8,1 °C 8,1 °C 83 % 1011,9 hPa 0,0 mm 14,3 km/h (3 Bft) W 270 ° 0 min 0,000 mm 0,0 UV-I 0 W/m² 5,4 °C 5,7 °C 20,9 km/h (4 Bft)
30.12.2017 19:29 8,0 °C 8,1 °C 83 % 1011,8 hPa 0,0 mm 18,4 km/h (3 Bft) W 265 ° 0 min 0,000 mm 0,0 UV-I 0 W/m² 5,3 °C 5,0 °C 29,0 km/h (5 Bft)
30.12.2017 19:30 8,0 °C 8,1 °C 82 % 1011,9 hPa 0,0 mm 13,5 km/h (3 Bft) W 273 ° 0 min 0,000 mm 0,0 UV-I 0 W/m² 5,1 °C 5,7 °C 19,3 km/h (3 Bft)
30.12.2017 19:31 8,0 °C 8,0 °C 83 % 1011,8 hPa 0,0 mm 12,0 km/h (2 Bft) W 262 ° 0 min 0,000 mm 0,0 UV-I 0 W/m² 5,3 °C 5,9 °C 19,3 km/h (3 Bft)
30.12.2017 19:32 8,0 °C 8,1 °C 83 % 1011,8 hPa 0,0 mm 12,4 km/h (3 Bft) SW 232 ° 0 min 0,000 mm 0,0 UV-I 0 W/m² 5,3 °C 5,8 °C 17,7 km/h (3 Bft)
30.12.2017 19:33 8,0 °C 8,1 °C 82 % 1011,7 hPa 0,0 mm 11,2 km/h (2 Bft) SW 223 ° 0 min 0,000 mm 0,0 UV-I 0 W/m² 5,1 °C 6,0 °C 16,1 km/h (3 Bft)
30.12.2017 19:34 8,1 °C 8,1 °C 83 % 1011,7 hPa 0,0 mm 7,6 km/h (2 Bft) W-SW 248 ° 0 min 0,000 mm 0,0 UV-I 0 W/m² 5,4 °C 6,9 °C 12,9 km/h (3 Bft)
30.12.2017 19:35 8,1 °C 8,1 °C 83 % 1011,8 hPa 0,0 mm 14,1 km/h (3 Bft) W 265 ° 0 min 0,000 mm 0,0 UV-I 0 W/m² 5,4 °C 5,7 °C 17,7 km/h (3 Bft)
30.12.2017 19:36 8,1 °C 8,1 °C 83 % 1011,8 hPa 0,0 mm 10,1 km/h (2 Bft) W-SW 254 ° 0 min 0,000 mm 0,0 UV-I 0 W/m² 5,4 °C 6,3 °C 19,3 km/h (3 Bft)
30.12.2017 19:37 8,1 °C 8,1 °C 82 % 1011,7 hPa 0,0 mm 7,8 km/h (2 Bft) W 269 ° 0 min 0,000 mm 0,0 UV-I 0 W/m² 5,2 °C 6,8 °C 12,9 km/h (3 Bft)
30.12.2017 19:38 8,1 °C 8,1 °C 82 % 1011,8 hPa 0,0 mm 10,6 km/h (2 Bft) SW 227 ° 0 min 0,000 mm 0,0 UV-I 0 W/m² 5,2 °C 6,3 °C 16,1 km/h (3 Bft)
30.12.2017 19:39 8,2 °C 8,2 °C 83 % 1011,8 hPa 0,0 mm 12,3 km/h (3 Bft) W 266 ° 0 min 0,000 mm 0,0 UV-I 0 W/m² 5,5 °C 6,1 °C 19,3 km/h (3 Bft)
30.12.2017 19:40 8,2 °C 8,2 °C 82 % 1011,8 hPa 0,0 mm 8,9 km/h (2 Bft) W-SW 244 ° 0 min 0,000 mm 0,0 UV-I 0 W/m² 5,3 °C 6,7 °C 14,5 km/h (3 Bft)
30.12.2017 19:41 8,2 °C 8,2 °C 82 % 1011,8 hPa 0,0 mm 13,0 km/h (3 Bft) SW 217 ° 0 min 0,000 mm 0,0 UV-I 0 W/m² 5,3 °C 6,0 °C 20,9 km/h (4 Bft)
30.12.2017 19:42 8,2 °C 8,2 °C 82 % 1011,7 hPa 0,0 mm 9,9 km/h (2 Bft) W-SW 254 ° 0 min 0,000 mm 0,0 UV-I 0 W/m² 5,3 °C 6,5 °C 16,1 km/h (3 Bft)
30.12.2017 19:43 8,2 °C 8,3 °C 82 % 1011,8 hPa 0,0 mm 9,9 km/h (2 Bft) W 266 ° 0 min 0,000 mm 0,0 UV-I 0 W/m² 5,3 °C 6,5 °C 12,9 km/h (3 Bft)
30.12.2017 19:44 8,3 °C 8,3 °C 81 % 1011,9 hPa 0,0 mm 10,8 km/h (2 Bft) W 264 ° 0 min 0,000 mm 0,0 UV-I 0 W/m² 5,2 °C 6,5 °C 14,5 km/h (3 Bft)
30.12.2017 19:45 8,3 °C 8,3 °C 81 % 1011,9 hPa 0,0 mm 11,1 km/h (2 Bft) W 267 ° 0 min 0,000 mm 0,0 UV-I 0 W/m² 5,2 °C 6,4 °C 17,7 km/h (3 Bft)
30.12.2017 19:46 8,3 °C 8,3 °C 81 % 1011,9 hPa 0,0 mm 11,3 km/h (2 Bft) W 267 ° 0 min 0,000 mm 0,0 UV-I 0 W/m² 5,2 °C 6,4 °C 19,3 km/h (3 Bft)
30.12.2017 19:47 8,2 °C 8,3 °C 81 % 1011,9 hPa 0,0 mm 12,9 km/h (3 Bft) W 275 ° 0 min 0,000 mm 0,0 UV-I 0 W/m² 5,1 °C 6,0 °C 17,7 km/h (3 Bft)
30.12.2017 19:48 8,3 °C 8,3 °C 81 % 1011,8 hPa 0,0 mm 9,2 km/h (2 Bft) W 271 ° 0 min 0,000 mm 0,0 UV-I 0 W/m² 5,2 °C 6,8 °C 12,9 km/h (3 Bft)
30.12.2017 19:49 8,3 °C 8,3 °C 81 % 1011,9 hPa 0,0 mm 13,1 km/h (3 Bft) W-SW 254 ° 0 min 0,000 mm 0,0 UV-I 0 W/m² 5,2 °C 6,1 °C 16,1 km/h (3 Bft)
30.12.2017 19:50 8,2 °C 8,3 °C 81 % 1011,8 hPa 0,0 mm 15,7 km/h (3 Bft) W-SW 250 ° 0 min 0,000 mm 0,0 UV-I 0 W/m² 5,1 °C 5,6 °C 20,9 km/h (4 Bft)
30.12.2017 19:51 8,2 °C 8,3 °C 81 % 1011,9 hPa 0,0 mm 13,5 km/h (3 Bft) W 264 ° 0 min 0,000 mm 0,0 UV-I 0 W/m² 5,1 °C 5,9 °C 16,1 km/h (3 Bft)
30.12.2017 19:52 8,2 °C 8,2 °C 81 % 1011,9 hPa 0,0 mm 13,9 km/h (3 Bft) W-SW 257 ° 0 min 0,000 mm 0,0 UV-I 0 W/m² 5,1 °C 5,8 °C 19,3 km/h (3 Bft)
30.12.2017 19:53 8,2 °C 8,2 °C 81 % 1011,9 hPa 0,0 mm 13,9 km/h (3 Bft) W-SW 257 ° 0 min 0,000 mm 0,0 UV-I 0 W/m² 5,1 °C 5,8 °C 17,7 km/h (3 Bft)
30.12.2017 19:54 8,2 °C 8,2 °C 81 % 1012,0 hPa 0,0 mm 13,8 km/h (3 Bft) W 264 ° 0 min 0,000 mm 0,0 UV-I 0 W/m² 5,1 °C 5,9 °C 20,9 km/h (4 Bft)
30.12.2017 19:55 8,2 °C 8,2 °C 81 % 1012,0 hPa 0,0 mm 13,7 km/h (3 Bft) W 267 ° 0 min 0,000 mm 0,0 UV-I 0 W/m² 5,1 °C 5,9 °C 17,7 km/h (3 Bft)
30.12.2017 19:56 8,1 °C 8,2 °C 81 % 1012,0 hPa 0,0 mm 10,2 km/h (2 Bft) W 259 ° 0 min 0,000 mm 0,0 UV-I 0 W/m² 5,0 °C 6,3 °C 19,3 km/h (3 Bft)
30.12.2017 19:57 8,1 °C 8,1 °C 81 % 1012,1 hPa 0,0 mm 16,4 km/h (3 Bft) W 275 ° 0 min 0,000 mm 0,0 UV-I 0 W/m² 5,0 °C 5,4 °C 22,5 km/h (4 Bft)
30.12.2017 19:58 8,1 °C 8,1 °C 82 % 1012,0 hPa 0,0 mm 13,3 km/h (3 Bft) W 267 ° 0 min 0,000 mm 0,0 UV-I 0 W/m² 5,2 °C 5,8 °C 17,7 km/h (3 Bft)
30.12.2017 19:59 8,1 °C 8,1 °C 82 % 1011,9 hPa 0,0 mm 12,0 km/h (2 Bft) W-SW 244 ° 0 min 0,000 mm 0,0 UV-I 0 W/m² 5,2 °C 6,0 °C 22,5 km/h (4 Bft)
30.12.2017 20:00 8,1 °C 8,1 °C 82 % 1011,9 hPa 0,0 mm 12,6 km/h (3 Bft) W 261 ° 0 min 0,000 mm 0,0 UV-I 0 W/m² 5,2 °C 5,9 °C 16,1 km/h (3 Bft)
30.12.2017 20:01 8,1 °C 8,1 °C 83 % 1011,8 hPa 0,0 mm 13,1 km/h (3 Bft) W 263 ° 0 min 0,026 mm 0,0 UV-I 0 W/m² 5,4 °C 5,8 °C 17,7 km/h (3 Bft)
30.12.2017 20:02 8,1 °C 8,1 °C 82 % 1011,7 hPa 0,0 mm 14,8 km/h (3 Bft) W-SW 248 ° 0 min 0,000 mm 0,0 UV-I 0 W/m² 5,2 °C 5,6 °C 20,9 km/h (4 Bft)
30.12.2017 20:03 8,1 °C 8,1 °C 82 % 1011,7 hPa 0,0 mm 14,5 km/h (3 Bft) W-SW 250 ° 0 min 0,000 mm 0,0 UV-I 0 W/m² 5,2 °C 5,6 °C 19,3 km/h (3 Bft)
30.12.2017 20:04 8,1 °C 8,1 °C 82 % 1011,8 hPa 0,0 mm 10,0 km/h (2 Bft) SW 235 ° 0 min 0,000 mm 0,0 UV-I 0 W/m² 5,2 °C 6,4 °C 17,7 km/h (3 Bft)
30.12.2017 20:05 8,1 °C 8,1 °C 82 % 1011,7 hPa 0,0 mm 9,3 km/h (2 Bft) SW 235 ° 0 min 0,000 mm 0,0 UV-I 0 W/m² 5,2 °C 6,5 °C 12,9 km/h (3 Bft)
30.12.2017 20:06 8,1 °C 8,1 °C 82 % 1011,6 hPa 0,0 mm 9,6 km/h (2 Bft) W-SW 245 ° 0 min 0,000 mm 0,0 UV-I 0 W/m² 5,2 °C 6,4 °C 14,5 km/h (3 Bft)
30.12.2017 20:07 8,1 °C 8,2 °C 82 % 1011,6 hPa 0,0 mm 9,1 km/h (2 Bft) W-SW 243 ° 0 min 0,000 mm 0,0 UV-I 0 W/m² 5,2 °C 6,5 °C 16,1 km/h (3 Bft)
30.12.2017 20:08 8,1 °C 8,2 °C 82 % 1011,6 hPa 0,0 mm 10,8 km/h (2 Bft) W-SW 244 ° 0 min 0,000 mm 0,0 UV-I 0 W/m² 5,2 °C 6,2 °C 17,7 km/h (3 Bft)
30.12.2017 20:09 8,1 °C 8,2 °C 82 % 1011,6 hPa 0,0 mm 11,6 km/h (2 Bft) W-SW 238 ° 0 min 0,000 mm 0,0 UV-I 0 W/m² 5,2 °C 6,1 °C 16,1 km/h (3 Bft)
30.12.2017 20:10 8,2 °C 8,2 °C 82 % 1011,6 hPa 0,0 mm 10,2 km/h (2 Bft) W-SW 250 ° 0 min 0,000 mm 0,0 UV-I 0 W/m² 5,3 °C 6,4 °C 14,5 km/h (3 Bft)
30.12.2017 20:11 8,2 °C 8,2 °C 82 % 1011,5 hPa 0,0 mm 9,5 km/h (2 Bft) W-SW 252 ° 0 min 0,000 mm 0,0 UV-I 0 W/m² 5,3 °C 6,6 °C 16,1 km/h (3 Bft)
30.12.2017 20:12 8,2 °C 8,2 °C 82 % 1011,6 hPa 0,0 mm 10,1 km/h (2 Bft) W-SW 257 ° 0 min 0,000 mm 0,0 UV-I 0 W/m² 5,3 °C 6,5 °C 14,5 km/h (3 Bft)
30.12.2017 20:13 8,2 °C 8,2 °C 82 % 1011,6 hPa 0,0 mm 13,5 km/h (3 Bft) W 275 ° 0 min 0,000 mm 0,0 UV-I 0 W/m² 5,3 °C 5,9 °C 17,7 km/h (3 Bft)
30.12.2017 20:14 8,2 °C 8,2 °C 83 % 1011,5 hPa 0,0 mm 10,4 km/h (2 Bft) SW 233 ° 0 min 0,000 mm 0,0 UV-I 0 W/m² 5,5 °C 6,4 °C 22,5 km/h (4 Bft)
30.12.2017 20:15 8,3 °C 8,3 °C 83 % 1011,6 hPa 0,0 mm 12,7 km/h (3 Bft) W-SW 245 ° 0 min 0,000 mm 0,0 UV-I 0 W/m² 5,6 °C 6,1 °C 20,9 km/h (4 Bft)
30.12.2017 20:16 8,3 °C 8,3 °C 83 % 1011,6 hPa 0,0 mm 12,3 km/h (3 Bft) W-SW 240 ° 0 min 0,000 mm 0,0 UV-I 0 W/m² 5,6 °C 6,2 °C 20,9 km/h (4 Bft)
30.12.2017 20:17 8,3 °C 8,3 °C 82 % 1011,6 hPa 0,0 mm 13,7 km/h (3 Bft) W-SW 252 ° 0 min 0,000 mm 0,0 UV-I 0 W/m² 5,4 °C 6,0 °C 22,5 km/h (4 Bft)
30.12.2017 20:18 8,3 °C 8,3 °C 83 % 1011,6 hPa 0,0 mm 15,5 km/h (3 Bft) W 272 ° 0 min 0,000 mm 0,0 UV-I 0 W/m² 5,6 °C 5,8 °C 25,7 km/h (4 Bft)
30.12.2017 20:19 8,3 °C 8,3 °C 83 % 1011,6 hPa 0,0 mm 11,9 km/h (2 Bft) W 263 ° 0 min 0,000 mm 0,0 UV-I 0 W/m² 5,6 °C 6,3 °C 17,7 km/h (3 Bft)
30.12.2017 20:20 8,3 °C 8,4 °C 82 % 1011,6 hPa 0,0 mm 15,1 km/h (3 Bft) W-SW 258 ° 0 min 0,000 mm 0,0 UV-I 0 W/m² 5,4 °C 5,8 °C 20,9 km/h (4 Bft)
30.12.2017 20:21 8,4 °C 8,4 °C 82 % 1011,6 hPa 0,0 mm 11,0 km/h (2 Bft) W 260 ° 0 min 0,000 mm 0,0 UV-I 0 W/m² 5,5 °C 6,5 °C 16,1 km/h (3 Bft)
30.12.2017 20:22 8,3 °C 8,4 °C 82 % 1011,6 hPa 0,0 mm 17,4 km/h (3 Bft) W-SW 256 ° 0 min 0,000 mm 0,0 UV-I 0 W/m² 5,4 °C 5,5 °C 30,6 km/h (5 Bft)
30.12.2017 20:23 8,4 °C 8,4 °C 82 % 1011,6 hPa 0,0 mm 15,7 km/h (3 Bft) W-SW 255 ° 0 min 0,000 mm 0,0 UV-I 0 W/m² 5,5 °C 5,9 °C 20,9 km/h (4 Bft)
30.12.2017 20:24 8,4 °C 8,4 °C 84 % 1011,7 hPa 0,0 mm 13,9 km/h (3 Bft) W 263 ° 0 min 0,000 mm 0,0 UV-I 0 W/m² 5,9 °C 6,1 °C 24,1 km/h (4 Bft)
30.12.2017 20:25 8,4 °C 8,4 °C 84 % 1011,8 hPa 0,0 mm 14,1 km/h (3 Bft) W 262 ° 0 min 0,000 mm 0,0 UV-I 0 W/m² 5,9 °C 6,1 °C 24,1 km/h (4 Bft)
30.12.2017 20:26 8,4 °C 8,4 °C 83 % 1011,8 hPa 0,0 mm 11,8 km/h (2 Bft) W-SW 254 ° 0 min 0,000 mm 0,0 UV-I 0 W/m² 5,7 °C 6,4 °C 16,1 km/h (3 Bft)
30.12.2017 20:27 8,4 °C 8,4 °C 83 % 1011,8 hPa 0,0 mm 18,4 km/h (3 Bft) W-SW 257 ° 0 min 0,000 mm 0,0 UV-I 0 W/m² 5,7 °C 5,5 °C 25,7 km/h (4 Bft)
30.12.2017 20:28 8,3 °C 8,4 °C 83 % 1011,8 hPa 0,0 mm 9,3 km/h (2 Bft) W 267 ° 0 min 0,000 mm 0,0 UV-I 0 W/m² 5,6 °C 6,7 °C 12,9 km/h (3 Bft)
30.12.2017 20:29 8,3 °C 8,3 °C 83 % 1011,8 hPa 0,0 mm 14,1 km/h (3 Bft) W 266 ° 0 min 0,000 mm 0,0 UV-I 0 W/m² 5,6 °C 5,9 °C 17,7 km/h (3 Bft)
30.12.2017 20:30 8,3 °C 8,3 °C 83 % 1011,9 hPa 0,0 mm 13,2 km/h (3 Bft) W 280 ° 0 min 0,000 mm 0,0 UV-I 0 W/m² 5,6 °C 6,1 °C 19,3 km/h (3 Bft)
30.12.2017 20:31 8,2 °C 8,3 °C 84 % 1011,9 hPa 0,0 mm 11,2 km/h (2 Bft) W-SW 255 ° 0 min 0,000 mm 0,0 UV-I 0 W/m² 5,7 °C 6,3 °C 14,5 km/h (3 Bft)
30.12.2017 20:32 8,2 °C 8,3 °C 84 % 1011,9 hPa 0,0 mm 12,2 km/h (2 Bft) W-SW 244 ° 0 min 0,000 mm 0,0 UV-I 0 W/m² 5,7 °C 6,1 °C 20,9 km/h (4 Bft)
30.12.2017 20:33 8,2 °C 8,2 °C 85 % 1011,9 hPa 0,0 mm 8,4 km/h (2 Bft) W-SW 258 ° 0 min 0,000 mm 0,0 UV-I 0 W/m² 5,8 °C 6,8 °C 12,9 km/h (3 Bft)
30.12.2017 20:34 8,2 °C 8,2 °C 85 % 1012,0 hPa 0,2 mm 11,5 km/h (2 Bft) W-SW 244 ° 0 min 0,000 mm 0,0 UV-I 0 W/m² 5,8 °C 6,2 °C 17,7 km/h (3 Bft)
30.12.2017 20:35 8,1 °C 8,2 °C 85 % 1011,9 hPa 0,0 mm 10,6 km/h (2 Bft) W 264 ° 0 min 0,000 mm 0,0 UV-I 0 W/m² 5,7 °C 6,3 °C 17,7 km/h (3 Bft)
30.12.2017 20:36 8,1 °C 8,1 °C 86 % 1011,9 hPa 0,0 mm 11,7 km/h (2 Bft) W 267 ° 0 min 0,000 mm 0,0 UV-I 0 W/m² 5,9 °C 6,1 °C 16,1 km/h (3 Bft)
30.12.2017 20:37 8,0 °C 8,1 °C 86 % 1011,9 hPa 0,0 mm 9,9 km/h (2 Bft) W-SW 256 ° 0 min 0,000 mm 0,0 UV-I 0 W/m² 5,8 °C 6,3 °C 19,3 km/h (3 Bft)
30.12.2017 20:38 7,9 °C 8,0 °C 86 % 1011,9 hPa 0,2 mm 11,3 km/h (2 Bft) W 263 ° 0 min 0,000 mm 0,0 UV-I 0 W/m² 5,7 °C 5,9 °C 14,5 km/h (3 Bft)
30.12.2017 20:39 7,9 °C 7,9 °C 86 % 1011,9 hPa 0,0 mm 12,9 km/h (3 Bft) W 275 ° 0 min 0,000 mm 0,0 UV-I 0 W/m² 5,7 °C 5,6 °C 17,7 km/h (3 Bft)
30.12.2017 20:40 7,8 °C 7,9 °C 87 % 1011,9 hPa 0,0 mm 9,0 km/h (2 Bft) W-SW 258 ° 0 min 0,000 mm 0,0 UV-I 0 W/m² 5,8 °C 6,2 °C 12,9 km/h (3 Bft)
30.12.2017 20:41 7,8 °C 7,8 °C 87 % 1011,9 hPa 0,0 mm 9,0 km/h (2 Bft) W-SW 254 ° 0 min 0,000 mm 0,0 UV-I 0 W/m² 5,8 °C 6,2 °C 16,1 km/h (3 Bft)
30.12.2017 20:42 7,8 °C 7,8 °C 87 % 1011,9 hPa 0,0 mm 10,9 km/h (2 Bft) W 266 ° 0 min 0,000 mm 0,0 UV-I 0 W/m² 5,8 °C 5,8 °C 17,7 km/h (3 Bft)
30.12.2017 20:43 7,7 °C 7,8 °C 87 % 1011,9 hPa 0,2 mm 9,0 km/h (2 Bft) W-SW 257 ° 0 min 0,000 mm 0,0 UV-I 0 W/m² 5,7 °C 6,1 °C 16,1 km/h (3 Bft)
30.12.2017 20:44 7,7 °C 7,7 °C 87 % 1011,9 hPa 0,0 mm 7,6 km/h (2 Bft) SW 215 ° 0 min 0,000 mm 0,0 UV-I 0 W/m² 5,7 °C 6,4 °C 14,5 km/h (3 Bft)
30.12.2017 20:45 7,6 °C 7,7 °C 88 % 1011,9 hPa 0,0 mm 8,6 km/h (2 Bft) W 281 ° 0 min 0,000 mm 0,0 UV-I 0 W/m² 5,7 °C 6,1 °C 14,5 km/h (3 Bft)
30.12.2017 20:46 7,6 °C 7,6 °C 88 % 1011,9 hPa 0,0 mm 11,1 km/h (2 Bft) W 281 ° 0 min 0,000 mm 0,0 UV-I 0 W/m² 5,7 °C 5,6 °C 16,1 km/h (3 Bft)
30.12.2017 20:47 7,6 °C 7,6 °C 88 % 1012,0 hPa 0,0 mm 9,0 km/h (2 Bft) SW 234 ° 0 min 0,000 mm 0,0 UV-I 0 W/m² 5,7 °C 6,0 °C 12,9 km/h (3 Bft)
30.12.2017 20:48 7,5 °C 7,6 °C 89 % 1012,0 hPa 0,0 mm 5,8 km/h (2 Bft) SW 232 ° 0 min 0,000 mm 0,0 UV-I 0 W/m² 5,8 °C 6,7 °C 8,0 km/h (2 Bft)
30.12.2017 20:49 7,5 °C 7,5 °C 89 % 1011,9 hPa 0,0 mm 5,3 km/h (1 Bft) W-SW 245 ° 0 min 0,000 mm 0,0 UV-I 0 W/m² 5,8 °C 6,8 °C 6,4 km/h (2 Bft)
30.12.2017 20:50 7,4 °C 7,5 °C 89 % 1011,9 hPa 0,0 mm 4,6 km/h (1 Bft) W 261 ° 0 min 0,000 mm 0,0 UV-I 0 W/m² 5,7 °C 7,0 °C 6,4 km/h (2 Bft)
30.12.2017 20:51 7,4 °C 7,4 °C 89 % 1011,9 hPa 0,0 mm 7,4 km/h (2 Bft) W-SW 245 ° 0 min 0,000 mm 0,0 UV-I 0 W/m² 5,7 °C 6,1 °C 11,3 km/h (2 Bft)
30.12.2017 20:52 7,3 °C 7,4 °C 89 % 1011,9 hPa 0,0 mm 7,8 km/h (2 Bft) W-SW 250 ° 0 min 0,000 mm 0,0 UV-I 0 W/m² 5,6 °C 5,9 °C 12,9 km/h (3 Bft)
30.12.2017 20:53 7,3 °C 7,3 °C 89 % 1011,9 hPa 0,0 mm 9,0 km/h (2 Bft) SW 223 ° 0 min 0,000 mm 0,0 UV-I 0 W/m² 5,6 °C 5,6 °C 14,5 km/h (3 Bft)
30.12.2017 20:54 7,3 °C 7,3 °C 89 % 1012,0 hPa 0,0 mm 8,2 km/h (2 Bft) W 271 ° 0 min 0,000 mm 0,0 UV-I 0 W/m² 5,6 °C 5,8 °C 11,3 km/h (2 Bft)
30.12.2017 20:55 7,3 °C 7,3 °C 89 % 1012,0 hPa 0,0 mm 7,6 km/h (2 Bft) W 261 ° 0 min 0,000 mm 0,0 UV-I 0 W/m² 5,6 °C 5,9 °C 12,9 km/h (3 Bft)
30.12.2017 20:56 7,2 °C 7,3 °C 90 % 1011,9 hPa 0,0 mm 9,3 km/h (2 Bft) W-SW 254 ° 0 min 0,000 mm 0,0 UV-I 0 W/m² 5,7 °C 5,4 °C 12,9 km/h (3 Bft)
30.12.2017 20:57 7,2 °C 7,2 °C 90 % 1011,9 hPa 0,0 mm 8,4 km/h (2 Bft) W 259 ° 0 min 0,000 mm 0,0 UV-I 0 W/m² 5,7 °C 5,6 °C 12,9 km/h (3 Bft)
30.12.2017 20:58 7,2 °C 7,2 °C 90 % 1011,9 hPa 0,0 mm 5,0 km/h (1 Bft) W-SW 243 ° 0 min 0,000 mm 0,0 UV-I 0 W/m² 5,7 °C 6,6 °C 12,9 km/h (3 Bft)
30.12.2017 20:59 7,2 °C 7,2 °C 90 % 1012,0 hPa 0,0 mm 7,7 km/h (2 Bft) W-SW 257 ° 0 min 0,000 mm 0,0 UV-I 0 W/m² 5,7 °C 5,8 °C 16,1 km/h (3 Bft)
30.12.2017 21:00 7,2 °C 7,2 °C 90 % 1012,0 hPa 0,0 mm 7,0 km/h (2 Bft) SW 231 ° 0 min 0,000 mm 0,0 UV-I 0 W/m² 5,7 °C 6,0 °C 14,5 km/h (3 Bft)
30.12.2017 21:01 7,1 °C 7,2 °C 90 % 1012,0 hPa 0,0 mm 10,1 km/h (2 Bft) W-NW 284 ° 0 min 0,025 mm 0,0 UV-I 0 W/m² 5,6 °C 5,1 °C 14,5 km/h (3 Bft)
30.12.2017 21:02 7,2 °C 7,2 °C 90 % 1012,0 hPa 0,0 mm 8,5 km/h (2 Bft) W 265 ° 0 min 0,000 mm 0,0 UV-I 0 W/m² 5,7 °C 5,6 °C 12,9 km/h (3 Bft)
30.12.2017 21:03 7,1 °C 7,2 °C 90 % 1012,1 hPa 0,0 mm 14,1 km/h (3 Bft) W-SW 251 ° 0 min 0,000 mm 0,0 UV-I 0 W/m² 5,6 °C 4,5 °C 19,3 km/h (3 Bft)
30.12.2017 21:04 7,1 °C 7,1 °C 90 % 1012,1 hPa 0,0 mm 7,4 km/h (2 Bft) W-SW 249 ° 0 min 0,000 mm 0,0 UV-I 0 W/m² 5,6 °C 5,7 °C 14,5 km/h (3 Bft)
30.12.2017 21:05 7,1 °C 7,1 °C 90 % 1012,2 hPa 0,0 mm 9,9 km/h (2 Bft) SW 234 ° 0 min 0,000 mm 0,0 UV-I 0 W/m² 5,6 °C 5,2 °C 14,5 km/h (3 Bft)
30.12.2017 21:06 7,0 °C 7,1 °C 90 % 1012,1 hPa 0,2 mm 9,1 km/h (2 Bft) W 259 ° 0 min 0,000 mm 0,0 UV-I 0 W/m² 5,5 °C 5,2 °C 14,5 km/h (3 Bft)
30.12.2017 21:07 7,0 °C 7,1 °C 90 % 1012,1 hPa 0,0 mm 10,3 km/h (2 Bft) W 260 ° 0 min 0,000 mm 0,0 UV-I 0 W/m² 5,5 °C 5,0 °C 17,7 km/h (3 Bft)
30.12.2017 21:08 7,0 °C 7,0 °C 90 % 1012,2 hPa 0,0 mm 10,1 km/h (2 Bft) W 281 ° 0 min 0,000 mm 0,0 UV-I 0 W/m² 5,5 °C 5,0 °C 20,9 km/h (4 Bft)
30.12.2017 21:09 7,0 °C 7,0 °C 90 % 1012,2 hPa 0,0 mm 13,1 km/h (3 Bft) W 273 ° 0 min 0,000 mm 0,0 UV-I 0 W/m² 5,5 °C 4,5 °C 20,9 km/h (4 Bft)
30.12.2017 21:10 7,0 °C 7,0 °C 90 % 1012,2 hPa 0,0 mm 7,7 km/h (2 Bft) S-SW 205 ° 0 min 0,000 mm 0,0 UV-I 0 W/m² 5,5 °C 5,6 °C 14,5 km/h (3 Bft)
30.12.2017 21:11 7,0 °C 7,0 °C 90 % 1012,2 hPa 0,0 mm 9,6 km/h (2 Bft) W-SW 243 ° 0 min 0,000 mm 0,0 UV-I 0 W/m² 5,5 °C 5,1 °C 20,9 km/h (4 Bft)
30.12.2017 21:12 7,0 °C 7,0 °C 91 % 1012,2 hPa 0,0 mm 12,2 km/h (2 Bft) SW 231 ° 0 min 0,000 mm 0,0 UV-I 0 W/m² 5,6 °C 4,6 °C 22,5 km/h (4 Bft)
30.12.2017 21:13 7,0 °C 7,0 °C 91 % 1012,2 hPa 0,0 mm 10,3 km/h (2 Bft) W-SW 237 ° 0 min 0,000 mm 0,0 UV-I 0 W/m² 5,6 °C 5,0 °C 17,7 km/h (3 Bft)
30.12.2017 21:14 6,9 °C 7,0 °C 91 % 1012,1 hPa 0,0 mm 7,4 km/h (2 Bft) W-SW 248 ° 0 min 0,000 mm 0,0 UV-I 0 W/m² 5,5 °C 5,5 °C 11,3 km/h (2 Bft)
30.12.2017 21:15 6,9 °C 6,9 °C 91 % 1012,2 hPa 0,2 mm 8,7 km/h (2 Bft) W 263 ° 0 min 0,000 mm 0,0 UV-I 0 W/m² 5,5 °C 5,2 °C 14,5 km/h (3 Bft)
30.12.2017 21:16 6,9 °C 6,9 °C 91 % 1012,2 hPa 0,0 mm 8,2 km/h (2 Bft) W-SW 248 ° 0 min 0,000 mm 0,0 UV-I 0 W/m² 5,5 °C 5,3 °C 14,5 km/h (3 Bft)
30.12.2017 21:17 6,9 °C 6,9 °C 91 % 1012,2 hPa 0,0 mm 5,6 km/h (1 Bft) SW 229 ° 0 min 0,000 mm 0,0 UV-I 0 W/m² 5,5 °C 6,0 °C 8,0 km/h (2 Bft)
30.12.2017 21:18 6,9 °C 6,9 °C 91 % 1012,1 hPa 0,0 mm 4,9 km/h (1 Bft) W-SW 247 ° 0 min 0,000 mm 0,0 UV-I 0 W/m² 5,5 °C 6,3 °C 11,3 km/h (2 Bft)
30.12.2017 21:19 6,9 °C 6,9 °C 91 % 1012,2 hPa 0,0 mm 9,9 km/h (2 Bft) S-SW 211 ° 0 min 0,000 mm 0,0 UV-I 0 W/m² 5,5 °C 4,9 °C 14,5 km/h (3 Bft)
30.12.2017 21:20 6,9 °C 6,9 °C 91 % 1012,2 hPa 0,0 mm 3,7 km/h (1 Bft) W-NW 290 ° 0 min 0,000 mm 0,0 UV-I 0 W/m² 5,5 °C 6,9 °C 6,4 km/h (2 Bft)
30.12.2017 21:21 6,9 °C 6,9 °C 91 % 1012,1 hPa 0,0 mm 7,6 km/h (2 Bft) W 270 ° 0 min 0,000 mm 0,0 UV-I 0 W/m² 5,5 °C 5,5 °C 16,1 km/h (3 Bft)
30.12.2017 21:22 6,9 °C 6,9 °C 91 % 1012,1 hPa 0,0 mm 8,1 km/h (2 Bft) W 262 ° 0 min 0,000 mm 0,0 UV-I 0 W/m² 5,5 °C 5,3 °C 11,3 km/h (2 Bft)
30.12.2017 21:23 6,9 °C 6,9 °C 91 % 1012,1 hPa 0,0 mm 5,7 km/h (1 Bft) W-SW 239 ° 0 min 0,000 mm 0,0 UV-I 0 W/m² 5,5 °C 6,0 °C 11,3 km/h (2 Bft)
30.12.2017 21:24 6,8 °C 6,9 °C 91 % 1012,1 hPa 0,0 mm 5,7 km/h (1 Bft) W-SW 252 ° 0 min 0,000 mm 0,0 UV-I 0 W/m² 5,4 °C 5,9 °C 8,0 km/h (2 Bft)
30.12.2017 21:25 6,9 °C 6,9 °C 91 % 1012,2 hPa 0,0 mm 4,4 km/h (1 Bft) W 280 ° 0 min 0,000 mm 0,0 UV-I 0 W/m² 5,5 °C 6,9 °C 8,0 km/h (2 Bft)
30.12.2017 21:26 6,9 °C 6,9 °C 91 % 1012,3 hPa 0,2 mm 6,3 km/h (2 Bft) W 262 ° 0 min 0,000 mm 0,0 UV-I 0 W/m² 5,5 °C 5,8 °C 9,7 km/h (2 Bft)
30.12.2017 21:27 6,9 °C 6,9 °C 91 % 1012,3 hPa 0,0 mm 8,4 km/h (2 Bft) W 269 ° 0 min 0,000 mm 0,0 UV-I 0 W/m² 5,5 °C 5,3 °C 12,9 km/h (3 Bft)
30.12.2017 21:28 6,9 °C 6,9 °C 91 % 1012,3 hPa 0,0 mm 9,3 km/h (2 Bft) SW 228 ° 0 min 0,000 mm 0,0 UV-I 0 W/m² 5,5 °C 5,1 °C 19,3 km/h (3 Bft)
30.12.2017 21:29 6,9 °C 6,9 °C 91 % 1012,3 hPa 0,0 mm 9,9 km/h (2 Bft) W-SW 244 ° 0 min 0,000 mm 0,0 UV-I 0 W/m² 5,5 °C 4,9 °C 14,5 km/h (3 Bft)
30.12.2017 21:30 6,8 °C 6,9 °C 91 % 1012,2 hPa 0,0 mm 5,3 km/h (1 Bft) W-SW 238 ° 0 min 0,000 mm 0,0 UV-I 0 W/m² 5,4 °C 6,0 °C 11,3 km/h (2 Bft)
30.12.2017 21:31 6,8 °C 6,9 °C 91 % 1012,3 hPa 0,0 mm 6,2 km/h (2 Bft) W-SW 252 ° 0 min 0,000 mm 0,0 UV-I 0 W/m² 5,4 °C 5,7 °C 11,3 km/h (2 Bft)
30.12.2017 21:32 6,8 °C 6,9 °C 91 % 1012,2 hPa 0,2 mm 5,4 km/h (1 Bft) SW 234 ° 0 min 0,000 mm 0,0 UV-I 0 W/m² 5,4 °C 6,0 °C 9,7 km/h (2 Bft)
30.12.2017 21:33 6,9 °C 6,9 °C 91 % 1012,3 hPa 0,0 mm 6,2 km/h (2 Bft) W 263 ° 0 min 0,000 mm 0,0 UV-I 0 W/m² 5,5 °C 5,8 °C 12,9 km/h (3 Bft)
30.12.2017 21:34 6,9 °C 6,9 °C 91 % 1012,3 hPa 0,0 mm 5,6 km/h (1 Bft) W-SW 246 ° 0 min 0,000 mm 0,0 UV-I 0 W/m² 5,5 °C 6,0 °C 9,7 km/h (2 Bft)
30.12.2017 21:35 6,8 °C 6,9 °C 91 % 1012,3 hPa 0,2 mm 6,6 km/h (2 Bft) W 262 ° 0 min 0,000 mm 0,0 UV-I 0 W/m² 5,4 °C 5,6 °C 12,9 km/h (3 Bft)
30.12.2017 21:36 6,8 °C 6,8 °C 91 % 1012,3 hPa 0,0 mm 4,2 km/h (1 Bft) W-SW 252 ° 0 min 0,000 mm 0,0 UV-I 0 W/m² 5,4 °C 6,8 °C 6,4 km/h (2 Bft)
30.12.2017 21:37 6,8 °C 6,8 °C 91 % 1012,4 hPa 0,0 mm 5,5 km/h (1 Bft) W-SW 249 ° 0 min 0,000 mm 0,0 UV-I 0 W/m² 5,4 °C 6,0 °C 9,7 km/h (2 Bft)
30.12.2017 21:38 6,8 °C 6,8 °C 92 % 1012,3 hPa 0,0 mm 3,2 km/h (1 Bft) W 268 ° 0 min 0,000 mm 0,0 UV-I 0 W/m² 5,6 °C 6,8 °C 6,4 km/h (2 Bft)
30.12.2017 21:39 6,8 °C 6,8 °C 92 % 1012,3 hPa 0,0 mm 7,5 km/h (2 Bft) SW 215 ° 0 min 0,000 mm 0,0 UV-I 0 W/m² 5,6 °C 5,4 °C 12,9 km/h (3 Bft)
30.12.2017 21:40 6,8 °C 6,8 °C 92 % 1012,2 hPa 0,0 mm 3,1 km/h (1 Bft) W 268 ° 0 min 0,000 mm 0,0 UV-I 0 W/m² 5,6 °C 6,8 °C 6,4 km/h (2 Bft)
30.12.2017 21:41 6,8 °C 6,8 °C 92 % 1012,3 hPa 0,0 mm 5,0 km/h (1 Bft) W-SW 250 ° 0 min 0,000 mm 0,0 UV-I 0 W/m² 5,6 °C 6,1 °C 6,4 km/h (2 Bft)
30.12.2017 21:42 6,8 °C 6,8 °C 92 % 1012,3 hPa 0,0 mm 8,0 km/h (2 Bft) W 261 ° 0 min 0,000 mm 0,0 UV-I 0 W/m² 5,6 °C 5,2 °C 11,3 km/h (2 Bft)
30.12.2017 21:43 6,8 °C 6,8 °C 92 % 1012,3 hPa 0,2 mm 5,0 km/h (1 Bft) W-SW 251 ° 0 min 0,000 mm 0,0 UV-I 0 W/m² 5,6 °C 6,1 °C 6,4 km/h (2 Bft)
30.12.2017 21:44 6,8 °C 6,8 °C 92 % 1012,3 hPa 0,0 mm 4,3 km/h (1 Bft) W-SW 244 ° 0 min 0,000 mm 0,0 UV-I 0 W/m² 5,6 °C 6,8 °C 6,4 km/h (2 Bft)
30.12.2017 21:45 6,8 °C 6,8 °C 92 % 1012,3 hPa 0,0 mm 3,6 km/h (1 Bft) W-SW 248 ° 0 min 0,000 mm 0,0 UV-I 0 W/m² 5,6 °C 6,8 °C 8,0 km/h (2 Bft)
30.12.2017 21:46 6,8 °C 6,8 °C 92 % 1012,2 hPa 0,0 mm 4,5 km/h (1 Bft) W 262 ° 0 min 0,000 mm 0,0 UV-I 0 W/m² 5,6 °C 6,8 °C 6,4 km/h (2 Bft)
30.12.2017 21:47 6,8 °C 6,8 °C 92 % 1012,3 hPa 0,0 mm 4,8 km/h (1 Bft) W 272 ° 0 min 0,000 mm 0,0 UV-I 0 W/m² 5,6 °C 6,2 °C 9,7 km/h (2 Bft)
30.12.2017 21:48 6,8 °C 6,8 °C 92 % 1012,2 hPa 0,0 mm 3,1 km/h (1 Bft) W-SW 244 ° 0 min 0,000 mm 0,0 UV-I 0 W/m² 5,6 °C 6,8 °C 4,8 km/h (1 Bft)
30.12.2017 21:49 6,8 °C 6,8 °C 92 % 1012,2 hPa 0,0 mm 1,0 km/h (0 Bft) W-SW 244 ° 0 min 0,000 mm 0,0 UV-I 0 W/m² 5,6 °C 6,8 °C 3,2 km/h (1 Bft)
30.12.2017 21:50 6,8 °C 6,8 °C 92 % 1012,2 hPa 0,0 mm 4,0 km/h (1 Bft) W-SW 251 ° 0 min 0,000 mm 0,0 UV-I 0 W/m² 5,6 °C 6,8 °C 6,4 km/h (2 Bft)
30.12.2017 21:51 6,8 °C 6,8 °C 92 % 1012,2 hPa 0,0 mm 2,1 km/h (1 Bft) W-SW 242 ° 0 min 0,000 mm 0,0 UV-I 0 W/m² 5,6 °C 6,8 °C 3,2 km/h (1 Bft)
30.12.2017 21:52 6,8 °C 6,8 °C 92 % 1012,2 hPa 0,2 mm 5,8 km/h (2 Bft) S-SW 206 ° 0 min 0,000 mm 0,0 UV-I 0 W/m² 5,6 °C 5,9 °C 9,7 km/h (2 Bft)
30.12.2017 21:53 6,9 °C 6,9 °C 92 % 1012,2 hPa 0,0 mm 6,0 km/h (2 Bft) W-SW 255 ° 0 min 0,000 mm 0,0 UV-I 0 W/m² 5,7 °C 5,9 °C 12,9 km/h (3 Bft)
30.12.2017 21:54 6,9 °C 6,9 °C 92 % 1012,2 hPa 0,0 mm 5,2 km/h (1 Bft) W-SW 254 ° 0 min 0,000 mm 0,0 UV-I 0 W/m² 5,7 °C 6,2 °C 6,4 km/h (2 Bft)
30.12.2017 21:55 6,9 °C 6,9 °C 92 % 1012,2 hPa 0,0 mm 7,5 km/h (2 Bft) SW 235 ° 0 min 0,000 mm 0,0 UV-I 0 W/m² 5,7 °C 5,5 °C 9,7 km/h (2 Bft)
30.12.2017 21:56 6,8 °C 6,9 °C 92 % 1012,2 hPa 0,0 mm 4,0 km/h (1 Bft) W-SW 241 ° 0 min 0,000 mm 0,0 UV-I 0 W/m² 5,6 °C 6,8 °C 4,8 km/h (1 Bft)
30.12.2017 21:57 6,8 °C 6,9 °C 92 % 1012,2 hPa 0,0 mm 4,2 km/h (1 Bft) W 261 ° 0 min 0,000 mm 0,0 UV-I 0 W/m² 5,6 °C 6,8 °C 6,4 km/h (2 Bft)
30.12.2017 21:58 6,9 °C 6,9 °C 92 % 1012,1 hPa 0,0 mm 3,4 km/h (1 Bft) S-SW 208 ° 0 min 0,000 mm 0,0 UV-I 0 W/m² 5,7 °C 6,9 °C 6,4 km/h (2 Bft)
30.12.2017 21:59 6,9 °C 6,9 °C 92 % 1012,3 hPa 0,0 mm 3,1 km/h (1 Bft) W 265 ° 0 min 0,000 mm 0,0 UV-I 0 W/m² 5,7 °C 6,9 °C 6,4 km/h (2 Bft)
30.12.2017 22:00 6,9 °C 6,9 °C 92 % 1012,3 hPa 0,0 mm 4,3 km/h (1 Bft) W 278 ° 0 min 0,000 mm 0,0 UV-I 0 W/m² 5,7 °C 6,9 °C 6,4 km/h (2 Bft)
30.12.2017 22:01 6,9 °C 6,9 °C 92 % 1012,3 hPa 0,0 mm 4,4 km/h (1 Bft) W 261 ° 0 min 0,000 mm 0,0 UV-I 0 W/m² 5,7 °C 6,9 °C 6,4 km/h (2 Bft)
30.12.2017 22:02 6,9 °C 6,9 °C 92 % 1012,3 hPa 0,0 mm 4,6 km/h (1 Bft) W-NW 283 ° 0 min 0,000 mm 0,0 UV-I 0 W/m² 5,7 °C 6,4 °C 6,4 km/h (2 Bft)
30.12.2017 22:03 6,9 °C 6,9 °C 92 % 1012,2 hPa 0,0 mm 6,7 km/h (2 Bft) W-SW 249 ° 0 min 0,000 mm 0,0 UV-I 0 W/m² 5,7 °C 5,7 °C 11,3 km/h (2 Bft)
30.12.2017 22:04 6,9 °C 6,9 °C 92 % 1012,2 hPa 0,2 mm 4,8 km/h (1 Bft) W-SW 248 ° 0 min 0,000 mm 0,0 UV-I 0 W/m² 5,7 °C 6,3 °C 8,0 km/h (2 Bft)
30.12.2017 22:05 6,9 °C 6,9 °C 92 % 1012,1 hPa 0,0 mm 4,6 km/h (1 Bft) W-SW 242 ° 0 min 0,000 mm 0,0 UV-I 0 W/m² 5,7 °C 6,4 °C 8,0 km/h (2 Bft)
30.12.2017 22:06 6,9 °C 6,9 °C 92 % 1012,1 hPa 0,0 mm 3,1 km/h (1 Bft) SW 225 ° 0 min 0,000 mm 0,0 UV-I 0 W/m² 5,7 °C 6,9 °C 4,8 km/h (1 Bft)
30.12.2017 22:07 6,9 °C 6,9 °C 92 % 1012,1 hPa 0,0 mm 4,6 km/h (1 Bft) W 260 ° 0 min 0,000 mm 0,0 UV-I 0 W/m² 5,7 °C 6,4 °C 6,4 km/h (2 Bft)
30.12.2017 22:08 6,9 °C 6,9 °C 92 % 1012,1 hPa 0,0 mm 3,4 km/h (1 Bft) SW 227 ° 0 min 0,000 mm 0,0 UV-I 0 W/m² 5,7 °C 6,9 °C 6,4 km/h (2 Bft)
30.12.2017 22:09 6,9 °C 6,9 °C 92 % 1012,0 hPa 0,0 mm 3,0 km/h (1 Bft) W-NW 285 ° 0 min 0,000 mm 0,0 UV-I 0 W/m² 5,7 °C 6,9 °C 9,7 km/h (2 Bft)
30.12.2017 22:10 6,9 °C 6,9 °C 92 % 1012,1 hPa 0,0 mm 9,6 km/h (2 Bft) W 262 ° 0 min 0,000 mm 0,0 UV-I 0 W/m² 5,7 °C 5,0 °C 12,9 km/h (3 Bft)
30.12.2017 22:11 6,9 °C 6,9 °C 92 % 1012,1 hPa 0,0 mm 8,9 km/h (2 Bft) W-SW 257 ° 0 min 0,000 mm 0,0 UV-I 0 W/m² 5,7 °C 5,2 °C 14,5 km/h (3 Bft)
30.12.2017 22:12 6,9 °C 6,9 °C 92 % 1012,1 hPa 0,0 mm 3,4 km/h (1 Bft) W-SW 257 ° 0 min 0,000 mm 0,0 UV-I 0 W/m² 5,7 °C 6,9 °C 6,4 km/h (2 Bft)
30.12.2017 22:13 6,9 °C 6,9 °C 92 % 1012,1 hPa 0,0 mm 5,0 km/h (1 Bft) W 261 ° 0 min 0,000 mm 0,0 UV-I 0 W/m² 5,7 °C 6,2 °C 11,3 km/h (2 Bft)
30.12.2017 22:14 6,9 °C 6,9 °C 92 % 1012,1 hPa 0,0 mm 5,1 km/h (1 Bft) W-SW 238 ° 0 min 0,000 mm 0,0 UV-I 0 W/m² 5,7 °C 6,2 °C 9,7 km/h (2 Bft)
30.12.2017 22:15 6,9 °C 6,9 °C 92 % 1012,1 hPa 0,0 mm 4,7 km/h (1 Bft) W-SW 249 ° 0 min 0,000 mm 0,0 UV-I 0 W/m² 5,7 °C 6,3 °C 9,7 km/h (2 Bft)
30.12.2017 22:16 6,9 °C 6,9 °C 92 % 1012,1 hPa 0,2 mm 4,8 km/h (1 Bft) W-SW 252 ° 0 min 0,000 mm 0,0 UV-I 0 W/m² 5,7 °C 6,3 °C 6,4 km/h (2 Bft)
30.12.2017 22:17 6,9 °C 6,9 °C 92 % 1012,1 hPa 0,0 mm 5,9 km/h (2 Bft) W 261 ° 0 min 0,000 mm 0,0 UV-I 0 W/m² 5,7 °C 5,9 °C 9,7 km/h (2 Bft)
30.12.2017 22:18 6,9 °C 6,9 °C 92 % 1012,1 hPa 0,0 mm 5,2 km/h (1 Bft) W 261 ° 0 min 0,000 mm 0,0 UV-I 0 W/m² 5,7 °C 6,2 °C 11,3 km/h (2 Bft)
30.12.2017 22:19 6,9 °C 6,9 °C 92 % 1012,1 hPa 0,0 mm 7,0 km/h (2 Bft) W 270 ° 0 min 0,000 mm 0,0 UV-I 0 W/m² 5,7 °C 5,6 °C 11,3 km/h (2 Bft)
30.12.2017 22:20 6,9 °C 6,9 °C 92 % 1012,0 hPa 0,0 mm 4,7 km/h (1 Bft) W 259 ° 0 min 0,000 mm 0,0 UV-I 0 W/m² 5,7 °C 6,3 °C 6,4 km/h (2 Bft)
30.12.2017 22:21 6,9 °C 6,9 °C 92 % 1012,1 hPa 0,0 mm 3,4 km/h (1 Bft) W-SW 254 ° 0 min 0,000 mm 0,0 UV-I 0 W/m² 5,7 °C 6,9 °C 4,8 km/h (1 Bft)
30.12.2017 22:22 6,9 °C 6,9 °C 92 % 1012,1 hPa 0,2 mm 3,7 km/h (1 Bft) W-SW 239 ° 0 min 0,000 mm 0,0 UV-I 0 W/m² 5,7 °C 6,9 °C 8,0 km/h (2 Bft)
30.12.2017 22:23 6,9 °C 6,9 °C 92 % 1012,1 hPa 0,0 mm 4,7 km/h (1 Bft) W 269 ° 0 min 0,000 mm 0,0 UV-I 0 W/m² 5,7 °C 6,3 °C 9,7 km/h (2 Bft)
30.12.2017 22:24 6,8 °C 6,9 °C 92 % 1012,2 hPa 0,0 mm 7,1 km/h (2 Bft) W 259 ° 0 min 0,000 mm 0,0 UV-I 0 W/m² 5,6 °C 5,5 °C 12,9 km/h (3 Bft)
30.12.2017 22:25 6,9 °C 6,9 °C 92 % 1012,0 hPa 0,2 mm 3,1 km/h (1 Bft) W-SW 246 ° 0 min 0,000 mm 0,0 UV-I 0 W/m² 5,7 °C 6,9 °C 4,8 km/h (1 Bft)
30.12.2017 22:26 6,8 °C 6,9 °C 92 % 1012,1 hPa 0,0 mm 2,6 km/h (1 Bft) W-SW 246 ° 0 min 0,000 mm 0,0 UV-I 0 W/m² 5,6 °C 6,8 °C 3,2 km/h (1 Bft)
30.12.2017 22:27 6,8 °C 6,8 °C 92 % 1012,1 hPa 0,0 mm 4,1 km/h (1 Bft) SW 232 ° 0 min 0,000 mm 0,0 UV-I 0 W/m² 5,6 °C 6,8 °C 6,4 km/h (2 Bft)
30.12.2017 22:28 6,8 °C 6,8 °C 92 % 1012,2 hPa 0,0 mm 2,3 km/h (1 Bft) W-SW 239 ° 0 min 0,000 mm 0,0 UV-I 0 W/m² 5,6 °C 6,8 °C 4,8 km/h (1 Bft)
30.12.2017 22:29 6,8 °C 6,8 °C 92 % 1012,2 hPa 0,0 mm 4,3 km/h (1 Bft) SW 222 ° 0 min 0,000 mm 0,0 UV-I 0 W/m² 5,6 °C 6,8 °C 6,4 km/h (2 Bft)
30.12.2017 22:30 6,8 °C 6,8 °C 92 % 1012,2 hPa 0,0 mm 4,3 km/h (1 Bft) W-SW 253 ° 0 min 0,000 mm 0,0 UV-I 0 W/m² 5,6 °C 6,8 °C 4,8 km/h (1 Bft)
30.12.2017 22:31 6,8 °C 6,8 °C 92 % 1012,2 hPa 0,0 mm 2,4 km/h (1 Bft) S-SW 204 ° 0 min 0,000 mm 0,0 UV-I 0 W/m² 5,6 °C 6,8 °C 8,0 km/h (2 Bft)
30.12.2017 22:32 6,8 °C 6,8 °C 92 % 1012,2 hPa 0,2 mm 5,2 km/h (1 Bft) W-SW 237 ° 0 min 0,000 mm 0,0 UV-I 0 W/m² 5,6 °C 6,1 °C 9,7 km/h (2 Bft)
30.12.2017 22:33 6,8 °C 6,9 °C 92 % 1012,1 hPa 0,0 mm 6,9 km/h (2 Bft) W 267 ° 0 min 0,000 mm 0,0 UV-I 0 W/m² 5,6 °C 5,5 °C 12,9 km/h (3 Bft)
30.12.2017 22:34 6,9 °C 6,9 °C 92 % 1012,2 hPa 0,0 mm 7,2 km/h (2 Bft) SW 235 ° 0 min 0,000 mm 0,0 UV-I 0 W/m² 5,7 °C 5,6 °C 11,3 km/h (2 Bft)
30.12.2017 22:35 6,9 °C 6,9 °C 92 % 1012,2 hPa 0,0 mm 7,9 km/h (2 Bft) W-SW 243 ° 0 min 0,000 mm 0,0 UV-I 0 W/m² 5,7 °C 5,4 °C 12,9 km/h (3 Bft)
30.12.2017 22:36 6,9 °C 6,9 °C 92 % 1012,3 hPa 0,0 mm 5,0 km/h (1 Bft) W-SW 242 ° 0 min 0,000 mm 0,0 UV-I 0 W/m² 5,7 °C 6,2 °C 6,4 km/h (2 Bft)
30.12.2017 22:37 6,9 °C 6,9 °C 92 % 1012,3 hPa 0,0 mm 8,9 km/h (2 Bft) W 261 ° 0 min 0,000 mm 0,0 UV-I 0 W/m² 5,7 °C 5,2 °C 11,3 km/h (2 Bft)
30.12.2017 22:38 6,9 °C 6,9 °C 92 % 1012,2 hPa 0,0 mm 4,8 km/h (1 Bft) SW 233 ° 0 min 0,000 mm 0,0 UV-I 0 W/m² 5,7 °C 6,3 °C 6,4 km/h (2 Bft)
30.12.2017 22:39 6,9 °C 6,9 °C 92 % 1012,2 hPa 0,0 mm 7,4 km/h (2 Bft) W-SW 238 ° 0 min 0,000 mm 0,0 UV-I 0 W/m² 5,7 °C 5,5 °C 9,7 km/h (2 Bft)
30.12.2017 22:40 6,9 °C 6,9 °C 92 % 1012,2 hPa 0,0 mm 5,7 km/h (1 Bft) W 261 ° 0 min 0,000 mm 0,0 UV-I 0 W/m² 5,7 °C 6,0 °C 6,4 km/h (2 Bft)
30.12.2017 22:41 6,9 °C 6,9 °C 92 % 1012,2 hPa 0,0 mm 9,5 km/h (2 Bft) W-SW 252 ° 0 min 0,000 mm 0,0 UV-I 0 W/m² 5,7 °C 5,0 °C 16,1 km/h (3 Bft)
30.12.2017 22:42 6,9 °C 6,9 °C 92 % 1012,2 hPa 0,0 mm 5,8 km/h (2 Bft) W-SW 248 ° 0 min 0,000 mm 0,0 UV-I 0 W/m² 5,7 °C 6,0 °C 12,9 km/h (3 Bft)
30.12.2017 22:43 6,9 °C 6,9 °C 92 % 1012,2 hPa 0,0 mm 12,0 km/h (2 Bft) W-SW 240 ° 0 min 0,000 mm 0,0 UV-I 0 W/m² 5,7 °C 4,6 °C 22,5 km/h (4 Bft)
30.12.2017 22:44 6,9 °C 6,9 °C 92 % 1012,2 hPa 0,0 mm 6,6 km/h (2 Bft) W 277 ° 0 min 0,000 mm 0,0 UV-I 0 W/m² 5,7 °C 5,7 °C 11,3 km/h (2 Bft)
30.12.2017 22:45 6,9 °C 6,9 °C 92 % 1012,2 hPa 0,0 mm 7,6 km/h (2 Bft) W 275 ° 0 min 0,000 mm 0,0 UV-I 0 W/m² 5,7 °C 5,5 °C 20,9 km/h (4 Bft)
30.12.2017 22:46 6,9 °C 6,9 °C 92 % 1012,2 hPa 0,0 mm 6,9 km/h (2 Bft) W 265 ° 0 min 0,000 mm 0,0 UV-I 0 W/m² 5,7 °C 5,6 °C 12,9 km/h (3 Bft)
30.12.2017 22:47 6,9 °C 6,9 °C 92 % 1012,2 hPa 0,2 mm 10,5 km/h (2 Bft) SW 234 ° 0 min 0,000 mm 0,0 UV-I 0 W/m² 5,7 °C 4,8 °C 16,1 km/h (3 Bft)
30.12.2017 22:48 6,9 °C 6,9 °C 92 % 1012,3 hPa 0,0 mm 10,1 km/h (2 Bft) SW 224 ° 0 min 0,000 mm 0,0 UV-I 0 W/m² 5,7 °C 4,9 °C 16,1 km/h (3 Bft)
30.12.2017 22:49 6,9 °C 6,9 °C 92 % 1012,3 hPa 0,0 mm 6,2 km/h (2 Bft) W 259 ° 0 min 0,000 mm 0,0 UV-I 0 W/m² 5,7 °C 5,8 °C 12,9 km/h (3 Bft)
30.12.2017 22:50 6,9 °C 6,9 °C 92 % 1012,3 hPa 0,0 mm 9,2 km/h (2 Bft) W-SW 250 ° 0 min 0,000 mm 0,0 UV-I 0 W/m² 5,7 °C 5,1 °C 12,9 km/h (3 Bft)
30.12.2017 22:51 6,9 °C 6,9 °C 91 % 1012,2 hPa 0,0 mm 8,7 km/h (2 Bft) W-SW 248 ° 0 min 0,000 mm 0,0 UV-I 0 W/m² 5,5 °C 5,2 °C 14,5 km/h (3 Bft)
30.12.2017 22:52 6,9 °C 6,9 °C 91 % 1012,3 hPa 0,0 mm 4,6 km/h (1 Bft) W-SW 244 ° 0 min 0,000 mm 0,0 UV-I 0 W/m² 5,5 °C 6,4 °C 8,0 km/h (2 Bft)
30.12.2017 22:53 6,9 °C 6,9 °C 91 % 1012,2 hPa 0,0 mm 11,3 km/h (2 Bft) W-NW 285 ° 0 min 0,000 mm 0,0 UV-I 0 W/m² 5,5 °C 4,7 °C 17,7 km/h (3 Bft)
30.12.2017 22:54 6,9 °C 6,9 °C 91 % 1012,4 hPa 0,0 mm 13,3 km/h (3 Bft) W-SW 250 ° 0 min 0,000 mm 0,0 UV-I 0 W/m² 5,5 °C 4,3 °C 17,7 km/h (3 Bft)
30.12.2017 22:55 6,9 °C 6,9 °C 91 % 1012,3 hPa 0,0 mm 12,4 km/h (3 Bft) W-SW 247 ° 0 min 0,000 mm 0,0 UV-I 0 W/m² 5,5 °C 4,5 °C 17,7 km/h (3 Bft)
30.12.2017 22:56 6,9 °C 6,9 °C 91 % 1012,3 hPa 0,0 mm 9,4 km/h (2 Bft) W 265 ° 0 min 0,000 mm 0,0 UV-I 0 W/m² 5,5 °C 5,1 °C 16,1 km/h (3 Bft)
30.12.2017 22:57 6,9 °C 6,9 °C 91 % 1012,2 hPa 0,0 mm 8,0 km/h (2 Bft) SW 235 ° 0 min 0,000 mm 0,0 UV-I 0 W/m² 5,5 °C 5,4 °C 12,9 km/h (3 Bft)
30.12.2017 22:58 6,9 °C 6,9 °C 91 % 1012,3 hPa 0,0 mm 11,7 km/h (2 Bft) SW 225 ° 0 min 0,000 mm 0,0 UV-I 0 W/m² 5,5 °C 4,6 °C 17,7 km/h (3 Bft)
30.12.2017 22:59 6,9 °C 6,9 °C 91 % 1012,3 hPa 0,0 mm 14,3 km/h (3 Bft) W-NW 293 ° 0 min 0,000 mm 0,0 UV-I 0 W/m² 5,5 °C 4,2 °C 22,5 km/h (4 Bft)
30.12.2017 23:00 6,9 °C 6,9 °C 91 % 1012,3 hPa 0,0 mm 8,7 km/h (2 Bft) W-SW 246 ° 0 min 0,000 mm 0,0 UV-I 0 W/m² 5,5 °C 5,2 °C 14,5 km/h (3 Bft)
30.12.2017 23:01 6,9 °C 6,9 °C 91 % 1012,3 hPa 0,0 mm 10,4 km/h (2 Bft) W 259 ° 0 min 0,000 mm 0,0 UV-I 0 W/m² 5,5 °C 4,8 °C 17,7 km/h (3 Bft)
30.12.2017 23:02 6,9 °C 6,9 °C 91 % 1012,3 hPa 0,0 mm 10,3 km/h (2 Bft) W 261 ° 0 min 0,000 mm 0,0 UV-I 0 W/m² 5,5 °C 4,9 °C 14,5 km/h (3 Bft)
30.12.2017 23:03 6,9 °C 6,9 °C 91 % 1012,3 hPa 0,0 mm 12,5 km/h (3 Bft) W-SW 241 ° 0 min 0,000 mm 0,0 UV-I 0 W/m² 5,5 °C 4,5 °C 17,7 km/h (3 Bft)
30.12.2017 23:04 6,9 °C 6,9 °C 91 % 1012,3 hPa 0,0 mm 7,1 km/h (2 Bft) W-SW 253 ° 0 min 0,000 mm 0,0 UV-I 0 W/m² 5,5 °C 5,6 °C 11,3 km/h (2 Bft)
30.12.2017 23:05 6,9 °C 6,9 °C 91 % 1012,4 hPa 0,0 mm 9,9 km/h (2 Bft) W 264 ° 0 min 0,000 mm 0,0 UV-I 0 W/m² 5,5 °C 4,9 °C 16,1 km/h (3 Bft)
30.12.2017 23:06 6,9 °C 6,9 °C 91 % 1012,4 hPa 0,0 mm 11,5 km/h (2 Bft) W-SW 242 ° 0 min 0,000 mm 0,0 UV-I 0 W/m² 5,5 °C 4,6 °C 19,3 km/h (3 Bft)
30.12.2017 23:07 6,9 °C 6,9 °C 91 % 1012,4 hPa 0,0 mm 6,7 km/h (2 Bft) W 277 ° 0 min 0,000 mm 0,0 UV-I 0 W/m² 5,5 °C 5,7 °C 11,3 km/h (2 Bft)
30.12.2017 23:08 6,9 °C 6,9 °C 90 % 1012,4 hPa 0,0 mm 11,4 km/h (2 Bft) W 262 ° 0 min 0,000 mm 0,0 UV-I 0 W/m² 5,4 °C 4,7 °C 16,1 km/h (3 Bft)
30.12.2017 23:09 6,9 °C 6,9 °C 91 % 1012,4 hPa 0,0 mm 12,0 km/h (2 Bft) W-SW 250 ° 0 min 0,000 mm 0,0 UV-I 0 W/m² 5,5 °C 4,6 °C 17,7 km/h (3 Bft)
30.12.2017 23:10 6,9 °C 6,9 °C 91 % 1012,4 hPa 0,0 mm 13,0 km/h (3 Bft) W 259 ° 0 min 0,000 mm 0,0 UV-I 0 W/m² 5,5 °C 4,4 °C 22,5 km/h (4 Bft)
30.12.2017 23:11 6,9 °C 6,9 °C 90 % 1012,4 hPa 0,0 mm 16,2 km/h (3 Bft) W-SW 257 ° 0 min 0,000 mm 0,0 UV-I 0 W/m² 5,4 °C 3,9 °C 20,9 km/h (4 Bft)
30.12.2017 23:12 6,9 °C 6,9 °C 90 % 1012,4 hPa 0,0 mm 6,6 km/h (2 Bft) SW 229 ° 0 min 0,000 mm 0,0 UV-I 0 W/m² 5,4 °C 5,7 °C 11,3 km/h (2 Bft)
30.12.2017 23:13 6,9 °C 6,9 °C 91 % 1012,3 hPa 0,0 mm 9,9 km/h (2 Bft) W-SW 256 ° 0 min 0,000 mm 0,0 UV-I 0 W/m² 5,5 °C 4,9 °C 17,7 km/h (3 Bft)
30.12.2017 23:14 6,9 °C 6,9 °C 90 % 1012,5 hPa 0,0 mm 9,5 km/h (2 Bft) W 261 ° 0 min 0,000 mm 0,0 UV-I 0 W/m² 5,4 °C 5,0 °C 19,3 km/h (3 Bft)
30.12.2017 23:15 6,9 °C 6,9 °C 90 % 1012,3 hPa 0,0 mm 14,9 km/h (3 Bft) W-SW 240 ° 0 min 0,000 mm 0,0 UV-I 0 W/m² 5,4 °C 4,1 °C 22,5 km/h (4 Bft)
30.12.2017 23:16 6,9 °C 6,9 °C 90 % 1012,4 hPa 0,0 mm 11,1 km/h (2 Bft) W 281 ° 0 min 0,000 mm 0,0 UV-I 0 W/m² 5,4 °C 4,7 °C 14,5 km/h (3 Bft)
30.12.2017 23:17 6,9 °C 6,9 °C 90 % 1012,3 hPa 0,0 mm 7,2 km/h (2 Bft) W 259 ° 0 min 0,000 mm 0,0 UV-I 0 W/m² 5,4 °C 5,6 °C 14,5 km/h (3 Bft)
30.12.2017 23:18 6,9 °C 7,0 °C 90 % 1012,4 hPa 0,0 mm 7,9 km/h (2 Bft) W 270 ° 0 min 0,000 mm 0,0 UV-I 0 W/m² 5,4 °C 5,4 °C 12,9 km/h (3 Bft)
30.12.2017 23:19 6,9 °C 6,9 °C 90 % 1012,4 hPa 0,0 mm 13,0 km/h (3 Bft) W-SW 238 ° 0 min 0,000 mm 0,0 UV-I 0 W/m² 5,4 °C 4,4 °C 19,3 km/h (3 Bft)
30.12.2017 23:20 6,9 °C 7,0 °C 90 % 1012,5 hPa 0,0 mm 13,7 km/h (3 Bft) W-SW 247 ° 0 min 0,000 mm 0,0 UV-I 0 W/m² 5,4 °C 4,3 °C 24,1 km/h (4 Bft)
30.12.2017 23:21 7,0 °C 7,0 °C 90 % 1012,4 hPa 0,0 mm 14,2 km/h (3 Bft) W 259 ° 0 min 0,000 mm 0,0 UV-I 0 W/m² 5,5 °C 4,3 °C 20,9 km/h (4 Bft)
30.12.2017 23:22 7,0 °C 7,0 °C 90 % 1012,5 hPa 0,0 mm 16,6 km/h (3 Bft) S-SW 213 ° 0 min 0,000 mm 0,0 UV-I 0 W/m² 5,5 °C 4,0 °C 29,0 km/h (5 Bft)
30.12.2017 23:23 7,0 °C 7,0 °C 90 % 1012,5 hPa 0,0 mm 13,8 km/h (3 Bft) W 277 ° 0 min 0,000 mm 0,0 UV-I 0 W/m² 5,5 °C 4,4 °C 19,3 km/h (3 Bft)
30.12.2017 23:24 7,0 °C 7,1 °C 90 % 1012,5 hPa 0,2 mm 15,2 km/h (3 Bft) W-SW 254 ° 0 min 0,000 mm 0,0 UV-I 0 W/m² 5,5 °C 4,2 °C 19,3 km/h (3 Bft)
30.12.2017 23:25 7,0 °C 7,0 °C 90 % 1012,5 hPa 0,0 mm 12,8 km/h (3 Bft) W 263 ° 0 min 0,000 mm 0,0 UV-I 0 W/m² 5,5 °C 4,5 °C 17,7 km/h (3 Bft)
30.12.2017 23:26 7,0 °C 7,0 °C 90 % 1012,5 hPa 0,0 mm 12,0 km/h (2 Bft) W 261 ° 0 min 0,000 mm 0,0 UV-I 0 W/m² 5,5 °C 4,7 °C 16,1 km/h (3 Bft)
30.12.2017 23:27 7,0 °C 7,1 °C 90 % 1012,6 hPa 0,0 mm 10,9 km/h (2 Bft) W 268 ° 0 min 0,000 mm 0,0 UV-I 0 W/m² 5,5 °C 4,9 °C 14,5 km/h (3 Bft)
30.12.2017 23:28 7,0 °C 7,1 °C 90 % 1012,7 hPa 0,0 mm 14,8 km/h (3 Bft) W-SW 253 ° 0 min 0,000 mm 0,0 UV-I 0 W/m² 5,5 °C 4,2 °C 25,7 km/h (4 Bft)
30.12.2017 23:29 7,0 °C 7,0 °C 90 % 1012,5 hPa 0,0 mm 14,9 km/h (3 Bft) W 268 ° 0 min 0,000 mm 0,0 UV-I 0 W/m² 5,5 °C 4,2 °C 25,7 km/h (4 Bft)
30.12.2017 23:30 7,1 °C 7,1 °C 90 % 1012,6 hPa 0,0 mm 16,5 km/h (3 Bft) W-SW 250 ° 0 min 0,000 mm 0,0 UV-I 0 W/m² 5,6 °C 4,1 °C 24,1 km/h (4 Bft)
30.12.2017 23:31 7,1 °C 7,1 °C 90 % 1012,7 hPa 0,0 mm 10,7 km/h (2 Bft) W 276 ° 0 min 0,000 mm 0,0 UV-I 0 W/m² 5,6 °C 5,0 °C 14,5 km/h (3 Bft)
30.12.2017 23:32 7,1 °C 7,1 °C 90 % 1012,7 hPa 0,0 mm 14,7 km/h (3 Bft) W 259 ° 0 min 0,000 mm 0,0 UV-I 0 W/m² 5,6 °C 4,4 °C 22,5 km/h (4 Bft)
30.12.2017 23:33 7,0 °C 7,1 °C 89 % 1012,6 hPa 0,0 mm 17,1 km/h (3 Bft) W 268 ° 0 min 0,000 mm 0,0 UV-I 0 W/m² 5,3 °C 3,9 °C 25,7 km/h (4 Bft)
30.12.2017 23:34 7,0 °C 7,1 °C 89 % 1012,7 hPa 0,0 mm 13,0 km/h (3 Bft) W-SW 246 ° 0 min 0,000 mm 0,0 UV-I 0 W/m² 5,3 °C 4,5 °C 17,7 km/h (3 Bft)
30.12.2017 23:35 7,0 °C 7,1 °C 89 % 1012,7 hPa 0,0 mm 11,5 km/h (2 Bft) W-SW 242 ° 0 min 0,000 mm 0,0 UV-I 0 W/m² 5,3 °C 4,8 °C 14,5 km/h (3 Bft)
30.12.2017 23:36 7,0 °C 7,0 °C 89 % 1012,7 hPa 0,0 mm 11,1 km/h (2 Bft) W 265 ° 0 min 0,000 mm 0,0 UV-I 0 W/m² 5,3 °C 4,8 °C 17,7 km/h (3 Bft)
30.12.2017 23:37 7,0 °C 7,0 °C 89 % 1012,7 hPa 0,0 mm 10,8 km/h (2 Bft) W 263 ° 0 min 0,000 mm 0,0 UV-I 0 W/m² 5,3 °C 4,9 °C 19,3 km/h (3 Bft)
30.12.2017 23:38 6,9 °C 7,0 °C 89 % 1012,7 hPa 0,0 mm 15,3 km/h (3 Bft) W-SW 246 ° 0 min 0,000 mm 0,0 UV-I 0 W/m² 5,2 °C 4,0 °C 22,5 km/h (4 Bft)
30.12.2017 23:39 7,0 °C 7,0 °C 90 % 1012,7 hPa 0,0 mm 14,2 km/h (3 Bft) W-NW 292 ° 0 min 0,000 mm 0,0 UV-I 0 W/m² 5,5 °C 4,3 °C 22,5 km/h (4 Bft)
30.12.2017 23:40 7,0 °C 7,0 °C 89 % 1012,8 hPa 0,0 mm 8,6 km/h (2 Bft) W 278 ° 0 min 0,000 mm 0,0 UV-I 0 W/m² 5,3 °C 5,3 °C 17,7 km/h (3 Bft)
30.12.2017 23:41 6,9 °C 7,0 °C 89 % 1012,7 hPa 0,0 mm 9,9 km/h (2 Bft) W-SW 246 ° 0 min 0,000 mm 0,0 UV-I 0 W/m² 5,2 °C 4,9 °C 16,1 km/h (3 Bft)
30.12.2017 23:42 6,9 °C 7,0 °C 89 % 1012,7 hPa 0,0 mm 8,2 km/h (2 Bft) SW 229 ° 0 min 0,000 mm 0,0 UV-I 0 W/m² 5,2 °C 5,3 °C 12,9 km/h (3 Bft)
30.12.2017 23:43 6,9 °C 7,0 °C 89 % 1012,8 hPa 0,0 mm 12,3 km/h (3 Bft) W-SW 258 ° 0 min 0,000 mm 0,0 UV-I 0 W/m² 5,2 °C 4,5 °C 19,3 km/h (3 Bft)
30.12.2017 23:44 7,0 °C 7,0 °C 89 % 1012,7 hPa 0,0 mm 20,3 km/h (4 Bft) W-SW 253 ° 0 min 0,000 mm 0,0 UV-I 0 W/m² 5,3 °C 3,6 °C 27,4 km/h (4 Bft)
30.12.2017 23:45 6,9 °C 7,0 °C 89 % 1012,7 hPa 0,0 mm 10,7 km/h (2 Bft) W 276 ° 0 min 0,000 mm 0,0 UV-I 0 W/m² 5,2 °C 4,8 °C 19,3 km/h (3 Bft)
30.12.2017 23:46 7,0 °C 7,0 °C 89 % 1012,8 hPa 0,2 mm 18,5 km/h (3 Bft) W 261 ° 0 min 0,000 mm 0,0 UV-I 0 W/m² 5,3 °C 3,8 °C 35,4 km/h (5 Bft)
30.12.2017 23:47 7,0 °C 7,0 °C 89 % 1012,8 hPa 0,0 mm 19,6 km/h (3 Bft) SW 235 ° 0 min 0,000 mm 0,0 UV-I 0 W/m² 5,3 °C 3,6 °C 27,4 km/h (4 Bft)
30.12.2017 23:48 7,0 °C 7,0 °C 89 % 1012,8 hPa 0,0 mm 10,8 km/h (2 Bft) W 263 ° 0 min 0,000 mm 0,0 UV-I 0 W/m² 5,3 °C 4,9 °C 14,5 km/h (3 Bft)
30.12.2017 23:49 7,1 °C 7,1 °C 89 % 1012,8 hPa 0,0 mm 11,1 km/h (2 Bft) W-SW 250 ° 0 min 0,000 mm 0,0 UV-I 0 W/m² 5,4 °C 5,0 °C 17,7 km/h (3 Bft)
30.12.2017 23:50 7,1 °C 7,1 °C 89 % 1012,8 hPa 0,0 mm 12,9 km/h (3 Bft) W 275 ° 0 min 0,000 mm 0,0 UV-I 0 W/m² 5,4 °C 4,7 °C 20,9 km/h (4 Bft)
30.12.2017 23:51 7,0 °C 7,1 °C 89 % 1012,9 hPa 0,0 mm 19,2 km/h (3 Bft) W 271 ° 0 min 0,000 mm 0,0 UV-I 0 W/m² 5,3 °C 3,7 °C 25,7 km/h (4 Bft)
30.12.2017 23:52 7,1 °C 7,1 °C 89 % 1012,9 hPa 0,0 mm 18,9 km/h (3 Bft) W 273 ° 0 min 0,000 mm 0,0 UV-I 0 W/m² 5,4 °C 3,8 °C 25,7 km/h (4 Bft)
30.12.2017 23:53 7,1 °C 7,1 °C 89 % 1012,8 hPa 0,0 mm 17,9 km/h (3 Bft) W-SW 258 ° 0 min 0,000 mm 0,0 UV-I 0 W/m² 5,4 °C 4,0 °C 30,6 km/h (5 Bft)
30.12.2017 23:54 7,1 °C 7,1 °C 89 % 1012,9 hPa 0,0 mm 17,0 km/h (3 Bft) NW 311 ° 0 min 0,000 mm 0,0 UV-I 0 W/m² 5,4 °C 4,1 °C 24,1 km/h (4 Bft)
30.12.2017 23:55 7,1 °C 7,1 °C 89 % 1012,8 hPa 0,0 mm 15,3 km/h (3 Bft) W-SW 252 ° 0 min 0,000 mm 0,0 UV-I 0 W/m² 5,4 °C 4,3 °C 22,5 km/h (4 Bft)
30.12.2017 23:56 7,1 °C 7,1 °C 89 % 1012,9 hPa 0,0 mm 14,6 km/h (3 Bft) W 259 ° 0 min 0,000 mm 0,0 UV-I 0 W/m² 5,4 °C 4,4 °C 19,3 km/h (3 Bft)
30.12.2017 23:57 7,1 °C 7,1 °C 89 % 1012,9 hPa 0,0 mm 9,8 km/h (2 Bft) W-SW 252 ° 0 min 0,000 mm 0,0 UV-I 0 W/m² 5,4 °C 5,2 °C 12,9 km/h (3 Bft)
30.12.2017 23:58 7,1 °C 7,1 °C 89 % 1013,0 hPa 0,0 mm 12,5 km/h (3 Bft) W-NW 287 ° 0 min 0,000 mm 0,0 UV-I 0 W/m² 5,4 °C 4,7 °C 19,3 km/h (3 Bft)
30.12.2017 23:59 7,1 °C 7,1 °C 89 % 1013,0 hPa 0,0 mm 12,5 km/h (3 Bft) W 269 ° 0 min 0,000 mm 0,0 UV-I 0 W/m² 5,4 °C 4,7 °C 29,0 km/h (5 Bft)
_ Min-Zeit 08:06 08:11 05:29 13:04 - 12:36 - - - - - - 07:49 00:15 12:36
Minimum _ -1,9 °C -1,8 °C 74 % 1007,8 hPa - 0,0 km/h (0 Bft) - - - - - - -3,9 °C -4,8 °C 0,0 km/h (0 Bft)
_ Max-Zeit 20:27 20:28 22:50 23:59 13:42 00:15 - - 23:59 20:01 13:30 11:49 20:36 19:06 01:14
Maximum _ 8,4 °C 8,4 °C 92 % 1013,0 hPa 0,4 mm 30,5 km/h
W-SW (5 Bft)
- - 0 min 0,026 mm 0,6 UV-I 93 W/m² 5,9 °C 7,4 °C 46,7 km/h
W-NW (6 Bft)
Durchschnitt _ 3,6 °C 3,6 °C 85 % 1011,0 hPa #16,2 mm 8,7 km/h (2 Bft) W - #0 min. #0,457 mm 0,5 UV-I 15 W/m² 1,3 °C 1,8 °C 13,4 km/h (3 Bft)